<?xml version="1.0" encoding="UTF-8" standalone="no" ?>
<gpx xmlns="http://www.topografix.com/GPX/1/1" xmlns:xsi="http://www.w3.org/2001/XMLSchema-instance" xsi:schemaLocation="http://www.topografix.com/GPX/1/1 http://www.topografix.com/GPX/1/1/gpx.xsd" version="1.1" creator="VisuGPX - https://www.visugpx.com">
  <metadata>
    <name>Circuit  depuis la bayonnaise K35 de 2018</name>
    <desc><![CDATA[Un circuit inspiré du circuit 35 km de La bayonnaise 2018 avec descente depuis les Vergeres par une nouvelle piste étonnante par sa largeur qui permet d'éviter les portions chameauteuse en sous bois qu'apprécieront les plus sportifs ]]></desc>
  </metadata>
  <trk>
    <name><![CDATA[N°  bayonnaise 2018 aménagée]]></name>
    <trkseg>
      <trkpt lat="44.33816" lon="6.16957">
        <ele>870.4000244</ele>
        <time>2018-08-17T07:53:11Z</time>
      </trkpt>
      <trkpt lat="44.33817" lon="6.16957">
        <ele>870.5999756</ele>
        <time>2018-08-17T07:53:12Z</time>
      </trkpt>
      <trkpt lat="44.33819" lon="6.16959">
        <ele>870.4000244</ele>
        <time>2018-08-17T07:53:56Z</time>
      </trkpt>
      <trkpt lat="44.33819" lon="6.1696">
        <ele>870.2000122</ele>
        <time>2018-08-17T07:54:42Z</time>
      </trkpt>
      <trkpt lat="44.33818" lon="6.1696">
        <ele>870.4000244</ele>
        <time>2018-08-17T07:55:14Z</time>
      </trkpt>
      <trkpt lat="44.33818" lon="6.1696">
        <ele>870</ele>
        <time>2018-08-17T07:56:51Z</time>
      </trkpt>
      <trkpt lat="44.33816" lon="6.16958">
        <ele>870</ele>
        <time>2018-08-17T07:57:17Z</time>
      </trkpt>
      <trkpt lat="44.33815" lon="6.16957">
        <ele>869.7999878</ele>
        <time>2018-08-17T07:57:46Z</time>
      </trkpt>
      <trkpt lat="44.33817" lon="6.16955">
        <ele>869.5999756</ele>
        <time>2018-08-17T07:58:25Z</time>
      </trkpt>
      <trkpt lat="44.33816" lon="6.1696">
        <ele>869.5999756</ele>
        <time>2018-08-17T07:58:35Z</time>
      </trkpt>
      <trkpt lat="44.33815" lon="6.16964">
        <ele>869.5999756</ele>
        <time>2018-08-17T07:58:55Z</time>
      </trkpt>
      <trkpt lat="44.33817" lon="6.16965">
        <ele>869.7999878</ele>
        <time>2018-08-17T07:59:24Z</time>
      </trkpt>
      <trkpt lat="44.3382" lon="6.16963">
        <ele>869.7999878</ele>
        <time>2018-08-17T07:59:26Z</time>
      </trkpt>
      <trkpt lat="44.33826" lon="6.16957">
        <ele>869.5999756</ele>
        <time>2018-08-17T07:59:30Z</time>
      </trkpt>
      <trkpt lat="44.33828" lon="6.16953">
        <ele>869.5999756</ele>
        <time>2018-08-17T07:59:31Z</time>
      </trkpt>
      <trkpt lat="44.33829" lon="6.16949">
        <ele>869.5999756</ele>
        <time>2018-08-17T07:59:32Z</time>
      </trkpt>
      <trkpt lat="44.33831" lon="6.16944">
        <ele>869.5999756</ele>
        <time>2018-08-17T07:59:33Z</time>
      </trkpt>
      <trkpt lat="44.33837" lon="6.16913">
        <ele>869.7999878</ele>
        <time>2018-08-17T07:59:42Z</time>
      </trkpt>
      <trkpt lat="44.33835" lon="6.16908">
        <ele>869.7999878</ele>
        <time>2018-08-17T07:59:43Z</time>
      </trkpt>
      <trkpt lat="44.33832" lon="6.16903">
        <ele>869.7999878</ele>
        <time>2018-08-17T07:59:44Z</time>
      </trkpt>
      <trkpt lat="44.33828" lon="6.169">
        <ele>869.7999878</ele>
        <time>2018-08-17T07:59:45Z</time>
      </trkpt>
      <trkpt lat="44.33825" lon="6.16895">
        <ele>869.7999878</ele>
        <time>2018-08-17T07:59:46Z</time>
      </trkpt>
      <trkpt lat="44.33821" lon="6.1689">
        <ele>869.7999878</ele>
        <time>2018-08-17T07:59:47Z</time>
      </trkpt>
      <trkpt lat="44.33819" lon="6.16884">
        <ele>869.7999878</ele>
        <time>2018-08-17T07:59:48Z</time>
      </trkpt>
      <trkpt lat="44.33816" lon="6.16878">
        <ele>869.5999756</ele>
        <time>2018-08-17T07:59:49Z</time>
      </trkpt>
      <trkpt lat="44.33807" lon="6.1685">
        <ele>869.5999756</ele>
        <time>2018-08-17T07:59:53Z</time>
      </trkpt>
      <trkpt lat="44.33806" lon="6.16842">
        <ele>869.5999756</ele>
        <time>2018-08-17T07:59:54Z</time>
      </trkpt>
      <trkpt lat="44.33806" lon="6.16833">
        <ele>869.4000244</ele>
        <time>2018-08-17T07:59:55Z</time>
      </trkpt>
      <trkpt lat="44.33806" lon="6.16824">
        <ele>869.4000244</ele>
        <time>2018-08-17T07:59:56Z</time>
      </trkpt>
      <trkpt lat="44.33807" lon="6.16815">
        <ele>869.2000122</ele>
        <time>2018-08-17T07:59:57Z</time>
      </trkpt>
      <trkpt lat="44.33808" lon="6.16806">
        <ele>869</ele>
        <time>2018-08-17T07:59:58Z</time>
      </trkpt>
      <trkpt lat="44.33832" lon="6.1669">
        <ele>867</ele>
        <time>2018-08-17T08:00:11Z</time>
      </trkpt>
      <trkpt lat="44.33855" lon="6.16571">
        <ele>865</ele>
        <time>2018-08-17T08:00:25Z</time>
      </trkpt>
      <trkpt lat="44.33858" lon="6.16533">
        <ele>864.5999756</ele>
        <time>2018-08-17T08:00:30Z</time>
      </trkpt>
      <trkpt lat="44.33857" lon="6.16526">
        <ele>864.5999756</ele>
        <time>2018-08-17T08:00:31Z</time>
      </trkpt>
      <trkpt lat="44.33857" lon="6.16519">
        <ele>864.5999756</ele>
        <time>2018-08-17T08:00:32Z</time>
      </trkpt>
      <trkpt lat="44.33855" lon="6.16512">
        <ele>864.5999756</ele>
        <time>2018-08-17T08:00:33Z</time>
      </trkpt>
      <trkpt lat="44.33854" lon="6.16506">
        <ele>864.5999756</ele>
        <time>2018-08-17T08:00:34Z</time>
      </trkpt>
      <trkpt lat="44.33828" lon="6.16421">
        <ele>865.4000244</ele>
        <time>2018-08-17T08:00:49Z</time>
      </trkpt>
      <trkpt lat="44.33805" lon="6.16349">
        <ele>866.7999878</ele>
        <time>2018-08-17T08:01:04Z</time>
      </trkpt>
      <trkpt lat="44.33783" lon="6.16299">
        <ele>869.4000244</ele>
        <time>2018-08-17T08:01:18Z</time>
      </trkpt>
      <trkpt lat="44.33759" lon="6.16248">
        <ele>872.5999756</ele>
        <time>2018-08-17T08:01:33Z</time>
      </trkpt>
      <trkpt lat="44.33727" lon="6.16191">
        <ele>873.7999878</ele>
        <time>2018-08-17T08:01:50Z</time>
      </trkpt>
      <trkpt lat="44.33715" lon="6.16181">
        <ele>874</ele>
        <time>2018-08-17T08:01:56Z</time>
      </trkpt>
      <trkpt lat="44.33714" lon="6.16179">
        <ele>874</ele>
        <time>2018-08-17T08:01:57Z</time>
      </trkpt>
      <trkpt lat="44.33712" lon="6.16175">
        <ele>873.7999878</ele>
        <time>2018-08-17T08:01:58Z</time>
      </trkpt>
      <trkpt lat="44.33709" lon="6.16171">
        <ele>873.7999878</ele>
        <time>2018-08-17T08:01:59Z</time>
      </trkpt>
      <trkpt lat="44.33706" lon="6.16166">
        <ele>873.7999878</ele>
        <time>2018-08-17T08:02:00Z</time>
      </trkpt>
      <trkpt lat="44.33678" lon="6.16108">
        <ele>870.5999756</ele>
        <time>2018-08-17T08:02:10Z</time>
      </trkpt>
      <trkpt lat="44.33663" lon="6.16063">
        <ele>867.2000122</ele>
        <time>2018-08-17T08:02:17Z</time>
      </trkpt>
      <trkpt lat="44.33657" lon="6.16042">
        <ele>865.4000244</ele>
        <time>2018-08-17T08:02:20Z</time>
      </trkpt>
      <trkpt lat="44.33651" lon="6.15995">
        <ele>862.2000122</ele>
        <time>2018-08-17T08:02:25Z</time>
      </trkpt>
      <trkpt lat="44.33643" lon="6.15927">
        <ele>859.2000122</ele>
        <time>2018-08-17T08:02:31Z</time>
      </trkpt>
      <trkpt lat="44.33633" lon="6.15869">
        <ele>857.4000244</ele>
        <time>2018-08-17T08:02:36Z</time>
      </trkpt>
      <trkpt lat="44.33628" lon="6.15817">
        <ele>855.5999756</ele>
        <time>2018-08-17T08:02:41Z</time>
      </trkpt>
      <trkpt lat="44.33626" lon="6.1581">
        <ele>855.4000244</ele>
        <time>2018-08-17T08:02:42Z</time>
      </trkpt>
      <trkpt lat="44.33623" lon="6.15804">
        <ele>855</ele>
        <time>2018-08-17T08:02:43Z</time>
      </trkpt>
      <trkpt lat="44.33619" lon="6.15798">
        <ele>854.7999878</ele>
        <time>2018-08-17T08:02:44Z</time>
      </trkpt>
      <trkpt lat="44.33613" lon="6.15791">
        <ele>854.4000244</ele>
        <time>2018-08-17T08:02:45Z</time>
      </trkpt>
      <trkpt lat="44.33607" lon="6.15784">
        <ele>854.2000122</ele>
        <time>2018-08-17T08:02:46Z</time>
      </trkpt>
      <trkpt lat="44.33581" lon="6.1575">
        <ele>853.2000122</ele>
        <time>2018-08-17T08:02:51Z</time>
      </trkpt>
      <trkpt lat="44.33576" lon="6.15743">
        <ele>853</ele>
        <time>2018-08-17T08:02:52Z</time>
      </trkpt>
      <trkpt lat="44.33572" lon="6.15735">
        <ele>853</ele>
        <time>2018-08-17T08:02:53Z</time>
      </trkpt>
      <trkpt lat="44.33546" lon="6.1568">
        <ele>851.2000122</ele>
        <time>2018-08-17T08:02:59Z</time>
      </trkpt>
      <trkpt lat="44.33543" lon="6.15672">
        <ele>850.7999878</ele>
        <time>2018-08-17T08:03:00Z</time>
      </trkpt>
      <trkpt lat="44.33541" lon="6.15663">
        <ele>850.4000244</ele>
        <time>2018-08-17T08:03:01Z</time>
      </trkpt>
      <trkpt lat="44.33536" lon="6.15647">
        <ele>849.4000244</ele>
        <time>2018-08-17T08:03:03Z</time>
      </trkpt>
      <trkpt lat="44.33533" lon="6.1564">
        <ele>848.5999756</ele>
        <time>2018-08-17T08:03:04Z</time>
      </trkpt>
      <trkpt lat="44.33529" lon="6.15634">
        <ele>847.7999878</ele>
        <time>2018-08-17T08:03:05Z</time>
      </trkpt>
      <trkpt lat="44.33524" lon="6.1563">
        <ele>847.2000122</ele>
        <time>2018-08-17T08:03:06Z</time>
      </trkpt>
      <trkpt lat="44.3352" lon="6.15626">
        <ele>846.5999756</ele>
        <time>2018-08-17T08:03:07Z</time>
      </trkpt>
      <trkpt lat="44.33511" lon="6.15618">
        <ele>843.4000244</ele>
        <time>2018-08-17T08:03:14Z</time>
      </trkpt>
      <trkpt lat="44.33505" lon="6.15612">
        <ele>841.4000244</ele>
        <time>2018-08-17T08:04:05Z</time>
      </trkpt>
      <trkpt lat="44.33504" lon="6.1561">
        <ele>841.4000244</ele>
        <time>2018-08-17T08:04:06Z</time>
      </trkpt>
      <trkpt lat="44.33503" lon="6.15607">
        <ele>841.4000244</ele>
        <time>2018-08-17T08:04:07Z</time>
      </trkpt>
      <trkpt lat="44.33502" lon="6.15604">
        <ele>841.4000244</ele>
        <time>2018-08-17T08:04:08Z</time>
      </trkpt>
      <trkpt lat="44.335" lon="6.15601">
        <ele>841.5999756</ele>
        <time>2018-08-17T08:04:09Z</time>
      </trkpt>
      <trkpt lat="44.33499" lon="6.15599">
        <ele>841.5999756</ele>
        <time>2018-08-17T08:04:10Z</time>
      </trkpt>
      <trkpt lat="44.33499" lon="6.15596">
        <ele>841.5999756</ele>
        <time>2018-08-17T08:04:11Z</time>
      </trkpt>
      <trkpt lat="44.33498" lon="6.15594">
        <ele>841.5999756</ele>
        <time>2018-08-17T08:04:12Z</time>
      </trkpt>
      <trkpt lat="44.33497" lon="6.15593">
        <ele>841.5999756</ele>
        <time>2018-08-17T08:04:14Z</time>
      </trkpt>
      <trkpt lat="44.33496" lon="6.15593">
        <ele>841.7999878</ele>
        <time>2018-08-17T08:04:28Z</time>
      </trkpt>
      <trkpt lat="44.335" lon="6.15596">
        <ele>841.7999878</ele>
        <time>2018-08-17T08:04:40Z</time>
      </trkpt>
      <trkpt lat="44.33504" lon="6.15603">
        <ele>842</ele>
        <time>2018-08-17T08:04:43Z</time>
      </trkpt>
      <trkpt lat="44.33506" lon="6.15606">
        <ele>842</ele>
        <time>2018-08-17T08:04:44Z</time>
      </trkpt>
      <trkpt lat="44.33508" lon="6.1561">
        <ele>842</ele>
        <time>2018-08-17T08:04:45Z</time>
      </trkpt>
      <trkpt lat="44.33511" lon="6.15613">
        <ele>842</ele>
        <time>2018-08-17T08:04:46Z</time>
      </trkpt>
      <trkpt lat="44.33513" lon="6.15616">
        <ele>842</ele>
        <time>2018-08-17T08:04:47Z</time>
      </trkpt>
      <trkpt lat="44.33521" lon="6.15619">
        <ele>842.2000122</ele>
        <time>2018-08-17T08:04:50Z</time>
      </trkpt>
      <trkpt lat="44.33524" lon="6.15617">
        <ele>842.4000244</ele>
        <time>2018-08-17T08:04:51Z</time>
      </trkpt>
      <trkpt lat="44.33527" lon="6.15612">
        <ele>842.4000244</ele>
        <time>2018-08-17T08:04:52Z</time>
      </trkpt>
      <trkpt lat="44.33529" lon="6.15605">
        <ele>842.4000244</ele>
        <time>2018-08-17T08:04:53Z</time>
      </trkpt>
      <trkpt lat="44.33532" lon="6.15597">
        <ele>842.4000244</ele>
        <time>2018-08-17T08:04:54Z</time>
      </trkpt>
      <trkpt lat="44.33537" lon="6.15573">
        <ele>842.5999756</ele>
        <time>2018-08-17T08:04:57Z</time>
      </trkpt>
      <trkpt lat="44.33539" lon="6.15566">
        <ele>842.5999756</ele>
        <time>2018-08-17T08:04:58Z</time>
      </trkpt>
      <trkpt lat="44.33541" lon="6.1556">
        <ele>842.5999756</ele>
        <time>2018-08-17T08:04:59Z</time>
      </trkpt>
      <trkpt lat="44.33541" lon="6.15555">
        <ele>842.5999756</ele>
        <time>2018-08-17T08:05:00Z</time>
      </trkpt>
      <trkpt lat="44.33542" lon="6.1555">
        <ele>842.5999756</ele>
        <time>2018-08-17T08:05:01Z</time>
      </trkpt>
      <trkpt lat="44.33543" lon="6.15545">
        <ele>842.5999756</ele>
        <time>2018-08-17T08:05:02Z</time>
      </trkpt>
      <trkpt lat="44.33544" lon="6.15539">
        <ele>842.5999756</ele>
        <time>2018-08-17T08:05:03Z</time>
      </trkpt>
      <trkpt lat="44.33545" lon="6.15534">
        <ele>842.5999756</ele>
        <time>2018-08-17T08:05:04Z</time>
      </trkpt>
      <trkpt lat="44.33546" lon="6.15527">
        <ele>842.5999756</ele>
        <time>2018-08-17T08:05:05Z</time>
      </trkpt>
      <trkpt lat="44.33554" lon="6.15466">
        <ele>841.2000122</ele>
        <time>2018-08-17T08:05:16Z</time>
      </trkpt>
      <trkpt lat="44.33556" lon="6.15463">
        <ele>841</ele>
        <time>2018-08-17T08:05:17Z</time>
      </trkpt>
      <trkpt lat="44.33558" lon="6.1546">
        <ele>841</ele>
        <time>2018-08-17T08:05:18Z</time>
      </trkpt>
      <trkpt lat="44.33561" lon="6.15459">
        <ele>840.7999878</ele>
        <time>2018-08-17T08:05:19Z</time>
      </trkpt>
      <trkpt lat="44.33564" lon="6.15459">
        <ele>840.7999878</ele>
        <time>2018-08-17T08:05:20Z</time>
      </trkpt>
      <trkpt lat="44.33567" lon="6.15459">
        <ele>840.7999878</ele>
        <time>2018-08-17T08:05:21Z</time>
      </trkpt>
      <trkpt lat="44.3357" lon="6.1546">
        <ele>840.7999878</ele>
        <time>2018-08-17T08:05:22Z</time>
      </trkpt>
      <trkpt lat="44.33573" lon="6.1546">
        <ele>840.7999878</ele>
        <time>2018-08-17T08:05:23Z</time>
      </trkpt>
      <trkpt lat="44.33576" lon="6.15459">
        <ele>840.7999878</ele>
        <time>2018-08-17T08:05:24Z</time>
      </trkpt>
      <trkpt lat="44.33578" lon="6.15459">
        <ele>840.7999878</ele>
        <time>2018-08-17T08:05:25Z</time>
      </trkpt>
      <trkpt lat="44.33581" lon="6.15457">
        <ele>840.7999878</ele>
        <time>2018-08-17T08:05:26Z</time>
      </trkpt>
      <trkpt lat="44.33583" lon="6.15453">
        <ele>840.7999878</ele>
        <time>2018-08-17T08:05:27Z</time>
      </trkpt>
      <trkpt lat="44.33585" lon="6.15449">
        <ele>840.7999878</ele>
        <time>2018-08-17T08:05:28Z</time>
      </trkpt>
      <trkpt lat="44.33585" lon="6.15444">
        <ele>840.7999878</ele>
        <time>2018-08-17T08:05:29Z</time>
      </trkpt>
      <trkpt lat="44.33585" lon="6.15439">
        <ele>841</ele>
        <time>2018-08-17T08:05:30Z</time>
      </trkpt>
      <trkpt lat="44.33585" lon="6.15434">
        <ele>841.2000122</ele>
        <time>2018-08-17T08:05:31Z</time>
      </trkpt>
      <trkpt lat="44.33586" lon="6.15429">
        <ele>841.5999756</ele>
        <time>2018-08-17T08:05:32Z</time>
      </trkpt>
      <trkpt lat="44.33585" lon="6.15387">
        <ele>844.5999756</ele>
        <time>2018-08-17T08:05:43Z</time>
      </trkpt>
      <trkpt lat="44.33585" lon="6.15341">
        <ele>847.4000244</ele>
        <time>2018-08-17T08:05:55Z</time>
      </trkpt>
      <trkpt lat="44.33555" lon="6.15296">
        <ele>848.2000122</ele>
        <time>2018-08-17T08:06:07Z</time>
      </trkpt>
      <trkpt lat="44.33548" lon="6.15291">
        <ele>848</ele>
        <time>2018-08-17T08:06:09Z</time>
      </trkpt>
      <trkpt lat="44.33545" lon="6.15288">
        <ele>847.7999878</ele>
        <time>2018-08-17T08:06:10Z</time>
      </trkpt>
      <trkpt lat="44.33531" lon="6.15262">
        <ele>847.5999756</ele>
        <time>2018-08-17T08:06:15Z</time>
      </trkpt>
      <trkpt lat="44.33525" lon="6.15245">
        <ele>847.4000244</ele>
        <time>2018-08-17T08:06:18Z</time>
      </trkpt>
      <trkpt lat="44.33522" lon="6.1524">
        <ele>847.4000244</ele>
        <time>2018-08-17T08:06:19Z</time>
      </trkpt>
      <trkpt lat="44.33516" lon="6.15229">
        <ele>847.4000244</ele>
        <time>2018-08-17T08:06:21Z</time>
      </trkpt>
      <trkpt lat="44.33512" lon="6.15225">
        <ele>847.4000244</ele>
        <time>2018-08-17T08:06:22Z</time>
      </trkpt>
      <trkpt lat="44.33473" lon="6.15176">
        <ele>846.7999878</ele>
        <time>2018-08-17T08:06:31Z</time>
      </trkpt>
      <trkpt lat="44.33469" lon="6.15169">
        <ele>846.7999878</ele>
        <time>2018-08-17T08:06:32Z</time>
      </trkpt>
      <trkpt lat="44.33464" lon="6.15161">
        <ele>846.7999878</ele>
        <time>2018-08-17T08:06:33Z</time>
      </trkpt>
      <trkpt lat="44.33399" lon="6.1506">
        <ele>843.7999878</ele>
        <time>2018-08-17T08:06:45Z</time>
      </trkpt>
      <trkpt lat="44.33331" lon="6.14961">
        <ele>841</ele>
        <time>2018-08-17T08:06:56Z</time>
      </trkpt>
      <trkpt lat="44.33311" lon="6.14937">
        <ele>839.4000244</ele>
        <time>2018-08-17T08:06:59Z</time>
      </trkpt>
      <trkpt lat="44.33306" lon="6.14927">
        <ele>839</ele>
        <time>2018-08-17T08:07:00Z</time>
      </trkpt>
      <trkpt lat="44.33292" lon="6.149">
        <ele>837.7999878</ele>
        <time>2018-08-17T08:07:03Z</time>
      </trkpt>
      <trkpt lat="44.33282" lon="6.14874">
        <ele>836.5999756</ele>
        <time>2018-08-17T08:07:06Z</time>
      </trkpt>
      <trkpt lat="44.33279" lon="6.14864">
        <ele>836.4000244</ele>
        <time>2018-08-17T08:07:07Z</time>
      </trkpt>
      <trkpt lat="44.33277" lon="6.14855">
        <ele>836</ele>
        <time>2018-08-17T08:07:08Z</time>
      </trkpt>
      <trkpt lat="44.33269" lon="6.14757">
        <ele>835.2000122</ele>
        <time>2018-08-17T08:07:19Z</time>
      </trkpt>
      <trkpt lat="44.33269" lon="6.14749">
        <ele>835.2000122</ele>
        <time>2018-08-17T08:07:20Z</time>
      </trkpt>
      <trkpt lat="44.33268" lon="6.14741">
        <ele>835.2000122</ele>
        <time>2018-08-17T08:07:21Z</time>
      </trkpt>
      <trkpt lat="44.33267" lon="6.14732">
        <ele>835.2000122</ele>
        <time>2018-08-17T08:07:22Z</time>
      </trkpt>
      <trkpt lat="44.33265" lon="6.14725">
        <ele>835.2000122</ele>
        <time>2018-08-17T08:07:23Z</time>
      </trkpt>
      <trkpt lat="44.33264" lon="6.14716">
        <ele>835.2000122</ele>
        <time>2018-08-17T08:07:24Z</time>
      </trkpt>
      <trkpt lat="44.33262" lon="6.14709">
        <ele>835.2000122</ele>
        <time>2018-08-17T08:07:25Z</time>
      </trkpt>
      <trkpt lat="44.33259" lon="6.14702">
        <ele>835.2000122</ele>
        <time>2018-08-17T08:07:26Z</time>
      </trkpt>
      <trkpt lat="44.33222" lon="6.14613">
        <ele>835.2000122</ele>
        <time>2018-08-17T08:07:40Z</time>
      </trkpt>
      <trkpt lat="44.33177" lon="6.14521">
        <ele>835</ele>
        <time>2018-08-17T08:07:55Z</time>
      </trkpt>
      <trkpt lat="44.33171" lon="6.14495">
        <ele>835</ele>
        <time>2018-08-17T08:07:58Z</time>
      </trkpt>
      <trkpt lat="44.33152" lon="6.14435">
        <ele>833.7999878</ele>
        <time>2018-08-17T08:08:05Z</time>
      </trkpt>
      <trkpt lat="44.33144" lon="6.14406">
        <ele>833.4000244</ele>
        <time>2018-08-17T08:08:08Z</time>
      </trkpt>
      <trkpt lat="44.33143" lon="6.14396">
        <ele>833.2000122</ele>
        <time>2018-08-17T08:08:09Z</time>
      </trkpt>
      <trkpt lat="44.33142" lon="6.14384">
        <ele>833</ele>
        <time>2018-08-17T08:08:10Z</time>
      </trkpt>
      <trkpt lat="44.33142" lon="6.14373">
        <ele>832.7999878</ele>
        <time>2018-08-17T08:08:11Z</time>
      </trkpt>
      <trkpt lat="44.33142" lon="6.14361">
        <ele>832.5999756</ele>
        <time>2018-08-17T08:08:12Z</time>
      </trkpt>
      <trkpt lat="44.33142" lon="6.14349">
        <ele>832.2000122</ele>
        <time>2018-08-17T08:08:13Z</time>
      </trkpt>
      <trkpt lat="44.33142" lon="6.14337">
        <ele>832.2000122</ele>
        <time>2018-08-17T08:08:14Z</time>
      </trkpt>
      <trkpt lat="44.3314" lon="6.14325">
        <ele>831.5999756</ele>
        <time>2018-08-17T08:08:15Z</time>
      </trkpt>
      <trkpt lat="44.33138" lon="6.14314">
        <ele>831.4000244</ele>
        <time>2018-08-17T08:08:16Z</time>
      </trkpt>
      <trkpt lat="44.33135" lon="6.14302">
        <ele>831</ele>
        <time>2018-08-17T08:08:17Z</time>
      </trkpt>
      <trkpt lat="44.33133" lon="6.14291">
        <ele>830.7999878</ele>
        <time>2018-08-17T08:08:18Z</time>
      </trkpt>
      <trkpt lat="44.33132" lon="6.14279">
        <ele>830.5999756</ele>
        <time>2018-08-17T08:08:19Z</time>
      </trkpt>
      <trkpt lat="44.33132" lon="6.14268">
        <ele>830.2000122</ele>
        <time>2018-08-17T08:08:20Z</time>
      </trkpt>
      <trkpt lat="44.33132" lon="6.14258">
        <ele>829.7999878</ele>
        <time>2018-08-17T08:08:21Z</time>
      </trkpt>
      <trkpt lat="44.3314" lon="6.14206">
        <ele>828</ele>
        <time>2018-08-17T08:08:26Z</time>
      </trkpt>
      <trkpt lat="44.33143" lon="6.14197">
        <ele>827.7999878</ele>
        <time>2018-08-17T08:08:27Z</time>
      </trkpt>
      <trkpt lat="44.33158" lon="6.14161">
        <ele>827.4000244</ele>
        <time>2018-08-17T08:08:31Z</time>
      </trkpt>
      <trkpt lat="44.3316" lon="6.14152">
        <ele>827.4000244</ele>
        <time>2018-08-17T08:08:32Z</time>
      </trkpt>
      <trkpt lat="44.33182" lon="6.1402">
        <ele>825.4000244</ele>
        <time>2018-08-17T08:08:48Z</time>
      </trkpt>
      <trkpt lat="44.33178" lon="6.13955">
        <ele>825.4000244</ele>
        <time>2018-08-17T08:08:57Z</time>
      </trkpt>
      <trkpt lat="44.33163" lon="6.13858">
        <ele>825.4000244</ele>
        <time>2018-08-17T08:09:11Z</time>
      </trkpt>
      <trkpt lat="44.33162" lon="6.13852">
        <ele>825.4000244</ele>
        <time>2018-08-17T08:09:12Z</time>
      </trkpt>
      <trkpt lat="44.33156" lon="6.13749">
        <ele>825.4000244</ele>
        <time>2018-08-17T08:09:27Z</time>
      </trkpt>
      <trkpt lat="44.3314" lon="6.13651">
        <ele>825.2000122</ele>
        <time>2018-08-17T08:09:42Z</time>
      </trkpt>
      <trkpt lat="44.33125" lon="6.13537">
        <ele>824.4000244</ele>
        <time>2018-08-17T08:09:58Z</time>
      </trkpt>
      <trkpt lat="44.3312" lon="6.13466">
        <ele>823.2000122</ele>
        <time>2018-08-17T08:10:07Z</time>
      </trkpt>
      <trkpt lat="44.33119" lon="6.13459">
        <ele>823</ele>
        <time>2018-08-17T08:10:08Z</time>
      </trkpt>
      <trkpt lat="44.33117" lon="6.13454">
        <ele>823</ele>
        <time>2018-08-17T08:10:09Z</time>
      </trkpt>
      <trkpt lat="44.33092" lon="6.1339">
        <ele>821.4000244</ele>
        <time>2018-08-17T08:10:21Z</time>
      </trkpt>
      <trkpt lat="44.33086" lon="6.13366">
        <ele>819.5999756</ele>
        <time>2018-08-17T08:10:29Z</time>
      </trkpt>
      <trkpt lat="44.33084" lon="6.13365">
        <ele>819.2000122</ele>
        <time>2018-08-17T08:10:30Z</time>
      </trkpt>
      <trkpt lat="44.33083" lon="6.13363">
        <ele>818.7999878</ele>
        <time>2018-08-17T08:10:31Z</time>
      </trkpt>
      <trkpt lat="44.33081" lon="6.13364">
        <ele>818.5999756</ele>
        <time>2018-08-17T08:10:32Z</time>
      </trkpt>
      <trkpt lat="44.33079" lon="6.13365">
        <ele>818.4000244</ele>
        <time>2018-08-17T08:10:33Z</time>
      </trkpt>
      <trkpt lat="44.33077" lon="6.13366">
        <ele>818.2000122</ele>
        <time>2018-08-17T08:10:34Z</time>
      </trkpt>
      <trkpt lat="44.33074" lon="6.13368">
        <ele>818</ele>
        <time>2018-08-17T08:10:35Z</time>
      </trkpt>
      <trkpt lat="44.33072" lon="6.13369">
        <ele>817.7999878</ele>
        <time>2018-08-17T08:10:36Z</time>
      </trkpt>
      <trkpt lat="44.3307" lon="6.13372">
        <ele>817.5999756</ele>
        <time>2018-08-17T08:10:37Z</time>
      </trkpt>
      <trkpt lat="44.33067" lon="6.13376">
        <ele>817.4000244</ele>
        <time>2018-08-17T08:10:38Z</time>
      </trkpt>
      <trkpt lat="44.33064" lon="6.13378">
        <ele>817.2000122</ele>
        <time>2018-08-17T08:10:39Z</time>
      </trkpt>
      <trkpt lat="44.33061" lon="6.13379">
        <ele>817.2000122</ele>
        <time>2018-08-17T08:10:40Z</time>
      </trkpt>
      <trkpt lat="44.33057" lon="6.13379">
        <ele>816.7999878</ele>
        <time>2018-08-17T08:10:41Z</time>
      </trkpt>
      <trkpt lat="44.33052" lon="6.13379">
        <ele>816.2000122</ele>
        <time>2018-08-17T08:10:42Z</time>
      </trkpt>
      <trkpt lat="44.33048" lon="6.13378">
        <ele>815.7999878</ele>
        <time>2018-08-17T08:10:43Z</time>
      </trkpt>
      <trkpt lat="44.33043" lon="6.13379">
        <ele>815.5999756</ele>
        <time>2018-08-17T08:10:44Z</time>
      </trkpt>
      <trkpt lat="44.33024" lon="6.13383">
        <ele>813.5999756</ele>
        <time>2018-08-17T08:10:48Z</time>
      </trkpt>
      <trkpt lat="44.3302" lon="6.13383">
        <ele>812.5999756</ele>
        <time>2018-08-17T08:10:49Z</time>
      </trkpt>
      <trkpt lat="44.33004" lon="6.13383">
        <ele>810.7999878</ele>
        <time>2018-08-17T08:10:53Z</time>
      </trkpt>
      <trkpt lat="44.33" lon="6.13384">
        <ele>810.2000122</ele>
        <time>2018-08-17T08:10:54Z</time>
      </trkpt>
      <trkpt lat="44.32998" lon="6.13387">
        <ele>809.7999878</ele>
        <time>2018-08-17T08:10:55Z</time>
      </trkpt>
      <trkpt lat="44.32995" lon="6.1339">
        <ele>809.4000244</ele>
        <time>2018-08-17T08:10:56Z</time>
      </trkpt>
      <trkpt lat="44.32993" lon="6.13395">
        <ele>809</ele>
        <time>2018-08-17T08:10:57Z</time>
      </trkpt>
      <trkpt lat="44.32992" lon="6.134">
        <ele>808.4000244</ele>
        <time>2018-08-17T08:10:58Z</time>
      </trkpt>
      <trkpt lat="44.32991" lon="6.13405">
        <ele>808</ele>
        <time>2018-08-17T08:10:59Z</time>
      </trkpt>
      <trkpt lat="44.32969" lon="6.13458">
        <ele>805.5999756</ele>
        <time>2018-08-17T08:11:12Z</time>
      </trkpt>
      <trkpt lat="44.32942" lon="6.13497">
        <ele>806.7999878</ele>
        <time>2018-08-17T08:11:26Z</time>
      </trkpt>
      <trkpt lat="44.32941" lon="6.13491">
        <ele>806.2000122</ele>
        <time>2018-08-17T08:12:01Z</time>
      </trkpt>
      <trkpt lat="44.3293" lon="6.13489">
        <ele>806.4000244</ele>
        <time>2018-08-17T08:12:09Z</time>
      </trkpt>
      <trkpt lat="44.32926" lon="6.13491">
        <ele>806.4000244</ele>
        <time>2018-08-17T08:12:10Z</time>
      </trkpt>
      <trkpt lat="44.32923" lon="6.13493">
        <ele>806.4000244</ele>
        <time>2018-08-17T08:12:11Z</time>
      </trkpt>
      <trkpt lat="44.3292" lon="6.13497">
        <ele>806.4000244</ele>
        <time>2018-08-17T08:12:12Z</time>
      </trkpt>
      <trkpt lat="44.32917" lon="6.135">
        <ele>806.4000244</ele>
        <time>2018-08-17T08:12:13Z</time>
      </trkpt>
      <trkpt lat="44.32915" lon="6.13504">
        <ele>806.4000244</ele>
        <time>2018-08-17T08:12:14Z</time>
      </trkpt>
      <trkpt lat="44.32887" lon="6.13535">
        <ele>806.5999756</ele>
        <time>2018-08-17T08:12:27Z</time>
      </trkpt>
      <trkpt lat="44.3286" lon="6.13571">
        <ele>809.4000244</ele>
        <time>2018-08-17T08:12:42Z</time>
      </trkpt>
      <trkpt lat="44.32844" lon="6.13595">
        <ele>812.4000244</ele>
        <time>2018-08-17T08:12:53Z</time>
      </trkpt>
      <trkpt lat="44.32829" lon="6.13625">
        <ele>815.5999756</ele>
        <time>2018-08-17T08:13:06Z</time>
      </trkpt>
      <trkpt lat="44.32819" lon="6.13643">
        <ele>817.4000244</ele>
        <time>2018-08-17T08:13:15Z</time>
      </trkpt>
      <trkpt lat="44.32818" lon="6.13645">
        <ele>817.5999756</ele>
        <time>2018-08-17T08:13:16Z</time>
      </trkpt>
      <trkpt lat="44.32817" lon="6.13647">
        <ele>817.7999878</ele>
        <time>2018-08-17T08:13:17Z</time>
      </trkpt>
      <trkpt lat="44.32816" lon="6.13649">
        <ele>818</ele>
        <time>2018-08-17T08:13:18Z</time>
      </trkpt>
      <trkpt lat="44.32814" lon="6.13651">
        <ele>818.2000122</ele>
        <time>2018-08-17T08:13:19Z</time>
      </trkpt>
      <trkpt lat="44.32814" lon="6.13654">
        <ele>818.4000244</ele>
        <time>2018-08-17T08:13:20Z</time>
      </trkpt>
      <trkpt lat="44.32813" lon="6.13656">
        <ele>818.7999878</ele>
        <time>2018-08-17T08:13:21Z</time>
      </trkpt>
      <trkpt lat="44.32812" lon="6.13658">
        <ele>819</ele>
        <time>2018-08-17T08:13:22Z</time>
      </trkpt>
      <trkpt lat="44.3281" lon="6.1366">
        <ele>819.2000122</ele>
        <time>2018-08-17T08:13:23Z</time>
      </trkpt>
      <trkpt lat="44.3281" lon="6.13661">
        <ele>819.5999756</ele>
        <time>2018-08-17T08:13:24Z</time>
      </trkpt>
      <trkpt lat="44.32808" lon="6.13664">
        <ele>819.7999878</ele>
        <time>2018-08-17T08:13:25Z</time>
      </trkpt>
      <trkpt lat="44.32807" lon="6.13666">
        <ele>820</ele>
        <time>2018-08-17T08:13:26Z</time>
      </trkpt>
      <trkpt lat="44.32789" lon="6.1369">
        <ele>822.4000244</ele>
        <time>2018-08-17T08:13:39Z</time>
      </trkpt>
      <trkpt lat="44.32776" lon="6.13701">
        <ele>824.4000244</ele>
        <time>2018-08-17T08:13:48Z</time>
      </trkpt>
      <trkpt lat="44.32774" lon="6.13702">
        <ele>824.5999756</ele>
        <time>2018-08-17T08:13:49Z</time>
      </trkpt>
      <trkpt lat="44.32743" lon="6.13718">
        <ele>827.2000122</ele>
        <time>2018-08-17T08:14:04Z</time>
      </trkpt>
      <trkpt lat="44.32714" lon="6.13733">
        <ele>830.4000244</ele>
        <time>2018-08-17T08:14:20Z</time>
      </trkpt>
      <trkpt lat="44.32713" lon="6.13735">
        <ele>830.5999756</ele>
        <time>2018-08-17T08:14:21Z</time>
      </trkpt>
      <trkpt lat="44.32691" lon="6.13769">
        <ele>834</ele>
        <time>2018-08-17T08:14:37Z</time>
      </trkpt>
      <trkpt lat="44.3269" lon="6.13804">
        <ele>836.4000244</ele>
        <time>2018-08-17T08:14:50Z</time>
      </trkpt>
      <trkpt lat="44.32688" lon="6.13837">
        <ele>838.7999878</ele>
        <time>2018-08-17T08:15:04Z</time>
      </trkpt>
      <trkpt lat="44.32683" lon="6.1387">
        <ele>841.4000244</ele>
        <time>2018-08-17T08:15:18Z</time>
      </trkpt>
      <trkpt lat="44.32695" lon="6.13907">
        <ele>844.5999756</ele>
        <time>2018-08-17T08:15:35Z</time>
      </trkpt>
      <trkpt lat="44.32696" lon="6.1394">
        <ele>846.4000244</ele>
        <time>2018-08-17T08:15:49Z</time>
      </trkpt>
      <trkpt lat="44.3269" lon="6.13975">
        <ele>848.7999878</ele>
        <time>2018-08-17T08:16:03Z</time>
      </trkpt>
      <trkpt lat="44.32689" lon="6.13977">
        <ele>848.7999878</ele>
        <time>2018-08-17T08:16:04Z</time>
      </trkpt>
      <trkpt lat="44.32688" lon="6.13979">
        <ele>849</ele>
        <time>2018-08-17T08:16:05Z</time>
      </trkpt>
      <trkpt lat="44.32685" lon="6.13982">
        <ele>849.5999756</ele>
        <time>2018-08-17T08:16:08Z</time>
      </trkpt>
      <trkpt lat="44.32684" lon="6.13983">
        <ele>849.7999878</ele>
        <time>2018-08-17T08:16:09Z</time>
      </trkpt>
      <trkpt lat="44.32657" lon="6.13985">
        <ele>852.5999756</ele>
        <time>2018-08-17T08:16:24Z</time>
      </trkpt>
      <trkpt lat="44.32631" lon="6.13972">
        <ele>855.2000122</ele>
        <time>2018-08-17T08:16:39Z</time>
      </trkpt>
      <trkpt lat="44.32604" lon="6.13954">
        <ele>857.5999756</ele>
        <time>2018-08-17T08:16:56Z</time>
      </trkpt>
      <trkpt lat="44.32579" lon="6.13932">
        <ele>859.5999756</ele>
        <time>2018-08-17T08:17:12Z</time>
      </trkpt>
      <trkpt lat="44.32557" lon="6.13926">
        <ele>861.4000244</ele>
        <time>2018-08-17T08:17:25Z</time>
      </trkpt>
      <trkpt lat="44.32537" lon="6.13939">
        <ele>864</ele>
        <time>2018-08-17T08:17:39Z</time>
      </trkpt>
      <trkpt lat="44.32511" lon="6.13928">
        <ele>865.7999878</ele>
        <time>2018-08-17T08:17:54Z</time>
      </trkpt>
      <trkpt lat="44.32489" lon="6.13905">
        <ele>868.5999756</ele>
        <time>2018-08-17T08:18:11Z</time>
      </trkpt>
      <trkpt lat="44.32463" lon="6.13896">
        <ele>871.2000122</ele>
        <time>2018-08-17T08:18:28Z</time>
      </trkpt>
      <trkpt lat="44.32437" lon="6.1391">
        <ele>874</ele>
        <time>2018-08-17T08:18:46Z</time>
      </trkpt>
      <trkpt lat="44.32405" lon="6.13899">
        <ele>876.7999878</ele>
        <time>2018-08-17T08:19:03Z</time>
      </trkpt>
      <trkpt lat="44.32384" lon="6.13892">
        <ele>878.4000244</ele>
        <time>2018-08-17T08:19:16Z</time>
      </trkpt>
      <trkpt lat="44.32363" lon="6.13888">
        <ele>880.2000122</ele>
        <time>2018-08-17T08:19:28Z</time>
      </trkpt>
      <trkpt lat="44.3234" lon="6.13883">
        <ele>881.7999878</ele>
        <time>2018-08-17T08:19:41Z</time>
      </trkpt>
      <trkpt lat="44.32314" lon="6.13871">
        <ele>883.7999878</ele>
        <time>2018-08-17T08:19:55Z</time>
      </trkpt>
      <trkpt lat="44.32313" lon="6.1387">
        <ele>884</ele>
        <time>2018-08-17T08:19:56Z</time>
      </trkpt>
      <trkpt lat="44.32313" lon="6.13866">
        <ele>884.2000122</ele>
        <time>2018-08-17T08:19:58Z</time>
      </trkpt>
      <trkpt lat="44.32313" lon="6.13861">
        <ele>884.4000244</ele>
        <time>2018-08-17T08:20:00Z</time>
      </trkpt>
      <trkpt lat="44.32311" lon="6.1386">
        <ele>884.5999756</ele>
        <time>2018-08-17T08:20:01Z</time>
      </trkpt>
      <trkpt lat="44.32308" lon="6.13858">
        <ele>884.5999756</ele>
        <time>2018-08-17T08:20:02Z</time>
      </trkpt>
      <trkpt lat="44.32305" lon="6.13855">
        <ele>885</ele>
        <time>2018-08-17T08:20:04Z</time>
      </trkpt>
      <trkpt lat="44.3228" lon="6.13827">
        <ele>887</ele>
        <time>2018-08-17T08:20:20Z</time>
      </trkpt>
      <trkpt lat="44.32254" lon="6.13814">
        <ele>888.4000244</ele>
        <time>2018-08-17T08:20:34Z</time>
      </trkpt>
      <trkpt lat="44.32227" lon="6.13809">
        <ele>890.7999878</ele>
        <time>2018-08-17T08:20:49Z</time>
      </trkpt>
      <trkpt lat="44.32226" lon="6.1381">
        <ele>890.7999878</ele>
        <time>2018-08-17T08:20:50Z</time>
      </trkpt>
      <trkpt lat="44.32207" lon="6.1381">
        <ele>892.7999878</ele>
        <time>2018-08-17T08:21:00Z</time>
      </trkpt>
      <trkpt lat="44.32201" lon="6.13811">
        <ele>893.4000244</ele>
        <time>2018-08-17T08:21:03Z</time>
      </trkpt>
      <trkpt lat="44.322" lon="6.13815">
        <ele>893.5999756</ele>
        <time>2018-08-17T08:21:04Z</time>
      </trkpt>
      <trkpt lat="44.32183" lon="6.13839">
        <ele>896.5999756</ele>
        <time>2018-08-17T08:21:20Z</time>
      </trkpt>
      <trkpt lat="44.32183" lon="6.13842">
        <ele>896.7999878</ele>
        <time>2018-08-17T08:21:21Z</time>
      </trkpt>
      <trkpt lat="44.32182" lon="6.13845">
        <ele>897</ele>
        <time>2018-08-17T08:21:22Z</time>
      </trkpt>
      <trkpt lat="44.32182" lon="6.13847">
        <ele>897.2000122</ele>
        <time>2018-08-17T08:21:23Z</time>
      </trkpt>
      <trkpt lat="44.32181" lon="6.13847">
        <ele>897.4000244</ele>
        <time>2018-08-17T08:21:24Z</time>
      </trkpt>
      <trkpt lat="44.3218" lon="6.13844">
        <ele>897.5999756</ele>
        <time>2018-08-17T08:21:25Z</time>
      </trkpt>
      <trkpt lat="44.32179" lon="6.13843">
        <ele>897.7999878</ele>
        <time>2018-08-17T08:21:26Z</time>
      </trkpt>
      <trkpt lat="44.32178" lon="6.13845">
        <ele>898</ele>
        <time>2018-08-17T08:21:27Z</time>
      </trkpt>
      <trkpt lat="44.32165" lon="6.13863">
        <ele>900.2000122</ele>
        <time>2018-08-17T08:21:39Z</time>
      </trkpt>
      <trkpt lat="44.32163" lon="6.13865">
        <ele>900.4000244</ele>
        <time>2018-08-17T08:21:40Z</time>
      </trkpt>
      <trkpt lat="44.32162" lon="6.13866">
        <ele>900.4000244</ele>
        <time>2018-08-17T08:21:41Z</time>
      </trkpt>
      <trkpt lat="44.32151" lon="6.13879">
        <ele>902.7999878</ele>
        <time>2018-08-17T08:21:53Z</time>
      </trkpt>
      <trkpt lat="44.3215" lon="6.13882">
        <ele>903.2000122</ele>
        <time>2018-08-17T08:21:55Z</time>
      </trkpt>
      <trkpt lat="44.32147" lon="6.13882">
        <ele>903.4000244</ele>
        <time>2018-08-17T08:21:56Z</time>
      </trkpt>
      <trkpt lat="44.32146" lon="6.13884">
        <ele>903.5999756</ele>
        <time>2018-08-17T08:21:57Z</time>
      </trkpt>
      <trkpt lat="44.32146" lon="6.13885">
        <ele>903.7999878</ele>
        <time>2018-08-17T08:21:58Z</time>
      </trkpt>
      <trkpt lat="44.32145" lon="6.13887">
        <ele>904</ele>
        <time>2018-08-17T08:21:59Z</time>
      </trkpt>
      <trkpt lat="44.32144" lon="6.13889">
        <ele>904</ele>
        <time>2018-08-17T08:22:00Z</time>
      </trkpt>
      <trkpt lat="44.32143" lon="6.1389">
        <ele>904</ele>
        <time>2018-08-17T08:22:01Z</time>
      </trkpt>
      <trkpt lat="44.3214" lon="6.13895">
        <ele>904.5999756</ele>
        <time>2018-08-17T08:22:04Z</time>
      </trkpt>
      <trkpt lat="44.32139" lon="6.13897">
        <ele>904.7999878</ele>
        <time>2018-08-17T08:22:05Z</time>
      </trkpt>
      <trkpt lat="44.32134" lon="6.13904">
        <ele>905.4000244</ele>
        <time>2018-08-17T08:22:10Z</time>
      </trkpt>
      <trkpt lat="44.32133" lon="6.13905">
        <ele>905.5999756</ele>
        <time>2018-08-17T08:22:11Z</time>
      </trkpt>
      <trkpt lat="44.32132" lon="6.13906">
        <ele>905.7999878</ele>
        <time>2018-08-17T08:22:12Z</time>
      </trkpt>
      <trkpt lat="44.3213" lon="6.13907">
        <ele>906</ele>
        <time>2018-08-17T08:22:13Z</time>
      </trkpt>
      <trkpt lat="44.32129" lon="6.13909">
        <ele>906.4000244</ele>
        <time>2018-08-17T08:22:14Z</time>
      </trkpt>
      <trkpt lat="44.32127" lon="6.1391">
        <ele>906.5999756</ele>
        <time>2018-08-17T08:22:15Z</time>
      </trkpt>
      <trkpt lat="44.32126" lon="6.13912">
        <ele>906.7999878</ele>
        <time>2018-08-17T08:22:16Z</time>
      </trkpt>
      <trkpt lat="44.32126" lon="6.13915">
        <ele>907</ele>
        <time>2018-08-17T08:22:17Z</time>
      </trkpt>
      <trkpt lat="44.32125" lon="6.13917">
        <ele>907.2000122</ele>
        <time>2018-08-17T08:22:18Z</time>
      </trkpt>
      <trkpt lat="44.32117" lon="6.13937">
        <ele>908.7999878</ele>
        <time>2018-08-17T08:22:28Z</time>
      </trkpt>
      <trkpt lat="44.32115" lon="6.13938">
        <ele>909</ele>
        <time>2018-08-17T08:22:29Z</time>
      </trkpt>
      <trkpt lat="44.32113" lon="6.13939">
        <ele>909.2000122</ele>
        <time>2018-08-17T08:22:30Z</time>
      </trkpt>
      <trkpt lat="44.32112" lon="6.13941">
        <ele>909.4000244</ele>
        <time>2018-08-17T08:22:31Z</time>
      </trkpt>
      <trkpt lat="44.32111" lon="6.13942">
        <ele>909.5999756</ele>
        <time>2018-08-17T08:22:32Z</time>
      </trkpt>
      <trkpt lat="44.32098" lon="6.13971">
        <ele>912</ele>
        <time>2018-08-17T08:22:47Z</time>
      </trkpt>
      <trkpt lat="44.32092" lon="6.13991">
        <ele>913.5999756</ele>
        <time>2018-08-17T08:22:57Z</time>
      </trkpt>
      <trkpt lat="44.32084" lon="6.14024">
        <ele>916.7999878</ele>
        <time>2018-08-17T08:23:14Z</time>
      </trkpt>
      <trkpt lat="44.32077" lon="6.14061">
        <ele>919.5999756</ele>
        <time>2018-08-17T08:23:30Z</time>
      </trkpt>
      <trkpt lat="44.32073" lon="6.14091">
        <ele>922.7999878</ele>
        <time>2018-08-17T08:23:44Z</time>
      </trkpt>
      <trkpt lat="44.32068" lon="6.1412">
        <ele>925.5999756</ele>
        <time>2018-08-17T08:23:58Z</time>
      </trkpt>
      <trkpt lat="44.32066" lon="6.14124">
        <ele>926.2000122</ele>
        <time>2018-08-17T08:24:00Z</time>
      </trkpt>
      <trkpt lat="44.32065" lon="6.14125">
        <ele>926.4000244</ele>
        <time>2018-08-17T08:24:01Z</time>
      </trkpt>
      <trkpt lat="44.32065" lon="6.14127">
        <ele>926.4000244</ele>
        <time>2018-08-17T08:24:02Z</time>
      </trkpt>
      <trkpt lat="44.32043" lon="6.14147">
        <ele>928.7999878</ele>
        <time>2018-08-17T08:24:19Z</time>
      </trkpt>
      <trkpt lat="44.32015" lon="6.14162">
        <ele>931.2000122</ele>
        <time>2018-08-17T08:24:38Z</time>
      </trkpt>
      <trkpt lat="44.32009" lon="6.14176">
        <ele>933</ele>
        <time>2018-08-17T08:24:46Z</time>
      </trkpt>
      <trkpt lat="44.32007" lon="6.14177">
        <ele>933.2000122</ele>
        <time>2018-08-17T08:24:47Z</time>
      </trkpt>
      <trkpt lat="44.31998" lon="6.14191">
        <ele>934.4000244</ele>
        <time>2018-08-17T08:24:55Z</time>
      </trkpt>
      <trkpt lat="44.31998" lon="6.14194">
        <ele>934.5999756</ele>
        <time>2018-08-17T08:24:56Z</time>
      </trkpt>
      <trkpt lat="44.31997" lon="6.14196">
        <ele>934.7999878</ele>
        <time>2018-08-17T08:24:57Z</time>
      </trkpt>
      <trkpt lat="44.31997" lon="6.14198">
        <ele>934.7999878</ele>
        <time>2018-08-17T08:24:58Z</time>
      </trkpt>
      <trkpt lat="44.31996" lon="6.142">
        <ele>935</ele>
        <time>2018-08-17T08:24:59Z</time>
      </trkpt>
      <trkpt lat="44.31996" lon="6.14202">
        <ele>935</ele>
        <time>2018-08-17T08:25:00Z</time>
      </trkpt>
      <trkpt lat="44.3199" lon="6.14237">
        <ele>938</ele>
        <time>2018-08-17T08:25:16Z</time>
      </trkpt>
      <trkpt lat="44.3198" lon="6.14262">
        <ele>940.5999756</ele>
        <time>2018-08-17T08:25:30Z</time>
      </trkpt>
      <trkpt lat="44.31979" lon="6.14263">
        <ele>940.7999878</ele>
        <time>2018-08-17T08:25:31Z</time>
      </trkpt>
      <trkpt lat="44.31978" lon="6.14265">
        <ele>941</ele>
        <time>2018-08-17T08:25:32Z</time>
      </trkpt>
      <trkpt lat="44.31977" lon="6.14266">
        <ele>941.2000122</ele>
        <time>2018-08-17T08:25:33Z</time>
      </trkpt>
      <trkpt lat="44.31976" lon="6.14268">
        <ele>941.4000244</ele>
        <time>2018-08-17T08:25:34Z</time>
      </trkpt>
      <trkpt lat="44.31972" lon="6.14272">
        <ele>942</ele>
        <time>2018-08-17T08:25:37Z</time>
      </trkpt>
      <trkpt lat="44.3197" lon="6.14273">
        <ele>942.2000122</ele>
        <time>2018-08-17T08:25:38Z</time>
      </trkpt>
      <trkpt lat="44.31969" lon="6.14273">
        <ele>942.4000244</ele>
        <time>2018-08-17T08:25:39Z</time>
      </trkpt>
      <trkpt lat="44.31967" lon="6.14274">
        <ele>942.4000244</ele>
        <time>2018-08-17T08:25:40Z</time>
      </trkpt>
      <trkpt lat="44.31966" lon="6.14275">
        <ele>944</ele>
        <time>2018-08-17T08:25:54Z</time>
      </trkpt>
      <trkpt lat="44.31965" lon="6.14277">
        <ele>944.2000122</ele>
        <time>2018-08-17T08:26:19Z</time>
      </trkpt>
      <trkpt lat="44.31964" lon="6.14277">
        <ele>944.7999878</ele>
        <time>2018-08-17T08:26:44Z</time>
      </trkpt>
      <trkpt lat="44.31962" lon="6.14277">
        <ele>944.7999878</ele>
        <time>2018-08-17T08:27:45Z</time>
      </trkpt>
      <trkpt lat="44.31954" lon="6.14276">
        <ele>945</ele>
        <time>2018-08-17T08:28:00Z</time>
      </trkpt>
      <trkpt lat="44.31945" lon="6.14279">
        <ele>945.4000244</ele>
        <time>2018-08-17T08:28:26Z</time>
      </trkpt>
      <trkpt lat="44.31943" lon="6.14279">
        <ele>945.4000244</ele>
        <time>2018-08-17T08:28:27Z</time>
      </trkpt>
      <trkpt lat="44.31941" lon="6.14279">
        <ele>945.4000244</ele>
        <time>2018-08-17T08:28:28Z</time>
      </trkpt>
      <trkpt lat="44.31938" lon="6.14279">
        <ele>945.4000244</ele>
        <time>2018-08-17T08:28:29Z</time>
      </trkpt>
      <trkpt lat="44.31937" lon="6.1428">
        <ele>945.4000244</ele>
        <time>2018-08-17T08:28:30Z</time>
      </trkpt>
      <trkpt lat="44.31936" lon="6.14281">
        <ele>945.4000244</ele>
        <time>2018-08-17T08:28:31Z</time>
      </trkpt>
      <trkpt lat="44.31934" lon="6.14283">
        <ele>945.4000244</ele>
        <time>2018-08-17T08:28:32Z</time>
      </trkpt>
      <trkpt lat="44.31932" lon="6.14285">
        <ele>945.5999756</ele>
        <time>2018-08-17T08:28:33Z</time>
      </trkpt>
      <trkpt lat="44.31931" lon="6.14287">
        <ele>945.5999756</ele>
        <time>2018-08-17T08:28:34Z</time>
      </trkpt>
      <trkpt lat="44.3193" lon="6.14289">
        <ele>945.7999878</ele>
        <time>2018-08-17T08:28:35Z</time>
      </trkpt>
      <trkpt lat="44.31929" lon="6.14292">
        <ele>946.2000122</ele>
        <time>2018-08-17T08:28:36Z</time>
      </trkpt>
      <trkpt lat="44.31912" lon="6.14327">
        <ele>949.2000122</ele>
        <time>2018-08-17T08:28:52Z</time>
      </trkpt>
      <trkpt lat="44.31896" lon="6.14357">
        <ele>952.2000122</ele>
        <time>2018-08-17T08:29:07Z</time>
      </trkpt>
      <trkpt lat="44.31875" lon="6.14397">
        <ele>955</ele>
        <time>2018-08-17T08:29:25Z</time>
      </trkpt>
      <trkpt lat="44.31863" lon="6.14435">
        <ele>958</ele>
        <time>2018-08-17T08:29:40Z</time>
      </trkpt>
      <trkpt lat="44.31845" lon="6.14467">
        <ele>961.2000122</ele>
        <time>2018-08-17T08:29:55Z</time>
      </trkpt>
      <trkpt lat="44.31823" lon="6.14496">
        <ele>964</ele>
        <time>2018-08-17T08:30:11Z</time>
      </trkpt>
      <trkpt lat="44.3181" lon="6.14525">
        <ele>965.5999756</ele>
        <time>2018-08-17T08:30:24Z</time>
      </trkpt>
      <trkpt lat="44.31809" lon="6.14526">
        <ele>965.7999878</ele>
        <time>2018-08-17T08:30:25Z</time>
      </trkpt>
      <trkpt lat="44.31807" lon="6.14527">
        <ele>966</ele>
        <time>2018-08-17T08:30:26Z</time>
      </trkpt>
      <trkpt lat="44.31806" lon="6.14528">
        <ele>966.2000122</ele>
        <time>2018-08-17T08:30:27Z</time>
      </trkpt>
      <trkpt lat="44.31804" lon="6.14527">
        <ele>966.2000122</ele>
        <time>2018-08-17T08:30:28Z</time>
      </trkpt>
      <trkpt lat="44.31803" lon="6.14525">
        <ele>966.4000244</ele>
        <time>2018-08-17T08:30:29Z</time>
      </trkpt>
      <trkpt lat="44.31802" lon="6.145">
        <ele>968.7999878</ele>
        <time>2018-08-17T08:30:40Z</time>
      </trkpt>
      <trkpt lat="44.31809" lon="6.14462">
        <ele>971.7999878</ele>
        <time>2018-08-17T08:30:55Z</time>
      </trkpt>
      <trkpt lat="44.31825" lon="6.14436">
        <ele>974.2000122</ele>
        <time>2018-08-17T08:31:07Z</time>
      </trkpt>
      <trkpt lat="44.31825" lon="6.14433">
        <ele>974.4000244</ele>
        <time>2018-08-17T08:31:08Z</time>
      </trkpt>
      <trkpt lat="44.31831" lon="6.14401">
        <ele>977.2000122</ele>
        <time>2018-08-17T08:31:22Z</time>
      </trkpt>
      <trkpt lat="44.31845" lon="6.14365">
        <ele>980.5999756</ele>
        <time>2018-08-17T08:31:36Z</time>
      </trkpt>
      <trkpt lat="44.31866" lon="6.14325">
        <ele>983.4000244</ele>
        <time>2018-08-17T08:31:52Z</time>
      </trkpt>
      <trkpt lat="44.3187" lon="6.14286">
        <ele>984.4000244</ele>
        <time>2018-08-17T08:32:06Z</time>
      </trkpt>
      <trkpt lat="44.31863" lon="6.14277">
        <ele>985.2000122</ele>
        <time>2018-08-17T08:32:11Z</time>
      </trkpt>
      <trkpt lat="44.31862" lon="6.14276">
        <ele>985.4000244</ele>
        <time>2018-08-17T08:32:12Z</time>
      </trkpt>
      <trkpt lat="44.3186" lon="6.14276">
        <ele>985.5999756</ele>
        <time>2018-08-17T08:32:13Z</time>
      </trkpt>
      <trkpt lat="44.31859" lon="6.14276">
        <ele>985.7999878</ele>
        <time>2018-08-17T08:32:14Z</time>
      </trkpt>
      <trkpt lat="44.31857" lon="6.14277">
        <ele>986.2000122</ele>
        <time>2018-08-17T08:32:15Z</time>
      </trkpt>
      <trkpt lat="44.31856" lon="6.14278">
        <ele>986.4000244</ele>
        <time>2018-08-17T08:32:16Z</time>
      </trkpt>
      <trkpt lat="44.31855" lon="6.1428">
        <ele>986.4000244</ele>
        <time>2018-08-17T08:32:17Z</time>
      </trkpt>
      <trkpt lat="44.31854" lon="6.14282">
        <ele>986.7999878</ele>
        <time>2018-08-17T08:32:18Z</time>
      </trkpt>
      <trkpt lat="44.31852" lon="6.14284">
        <ele>987</ele>
        <time>2018-08-17T08:32:19Z</time>
      </trkpt>
      <trkpt lat="44.31852" lon="6.14286">
        <ele>987.2000122</ele>
        <time>2018-08-17T08:32:20Z</time>
      </trkpt>
      <trkpt lat="44.31855" lon="6.14315">
        <ele>990.2000122</ele>
        <time>2018-08-17T08:32:30Z</time>
      </trkpt>
      <trkpt lat="44.31852" lon="6.14328">
        <ele>991.2000122</ele>
        <time>2018-08-17T08:32:35Z</time>
      </trkpt>
      <trkpt lat="44.31837" lon="6.1436">
        <ele>993.7999878</ele>
        <time>2018-08-17T08:32:50Z</time>
      </trkpt>
      <trkpt lat="44.31818" lon="6.14395">
        <ele>997</ele>
        <time>2018-08-17T08:33:05Z</time>
      </trkpt>
      <trkpt lat="44.31794" lon="6.14416">
        <ele>999.2000122</ele>
        <time>2018-08-17T08:33:20Z</time>
      </trkpt>
      <trkpt lat="44.31787" lon="6.14422">
        <ele>999.7999878</ele>
        <time>2018-08-17T08:33:23Z</time>
      </trkpt>
      <trkpt lat="44.31786" lon="6.14425">
        <ele>1000.2000122</ele>
        <time>2018-08-17T08:33:24Z</time>
      </trkpt>
      <trkpt lat="44.31785" lon="6.14428">
        <ele>1000.4000244</ele>
        <time>2018-08-17T08:33:25Z</time>
      </trkpt>
      <trkpt lat="44.31783" lon="6.1443">
        <ele>1000.7999878</ele>
        <time>2018-08-17T08:33:26Z</time>
      </trkpt>
      <trkpt lat="44.31782" lon="6.14433">
        <ele>1001.2000122</ele>
        <time>2018-08-17T08:33:27Z</time>
      </trkpt>
      <trkpt lat="44.31773" lon="6.14454">
        <ele>1003</ele>
        <time>2018-08-17T08:33:35Z</time>
      </trkpt>
      <trkpt lat="44.31773" lon="6.14457">
        <ele>1003.4000244</ele>
        <time>2018-08-17T08:33:36Z</time>
      </trkpt>
      <trkpt lat="44.31752" lon="6.14493">
        <ele>1006.5999756</ele>
        <time>2018-08-17T08:33:49Z</time>
      </trkpt>
      <trkpt lat="44.31749" lon="6.14497">
        <ele>1006.7999878</ele>
        <time>2018-08-17T08:33:51Z</time>
      </trkpt>
      <trkpt lat="44.31735" lon="6.14524">
        <ele>1008.4000244</ele>
        <time>2018-08-17T08:34:03Z</time>
      </trkpt>
      <trkpt lat="44.31712" lon="6.14556">
        <ele>1011.4000244</ele>
        <time>2018-08-17T08:34:18Z</time>
      </trkpt>
      <trkpt lat="44.31703" lon="6.14598">
        <ele>1013.7999878</ele>
        <time>2018-08-17T08:34:32Z</time>
      </trkpt>
      <trkpt lat="44.31693" lon="6.14643">
        <ele>1017</ele>
        <time>2018-08-17T08:34:48Z</time>
      </trkpt>
      <trkpt lat="44.31686" lon="6.14651">
        <ele>1017.5999756</ele>
        <time>2018-08-17T08:34:53Z</time>
      </trkpt>
      <trkpt lat="44.31685" lon="6.14654">
        <ele>1017.7999878</ele>
        <time>2018-08-17T08:34:54Z</time>
      </trkpt>
      <trkpt lat="44.31687" lon="6.14676">
        <ele>1020</ele>
        <time>2018-08-17T08:35:00Z</time>
      </trkpt>
      <trkpt lat="44.31687" lon="6.14723">
        <ele>1023.2000122</ele>
        <time>2018-08-17T08:35:16Z</time>
      </trkpt>
      <trkpt lat="44.31668" lon="6.14749">
        <ele>1026.1999512</ele>
        <time>2018-08-17T08:35:29Z</time>
      </trkpt>
      <trkpt lat="44.31654" lon="6.14788">
        <ele>1029.1999512</ele>
        <time>2018-08-17T08:35:45Z</time>
      </trkpt>
      <trkpt lat="44.31631" lon="6.14817">
        <ele>1032.4000244</ele>
        <time>2018-08-17T08:36:01Z</time>
      </trkpt>
      <trkpt lat="44.31604" lon="6.14834">
        <ele>1034.8000488</ele>
        <time>2018-08-17T08:36:14Z</time>
      </trkpt>
      <trkpt lat="44.31583" lon="6.14856">
        <ele>1038.1999512</ele>
        <time>2018-08-17T08:36:28Z</time>
      </trkpt>
      <trkpt lat="44.31549" lon="6.14872">
        <ele>1041.1999512</ele>
        <time>2018-08-17T08:36:42Z</time>
      </trkpt>
      <trkpt lat="44.31524" lon="6.1488">
        <ele>1044.4000244</ele>
        <time>2018-08-17T08:36:54Z</time>
      </trkpt>
      <trkpt lat="44.3152" lon="6.14888">
        <ele>1045.4000244</ele>
        <time>2018-08-17T08:36:59Z</time>
      </trkpt>
      <trkpt lat="44.31519" lon="6.1489">
        <ele>1045.5999756</ele>
        <time>2018-08-17T08:37:00Z</time>
      </trkpt>
      <trkpt lat="44.31518" lon="6.14892">
        <ele>1046</ele>
        <time>2018-08-17T08:37:01Z</time>
      </trkpt>
      <trkpt lat="44.31511" lon="6.14909">
        <ele>1047.5999756</ele>
        <time>2018-08-17T08:37:09Z</time>
      </trkpt>
      <trkpt lat="44.31509" lon="6.14911">
        <ele>1047.8000488</ele>
        <time>2018-08-17T08:37:10Z</time>
      </trkpt>
      <trkpt lat="44.31509" lon="6.14914">
        <ele>1048</ele>
        <time>2018-08-17T08:37:11Z</time>
      </trkpt>
      <trkpt lat="44.31508" lon="6.14916">
        <ele>1048.1999512</ele>
        <time>2018-08-17T08:37:12Z</time>
      </trkpt>
      <trkpt lat="44.31507" lon="6.14919">
        <ele>1048.8000488</ele>
        <time>2018-08-17T08:37:13Z</time>
      </trkpt>
      <trkpt lat="44.31506" lon="6.14921">
        <ele>1049</ele>
        <time>2018-08-17T08:37:14Z</time>
      </trkpt>
      <trkpt lat="44.31501" lon="6.14962">
        <ele>1051.8000488</ele>
        <time>2018-08-17T08:37:29Z</time>
      </trkpt>
      <trkpt lat="44.31496" lon="6.14986">
        <ele>1053.8000488</ele>
        <time>2018-08-17T08:37:38Z</time>
      </trkpt>
      <trkpt lat="44.31495" lon="6.14989">
        <ele>1054.4000244</ele>
        <time>2018-08-17T08:37:39Z</time>
      </trkpt>
      <trkpt lat="44.3149" lon="6.15027">
        <ele>1057.4000244</ele>
        <time>2018-08-17T08:37:52Z</time>
      </trkpt>
      <trkpt lat="44.31488" lon="6.15034">
        <ele>1058</ele>
        <time>2018-08-17T08:37:55Z</time>
      </trkpt>
      <trkpt lat="44.31486" lon="6.15033">
        <ele>1061</ele>
        <time>2018-08-17T08:38:10Z</time>
      </trkpt>
      <trkpt lat="44.31484" lon="6.15035">
        <ele>1061.8000488</ele>
        <time>2018-08-17T08:38:35Z</time>
      </trkpt>
      <trkpt lat="44.31485" lon="6.15042">
        <ele>1061.8000488</ele>
        <time>2018-08-17T08:39:11Z</time>
      </trkpt>
      <trkpt lat="44.31487" lon="6.15055">
        <ele>1062.8000488</ele>
        <time>2018-08-17T08:39:41Z</time>
      </trkpt>
      <trkpt lat="44.31491" lon="6.15062">
        <ele>1062.5999756</ele>
        <time>2018-08-17T08:40:03Z</time>
      </trkpt>
      <trkpt lat="44.31492" lon="6.15065">
        <ele>1062.5999756</ele>
        <time>2018-08-17T08:40:04Z</time>
      </trkpt>
      <trkpt lat="44.31492" lon="6.15068">
        <ele>1062.8000488</ele>
        <time>2018-08-17T08:40:05Z</time>
      </trkpt>
      <trkpt lat="44.31492" lon="6.15071">
        <ele>1062.8000488</ele>
        <time>2018-08-17T08:40:06Z</time>
      </trkpt>
      <trkpt lat="44.31493" lon="6.15074">
        <ele>1062.8000488</ele>
        <time>2018-08-17T08:40:07Z</time>
      </trkpt>
      <trkpt lat="44.31493" lon="6.15077">
        <ele>1062.8000488</ele>
        <time>2018-08-17T08:40:08Z</time>
      </trkpt>
      <trkpt lat="44.31493" lon="6.15079">
        <ele>1062.8000488</ele>
        <time>2018-08-17T08:40:09Z</time>
      </trkpt>
      <trkpt lat="44.31494" lon="6.15082">
        <ele>1062.8000488</ele>
        <time>2018-08-17T08:40:10Z</time>
      </trkpt>
      <trkpt lat="44.31495" lon="6.15085">
        <ele>1063</ele>
        <time>2018-08-17T08:40:11Z</time>
      </trkpt>
      <trkpt lat="44.31495" lon="6.15087">
        <ele>1063.1999512</ele>
        <time>2018-08-17T08:40:12Z</time>
      </trkpt>
      <trkpt lat="44.31495" lon="6.1509">
        <ele>1063.4000244</ele>
        <time>2018-08-17T08:40:13Z</time>
      </trkpt>
      <trkpt lat="44.31497" lon="6.15115">
        <ele>1065.4000244</ele>
        <time>2018-08-17T08:40:22Z</time>
      </trkpt>
      <trkpt lat="44.3149" lon="6.15117">
        <ele>1066.4000244</ele>
        <time>2018-08-17T08:40:26Z</time>
      </trkpt>
      <trkpt lat="44.31489" lon="6.15114">
        <ele>1066.5999756</ele>
        <time>2018-08-17T08:40:27Z</time>
      </trkpt>
      <trkpt lat="44.31488" lon="6.15112">
        <ele>1066.8000488</ele>
        <time>2018-08-17T08:40:28Z</time>
      </trkpt>
      <trkpt lat="44.31487" lon="6.15109">
        <ele>1067</ele>
        <time>2018-08-17T08:40:29Z</time>
      </trkpt>
      <trkpt lat="44.31487" lon="6.15106">
        <ele>1067.1999512</ele>
        <time>2018-08-17T08:40:30Z</time>
      </trkpt>
      <trkpt lat="44.31487" lon="6.15103">
        <ele>1067.5999756</ele>
        <time>2018-08-17T08:40:31Z</time>
      </trkpt>
      <trkpt lat="44.31486" lon="6.151">
        <ele>1067.8000488</ele>
        <time>2018-08-17T08:40:32Z</time>
      </trkpt>
      <trkpt lat="44.31475" lon="6.15064">
        <ele>1070.5999756</ele>
        <time>2018-08-17T08:40:46Z</time>
      </trkpt>
      <trkpt lat="44.31462" lon="6.15026">
        <ele>1071.8000488</ele>
        <time>2018-08-17T08:40:59Z</time>
      </trkpt>
      <trkpt lat="44.31461" lon="6.14976">
        <ele>1073</ele>
        <time>2018-08-17T08:41:14Z</time>
      </trkpt>
      <trkpt lat="44.31461" lon="6.14926">
        <ele>1074.4000244</ele>
        <time>2018-08-17T08:41:29Z</time>
      </trkpt>
      <trkpt lat="44.31461" lon="6.14893">
        <ele>1076.4000244</ele>
        <time>2018-08-17T08:41:42Z</time>
      </trkpt>
      <trkpt lat="44.31459" lon="6.14893">
        <ele>1076.4000244</ele>
        <time>2018-08-17T08:41:43Z</time>
      </trkpt>
      <trkpt lat="44.31458" lon="6.14895">
        <ele>1076.4000244</ele>
        <time>2018-08-17T08:41:44Z</time>
      </trkpt>
      <trkpt lat="44.31457" lon="6.14897">
        <ele>1076.5999756</ele>
        <time>2018-08-17T08:41:45Z</time>
      </trkpt>
      <trkpt lat="44.31457" lon="6.149">
        <ele>1076.8000488</ele>
        <time>2018-08-17T08:41:46Z</time>
      </trkpt>
      <trkpt lat="44.31456" lon="6.14903">
        <ele>1077</ele>
        <time>2018-08-17T08:41:47Z</time>
      </trkpt>
      <trkpt lat="44.31456" lon="6.14906">
        <ele>1077.1999512</ele>
        <time>2018-08-17T08:41:48Z</time>
      </trkpt>
      <trkpt lat="44.31456" lon="6.14909">
        <ele>1077.4000244</ele>
        <time>2018-08-17T08:41:49Z</time>
      </trkpt>
      <trkpt lat="44.31456" lon="6.14912">
        <ele>1077.5999756</ele>
        <time>2018-08-17T08:41:50Z</time>
      </trkpt>
      <trkpt lat="44.31456" lon="6.14915">
        <ele>1077.8000488</ele>
        <time>2018-08-17T08:41:51Z</time>
      </trkpt>
      <trkpt lat="44.3145" lon="6.14955">
        <ele>1080.1999512</ele>
        <time>2018-08-17T08:42:05Z</time>
      </trkpt>
      <trkpt lat="44.31441" lon="6.14998">
        <ele>1083.1999512</ele>
        <time>2018-08-17T08:42:20Z</time>
      </trkpt>
      <trkpt lat="44.31442" lon="6.15043">
        <ele>1085.8000488</ele>
        <time>2018-08-17T08:42:36Z</time>
      </trkpt>
      <trkpt lat="44.31444" lon="6.15077">
        <ele>1088</ele>
        <time>2018-08-17T08:42:47Z</time>
      </trkpt>
      <trkpt lat="44.31443" lon="6.15127">
        <ele>1090.8000488</ele>
        <time>2018-08-17T08:43:04Z</time>
      </trkpt>
      <trkpt lat="44.31441" lon="6.15171">
        <ele>1093.8000488</ele>
        <time>2018-08-17T08:43:19Z</time>
      </trkpt>
      <trkpt lat="44.3143" lon="6.15206">
        <ele>1096.8000488</ele>
        <time>2018-08-17T08:43:32Z</time>
      </trkpt>
      <trkpt lat="44.31422" lon="6.1525">
        <ele>1100</ele>
        <time>2018-08-17T08:43:48Z</time>
      </trkpt>
      <trkpt lat="44.31409" lon="6.1528">
        <ele>1103.1999512</ele>
        <time>2018-08-17T08:44:00Z</time>
      </trkpt>
      <trkpt lat="44.31384" lon="6.15313">
        <ele>1105.1999512</ele>
        <time>2018-08-17T08:44:16Z</time>
      </trkpt>
      <trkpt lat="44.31371" lon="6.15346">
        <ele>1107.5999756</ele>
        <time>2018-08-17T08:44:30Z</time>
      </trkpt>
      <trkpt lat="44.31353" lon="6.15375">
        <ele>1109.4000244</ele>
        <time>2018-08-17T08:44:43Z</time>
      </trkpt>
      <trkpt lat="44.31325" lon="6.15378">
        <ele>1111.4000244</ele>
        <time>2018-08-17T08:44:54Z</time>
      </trkpt>
      <trkpt lat="44.31323" lon="6.15406">
        <ele>1114.4000244</ele>
        <time>2018-08-17T08:45:06Z</time>
      </trkpt>
      <trkpt lat="44.31316" lon="6.15438">
        <ele>1116.5999756</ele>
        <time>2018-08-17T08:45:22Z</time>
      </trkpt>
      <trkpt lat="44.31317" lon="6.15442">
        <ele>1117</ele>
        <time>2018-08-17T08:45:24Z</time>
      </trkpt>
      <trkpt lat="44.31317" lon="6.15444">
        <ele>1117</ele>
        <time>2018-08-17T08:45:25Z</time>
      </trkpt>
      <trkpt lat="44.31313" lon="6.15457">
        <ele>1118.1999512</ele>
        <time>2018-08-17T08:45:31Z</time>
      </trkpt>
      <trkpt lat="44.31295" lon="6.15447">
        <ele>1121</ele>
        <time>2018-08-17T08:45:45Z</time>
      </trkpt>
      <trkpt lat="44.31281" lon="6.15416">
        <ele>1123</ele>
        <time>2018-08-17T08:46:00Z</time>
      </trkpt>
      <trkpt lat="44.3128" lon="6.15405">
        <ele>1123.5999756</ele>
        <time>2018-08-17T08:46:05Z</time>
      </trkpt>
      <trkpt lat="44.31278" lon="6.15403">
        <ele>1123.5999756</ele>
        <time>2018-08-17T08:46:06Z</time>
      </trkpt>
      <trkpt lat="44.31277" lon="6.15401">
        <ele>1123.8000488</ele>
        <time>2018-08-17T08:46:07Z</time>
      </trkpt>
      <trkpt lat="44.31264" lon="6.1539">
        <ele>1124.8000488</ele>
        <time>2018-08-17T08:46:16Z</time>
      </trkpt>
      <trkpt lat="44.31264" lon="6.1539">
        <ele>1125</ele>
        <time>2018-08-17T08:46:17Z</time>
      </trkpt>
      <trkpt lat="44.31263" lon="6.15391">
        <ele>1125.1999512</ele>
        <time>2018-08-17T08:46:18Z</time>
      </trkpt>
      <trkpt lat="44.31262" lon="6.15392">
        <ele>1125.1999512</ele>
        <time>2018-08-17T08:46:19Z</time>
      </trkpt>
      <trkpt lat="44.3126" lon="6.15393">
        <ele>1125.4000244</ele>
        <time>2018-08-17T08:46:20Z</time>
      </trkpt>
      <trkpt lat="44.31261" lon="6.15394">
        <ele>1125.5999756</ele>
        <time>2018-08-17T08:46:21Z</time>
      </trkpt>
      <trkpt lat="44.31263" lon="6.15395">
        <ele>1125.8000488</ele>
        <time>2018-08-17T08:46:22Z</time>
      </trkpt>
      <trkpt lat="44.31264" lon="6.15397">
        <ele>1125.8000488</ele>
        <time>2018-08-17T08:46:23Z</time>
      </trkpt>
      <trkpt lat="44.31264" lon="6.154">
        <ele>1126</ele>
        <time>2018-08-17T08:46:24Z</time>
      </trkpt>
      <trkpt lat="44.31264" lon="6.15402">
        <ele>1126</ele>
        <time>2018-08-17T08:46:25Z</time>
      </trkpt>
      <trkpt lat="44.31264" lon="6.15405">
        <ele>1126.1999512</ele>
        <time>2018-08-17T08:46:26Z</time>
      </trkpt>
      <trkpt lat="44.31265" lon="6.15445">
        <ele>1129.1999512</ele>
        <time>2018-08-17T08:46:44Z</time>
      </trkpt>
      <trkpt lat="44.31249" lon="6.1547">
        <ele>1130.8000488</ele>
        <time>2018-08-17T08:46:58Z</time>
      </trkpt>
      <trkpt lat="44.31225" lon="6.15482">
        <ele>1133.1999512</ele>
        <time>2018-08-17T08:47:12Z</time>
      </trkpt>
      <trkpt lat="44.31202" lon="6.1549">
        <ele>1135.8000488</ele>
        <time>2018-08-17T08:47:28Z</time>
      </trkpt>
      <trkpt lat="44.31174" lon="6.1547">
        <ele>1138.5999756</ele>
        <time>2018-08-17T08:47:44Z</time>
      </trkpt>
      <trkpt lat="44.31187" lon="6.15442">
        <ele>1140.5999756</ele>
        <time>2018-08-17T08:47:56Z</time>
      </trkpt>
      <trkpt lat="44.31202" lon="6.15403">
        <ele>1143.1999512</ele>
        <time>2018-08-17T08:48:13Z</time>
      </trkpt>
      <trkpt lat="44.31216" lon="6.1537">
        <ele>1145.5999756</ele>
        <time>2018-08-17T08:48:28Z</time>
      </trkpt>
      <trkpt lat="44.31234" lon="6.15338">
        <ele>1148.1999512</ele>
        <time>2018-08-17T08:48:44Z</time>
      </trkpt>
      <trkpt lat="44.31235" lon="6.15328">
        <ele>1148.8000488</ele>
        <time>2018-08-17T08:48:48Z</time>
      </trkpt>
      <trkpt lat="44.31233" lon="6.15324">
        <ele>1149.1999512</ele>
        <time>2018-08-17T08:48:50Z</time>
      </trkpt>
      <trkpt lat="44.31232" lon="6.15323">
        <ele>1149.1999512</ele>
        <time>2018-08-17T08:48:51Z</time>
      </trkpt>
      <trkpt lat="44.3123" lon="6.15322">
        <ele>1149.4000244</ele>
        <time>2018-08-17T08:48:52Z</time>
      </trkpt>
      <trkpt lat="44.31228" lon="6.15322">
        <ele>1149.4000244</ele>
        <time>2018-08-17T08:48:53Z</time>
      </trkpt>
      <trkpt lat="44.31226" lon="6.15322">
        <ele>1149.4000244</ele>
        <time>2018-08-17T08:48:54Z</time>
      </trkpt>
      <trkpt lat="44.31225" lon="6.15323">
        <ele>1149.5999756</ele>
        <time>2018-08-17T08:48:55Z</time>
      </trkpt>
      <trkpt lat="44.31223" lon="6.15325">
        <ele>1149.5999756</ele>
        <time>2018-08-17T08:48:56Z</time>
      </trkpt>
      <trkpt lat="44.31222" lon="6.15326">
        <ele>1149.8000488</ele>
        <time>2018-08-17T08:48:57Z</time>
      </trkpt>
      <trkpt lat="44.31222" lon="6.15329">
        <ele>1150</ele>
        <time>2018-08-17T08:48:58Z</time>
      </trkpt>
      <trkpt lat="44.31221" lon="6.15331">
        <ele>1150.1999512</ele>
        <time>2018-08-17T08:48:59Z</time>
      </trkpt>
      <trkpt lat="44.3122" lon="6.15333">
        <ele>1150.1999512</ele>
        <time>2018-08-17T08:49:00Z</time>
      </trkpt>
      <trkpt lat="44.31207" lon="6.15365">
        <ele>1152.5999756</ele>
        <time>2018-08-17T08:49:16Z</time>
      </trkpt>
      <trkpt lat="44.31183" lon="6.15395">
        <ele>1155.1999512</ele>
        <time>2018-08-17T08:49:34Z</time>
      </trkpt>
      <trkpt lat="44.31161" lon="6.1542">
        <ele>1157.8000488</ele>
        <time>2018-08-17T08:49:51Z</time>
      </trkpt>
      <trkpt lat="44.3115" lon="6.15428">
        <ele>1160</ele>
        <time>2018-08-17T08:50:01Z</time>
      </trkpt>
      <trkpt lat="44.31125" lon="6.15413">
        <ele>1162.5999756</ele>
        <time>2018-08-17T08:50:15Z</time>
      </trkpt>
      <trkpt lat="44.31106" lon="6.15402">
        <ele>1164.5999756</ele>
        <time>2018-08-17T08:50:26Z</time>
      </trkpt>
      <trkpt lat="44.31104" lon="6.15401">
        <ele>1164.5999756</ele>
        <time>2018-08-17T08:50:27Z</time>
      </trkpt>
      <trkpt lat="44.31102" lon="6.15401">
        <ele>1164.8000488</ele>
        <time>2018-08-17T08:50:28Z</time>
      </trkpt>
      <trkpt lat="44.31101" lon="6.154">
        <ele>1164.8000488</ele>
        <time>2018-08-17T08:50:29Z</time>
      </trkpt>
      <trkpt lat="44.31099" lon="6.154">
        <ele>1165</ele>
        <time>2018-08-17T08:50:30Z</time>
      </trkpt>
      <trkpt lat="44.31097" lon="6.154">
        <ele>1165.1999512</ele>
        <time>2018-08-17T08:50:31Z</time>
      </trkpt>
      <trkpt lat="44.31076" lon="6.15387">
        <ele>1167.4000244</ele>
        <time>2018-08-17T08:50:46Z</time>
      </trkpt>
      <trkpt lat="44.3106" lon="6.15408">
        <ele>1169.5999756</ele>
        <time>2018-08-17T08:50:59Z</time>
      </trkpt>
      <trkpt lat="44.31037" lon="6.15414">
        <ele>1172.1999512</ele>
        <time>2018-08-17T08:51:14Z</time>
      </trkpt>
      <trkpt lat="44.31011" lon="6.15411">
        <ele>1175.1999512</ele>
        <time>2018-08-17T08:51:32Z</time>
      </trkpt>
      <trkpt lat="44.30986" lon="6.1541">
        <ele>1178.1999512</ele>
        <time>2018-08-17T08:51:48Z</time>
      </trkpt>
      <trkpt lat="44.30956" lon="6.15408">
        <ele>1180.5999756</ele>
        <time>2018-08-17T08:52:06Z</time>
      </trkpt>
      <trkpt lat="44.30928" lon="6.15395">
        <ele>1183.5999756</ele>
        <time>2018-08-17T08:52:24Z</time>
      </trkpt>
      <trkpt lat="44.30907" lon="6.15371">
        <ele>1186.4000244</ele>
        <time>2018-08-17T08:52:41Z</time>
      </trkpt>
      <trkpt lat="44.30891" lon="6.15348">
        <ele>1188.1999512</ele>
        <time>2018-08-17T08:52:56Z</time>
      </trkpt>
      <trkpt lat="44.30879" lon="6.1532">
        <ele>1190.1999512</ele>
        <time>2018-08-17T08:53:10Z</time>
      </trkpt>
      <trkpt lat="44.30858" lon="6.15289">
        <ele>1192.4000244</ele>
        <time>2018-08-17T08:53:25Z</time>
      </trkpt>
      <trkpt lat="44.30854" lon="6.15256">
        <ele>1193.8000488</ele>
        <time>2018-08-17T08:53:39Z</time>
      </trkpt>
      <trkpt lat="44.30863" lon="6.15217">
        <ele>1195.4000244</ele>
        <time>2018-08-17T08:53:54Z</time>
      </trkpt>
      <trkpt lat="44.30873" lon="6.15181">
        <ele>1196.8000488</ele>
        <time>2018-08-17T08:54:09Z</time>
      </trkpt>
      <trkpt lat="44.30887" lon="6.1516">
        <ele>1197.5999756</ele>
        <time>2018-08-17T08:54:21Z</time>
      </trkpt>
      <trkpt lat="44.30899" lon="6.15134">
        <ele>1199</ele>
        <time>2018-08-17T08:54:34Z</time>
      </trkpt>
      <trkpt lat="44.30914" lon="6.15112">
        <ele>1200</ele>
        <time>2018-08-17T08:54:49Z</time>
      </trkpt>
      <trkpt lat="44.3092" lon="6.151">
        <ele>1200.8000488</ele>
        <time>2018-08-17T08:55:02Z</time>
      </trkpt>
      <trkpt lat="44.30916" lon="6.15097">
        <ele>1200.5999756</ele>
        <time>2018-08-17T08:55:34Z</time>
      </trkpt>
      <trkpt lat="44.30916" lon="6.15109">
        <ele>1200.5999756</ele>
        <time>2018-08-17T08:56:22Z</time>
      </trkpt>
      <trkpt lat="44.30918" lon="6.15107">
        <ele>1200.4000244</ele>
        <time>2018-08-17T08:57:19Z</time>
      </trkpt>
      <trkpt lat="44.30917" lon="6.15107">
        <ele>1200.5999756</ele>
        <time>2018-08-17T08:58:05Z</time>
      </trkpt>
      <trkpt lat="44.30908" lon="6.15104">
        <ele>1200.5999756</ele>
        <time>2018-08-17T08:58:30Z</time>
      </trkpt>
      <trkpt lat="44.30912" lon="6.15102">
        <ele>1200.1999512</ele>
        <time>2018-08-17T08:58:51Z</time>
      </trkpt>
      <trkpt lat="44.30919" lon="6.15109">
        <ele>1200.4000244</ele>
        <time>2018-08-17T08:59:23Z</time>
      </trkpt>
      <trkpt lat="44.30918" lon="6.15109">
        <ele>1200.8000488</ele>
        <time>2018-08-17T08:59:41Z</time>
      </trkpt>
      <trkpt lat="44.30912" lon="6.15104">
        <ele>1200.8000488</ele>
        <time>2018-08-17T08:59:54Z</time>
      </trkpt>
      <trkpt lat="44.30917" lon="6.15104">
        <ele>1200.4000244</ele>
        <time>2018-08-17T09:00:24Z</time>
      </trkpt>
      <trkpt lat="44.30916" lon="6.15105">
        <ele>1200.1999512</ele>
        <time>2018-08-17T09:00:37Z</time>
      </trkpt>
      <trkpt lat="44.30913" lon="6.1511">
        <ele>1200.1999512</ele>
        <time>2018-08-17T09:00:41Z</time>
      </trkpt>
      <trkpt lat="44.3091" lon="6.15116">
        <ele>1200.4000244</ele>
        <time>2018-08-17T09:00:45Z</time>
      </trkpt>
      <trkpt lat="44.30905" lon="6.15119">
        <ele>1200.4000244</ele>
        <time>2018-08-17T09:00:48Z</time>
      </trkpt>
      <trkpt lat="44.309" lon="6.15112">
        <ele>1200.5999756</ele>
        <time>2018-08-17T09:00:52Z</time>
      </trkpt>
      <trkpt lat="44.30899" lon="6.15109">
        <ele>1200.5999756</ele>
        <time>2018-08-17T09:00:53Z</time>
      </trkpt>
      <trkpt lat="44.30899" lon="6.15107">
        <ele>1200.5999756</ele>
        <time>2018-08-17T09:00:54Z</time>
      </trkpt>
      <trkpt lat="44.30899" lon="6.15104">
        <ele>1200.5999756</ele>
        <time>2018-08-17T09:00:55Z</time>
      </trkpt>
      <trkpt lat="44.30895" lon="6.15096">
        <ele>1200.8000488</ele>
        <time>2018-08-17T09:00:59Z</time>
      </trkpt>
      <trkpt lat="44.30896" lon="6.15094">
        <ele>1200.8000488</ele>
        <time>2018-08-17T09:01:00Z</time>
      </trkpt>
      <trkpt lat="44.30891" lon="6.15057">
        <ele>1203.4000244</ele>
        <time>2018-08-17T09:01:13Z</time>
      </trkpt>
      <trkpt lat="44.30892" lon="6.15037">
        <ele>1206</ele>
        <time>2018-08-17T09:01:20Z</time>
      </trkpt>
      <trkpt lat="44.30893" lon="6.15019">
        <ele>1208.8000488</ele>
        <time>2018-08-17T09:01:29Z</time>
      </trkpt>
      <trkpt lat="44.309" lon="6.14989">
        <ele>1210.1999512</ele>
        <time>2018-08-17T09:01:39Z</time>
      </trkpt>
      <trkpt lat="44.309" lon="6.14987">
        <ele>1210.4000244</ele>
        <time>2018-08-17T09:01:40Z</time>
      </trkpt>
      <trkpt lat="44.30892" lon="6.14949">
        <ele>1211.8000488</ele>
        <time>2018-08-17T09:01:55Z</time>
      </trkpt>
      <trkpt lat="44.30896" lon="6.14901">
        <ele>1213</ele>
        <time>2018-08-17T09:02:10Z</time>
      </trkpt>
      <trkpt lat="44.30883" lon="6.14857">
        <ele>1215.8000488</ele>
        <time>2018-08-17T09:02:27Z</time>
      </trkpt>
      <trkpt lat="44.30859" lon="6.14836">
        <ele>1217.4000244</ele>
        <time>2018-08-17T09:02:40Z</time>
      </trkpt>
      <trkpt lat="44.30843" lon="6.14811">
        <ele>1220.5999756</ele>
        <time>2018-08-17T09:02:52Z</time>
      </trkpt>
      <trkpt lat="44.30832" lon="6.14804">
        <ele>1223.5999756</ele>
        <time>2018-08-17T09:03:00Z</time>
      </trkpt>
      <trkpt lat="44.30813" lon="6.14815">
        <ele>1226.8000488</ele>
        <time>2018-08-17T09:03:11Z</time>
      </trkpt>
      <trkpt lat="44.30797" lon="6.14819">
        <ele>1229.1999512</ele>
        <time>2018-08-17T09:03:21Z</time>
      </trkpt>
      <trkpt lat="44.3078" lon="6.14825">
        <ele>1232.4000244</ele>
        <time>2018-08-17T09:03:30Z</time>
      </trkpt>
      <trkpt lat="44.30763" lon="6.14828">
        <ele>1235.4000244</ele>
        <time>2018-08-17T09:03:42Z</time>
      </trkpt>
      <trkpt lat="44.30754" lon="6.14819">
        <ele>1238.4000244</ele>
        <time>2018-08-17T09:04:02Z</time>
      </trkpt>
      <trkpt lat="44.30739" lon="6.14822">
        <ele>1240.4000244</ele>
        <time>2018-08-17T09:04:28Z</time>
      </trkpt>
      <trkpt lat="44.30734" lon="6.14827">
        <ele>1241.4000244</ele>
        <time>2018-08-17T09:04:41Z</time>
      </trkpt>
      <trkpt lat="44.30722" lon="6.14834">
        <ele>1244.1999512</ele>
        <time>2018-08-17T09:05:09Z</time>
      </trkpt>
      <trkpt lat="44.30709" lon="6.14827">
        <ele>1245.8000488</ele>
        <time>2018-08-17T09:05:32Z</time>
      </trkpt>
      <trkpt lat="44.30706" lon="6.14823">
        <ele>1246.1999512</ele>
        <time>2018-08-17T09:05:59Z</time>
      </trkpt>
      <trkpt lat="44.30703" lon="6.14824">
        <ele>1246.5999756</ele>
        <time>2018-08-17T09:06:09Z</time>
      </trkpt>
      <trkpt lat="44.30695" lon="6.14823">
        <ele>1246.8000488</ele>
        <time>2018-08-17T09:06:42Z</time>
      </trkpt>
      <trkpt lat="44.30699" lon="6.14821">
        <ele>1246.1999512</ele>
        <time>2018-08-17T09:07:21Z</time>
      </trkpt>
      <trkpt lat="44.30701" lon="6.14821">
        <ele>1246.1999512</ele>
        <time>2018-08-17T09:07:24Z</time>
      </trkpt>
      <trkpt lat="44.30703" lon="6.14818">
        <ele>1246</ele>
        <time>2018-08-17T09:07:46Z</time>
      </trkpt>
      <trkpt lat="44.30706" lon="6.14809">
        <ele>1246.1999512</ele>
        <time>2018-08-17T09:07:50Z</time>
      </trkpt>
      <trkpt lat="44.30706" lon="6.14807">
        <ele>1246.1999512</ele>
        <time>2018-08-17T09:07:51Z</time>
      </trkpt>
      <trkpt lat="44.30707" lon="6.14805">
        <ele>1246.4000244</ele>
        <time>2018-08-17T09:07:52Z</time>
      </trkpt>
      <trkpt lat="44.30709" lon="6.14802">
        <ele>1246.4000244</ele>
        <time>2018-08-17T09:07:53Z</time>
      </trkpt>
      <trkpt lat="44.3071" lon="6.148">
        <ele>1246.4000244</ele>
        <time>2018-08-17T09:07:54Z</time>
      </trkpt>
      <trkpt lat="44.30711" lon="6.14797">
        <ele>1246.4000244</ele>
        <time>2018-08-17T09:07:55Z</time>
      </trkpt>
      <trkpt lat="44.30729" lon="6.14767">
        <ele>1249.5999756</ele>
        <time>2018-08-17T09:08:09Z</time>
      </trkpt>
      <trkpt lat="44.3073" lon="6.14763">
        <ele>1249.8000488</ele>
        <time>2018-08-17T09:08:11Z</time>
      </trkpt>
      <trkpt lat="44.3073" lon="6.14761">
        <ele>1250</ele>
        <time>2018-08-17T09:08:12Z</time>
      </trkpt>
      <trkpt lat="44.3073" lon="6.14759">
        <ele>1250</ele>
        <time>2018-08-17T09:08:13Z</time>
      </trkpt>
      <trkpt lat="44.30729" lon="6.14758">
        <ele>1250.1999512</ele>
        <time>2018-08-17T09:08:14Z</time>
      </trkpt>
      <trkpt lat="44.30727" lon="6.14757">
        <ele>1250.4000244</ele>
        <time>2018-08-17T09:08:15Z</time>
      </trkpt>
      <trkpt lat="44.30726" lon="6.14758">
        <ele>1250.4000244</ele>
        <time>2018-08-17T09:08:16Z</time>
      </trkpt>
      <trkpt lat="44.30724" lon="6.14759">
        <ele>1250.5999756</ele>
        <time>2018-08-17T09:08:17Z</time>
      </trkpt>
      <trkpt lat="44.30723" lon="6.1476">
        <ele>1250.5999756</ele>
        <time>2018-08-17T09:08:18Z</time>
      </trkpt>
      <trkpt lat="44.30721" lon="6.14762">
        <ele>1250.8000488</ele>
        <time>2018-08-17T09:08:19Z</time>
      </trkpt>
      <trkpt lat="44.3072" lon="6.14764">
        <ele>1250.8000488</ele>
        <time>2018-08-17T09:08:20Z</time>
      </trkpt>
      <trkpt lat="44.30693" lon="6.14781">
        <ele>1253.4000244</ele>
        <time>2018-08-17T09:08:36Z</time>
      </trkpt>
      <trkpt lat="44.30677" lon="6.14796">
        <ele>1256.4000244</ele>
        <time>2018-08-17T09:08:48Z</time>
      </trkpt>
      <trkpt lat="44.30677" lon="6.14798">
        <ele>1256.5999756</ele>
        <time>2018-08-17T09:08:49Z</time>
      </trkpt>
      <trkpt lat="44.30677" lon="6.14799">
        <ele>1257</ele>
        <time>2018-08-17T09:08:50Z</time>
      </trkpt>
      <trkpt lat="44.30675" lon="6.148">
        <ele>1257</ele>
        <time>2018-08-17T09:08:51Z</time>
      </trkpt>
      <trkpt lat="44.30674" lon="6.14802">
        <ele>1257.4000244</ele>
        <time>2018-08-17T09:08:52Z</time>
      </trkpt>
      <trkpt lat="44.30673" lon="6.14804">
        <ele>1257.5999756</ele>
        <time>2018-08-17T09:08:53Z</time>
      </trkpt>
      <trkpt lat="44.30672" lon="6.14806">
        <ele>1257.5999756</ele>
        <time>2018-08-17T09:08:54Z</time>
      </trkpt>
      <trkpt lat="44.30671" lon="6.14808">
        <ele>1257.8000488</ele>
        <time>2018-08-17T09:08:55Z</time>
      </trkpt>
      <trkpt lat="44.3067" lon="6.1481">
        <ele>1258</ele>
        <time>2018-08-17T09:08:56Z</time>
      </trkpt>
      <trkpt lat="44.30668" lon="6.14815">
        <ele>1258.4000244</ele>
        <time>2018-08-17T09:08:59Z</time>
      </trkpt>
      <trkpt lat="44.30665" lon="6.14818">
        <ele>1258.8000488</ele>
        <time>2018-08-17T09:09:00Z</time>
      </trkpt>
      <trkpt lat="44.30664" lon="6.14821">
        <ele>1258.8000488</ele>
        <time>2018-08-17T09:09:01Z</time>
      </trkpt>
      <trkpt lat="44.30658" lon="6.14851">
        <ele>1261</ele>
        <time>2018-08-17T09:09:13Z</time>
      </trkpt>
      <trkpt lat="44.30657" lon="6.14854">
        <ele>1261.1999512</ele>
        <time>2018-08-17T09:09:14Z</time>
      </trkpt>
      <trkpt lat="44.30657" lon="6.14856">
        <ele>1261.4000244</ele>
        <time>2018-08-17T09:09:15Z</time>
      </trkpt>
      <trkpt lat="44.30657" lon="6.14859">
        <ele>1261.5999756</ele>
        <time>2018-08-17T09:09:16Z</time>
      </trkpt>
      <trkpt lat="44.30657" lon="6.14862">
        <ele>1261.8000488</ele>
        <time>2018-08-17T09:09:17Z</time>
      </trkpt>
      <trkpt lat="44.30658" lon="6.14866">
        <ele>1262</ele>
        <time>2018-08-17T09:09:18Z</time>
      </trkpt>
      <trkpt lat="44.30658" lon="6.1487">
        <ele>1262.4000244</ele>
        <time>2018-08-17T09:09:19Z</time>
      </trkpt>
      <trkpt lat="44.30657" lon="6.14874">
        <ele>1262.5999756</ele>
        <time>2018-08-17T09:09:20Z</time>
      </trkpt>
      <trkpt lat="44.30656" lon="6.14876">
        <ele>1262.8000488</ele>
        <time>2018-08-17T09:09:21Z</time>
      </trkpt>
      <trkpt lat="44.30657" lon="6.14883">
        <ele>1263</ele>
        <time>2018-08-17T09:09:22Z</time>
      </trkpt>
      <trkpt lat="44.30644" lon="6.14914">
        <ele>1264.4000244</ele>
        <time>2018-08-17T09:09:33Z</time>
      </trkpt>
      <trkpt lat="44.30643" lon="6.14916">
        <ele>1264.5999756</ele>
        <time>2018-08-17T09:09:34Z</time>
      </trkpt>
      <trkpt lat="44.30643" lon="6.14918">
        <ele>1265</ele>
        <time>2018-08-17T09:09:35Z</time>
      </trkpt>
      <trkpt lat="44.30642" lon="6.14921">
        <ele>1265.1999512</ele>
        <time>2018-08-17T09:09:36Z</time>
      </trkpt>
      <trkpt lat="44.30642" lon="6.14924">
        <ele>1265.4000244</ele>
        <time>2018-08-17T09:09:37Z</time>
      </trkpt>
      <trkpt lat="44.30641" lon="6.14927">
        <ele>1265.5999756</ele>
        <time>2018-08-17T09:09:38Z</time>
      </trkpt>
      <trkpt lat="44.30639" lon="6.14929">
        <ele>1265.8000488</ele>
        <time>2018-08-17T09:09:39Z</time>
      </trkpt>
      <trkpt lat="44.30638" lon="6.14932">
        <ele>1266</ele>
        <time>2018-08-17T09:09:40Z</time>
      </trkpt>
      <trkpt lat="44.30637" lon="6.14935">
        <ele>1266.1999512</ele>
        <time>2018-08-17T09:09:41Z</time>
      </trkpt>
      <trkpt lat="44.30635" lon="6.14939">
        <ele>1266.4000244</ele>
        <time>2018-08-17T09:09:42Z</time>
      </trkpt>
      <trkpt lat="44.30634" lon="6.14941">
        <ele>1266.8000488</ele>
        <time>2018-08-17T09:09:43Z</time>
      </trkpt>
      <trkpt lat="44.30633" lon="6.14943">
        <ele>1267</ele>
        <time>2018-08-17T09:09:44Z</time>
      </trkpt>
      <trkpt lat="44.30618" lon="6.14968">
        <ele>1269</ele>
        <time>2018-08-17T09:09:56Z</time>
      </trkpt>
      <trkpt lat="44.30604" lon="6.14972">
        <ele>1270.8000488</ele>
        <time>2018-08-17T09:10:04Z</time>
      </trkpt>
      <trkpt lat="44.30586" lon="6.14973">
        <ele>1274</ele>
        <time>2018-08-17T09:10:15Z</time>
      </trkpt>
      <trkpt lat="44.30574" lon="6.14972">
        <ele>1276</ele>
        <time>2018-08-17T09:10:25Z</time>
      </trkpt>
      <trkpt lat="44.30556" lon="6.14981">
        <ele>1277.4000244</ele>
        <time>2018-08-17T09:10:33Z</time>
      </trkpt>
      <trkpt lat="44.30552" lon="6.14984">
        <ele>1278.4000244</ele>
        <time>2018-08-17T09:10:37Z</time>
      </trkpt>
      <trkpt lat="44.30544" lon="6.14984">
        <ele>1280.5999756</ele>
        <time>2018-08-17T09:10:57Z</time>
      </trkpt>
      <trkpt lat="44.30533" lon="6.14985">
        <ele>1281.1999512</ele>
        <time>2018-08-17T09:11:24Z</time>
      </trkpt>
      <trkpt lat="44.30531" lon="6.14995">
        <ele>1282.1999512</ele>
        <time>2018-08-17T09:11:42Z</time>
      </trkpt>
      <trkpt lat="44.3052" lon="6.15006">
        <ele>1283.5999756</ele>
        <time>2018-08-17T09:12:03Z</time>
      </trkpt>
      <trkpt lat="44.30512" lon="6.15013">
        <ele>1285.1999512</ele>
        <time>2018-08-17T09:12:26Z</time>
      </trkpt>
      <trkpt lat="44.3051" lon="6.15014">
        <ele>1285.1999512</ele>
        <time>2018-08-17T09:12:28Z</time>
      </trkpt>
      <trkpt lat="44.30509" lon="6.15014">
        <ele>1285.1999512</ele>
        <time>2018-08-17T09:12:29Z</time>
      </trkpt>
      <trkpt lat="44.30497" lon="6.15019">
        <ele>1285.4000244</ele>
        <time>2018-08-17T09:12:42Z</time>
      </trkpt>
      <trkpt lat="44.30488" lon="6.15018">
        <ele>1285.4000244</ele>
        <time>2018-08-17T09:13:11Z</time>
      </trkpt>
      <trkpt lat="44.30487" lon="6.15018">
        <ele>1285.4000244</ele>
        <time>2018-08-17T09:13:12Z</time>
      </trkpt>
      <trkpt lat="44.30485" lon="6.15019">
        <ele>1285.4000244</ele>
        <time>2018-08-17T09:13:13Z</time>
      </trkpt>
      <trkpt lat="44.30484" lon="6.1502">
        <ele>1285.4000244</ele>
        <time>2018-08-17T09:13:14Z</time>
      </trkpt>
      <trkpt lat="44.30483" lon="6.15022">
        <ele>1285.4000244</ele>
        <time>2018-08-17T09:13:15Z</time>
      </trkpt>
      <trkpt lat="44.30482" lon="6.15024">
        <ele>1285.4000244</ele>
        <time>2018-08-17T09:13:16Z</time>
      </trkpt>
      <trkpt lat="44.30481" lon="6.15027">
        <ele>1285.4000244</ele>
        <time>2018-08-17T09:13:17Z</time>
      </trkpt>
      <trkpt lat="44.3048" lon="6.15029">
        <ele>1285.4000244</ele>
        <time>2018-08-17T09:13:18Z</time>
      </trkpt>
      <trkpt lat="44.30479" lon="6.15032">
        <ele>1285.4000244</ele>
        <time>2018-08-17T09:13:19Z</time>
      </trkpt>
      <trkpt lat="44.30478" lon="6.15035">
        <ele>1285.4000244</ele>
        <time>2018-08-17T09:13:20Z</time>
      </trkpt>
      <trkpt lat="44.30477" lon="6.15037">
        <ele>1285.4000244</ele>
        <time>2018-08-17T09:13:21Z</time>
      </trkpt>
      <trkpt lat="44.30476" lon="6.15086">
        <ele>1287</ele>
        <time>2018-08-17T09:13:40Z</time>
      </trkpt>
      <trkpt lat="44.30492" lon="6.15127">
        <ele>1288.4000244</ele>
        <time>2018-08-17T09:13:58Z</time>
      </trkpt>
      <trkpt lat="44.30509" lon="6.15165">
        <ele>1288.8000488</ele>
        <time>2018-08-17T09:14:13Z</time>
      </trkpt>
      <trkpt lat="44.30509" lon="6.15206">
        <ele>1290.5999756</ele>
        <time>2018-08-17T09:14:27Z</time>
      </trkpt>
      <trkpt lat="44.30505" lon="6.15251">
        <ele>1291.4000244</ele>
        <time>2018-08-17T09:14:40Z</time>
      </trkpt>
      <trkpt lat="44.30494" lon="6.15294">
        <ele>1292.4000244</ele>
        <time>2018-08-17T09:14:55Z</time>
      </trkpt>
      <trkpt lat="44.30484" lon="6.15328">
        <ele>1295</ele>
        <time>2018-08-17T09:15:07Z</time>
      </trkpt>
      <trkpt lat="44.30475" lon="6.15346">
        <ele>1297.5999756</ele>
        <time>2018-08-17T09:15:14Z</time>
      </trkpt>
      <trkpt lat="44.30477" lon="6.15387">
        <ele>1300.5999756</ele>
        <time>2018-08-17T09:15:28Z</time>
      </trkpt>
      <trkpt lat="44.30479" lon="6.15437">
        <ele>1302.4000244</ele>
        <time>2018-08-17T09:15:45Z</time>
      </trkpt>
      <trkpt lat="44.3048" lon="6.15488">
        <ele>1303</ele>
        <time>2018-08-17T09:15:59Z</time>
      </trkpt>
      <trkpt lat="44.30466" lon="6.15527">
        <ele>1303</ele>
        <time>2018-08-17T09:16:11Z</time>
      </trkpt>
      <trkpt lat="44.30464" lon="6.15549">
        <ele>1304.5999756</ele>
        <time>2018-08-17T09:16:18Z</time>
      </trkpt>
      <trkpt lat="44.30464" lon="6.15553">
        <ele>1304.8000488</ele>
        <time>2018-08-17T09:16:19Z</time>
      </trkpt>
      <trkpt lat="44.30463" lon="6.15556">
        <ele>1305</ele>
        <time>2018-08-17T09:16:20Z</time>
      </trkpt>
      <trkpt lat="44.30463" lon="6.1556">
        <ele>1305.1999512</ele>
        <time>2018-08-17T09:16:21Z</time>
      </trkpt>
      <trkpt lat="44.30462" lon="6.15563">
        <ele>1305.4000244</ele>
        <time>2018-08-17T09:16:22Z</time>
      </trkpt>
      <trkpt lat="44.30462" lon="6.15566">
        <ele>1305.5999756</ele>
        <time>2018-08-17T09:16:23Z</time>
      </trkpt>
      <trkpt lat="44.30461" lon="6.15569">
        <ele>1305.8000488</ele>
        <time>2018-08-17T09:16:24Z</time>
      </trkpt>
      <trkpt lat="44.3046" lon="6.15573">
        <ele>1306.1999512</ele>
        <time>2018-08-17T09:16:25Z</time>
      </trkpt>
      <trkpt lat="44.30459" lon="6.15576">
        <ele>1306.1999512</ele>
        <time>2018-08-17T09:16:26Z</time>
      </trkpt>
      <trkpt lat="44.30458" lon="6.15579">
        <ele>1306.4000244</ele>
        <time>2018-08-17T09:16:27Z</time>
      </trkpt>
      <trkpt lat="44.30456" lon="6.15602">
        <ele>1308</ele>
        <time>2018-08-17T09:16:34Z</time>
      </trkpt>
      <trkpt lat="44.30455" lon="6.15615">
        <ele>1310.1999512</ele>
        <time>2018-08-17T09:16:44Z</time>
      </trkpt>
      <trkpt lat="44.30454" lon="6.15618">
        <ele>1311.1999512</ele>
        <time>2018-08-17T09:16:48Z</time>
      </trkpt>
      <trkpt lat="44.30453" lon="6.15627">
        <ele>1311.5999756</ele>
        <time>2018-08-17T09:17:20Z</time>
      </trkpt>
      <trkpt lat="44.30453" lon="6.15625">
        <ele>1311.5999756</ele>
        <time>2018-08-17T09:17:58Z</time>
      </trkpt>
      <trkpt lat="44.3045" lon="6.15633">
        <ele>1311.8000488</ele>
        <time>2018-08-17T09:18:31Z</time>
      </trkpt>
      <trkpt lat="44.30451" lon="6.15636">
        <ele>1311.8000488</ele>
        <time>2018-08-17T09:18:32Z</time>
      </trkpt>
      <trkpt lat="44.30451" lon="6.15639">
        <ele>1311.8000488</ele>
        <time>2018-08-17T09:18:33Z</time>
      </trkpt>
      <trkpt lat="44.30452" lon="6.15642">
        <ele>1312</ele>
        <time>2018-08-17T09:18:34Z</time>
      </trkpt>
      <trkpt lat="44.30453" lon="6.15645">
        <ele>1312</ele>
        <time>2018-08-17T09:18:35Z</time>
      </trkpt>
      <trkpt lat="44.30453" lon="6.15647">
        <ele>1312</ele>
        <time>2018-08-17T09:18:36Z</time>
      </trkpt>
      <trkpt lat="44.30453" lon="6.1565">
        <ele>1312</ele>
        <time>2018-08-17T09:18:37Z</time>
      </trkpt>
      <trkpt lat="44.30452" lon="6.15652">
        <ele>1312.1999512</ele>
        <time>2018-08-17T09:18:38Z</time>
      </trkpt>
      <trkpt lat="44.30452" lon="6.15654">
        <ele>1312.1999512</ele>
        <time>2018-08-17T09:18:39Z</time>
      </trkpt>
      <trkpt lat="44.30453" lon="6.15658">
        <ele>1312.5999756</ele>
        <time>2018-08-17T09:18:41Z</time>
      </trkpt>
      <trkpt lat="44.30454" lon="6.1566">
        <ele>1313</ele>
        <time>2018-08-17T09:18:42Z</time>
      </trkpt>
      <trkpt lat="44.30454" lon="6.15665">
        <ele>1316</ele>
        <time>2018-08-17T09:18:54Z</time>
      </trkpt>
      <trkpt lat="44.30452" lon="6.15685">
        <ele>1317.5999756</ele>
        <time>2018-08-17T09:19:28Z</time>
      </trkpt>
      <trkpt lat="44.30452" lon="6.15703">
        <ele>1320.4000244</ele>
        <time>2018-08-17T09:19:58Z</time>
      </trkpt>
      <trkpt lat="44.30456" lon="6.15721">
        <ele>1321.1999512</ele>
        <time>2018-08-17T09:20:21Z</time>
      </trkpt>
      <trkpt lat="44.30456" lon="6.15751">
        <ele>1322.4000244</ele>
        <time>2018-08-17T09:20:44Z</time>
      </trkpt>
      <trkpt lat="44.30449" lon="6.15772">
        <ele>1324.8000488</ele>
        <time>2018-08-17T09:21:05Z</time>
      </trkpt>
      <trkpt lat="44.30442" lon="6.15773">
        <ele>1326.1999512</ele>
        <time>2018-08-17T09:21:29Z</time>
      </trkpt>
      <trkpt lat="44.30437" lon="6.15775">
        <ele>1326.1999512</ele>
        <time>2018-08-17T09:22:04Z</time>
      </trkpt>
      <trkpt lat="44.30438" lon="6.1578">
        <ele>1326.4000244</ele>
        <time>2018-08-17T09:22:28Z</time>
      </trkpt>
      <trkpt lat="44.3044" lon="6.15776">
        <ele>1325.5999756</ele>
        <time>2018-08-17T09:22:47Z</time>
      </trkpt>
      <trkpt lat="44.30443" lon="6.15776">
        <ele>1325.4000244</ele>
        <time>2018-08-17T09:24:13Z</time>
      </trkpt>
      <trkpt lat="44.30441" lon="6.15776">
        <ele>1325.8000488</ele>
        <time>2018-08-17T09:25:13Z</time>
      </trkpt>
      <trkpt lat="44.30444" lon="6.15778">
        <ele>1326.4000244</ele>
        <time>2018-08-17T09:25:37Z</time>
      </trkpt>
      <trkpt lat="44.30446" lon="6.15781">
        <ele>1326</ele>
        <time>2018-08-17T09:25:53Z</time>
      </trkpt>
      <trkpt lat="44.30442" lon="6.15786">
        <ele>1326.4000244</ele>
        <time>2018-08-17T09:26:16Z</time>
      </trkpt>
      <trkpt lat="44.30441" lon="6.15795">
        <ele>1326.4000244</ele>
        <time>2018-08-17T09:26:20Z</time>
      </trkpt>
      <trkpt lat="44.3044" lon="6.15798">
        <ele>1326.4000244</ele>
        <time>2018-08-17T09:26:21Z</time>
      </trkpt>
      <trkpt lat="44.3044" lon="6.15802">
        <ele>1326.4000244</ele>
        <time>2018-08-17T09:26:22Z</time>
      </trkpt>
      <trkpt lat="44.30438" lon="6.15825">
        <ele>1326.8000488</ele>
        <time>2018-08-17T09:26:28Z</time>
      </trkpt>
      <trkpt lat="44.30436" lon="6.15828">
        <ele>1326.8000488</ele>
        <time>2018-08-17T09:26:29Z</time>
      </trkpt>
      <trkpt lat="44.30435" lon="6.15831">
        <ele>1327</ele>
        <time>2018-08-17T09:26:30Z</time>
      </trkpt>
      <trkpt lat="44.30434" lon="6.15835">
        <ele>1327</ele>
        <time>2018-08-17T09:26:31Z</time>
      </trkpt>
      <trkpt lat="44.30434" lon="6.15839">
        <ele>1327</ele>
        <time>2018-08-17T09:26:32Z</time>
      </trkpt>
      <trkpt lat="44.30419" lon="6.15883">
        <ele>1330.1999512</ele>
        <time>2018-08-17T09:26:46Z</time>
      </trkpt>
      <trkpt lat="44.30384" lon="6.15927">
        <ele>1331.8000488</ele>
        <time>2018-08-17T09:27:01Z</time>
      </trkpt>
      <trkpt lat="44.3036" lon="6.15957">
        <ele>1331.1999512</ele>
        <time>2018-08-17T09:27:12Z</time>
      </trkpt>
      <trkpt lat="44.30329" lon="6.15958">
        <ele>1331.1999512</ele>
        <time>2018-08-17T09:27:24Z</time>
      </trkpt>
      <trkpt lat="44.30295" lon="6.15957">
        <ele>1331.4000244</ele>
        <time>2018-08-17T09:27:37Z</time>
      </trkpt>
      <trkpt lat="44.3026" lon="6.15998">
        <ele>1331.1999512</ele>
        <time>2018-08-17T09:27:52Z</time>
      </trkpt>
      <trkpt lat="44.3025" lon="6.16037">
        <ele>1331.1999512</ele>
        <time>2018-08-17T09:28:04Z</time>
      </trkpt>
      <trkpt lat="44.30238" lon="6.16076">
        <ele>1333.8000488</ele>
        <time>2018-08-17T09:28:18Z</time>
      </trkpt>
      <trkpt lat="44.30238" lon="6.16079">
        <ele>1334</ele>
        <time>2018-08-17T09:28:19Z</time>
      </trkpt>
      <trkpt lat="44.30238" lon="6.16104">
        <ele>1336.1999512</ele>
        <time>2018-08-17T09:28:27Z</time>
      </trkpt>
      <trkpt lat="44.30227" lon="6.16149">
        <ele>1338.8000488</ele>
        <time>2018-08-17T09:28:41Z</time>
      </trkpt>
      <trkpt lat="44.30211" lon="6.16187">
        <ele>1340.4000244</ele>
        <time>2018-08-17T09:28:51Z</time>
      </trkpt>
      <trkpt lat="44.30198" lon="6.16215">
        <ele>1341</ele>
        <time>2018-08-17T09:28:59Z</time>
      </trkpt>
      <trkpt lat="44.30196" lon="6.16218">
        <ele>1341</ele>
        <time>2018-08-17T09:29:00Z</time>
      </trkpt>
      <trkpt lat="44.30193" lon="6.1622">
        <ele>1341.1999512</ele>
        <time>2018-08-17T09:29:01Z</time>
      </trkpt>
      <trkpt lat="44.30155" lon="6.16243">
        <ele>1342.5999756</ele>
        <time>2018-08-17T09:29:15Z</time>
      </trkpt>
      <trkpt lat="44.30125" lon="6.16248">
        <ele>1343.5999756</ele>
        <time>2018-08-17T09:29:26Z</time>
      </trkpt>
      <trkpt lat="44.30094" lon="6.16265">
        <ele>1344</ele>
        <time>2018-08-17T09:29:40Z</time>
      </trkpt>
      <trkpt lat="44.30047" lon="6.16263">
        <ele>1345.5999756</ele>
        <time>2018-08-17T09:29:55Z</time>
      </trkpt>
      <trkpt lat="44.30023" lon="6.16265">
        <ele>1347.4000244</ele>
        <time>2018-08-17T09:30:06Z</time>
      </trkpt>
      <trkpt lat="44.30012" lon="6.16266">
        <ele>1348.4000244</ele>
        <time>2018-08-17T09:30:11Z</time>
      </trkpt>
      <trkpt lat="44.30009" lon="6.16271">
        <ele>1348.5999756</ele>
        <time>2018-08-17T09:30:13Z</time>
      </trkpt>
      <trkpt lat="44.30008" lon="6.16274">
        <ele>1348.8000488</ele>
        <time>2018-08-17T09:30:14Z</time>
      </trkpt>
      <trkpt lat="44.30007" lon="6.16277">
        <ele>1348.8000488</ele>
        <time>2018-08-17T09:30:15Z</time>
      </trkpt>
      <trkpt lat="44.29999" lon="6.16304">
        <ele>1350.8000488</ele>
        <time>2018-08-17T09:30:25Z</time>
      </trkpt>
      <trkpt lat="44.29997" lon="6.16318">
        <ele>1351.1999512</ele>
        <time>2018-08-17T09:30:30Z</time>
      </trkpt>
      <trkpt lat="44.29997" lon="6.16322">
        <ele>1351.4000244</ele>
        <time>2018-08-17T09:30:31Z</time>
      </trkpt>
      <trkpt lat="44.30011" lon="6.16358">
        <ele>1354.1999512</ele>
        <time>2018-08-17T09:30:43Z</time>
      </trkpt>
      <trkpt lat="44.30025" lon="6.16384">
        <ele>1357</ele>
        <time>2018-08-17T09:30:53Z</time>
      </trkpt>
      <trkpt lat="44.30026" lon="6.16387">
        <ele>1357</ele>
        <time>2018-08-17T09:30:54Z</time>
      </trkpt>
      <trkpt lat="44.30027" lon="6.16389">
        <ele>1357.1999512</ele>
        <time>2018-08-17T09:30:55Z</time>
      </trkpt>
      <trkpt lat="44.30024" lon="6.16433">
        <ele>1360.1999512</ele>
        <time>2018-08-17T09:31:06Z</time>
      </trkpt>
      <trkpt lat="44.3001" lon="6.16474">
        <ele>1362</ele>
        <time>2018-08-17T09:31:17Z</time>
      </trkpt>
      <trkpt lat="44.29988" lon="6.16513">
        <ele>1363.1999512</ele>
        <time>2018-08-17T09:31:30Z</time>
      </trkpt>
      <trkpt lat="44.29984" lon="6.16519">
        <ele>1363.1999512</ele>
        <time>2018-08-17T09:31:32Z</time>
      </trkpt>
      <trkpt lat="44.29982" lon="6.16522">
        <ele>1363.4000244</ele>
        <time>2018-08-17T09:31:33Z</time>
      </trkpt>
      <trkpt lat="44.29979" lon="6.16524">
        <ele>1363.4000244</ele>
        <time>2018-08-17T09:31:34Z</time>
      </trkpt>
      <trkpt lat="44.29977" lon="6.16526">
        <ele>1363.5999756</ele>
        <time>2018-08-17T09:31:35Z</time>
      </trkpt>
      <trkpt lat="44.29976" lon="6.16529">
        <ele>1363.8000488</ele>
        <time>2018-08-17T09:31:36Z</time>
      </trkpt>
      <trkpt lat="44.29973" lon="6.16531">
        <ele>1363.8000488</ele>
        <time>2018-08-17T09:31:37Z</time>
      </trkpt>
      <trkpt lat="44.29971" lon="6.16534">
        <ele>1364</ele>
        <time>2018-08-17T09:31:38Z</time>
      </trkpt>
      <trkpt lat="44.29968" lon="6.16535">
        <ele>1364</ele>
        <time>2018-08-17T09:31:39Z</time>
      </trkpt>
      <trkpt lat="44.29966" lon="6.16537">
        <ele>1364.1999512</ele>
        <time>2018-08-17T09:31:40Z</time>
      </trkpt>
      <trkpt lat="44.29963" lon="6.16539">
        <ele>1364.4000244</ele>
        <time>2018-08-17T09:31:41Z</time>
      </trkpt>
      <trkpt lat="44.29962" lon="6.16541">
        <ele>1364.5999756</ele>
        <time>2018-08-17T09:31:42Z</time>
      </trkpt>
      <trkpt lat="44.29961" lon="6.16544">
        <ele>1364.5999756</ele>
        <time>2018-08-17T09:31:43Z</time>
      </trkpt>
      <trkpt lat="44.29941" lon="6.16568">
        <ele>1365.1999512</ele>
        <time>2018-08-17T09:31:55Z</time>
      </trkpt>
      <trkpt lat="44.29934" lon="6.16578">
        <ele>1365.8000488</ele>
        <time>2018-08-17T09:32:00Z</time>
      </trkpt>
      <trkpt lat="44.29934" lon="6.16582">
        <ele>1365.8000488</ele>
        <time>2018-08-17T09:32:01Z</time>
      </trkpt>
      <trkpt lat="44.29934" lon="6.16586">
        <ele>1366</ele>
        <time>2018-08-17T09:32:02Z</time>
      </trkpt>
      <trkpt lat="44.29927" lon="6.16615">
        <ele>1367.8000488</ele>
        <time>2018-08-17T09:32:15Z</time>
      </trkpt>
      <trkpt lat="44.29921" lon="6.16649">
        <ele>1368.5999756</ele>
        <time>2018-08-17T09:32:27Z</time>
      </trkpt>
      <trkpt lat="44.29898" lon="6.16689">
        <ele>1370.4000244</ele>
        <time>2018-08-17T09:32:41Z</time>
      </trkpt>
      <trkpt lat="44.29895" lon="6.16696">
        <ele>1371</ele>
        <time>2018-08-17T09:32:44Z</time>
      </trkpt>
      <trkpt lat="44.29894" lon="6.16698">
        <ele>1371.1999512</ele>
        <time>2018-08-17T09:32:45Z</time>
      </trkpt>
      <trkpt lat="44.29894" lon="6.16701">
        <ele>1371.4000244</ele>
        <time>2018-08-17T09:32:46Z</time>
      </trkpt>
      <trkpt lat="44.29881" lon="6.16729">
        <ele>1372.8000488</ele>
        <time>2018-08-17T09:32:58Z</time>
      </trkpt>
      <trkpt lat="44.29879" lon="6.16732">
        <ele>1373</ele>
        <time>2018-08-17T09:32:59Z</time>
      </trkpt>
      <trkpt lat="44.29878" lon="6.16734">
        <ele>1373</ele>
        <time>2018-08-17T09:33:00Z</time>
      </trkpt>
      <trkpt lat="44.29877" lon="6.16736">
        <ele>1373.4000244</ele>
        <time>2018-08-17T09:33:01Z</time>
      </trkpt>
      <trkpt lat="44.29875" lon="6.16771">
        <ele>1374.1999512</ele>
        <time>2018-08-17T09:33:11Z</time>
      </trkpt>
      <trkpt lat="44.29866" lon="6.16796">
        <ele>1376.4000244</ele>
        <time>2018-08-17T09:33:23Z</time>
      </trkpt>
      <trkpt lat="44.29858" lon="6.1684">
        <ele>1378.1999512</ele>
        <time>2018-08-17T09:33:37Z</time>
      </trkpt>
      <trkpt lat="44.29855" lon="6.16866">
        <ele>1378.4000244</ele>
        <time>2018-08-17T09:33:44Z</time>
      </trkpt>
      <trkpt lat="44.29833" lon="6.16909">
        <ele>1379</ele>
        <time>2018-08-17T09:33:56Z</time>
      </trkpt>
      <trkpt lat="44.29816" lon="6.16937">
        <ele>1379.4000244</ele>
        <time>2018-08-17T09:34:07Z</time>
      </trkpt>
      <trkpt lat="44.29814" lon="6.16939">
        <ele>1379.4000244</ele>
        <time>2018-08-17T09:34:08Z</time>
      </trkpt>
      <trkpt lat="44.29812" lon="6.16942">
        <ele>1379.4000244</ele>
        <time>2018-08-17T09:34:09Z</time>
      </trkpt>
      <trkpt lat="44.29811" lon="6.16944">
        <ele>1379.5999756</ele>
        <time>2018-08-17T09:34:10Z</time>
      </trkpt>
      <trkpt lat="44.29809" lon="6.16946">
        <ele>1379.8000488</ele>
        <time>2018-08-17T09:34:11Z</time>
      </trkpt>
      <trkpt lat="44.29806" lon="6.16949">
        <ele>1379.8000488</ele>
        <time>2018-08-17T09:34:12Z</time>
      </trkpt>
      <trkpt lat="44.29793" lon="6.16979">
        <ele>1382.4000244</ele>
        <time>2018-08-17T09:34:23Z</time>
      </trkpt>
      <trkpt lat="44.29784" lon="6.17013">
        <ele>1385</ele>
        <time>2018-08-17T09:34:37Z</time>
      </trkpt>
      <trkpt lat="44.29782" lon="6.17025">
        <ele>1386</ele>
        <time>2018-08-17T09:34:42Z</time>
      </trkpt>
      <trkpt lat="44.29782" lon="6.17027">
        <ele>1386.4000244</ele>
        <time>2018-08-17T09:34:43Z</time>
      </trkpt>
      <trkpt lat="44.29782" lon="6.1703">
        <ele>1386.4000244</ele>
        <time>2018-08-17T09:34:44Z</time>
      </trkpt>
      <trkpt lat="44.29781" lon="6.17032">
        <ele>1386.5999756</ele>
        <time>2018-08-17T09:34:45Z</time>
      </trkpt>
      <trkpt lat="44.2978" lon="6.17035">
        <ele>1386.8000488</ele>
        <time>2018-08-17T09:34:46Z</time>
      </trkpt>
      <trkpt lat="44.2978" lon="6.17038">
        <ele>1387</ele>
        <time>2018-08-17T09:34:47Z</time>
      </trkpt>
      <trkpt lat="44.2978" lon="6.1704">
        <ele>1387.1999512</ele>
        <time>2018-08-17T09:34:48Z</time>
      </trkpt>
      <trkpt lat="44.29779" lon="6.17043">
        <ele>1387.4000244</ele>
        <time>2018-08-17T09:34:49Z</time>
      </trkpt>
      <trkpt lat="44.29779" lon="6.17046">
        <ele>1387.8000488</ele>
        <time>2018-08-17T09:34:50Z</time>
      </trkpt>
      <trkpt lat="44.29763" lon="6.17081">
        <ele>1390.8000488</ele>
        <time>2018-08-17T09:35:02Z</time>
      </trkpt>
      <trkpt lat="44.29744" lon="6.17104">
        <ele>1394</ele>
        <time>2018-08-17T09:35:14Z</time>
      </trkpt>
      <trkpt lat="44.2972" lon="6.17123">
        <ele>1395.4000244</ele>
        <time>2018-08-17T09:35:25Z</time>
      </trkpt>
      <trkpt lat="44.29704" lon="6.17154">
        <ele>1398.5999756</ele>
        <time>2018-08-17T09:35:40Z</time>
      </trkpt>
      <trkpt lat="44.29701" lon="6.17192">
        <ele>1400.8000488</ele>
        <time>2018-08-17T09:35:52Z</time>
      </trkpt>
      <trkpt lat="44.297" lon="6.17195">
        <ele>1400.8000488</ele>
        <time>2018-08-17T09:35:53Z</time>
      </trkpt>
      <trkpt lat="44.29671" lon="6.1723">
        <ele>1402.4000244</ele>
        <time>2018-08-17T09:36:07Z</time>
      </trkpt>
      <trkpt lat="44.29646" lon="6.17249">
        <ele>1401.8000488</ele>
        <time>2018-08-17T09:36:18Z</time>
      </trkpt>
      <trkpt lat="44.2961" lon="6.17249">
        <ele>1401.4000244</ele>
        <time>2018-08-17T09:36:28Z</time>
      </trkpt>
      <trkpt lat="44.29582" lon="6.17236">
        <ele>1403</ele>
        <time>2018-08-17T09:36:44Z</time>
      </trkpt>
      <trkpt lat="44.29552" lon="6.1724">
        <ele>1404</ele>
        <time>2018-08-17T09:36:55Z</time>
      </trkpt>
      <trkpt lat="44.29552" lon="6.17241">
        <ele>1404</ele>
        <time>2018-08-17T09:36:56Z</time>
      </trkpt>
      <trkpt lat="44.29547" lon="6.17249">
        <ele>1404</ele>
        <time>2018-08-17T09:37:01Z</time>
      </trkpt>
      <trkpt lat="44.29546" lon="6.17272">
        <ele>1404.4000244</ele>
        <time>2018-08-17T09:37:11Z</time>
      </trkpt>
      <trkpt lat="44.29546" lon="6.17312">
        <ele>1403.4000244</ele>
        <time>2018-08-17T09:37:21Z</time>
      </trkpt>
      <trkpt lat="44.2954" lon="6.17378">
        <ele>1401.4000244</ele>
        <time>2018-08-17T09:37:32Z</time>
      </trkpt>
      <trkpt lat="44.29539" lon="6.17421">
        <ele>1399.1999512</ele>
        <time>2018-08-17T09:37:41Z</time>
      </trkpt>
      <trkpt lat="44.29531" lon="6.17466">
        <ele>1399.1999512</ele>
        <time>2018-08-17T09:37:53Z</time>
      </trkpt>
      <trkpt lat="44.29531" lon="6.17482">
        <ele>1399.4000244</ele>
        <time>2018-08-17T09:37:56Z</time>
      </trkpt>
      <trkpt lat="44.2953" lon="6.17486">
        <ele>1399.4000244</ele>
        <time>2018-08-17T09:37:57Z</time>
      </trkpt>
      <trkpt lat="44.29522" lon="6.17504">
        <ele>1400.4000244</ele>
        <time>2018-08-17T09:38:02Z</time>
      </trkpt>
      <trkpt lat="44.29522" lon="6.17507">
        <ele>1400.5999756</ele>
        <time>2018-08-17T09:38:03Z</time>
      </trkpt>
      <trkpt lat="44.29522" lon="6.1751">
        <ele>1400.8000488</ele>
        <time>2018-08-17T09:38:04Z</time>
      </trkpt>
      <trkpt lat="44.29521" lon="6.17513">
        <ele>1401</ele>
        <time>2018-08-17T09:38:05Z</time>
      </trkpt>
      <trkpt lat="44.2952" lon="6.17516">
        <ele>1401.1999512</ele>
        <time>2018-08-17T09:38:06Z</time>
      </trkpt>
      <trkpt lat="44.29519" lon="6.17519">
        <ele>1401.1999512</ele>
        <time>2018-08-17T09:38:07Z</time>
      </trkpt>
      <trkpt lat="44.29518" lon="6.17521">
        <ele>1401.4000244</ele>
        <time>2018-08-17T09:38:08Z</time>
      </trkpt>
      <trkpt lat="44.29514" lon="6.17553">
        <ele>1402.8000488</ele>
        <time>2018-08-17T09:38:22Z</time>
      </trkpt>
      <trkpt lat="44.2952" lon="6.17588">
        <ele>1405.8000488</ele>
        <time>2018-08-17T09:38:36Z</time>
      </trkpt>
      <trkpt lat="44.29534" lon="6.17611">
        <ele>1408.8000488</ele>
        <time>2018-08-17T09:38:47Z</time>
      </trkpt>
      <trkpt lat="44.29556" lon="6.17638">
        <ele>1409.1999512</ele>
        <time>2018-08-17T09:39:01Z</time>
      </trkpt>
      <trkpt lat="44.29578" lon="6.17665">
        <ele>1409.4000244</ele>
        <time>2018-08-17T09:39:15Z</time>
      </trkpt>
      <trkpt lat="44.29599" lon="6.17689">
        <ele>1410.5999756</ele>
        <time>2018-08-17T09:39:28Z</time>
      </trkpt>
      <trkpt lat="44.29605" lon="6.17736">
        <ele>1409.8000488</ele>
        <time>2018-08-17T09:39:39Z</time>
      </trkpt>
      <trkpt lat="44.2961" lon="6.1777">
        <ele>1409</ele>
        <time>2018-08-17T09:39:49Z</time>
      </trkpt>
      <trkpt lat="44.29611" lon="6.17772">
        <ele>1409</ele>
        <time>2018-08-17T09:39:50Z</time>
      </trkpt>
      <trkpt lat="44.29628" lon="6.17809">
        <ele>1407.1999512</ele>
        <time>2018-08-17T09:40:00Z</time>
      </trkpt>
      <trkpt lat="44.29628" lon="6.17873">
        <ele>1404.5999756</ele>
        <time>2018-08-17T09:40:11Z</time>
      </trkpt>
      <trkpt lat="44.29597" lon="6.1793">
        <ele>1403.5999756</ele>
        <time>2018-08-17T09:40:22Z</time>
      </trkpt>
      <trkpt lat="44.29584" lon="6.17934">
        <ele>1403.4000244</ele>
        <time>2018-08-17T09:40:24Z</time>
      </trkpt>
      <trkpt lat="44.2952" lon="6.17955">
        <ele>1402.5999756</ele>
        <time>2018-08-17T09:40:34Z</time>
      </trkpt>
      <trkpt lat="44.29478" lon="6.17978">
        <ele>1400.4000244</ele>
        <time>2018-08-17T09:40:45Z</time>
      </trkpt>
      <trkpt lat="44.29464" lon="6.18003">
        <ele>1400.5999756</ele>
        <time>2018-08-17T09:40:54Z</time>
      </trkpt>
      <trkpt lat="44.29431" lon="6.18031">
        <ele>1401</ele>
        <time>2018-08-17T09:41:05Z</time>
      </trkpt>
      <trkpt lat="44.29396" lon="6.18018">
        <ele>1401.4000244</ele>
        <time>2018-08-17T09:41:16Z</time>
      </trkpt>
      <trkpt lat="44.29362" lon="6.18002">
        <ele>1402.4000244</ele>
        <time>2018-08-17T09:41:28Z</time>
      </trkpt>
      <trkpt lat="44.29334" lon="6.17993">
        <ele>1403.5999756</ele>
        <time>2018-08-17T09:41:39Z</time>
      </trkpt>
      <trkpt lat="44.29297" lon="6.17986">
        <ele>1404.1999512</ele>
        <time>2018-08-17T09:41:51Z</time>
      </trkpt>
      <trkpt lat="44.2926" lon="6.17977">
        <ele>1404.1999512</ele>
        <time>2018-08-17T09:42:02Z</time>
      </trkpt>
      <trkpt lat="44.29255" lon="6.17984">
        <ele>1404</ele>
        <time>2018-08-17T09:42:06Z</time>
      </trkpt>
      <trkpt lat="44.29256" lon="6.17986">
        <ele>1404</ele>
        <time>2018-08-17T09:42:07Z</time>
      </trkpt>
      <trkpt lat="44.29259" lon="6.17988">
        <ele>1404</ele>
        <time>2018-08-17T09:42:08Z</time>
      </trkpt>
      <trkpt lat="44.29296" lon="6.18016">
        <ele>1403.8000488</ele>
        <time>2018-08-17T09:42:21Z</time>
      </trkpt>
      <trkpt lat="44.29321" lon="6.18045">
        <ele>1403.1999512</ele>
        <time>2018-08-17T09:42:29Z</time>
      </trkpt>
      <trkpt lat="44.29323" lon="6.18051">
        <ele>1402.8000488</ele>
        <time>2018-08-17T09:42:30Z</time>
      </trkpt>
      <trkpt lat="44.29331" lon="6.18127">
        <ele>1401.4000244</ele>
        <time>2018-08-17T09:42:42Z</time>
      </trkpt>
      <trkpt lat="44.29325" lon="6.18162">
        <ele>1400.1999512</ele>
        <time>2018-08-17T09:42:53Z</time>
      </trkpt>
      <trkpt lat="44.29324" lon="6.18163">
        <ele>1400</ele>
        <time>2018-08-17T09:42:54Z</time>
      </trkpt>
      <trkpt lat="44.29317" lon="6.18172">
        <ele>1398.4000244</ele>
        <time>2018-08-17T09:43:20Z</time>
      </trkpt>
      <trkpt lat="44.29317" lon="6.18173">
        <ele>1398.1999512</ele>
        <time>2018-08-17T09:43:28Z</time>
      </trkpt>
      <trkpt lat="44.29318" lon="6.18172">
        <ele>1398.1999512</ele>
        <time>2018-08-17T09:44:07Z</time>
      </trkpt>
      <trkpt lat="44.29317" lon="6.18173">
        <ele>1398.1999512</ele>
        <time>2018-08-17T09:44:30Z</time>
      </trkpt>
      <trkpt lat="44.29324" lon="6.18171">
        <ele>1398.1999512</ele>
        <time>2018-08-17T09:45:17Z</time>
      </trkpt>
      <trkpt lat="44.29327" lon="6.18174">
        <ele>1398.1999512</ele>
        <time>2018-08-17T09:46:03Z</time>
      </trkpt>
      <trkpt lat="44.29323" lon="6.18176">
        <ele>1398.4000244</ele>
        <time>2018-08-17T09:46:47Z</time>
      </trkpt>
      <trkpt lat="44.29321" lon="6.18175">
        <ele>1398.1999512</ele>
        <time>2018-08-17T09:47:37Z</time>
      </trkpt>
      <trkpt lat="44.29321" lon="6.18174">
        <ele>1397.8000488</ele>
        <time>2018-08-17T09:48:18Z</time>
      </trkpt>
      <trkpt lat="44.29321" lon="6.18174">
        <ele>1398</ele>
        <time>2018-08-17T09:49:04Z</time>
      </trkpt>
      <trkpt lat="44.29321" lon="6.18178">
        <ele>1398</ele>
        <time>2018-08-17T09:49:54Z</time>
      </trkpt>
      <trkpt lat="44.29322" lon="6.18175">
        <ele>1397.8000488</ele>
        <time>2018-08-17T09:50:48Z</time>
      </trkpt>
      <trkpt lat="44.29313" lon="6.18171">
        <ele>1398</ele>
        <time>2018-08-17T09:51:10Z</time>
      </trkpt>
      <trkpt lat="44.29312" lon="6.18171">
        <ele>1398</ele>
        <time>2018-08-17T09:51:11Z</time>
      </trkpt>
      <trkpt lat="44.29315" lon="6.1817">
        <ele>1397.8000488</ele>
        <time>2018-08-17T09:51:54Z</time>
      </trkpt>
      <trkpt lat="44.29318" lon="6.18174">
        <ele>1397.8000488</ele>
        <time>2018-08-17T09:52:36Z</time>
      </trkpt>
      <trkpt lat="44.29315" lon="6.18174">
        <ele>1398</ele>
        <time>2018-08-17T09:53:03Z</time>
      </trkpt>
      <trkpt lat="44.29317" lon="6.18172">
        <ele>1398</ele>
        <time>2018-08-17T09:53:09Z</time>
      </trkpt>
      <trkpt lat="44.29322" lon="6.18176">
        <ele>1397.8000488</ele>
        <time>2018-08-17T09:53:51Z</time>
      </trkpt>
      <trkpt lat="44.29318" lon="6.18181">
        <ele>1397.8000488</ele>
        <time>2018-08-17T09:53:54Z</time>
      </trkpt>
      <trkpt lat="44.29314" lon="6.18186">
        <ele>1397.8000488</ele>
        <time>2018-08-17T09:53:56Z</time>
      </trkpt>
      <trkpt lat="44.29288" lon="6.18231">
        <ele>1397.5999756</ele>
        <time>2018-08-17T09:54:09Z</time>
      </trkpt>
      <trkpt lat="44.2925" lon="6.1827">
        <ele>1399</ele>
        <time>2018-08-17T09:54:24Z</time>
      </trkpt>
      <trkpt lat="44.29216" lon="6.18269">
        <ele>1401.1999512</ele>
        <time>2018-08-17T09:54:35Z</time>
      </trkpt>
      <trkpt lat="44.29184" lon="6.18262">
        <ele>1404.4000244</ele>
        <time>2018-08-17T09:54:45Z</time>
      </trkpt>
      <trkpt lat="44.29168" lon="6.18284">
        <ele>1406.1999512</ele>
        <time>2018-08-17T09:54:54Z</time>
      </trkpt>
      <trkpt lat="44.29164" lon="6.18331">
        <ele>1409.4000244</ele>
        <time>2018-08-17T09:55:07Z</time>
      </trkpt>
      <trkpt lat="44.29164" lon="6.18374">
        <ele>1412.4000244</ele>
        <time>2018-08-17T09:55:20Z</time>
      </trkpt>
      <trkpt lat="44.2917" lon="6.18418">
        <ele>1415.4000244</ele>
        <time>2018-08-17T09:55:32Z</time>
      </trkpt>
      <trkpt lat="44.29143" lon="6.18436">
        <ele>1417.8000488</ele>
        <time>2018-08-17T09:55:42Z</time>
      </trkpt>
      <trkpt lat="44.29108" lon="6.18424">
        <ele>1420</ele>
        <time>2018-08-17T09:55:53Z</time>
      </trkpt>
      <trkpt lat="44.29081" lon="6.18441">
        <ele>1422.1999512</ele>
        <time>2018-08-17T09:56:03Z</time>
      </trkpt>
      <trkpt lat="44.29049" lon="6.18476">
        <ele>1424.1999512</ele>
        <time>2018-08-17T09:56:16Z</time>
      </trkpt>
      <trkpt lat="44.29016" lon="6.18498">
        <ele>1426.5999756</ele>
        <time>2018-08-17T09:56:28Z</time>
      </trkpt>
      <trkpt lat="44.28983" lon="6.18512">
        <ele>1428.8000488</ele>
        <time>2018-08-17T09:56:40Z</time>
      </trkpt>
      <trkpt lat="44.28945" lon="6.18515">
        <ele>1431.1999512</ele>
        <time>2018-08-17T09:56:51Z</time>
      </trkpt>
      <trkpt lat="44.28916" lon="6.18509">
        <ele>1431.5999756</ele>
        <time>2018-08-17T09:56:59Z</time>
      </trkpt>
      <trkpt lat="44.2891" lon="6.18508">
        <ele>1431.5999756</ele>
        <time>2018-08-17T09:57:00Z</time>
      </trkpt>
      <trkpt lat="44.28879" lon="6.18478">
        <ele>1431.1999512</ele>
        <time>2018-08-17T09:57:09Z</time>
      </trkpt>
      <trkpt lat="44.28875" lon="6.18476">
        <ele>1431</ele>
        <time>2018-08-17T09:57:10Z</time>
      </trkpt>
      <trkpt lat="44.28871" lon="6.18476">
        <ele>1431</ele>
        <time>2018-08-17T09:57:11Z</time>
      </trkpt>
      <trkpt lat="44.28869" lon="6.18476">
        <ele>1430.8000488</ele>
        <time>2018-08-17T09:57:12Z</time>
      </trkpt>
      <trkpt lat="44.28866" lon="6.18478">
        <ele>1430.5999756</ele>
        <time>2018-08-17T09:57:13Z</time>
      </trkpt>
      <trkpt lat="44.28865" lon="6.18481">
        <ele>1430.5999756</ele>
        <time>2018-08-17T09:57:14Z</time>
      </trkpt>
      <trkpt lat="44.28865" lon="6.18485">
        <ele>1430.4000244</ele>
        <time>2018-08-17T09:57:15Z</time>
      </trkpt>
      <trkpt lat="44.28865" lon="6.18489">
        <ele>1430.1999512</ele>
        <time>2018-08-17T09:57:16Z</time>
      </trkpt>
      <trkpt lat="44.28864" lon="6.18494">
        <ele>1430</ele>
        <time>2018-08-17T09:57:17Z</time>
      </trkpt>
      <trkpt lat="44.28862" lon="6.18507">
        <ele>1429.5999756</ele>
        <time>2018-08-17T09:57:20Z</time>
      </trkpt>
      <trkpt lat="44.28861" lon="6.18511">
        <ele>1429.5999756</ele>
        <time>2018-08-17T09:57:21Z</time>
      </trkpt>
      <trkpt lat="44.28859" lon="6.18516">
        <ele>1429.4000244</ele>
        <time>2018-08-17T09:57:22Z</time>
      </trkpt>
      <trkpt lat="44.28857" lon="6.1852">
        <ele>1429.1999512</ele>
        <time>2018-08-17T09:57:23Z</time>
      </trkpt>
      <trkpt lat="44.28855" lon="6.18524">
        <ele>1429.1999512</ele>
        <time>2018-08-17T09:57:24Z</time>
      </trkpt>
      <trkpt lat="44.28852" lon="6.18527">
        <ele>1429</ele>
        <time>2018-08-17T09:57:25Z</time>
      </trkpt>
      <trkpt lat="44.28849" lon="6.1853">
        <ele>1429</ele>
        <time>2018-08-17T09:57:26Z</time>
      </trkpt>
      <trkpt lat="44.28846" lon="6.18534">
        <ele>1429</ele>
        <time>2018-08-17T09:57:27Z</time>
      </trkpt>
      <trkpt lat="44.28842" lon="6.18537">
        <ele>1428.8000488</ele>
        <time>2018-08-17T09:57:28Z</time>
      </trkpt>
      <trkpt lat="44.28839" lon="6.1854">
        <ele>1428.8000488</ele>
        <time>2018-08-17T09:57:29Z</time>
      </trkpt>
      <trkpt lat="44.28835" lon="6.18542">
        <ele>1428.5999756</ele>
        <time>2018-08-17T09:57:30Z</time>
      </trkpt>
      <trkpt lat="44.28831" lon="6.18545">
        <ele>1428.5999756</ele>
        <time>2018-08-17T09:57:31Z</time>
      </trkpt>
      <trkpt lat="44.28826" lon="6.18549">
        <ele>1428.5999756</ele>
        <time>2018-08-17T09:57:32Z</time>
      </trkpt>
      <trkpt lat="44.28818" lon="6.18556">
        <ele>1428.5999756</ele>
        <time>2018-08-17T09:57:34Z</time>
      </trkpt>
      <trkpt lat="44.28815" lon="6.18561">
        <ele>1428.4000244</ele>
        <time>2018-08-17T09:57:35Z</time>
      </trkpt>
      <trkpt lat="44.28809" lon="6.18571">
        <ele>1428.4000244</ele>
        <time>2018-08-17T09:57:37Z</time>
      </trkpt>
      <trkpt lat="44.28806" lon="6.18576">
        <ele>1428.4000244</ele>
        <time>2018-08-17T09:57:38Z</time>
      </trkpt>
      <trkpt lat="44.28803" lon="6.18581">
        <ele>1428.1999512</ele>
        <time>2018-08-17T09:57:39Z</time>
      </trkpt>
      <trkpt lat="44.28799" lon="6.18585">
        <ele>1428.1999512</ele>
        <time>2018-08-17T09:57:40Z</time>
      </trkpt>
      <trkpt lat="44.28794" lon="6.18588">
        <ele>1428.1999512</ele>
        <time>2018-08-17T09:57:41Z</time>
      </trkpt>
      <trkpt lat="44.2879" lon="6.1859">
        <ele>1428</ele>
        <time>2018-08-17T09:57:42Z</time>
      </trkpt>
      <trkpt lat="44.28785" lon="6.18592">
        <ele>1428</ele>
        <time>2018-08-17T09:57:43Z</time>
      </trkpt>
      <trkpt lat="44.28768" lon="6.18602">
        <ele>1427.8000488</ele>
        <time>2018-08-17T09:57:47Z</time>
      </trkpt>
      <trkpt lat="44.28753" lon="6.18614">
        <ele>1427.1999512</ele>
        <time>2018-08-17T09:57:51Z</time>
      </trkpt>
      <trkpt lat="44.28749" lon="6.18617">
        <ele>1427.1999512</ele>
        <time>2018-08-17T09:57:52Z</time>
      </trkpt>
      <trkpt lat="44.28738" lon="6.18625">
        <ele>1427</ele>
        <time>2018-08-17T09:57:55Z</time>
      </trkpt>
      <trkpt lat="44.28733" lon="6.18627">
        <ele>1427</ele>
        <time>2018-08-17T09:57:56Z</time>
      </trkpt>
      <trkpt lat="44.28729" lon="6.18628">
        <ele>1426.8000488</ele>
        <time>2018-08-17T09:57:57Z</time>
      </trkpt>
      <trkpt lat="44.28725" lon="6.18628">
        <ele>1426.8000488</ele>
        <time>2018-08-17T09:57:58Z</time>
      </trkpt>
      <trkpt lat="44.28721" lon="6.18628">
        <ele>1426.8000488</ele>
        <time>2018-08-17T09:57:59Z</time>
      </trkpt>
      <trkpt lat="44.28712" lon="6.18628">
        <ele>1426.8000488</ele>
        <time>2018-08-17T09:58:01Z</time>
      </trkpt>
      <trkpt lat="44.28707" lon="6.18628">
        <ele>1426.8000488</ele>
        <time>2018-08-17T09:58:02Z</time>
      </trkpt>
      <trkpt lat="44.28703" lon="6.18627">
        <ele>1426.8000488</ele>
        <time>2018-08-17T09:58:03Z</time>
      </trkpt>
      <trkpt lat="44.28697" lon="6.18627">
        <ele>1426.8000488</ele>
        <time>2018-08-17T09:58:04Z</time>
      </trkpt>
      <trkpt lat="44.28692" lon="6.18628">
        <ele>1426.8000488</ele>
        <time>2018-08-17T09:58:05Z</time>
      </trkpt>
      <trkpt lat="44.28687" lon="6.18627">
        <ele>1426.8000488</ele>
        <time>2018-08-17T09:58:06Z</time>
      </trkpt>
      <trkpt lat="44.28683" lon="6.18627">
        <ele>1426.5999756</ele>
        <time>2018-08-17T09:58:07Z</time>
      </trkpt>
      <trkpt lat="44.28672" lon="6.18628">
        <ele>1426.5999756</ele>
        <time>2018-08-17T09:58:10Z</time>
      </trkpt>
      <trkpt lat="44.28669" lon="6.18631">
        <ele>1426.5999756</ele>
        <time>2018-08-17T09:58:11Z</time>
      </trkpt>
      <trkpt lat="44.28667" lon="6.18635">
        <ele>1426.5999756</ele>
        <time>2018-08-17T09:58:12Z</time>
      </trkpt>
      <trkpt lat="44.28666" lon="6.18639">
        <ele>1426.5999756</ele>
        <time>2018-08-17T09:58:13Z</time>
      </trkpt>
      <trkpt lat="44.28666" lon="6.18643">
        <ele>1426.5999756</ele>
        <time>2018-08-17T09:58:14Z</time>
      </trkpt>
      <trkpt lat="44.28668" lon="6.18648">
        <ele>1426.5999756</ele>
        <time>2018-08-17T09:58:15Z</time>
      </trkpt>
      <trkpt lat="44.2867" lon="6.18651">
        <ele>1426.5999756</ele>
        <time>2018-08-17T09:58:16Z</time>
      </trkpt>
      <trkpt lat="44.28674" lon="6.18655">
        <ele>1426.4000244</ele>
        <time>2018-08-17T09:58:17Z</time>
      </trkpt>
      <trkpt lat="44.28714" lon="6.187">
        <ele>1426</ele>
        <time>2018-08-17T09:58:31Z</time>
      </trkpt>
      <trkpt lat="44.28752" lon="6.18758">
        <ele>1426.8000488</ele>
        <time>2018-08-17T09:58:47Z</time>
      </trkpt>
      <trkpt lat="44.28755" lon="6.18786">
        <ele>1427.5999756</ele>
        <time>2018-08-17T09:58:58Z</time>
      </trkpt>
      <trkpt lat="44.28753" lon="6.18798">
        <ele>1427.1999512</ele>
        <time>2018-08-17T10:00:09Z</time>
      </trkpt>
      <trkpt lat="44.28749" lon="6.18795">
        <ele>1427.1999512</ele>
        <time>2018-08-17T10:00:50Z</time>
      </trkpt>
      <trkpt lat="44.28754" lon="6.18797">
        <ele>1427.1999512</ele>
        <time>2018-08-17T10:01:30Z</time>
      </trkpt>
      <trkpt lat="44.28744" lon="6.18789">
        <ele>1427.4000244</ele>
        <time>2018-08-17T10:02:13Z</time>
      </trkpt>
      <trkpt lat="44.28746" lon="6.18785">
        <ele>1427.1999512</ele>
        <time>2018-08-17T10:02:49Z</time>
      </trkpt>
      <trkpt lat="44.28749" lon="6.18787">
        <ele>1427.1999512</ele>
        <time>2018-08-17T10:02:56Z</time>
      </trkpt>
      <trkpt lat="44.28746" lon="6.18788">
        <ele>1427</ele>
        <time>2018-08-17T10:03:13Z</time>
      </trkpt>
      <trkpt lat="44.28745" lon="6.18791">
        <ele>1427</ele>
        <time>2018-08-17T10:03:14Z</time>
      </trkpt>
      <trkpt lat="44.28744" lon="6.18793">
        <ele>1427</ele>
        <time>2018-08-17T10:03:15Z</time>
      </trkpt>
      <trkpt lat="44.28744" lon="6.18795">
        <ele>1427.1999512</ele>
        <time>2018-08-17T10:03:16Z</time>
      </trkpt>
      <trkpt lat="44.28744" lon="6.18798">
        <ele>1427.1999512</ele>
        <time>2018-08-17T10:03:17Z</time>
      </trkpt>
      <trkpt lat="44.28741" lon="6.188">
        <ele>1427.1999512</ele>
        <time>2018-08-17T10:03:18Z</time>
      </trkpt>
      <trkpt lat="44.2874" lon="6.18803">
        <ele>1427.1999512</ele>
        <time>2018-08-17T10:03:19Z</time>
      </trkpt>
      <trkpt lat="44.28739" lon="6.18806">
        <ele>1427.1999512</ele>
        <time>2018-08-17T10:03:20Z</time>
      </trkpt>
      <trkpt lat="44.28737" lon="6.18809">
        <ele>1427.1999512</ele>
        <time>2018-08-17T10:03:21Z</time>
      </trkpt>
      <trkpt lat="44.28735" lon="6.18812">
        <ele>1427.4000244</ele>
        <time>2018-08-17T10:03:22Z</time>
      </trkpt>
      <trkpt lat="44.28733" lon="6.18815">
        <ele>1427.4000244</ele>
        <time>2018-08-17T10:03:23Z</time>
      </trkpt>
      <trkpt lat="44.28731" lon="6.18818">
        <ele>1427.5999756</ele>
        <time>2018-08-17T10:03:24Z</time>
      </trkpt>
      <trkpt lat="44.28711" lon="6.18842">
        <ele>1430.5999756</ele>
        <time>2018-08-17T10:03:33Z</time>
      </trkpt>
      <trkpt lat="44.28694" lon="6.18869">
        <ele>1434</ele>
        <time>2018-08-17T10:03:42Z</time>
      </trkpt>
      <trkpt lat="44.28685" lon="6.18876">
        <ele>1435.5999756</ele>
        <time>2018-08-17T10:03:46Z</time>
      </trkpt>
      <trkpt lat="44.28652" lon="6.18878">
        <ele>1438.5999756</ele>
        <time>2018-08-17T10:03:58Z</time>
      </trkpt>
      <trkpt lat="44.28638" lon="6.18876">
        <ele>1440.4000244</ele>
        <time>2018-08-17T10:04:04Z</time>
      </trkpt>
      <trkpt lat="44.28635" lon="6.18893">
        <ele>1442.4000244</ele>
        <time>2018-08-17T10:04:12Z</time>
      </trkpt>
      <trkpt lat="44.28633" lon="6.18897">
        <ele>1442.5999756</ele>
        <time>2018-08-17T10:04:13Z</time>
      </trkpt>
      <trkpt lat="44.28631" lon="6.18899">
        <ele>1442.5999756</ele>
        <time>2018-08-17T10:04:14Z</time>
      </trkpt>
      <trkpt lat="44.28628" lon="6.18901">
        <ele>1442.8000488</ele>
        <time>2018-08-17T10:04:15Z</time>
      </trkpt>
      <trkpt lat="44.28624" lon="6.18904">
        <ele>1443.1999512</ele>
        <time>2018-08-17T10:04:16Z</time>
      </trkpt>
      <trkpt lat="44.28592" lon="6.18918">
        <ele>1445.1999512</ele>
        <time>2018-08-17T10:04:27Z</time>
      </trkpt>
      <trkpt lat="44.28581" lon="6.18903">
        <ele>1446.4000244</ele>
        <time>2018-08-17T10:04:34Z</time>
      </trkpt>
      <trkpt lat="44.2858" lon="6.18899">
        <ele>1446.5999756</ele>
        <time>2018-08-17T10:04:35Z</time>
      </trkpt>
      <trkpt lat="44.28572" lon="6.18863">
        <ele>1449.5999756</ele>
        <time>2018-08-17T10:04:46Z</time>
      </trkpt>
      <trkpt lat="44.28564" lon="6.18854">
        <ele>1450.4000244</ele>
        <time>2018-08-17T10:04:50Z</time>
      </trkpt>
      <trkpt lat="44.28564" lon="6.18851">
        <ele>1450.5999756</ele>
        <time>2018-08-17T10:04:51Z</time>
      </trkpt>
      <trkpt lat="44.28565" lon="6.18845">
        <ele>1450.8000488</ele>
        <time>2018-08-17T10:04:52Z</time>
      </trkpt>
      <trkpt lat="44.28565" lon="6.18842">
        <ele>1451</ele>
        <time>2018-08-17T10:04:53Z</time>
      </trkpt>
      <trkpt lat="44.28566" lon="6.1884">
        <ele>1451.1999512</ele>
        <time>2018-08-17T10:04:54Z</time>
      </trkpt>
      <trkpt lat="44.28572" lon="6.18826">
        <ele>1452.5999756</ele>
        <time>2018-08-17T10:05:00Z</time>
      </trkpt>
      <trkpt lat="44.28574" lon="6.18808">
        <ele>1453.8000488</ele>
        <time>2018-08-17T10:05:06Z</time>
      </trkpt>
      <trkpt lat="44.28575" lon="6.18803">
        <ele>1454.1999512</ele>
        <time>2018-08-17T10:05:08Z</time>
      </trkpt>
      <trkpt lat="44.28591" lon="6.18758">
        <ele>1455.4000244</ele>
        <time>2018-08-17T10:05:17Z</time>
      </trkpt>
      <trkpt lat="44.28592" lon="6.18751">
        <ele>1455.5999756</ele>
        <time>2018-08-17T10:05:18Z</time>
      </trkpt>
      <trkpt lat="44.28595" lon="6.18739">
        <ele>1455.8000488</ele>
        <time>2018-08-17T10:05:19Z</time>
      </trkpt>
      <trkpt lat="44.28596" lon="6.18735">
        <ele>1456</ele>
        <time>2018-08-17T10:05:20Z</time>
      </trkpt>
      <trkpt lat="44.28594" lon="6.18731">
        <ele>1456.1999512</ele>
        <time>2018-08-17T10:05:21Z</time>
      </trkpt>
      <trkpt lat="44.28564" lon="6.18706">
        <ele>1459.1999512</ele>
        <time>2018-08-17T10:05:33Z</time>
      </trkpt>
      <trkpt lat="44.28527" lon="6.18686">
        <ele>1461</ele>
        <time>2018-08-17T10:05:45Z</time>
      </trkpt>
      <trkpt lat="44.28496" lon="6.18652">
        <ele>1462.1999512</ele>
        <time>2018-08-17T10:05:57Z</time>
      </trkpt>
      <trkpt lat="44.2848" lon="6.18627">
        <ele>1462.5999756</ele>
        <time>2018-08-17T10:06:04Z</time>
      </trkpt>
      <trkpt lat="44.28479" lon="6.18622">
        <ele>1462.8000488</ele>
        <time>2018-08-17T10:06:05Z</time>
      </trkpt>
      <trkpt lat="44.28465" lon="6.1857">
        <ele>1463.8000488</ele>
        <time>2018-08-17T10:06:16Z</time>
      </trkpt>
      <trkpt lat="44.28458" lon="6.18509">
        <ele>1465.8000488</ele>
        <time>2018-08-17T10:06:28Z</time>
      </trkpt>
      <trkpt lat="44.28431" lon="6.18468">
        <ele>1468.4000244</ele>
        <time>2018-08-17T10:06:42Z</time>
      </trkpt>
      <trkpt lat="44.28408" lon="6.18453">
        <ele>1471.5999756</ele>
        <time>2018-08-17T10:06:52Z</time>
      </trkpt>
      <trkpt lat="44.28366" lon="6.18436">
        <ele>1473.5999756</ele>
        <time>2018-08-17T10:07:04Z</time>
      </trkpt>
      <trkpt lat="44.2835" lon="6.18412">
        <ele>1474.8000488</ele>
        <time>2018-08-17T10:07:11Z</time>
      </trkpt>
      <trkpt lat="44.28346" lon="6.18409">
        <ele>1475.1999512</ele>
        <time>2018-08-17T10:07:12Z</time>
      </trkpt>
      <trkpt lat="44.28339" lon="6.18399">
        <ele>1475.5999756</ele>
        <time>2018-08-17T10:07:15Z</time>
      </trkpt>
      <trkpt lat="44.2834" lon="6.18397">
        <ele>1475.8000488</ele>
        <time>2018-08-17T10:07:16Z</time>
      </trkpt>
      <trkpt lat="44.2834" lon="6.18395">
        <ele>1476</ele>
        <time>2018-08-17T10:07:17Z</time>
      </trkpt>
      <trkpt lat="44.28341" lon="6.18394">
        <ele>1476.1999512</ele>
        <time>2018-08-17T10:07:18Z</time>
      </trkpt>
      <trkpt lat="44.28341" lon="6.18394">
        <ele>1476.4000244</ele>
        <time>2018-08-17T10:07:19Z</time>
      </trkpt>
      <trkpt lat="44.28343" lon="6.18395">
        <ele>1476.8000488</ele>
        <time>2018-08-17T10:07:20Z</time>
      </trkpt>
      <trkpt lat="44.28345" lon="6.18395">
        <ele>1477</ele>
        <time>2018-08-17T10:07:21Z</time>
      </trkpt>
      <trkpt lat="44.28347" lon="6.18395">
        <ele>1477.4000244</ele>
        <time>2018-08-17T10:07:22Z</time>
      </trkpt>
      <trkpt lat="44.28349" lon="6.18395">
        <ele>1477.5999756</ele>
        <time>2018-08-17T10:07:23Z</time>
      </trkpt>
      <trkpt lat="44.28351" lon="6.18396">
        <ele>1478</ele>
        <time>2018-08-17T10:07:24Z</time>
      </trkpt>
      <trkpt lat="44.28353" lon="6.18396">
        <ele>1478.1999512</ele>
        <time>2018-08-17T10:07:25Z</time>
      </trkpt>
      <trkpt lat="44.28356" lon="6.18396">
        <ele>1478.4000244</ele>
        <time>2018-08-17T10:07:26Z</time>
      </trkpt>
      <trkpt lat="44.28386" lon="6.18373">
        <ele>1481.5999756</ele>
        <time>2018-08-17T10:07:39Z</time>
      </trkpt>
      <trkpt lat="44.284" lon="6.18336">
        <ele>1484.8000488</ele>
        <time>2018-08-17T10:07:51Z</time>
      </trkpt>
      <trkpt lat="44.28404" lon="6.18326">
        <ele>1485.4000244</ele>
        <time>2018-08-17T10:07:54Z</time>
      </trkpt>
      <trkpt lat="44.28406" lon="6.18324">
        <ele>1485.5999756</ele>
        <time>2018-08-17T10:07:55Z</time>
      </trkpt>
      <trkpt lat="44.28408" lon="6.18322">
        <ele>1485.8000488</ele>
        <time>2018-08-17T10:07:56Z</time>
      </trkpt>
      <trkpt lat="44.28411" lon="6.18321">
        <ele>1486</ele>
        <time>2018-08-17T10:07:57Z</time>
      </trkpt>
      <trkpt lat="44.28413" lon="6.18321">
        <ele>1486.1999512</ele>
        <time>2018-08-17T10:07:58Z</time>
      </trkpt>
      <trkpt lat="44.28415" lon="6.18321">
        <ele>1486.4000244</ele>
        <time>2018-08-17T10:07:59Z</time>
      </trkpt>
      <trkpt lat="44.28419" lon="6.18321">
        <ele>1486.5999756</ele>
        <time>2018-08-17T10:08:01Z</time>
      </trkpt>
      <trkpt lat="44.28421" lon="6.18321">
        <ele>1486.8000488</ele>
        <time>2018-08-17T10:08:02Z</time>
      </trkpt>
      <trkpt lat="44.28423" lon="6.18321">
        <ele>1487</ele>
        <time>2018-08-17T10:08:03Z</time>
      </trkpt>
      <trkpt lat="44.28425" lon="6.18321">
        <ele>1487.4000244</ele>
        <time>2018-08-17T10:08:04Z</time>
      </trkpt>
      <trkpt lat="44.28458" lon="6.18313">
        <ele>1490.4000244</ele>
        <time>2018-08-17T10:08:17Z</time>
      </trkpt>
      <trkpt lat="44.28484" lon="6.183">
        <ele>1493.1999512</ele>
        <time>2018-08-17T10:08:28Z</time>
      </trkpt>
      <trkpt lat="44.28522" lon="6.18279">
        <ele>1496.1999512</ele>
        <time>2018-08-17T10:08:43Z</time>
      </trkpt>
      <trkpt lat="44.28554" lon="6.18274">
        <ele>1499.4000244</ele>
        <time>2018-08-17T10:08:56Z</time>
      </trkpt>
      <trkpt lat="44.28586" lon="6.18272">
        <ele>1502.4000244</ele>
        <time>2018-08-17T10:09:08Z</time>
      </trkpt>
      <trkpt lat="44.28609" lon="6.18244">
        <ele>1505</ele>
        <time>2018-08-17T10:09:20Z</time>
      </trkpt>
      <trkpt lat="44.2861" lon="6.18203">
        <ele>1507.1999512</ele>
        <time>2018-08-17T10:09:32Z</time>
      </trkpt>
      <trkpt lat="44.28611" lon="6.18177">
        <ele>1510.4000244</ele>
        <time>2018-08-17T10:09:45Z</time>
      </trkpt>
      <trkpt lat="44.28613" lon="6.18172">
        <ele>1511.1999512</ele>
        <time>2018-08-17T10:10:05Z</time>
      </trkpt>
      <trkpt lat="44.28616" lon="6.18169">
        <ele>1511.1999512</ele>
        <time>2018-08-17T10:10:07Z</time>
      </trkpt>
      <trkpt lat="44.28618" lon="6.18164">
        <ele>1511.5999756</ele>
        <time>2018-08-17T10:10:24Z</time>
      </trkpt>
      <trkpt lat="44.28622" lon="6.18159">
        <ele>1511.5999756</ele>
        <time>2018-08-17T10:10:32Z</time>
      </trkpt>
      <trkpt lat="44.28624" lon="6.18157">
        <ele>1511.5999756</ele>
        <time>2018-08-17T10:10:33Z</time>
      </trkpt>
      <trkpt lat="44.28626" lon="6.18155">
        <ele>1511.5999756</ele>
        <time>2018-08-17T10:10:34Z</time>
      </trkpt>
      <trkpt lat="44.28629" lon="6.18152">
        <ele>1511.5999756</ele>
        <time>2018-08-17T10:10:35Z</time>
      </trkpt>
      <trkpt lat="44.28631" lon="6.18149">
        <ele>1511.5999756</ele>
        <time>2018-08-17T10:10:36Z</time>
      </trkpt>
      <trkpt lat="44.28668" lon="6.18105">
        <ele>1512.4000244</ele>
        <time>2018-08-17T10:10:51Z</time>
      </trkpt>
      <trkpt lat="44.28707" lon="6.18067">
        <ele>1513.4000244</ele>
        <time>2018-08-17T10:11:05Z</time>
      </trkpt>
      <trkpt lat="44.28743" lon="6.18021">
        <ele>1513.5999756</ele>
        <time>2018-08-17T10:11:18Z</time>
      </trkpt>
      <trkpt lat="44.28778" lon="6.18008">
        <ele>1514.4000244</ele>
        <time>2018-08-17T10:11:30Z</time>
      </trkpt>
      <trkpt lat="44.28797" lon="6.17954">
        <ele>1515.5999756</ele>
        <time>2018-08-17T10:11:42Z</time>
      </trkpt>
      <trkpt lat="44.28817" lon="6.17883">
        <ele>1517.8000488</ele>
        <time>2018-08-17T10:11:57Z</time>
      </trkpt>
      <trkpt lat="44.28817" lon="6.17872">
        <ele>1518</ele>
        <time>2018-08-17T10:11:59Z</time>
      </trkpt>
      <trkpt lat="44.28816" lon="6.17867">
        <ele>1518.1999512</ele>
        <time>2018-08-17T10:12:00Z</time>
      </trkpt>
      <trkpt lat="44.28814" lon="6.17863">
        <ele>1518.4000244</ele>
        <time>2018-08-17T10:12:01Z</time>
      </trkpt>
      <trkpt lat="44.28813" lon="6.1786">
        <ele>1518.4000244</ele>
        <time>2018-08-17T10:12:02Z</time>
      </trkpt>
      <trkpt lat="44.2881" lon="6.17857">
        <ele>1518.5999756</ele>
        <time>2018-08-17T10:12:03Z</time>
      </trkpt>
      <trkpt lat="44.28807" lon="6.17854">
        <ele>1518.5999756</ele>
        <time>2018-08-17T10:12:04Z</time>
      </trkpt>
      <trkpt lat="44.28774" lon="6.17839">
        <ele>1520</ele>
        <time>2018-08-17T10:12:15Z</time>
      </trkpt>
      <trkpt lat="44.28734" lon="6.17833">
        <ele>1521</ele>
        <time>2018-08-17T10:12:26Z</time>
      </trkpt>
      <trkpt lat="44.28717" lon="6.17824">
        <ele>1521</ele>
        <time>2018-08-17T10:12:29Z</time>
      </trkpt>
      <trkpt lat="44.28713" lon="6.1782">
        <ele>1521</ele>
        <time>2018-08-17T10:12:30Z</time>
      </trkpt>
      <trkpt lat="44.28689" lon="6.17794">
        <ele>1521</ele>
        <time>2018-08-17T10:12:36Z</time>
      </trkpt>
      <trkpt lat="44.28685" lon="6.17792">
        <ele>1521</ele>
        <time>2018-08-17T10:12:37Z</time>
      </trkpt>
      <trkpt lat="44.28681" lon="6.1779">
        <ele>1521</ele>
        <time>2018-08-17T10:12:38Z</time>
      </trkpt>
      <trkpt lat="44.28678" lon="6.1779">
        <ele>1520.8000488</ele>
        <time>2018-08-17T10:12:39Z</time>
      </trkpt>
      <trkpt lat="44.28674" lon="6.1779">
        <ele>1520.8000488</ele>
        <time>2018-08-17T10:12:40Z</time>
      </trkpt>
      <trkpt lat="44.2867" lon="6.1779">
        <ele>1520.8000488</ele>
        <time>2018-08-17T10:12:41Z</time>
      </trkpt>
      <trkpt lat="44.28664" lon="6.1779">
        <ele>1520.8000488</ele>
        <time>2018-08-17T10:12:42Z</time>
      </trkpt>
      <trkpt lat="44.2866" lon="6.17787">
        <ele>1520.8000488</ele>
        <time>2018-08-17T10:12:43Z</time>
      </trkpt>
      <trkpt lat="44.28656" lon="6.17785">
        <ele>1520.8000488</ele>
        <time>2018-08-17T10:12:44Z</time>
      </trkpt>
      <trkpt lat="44.28651" lon="6.17783">
        <ele>1520.8000488</ele>
        <time>2018-08-17T10:12:45Z</time>
      </trkpt>
      <trkpt lat="44.28647" lon="6.1778">
        <ele>1520.8000488</ele>
        <time>2018-08-17T10:12:46Z</time>
      </trkpt>
      <trkpt lat="44.28625" lon="6.1777">
        <ele>1520.8000488</ele>
        <time>2018-08-17T10:12:51Z</time>
      </trkpt>
      <trkpt lat="44.2862" lon="6.17767">
        <ele>1520.8000488</ele>
        <time>2018-08-17T10:12:52Z</time>
      </trkpt>
      <trkpt lat="44.28608" lon="6.17756">
        <ele>1521</ele>
        <time>2018-08-17T10:12:55Z</time>
      </trkpt>
      <trkpt lat="44.28604" lon="6.17751">
        <ele>1521</ele>
        <time>2018-08-17T10:12:56Z</time>
      </trkpt>
      <trkpt lat="44.28602" lon="6.17746">
        <ele>1521</ele>
        <time>2018-08-17T10:12:57Z</time>
      </trkpt>
      <trkpt lat="44.28599" lon="6.1774">
        <ele>1521</ele>
        <time>2018-08-17T10:12:58Z</time>
      </trkpt>
      <trkpt lat="44.28598" lon="6.17735">
        <ele>1521</ele>
        <time>2018-08-17T10:12:59Z</time>
      </trkpt>
      <trkpt lat="44.28597" lon="6.1773">
        <ele>1521</ele>
        <time>2018-08-17T10:13:00Z</time>
      </trkpt>
      <trkpt lat="44.28598" lon="6.17727">
        <ele>1521.1999512</ele>
        <time>2018-08-17T10:13:01Z</time>
      </trkpt>
      <trkpt lat="44.286" lon="6.17724">
        <ele>1521.1999512</ele>
        <time>2018-08-17T10:13:02Z</time>
      </trkpt>
      <trkpt lat="44.28603" lon="6.17721">
        <ele>1521.1999512</ele>
        <time>2018-08-17T10:13:03Z</time>
      </trkpt>
      <trkpt lat="44.28606" lon="6.17719">
        <ele>1521.1999512</ele>
        <time>2018-08-17T10:13:04Z</time>
      </trkpt>
      <trkpt lat="44.28608" lon="6.17716">
        <ele>1521.1999512</ele>
        <time>2018-08-17T10:13:05Z</time>
      </trkpt>
      <trkpt lat="44.2861" lon="6.17711">
        <ele>1521.1999512</ele>
        <time>2018-08-17T10:13:06Z</time>
      </trkpt>
      <trkpt lat="44.28612" lon="6.17707">
        <ele>1521.1999512</ele>
        <time>2018-08-17T10:13:07Z</time>
      </trkpt>
      <trkpt lat="44.28614" lon="6.17703">
        <ele>1521.1999512</ele>
        <time>2018-08-17T10:13:08Z</time>
      </trkpt>
      <trkpt lat="44.28614" lon="6.17699">
        <ele>1521.1999512</ele>
        <time>2018-08-17T10:13:09Z</time>
      </trkpt>
      <trkpt lat="44.28614" lon="6.17695">
        <ele>1521.1999512</ele>
        <time>2018-08-17T10:13:10Z</time>
      </trkpt>
      <trkpt lat="44.28607" lon="6.17645">
        <ele>1522.8000488</ele>
        <time>2018-08-17T10:13:21Z</time>
      </trkpt>
      <trkpt lat="44.28604" lon="6.17589">
        <ele>1523.4000244</ele>
        <time>2018-08-17T10:13:33Z</time>
      </trkpt>
      <trkpt lat="44.28587" lon="6.17534">
        <ele>1525.8000488</ele>
        <time>2018-08-17T10:13:45Z</time>
      </trkpt>
      <trkpt lat="44.28573" lon="6.175">
        <ele>1529</ele>
        <time>2018-08-17T10:13:55Z</time>
      </trkpt>
      <trkpt lat="44.28552" lon="6.17497">
        <ele>1532</ele>
        <time>2018-08-17T10:14:04Z</time>
      </trkpt>
      <trkpt lat="44.28518" lon="6.17509">
        <ele>1533.4000244</ele>
        <time>2018-08-17T10:14:16Z</time>
      </trkpt>
      <trkpt lat="44.28491" lon="6.1755">
        <ele>1536</ele>
        <time>2018-08-17T10:14:30Z</time>
      </trkpt>
      <trkpt lat="44.2849" lon="6.1759">
        <ele>1539.1999512</ele>
        <time>2018-08-17T10:14:41Z</time>
      </trkpt>
      <trkpt lat="44.2849" lon="6.17607">
        <ele>1541.4000244</ele>
        <time>2018-08-17T10:14:57Z</time>
      </trkpt>
      <trkpt lat="44.28491" lon="6.17622">
        <ele>1541.5999756</ele>
        <time>2018-08-17T10:15:15Z</time>
      </trkpt>
      <trkpt lat="44.28488" lon="6.17624">
        <ele>1541.5999756</ele>
        <time>2018-08-17T10:15:17Z</time>
      </trkpt>
      <trkpt lat="44.28488" lon="6.17625">
        <ele>1541.5999756</ele>
        <time>2018-08-17T10:15:18Z</time>
      </trkpt>
      <trkpt lat="44.28488" lon="6.17628">
        <ele>1541.5999756</ele>
        <time>2018-08-17T10:15:19Z</time>
      </trkpt>
      <trkpt lat="44.28487" lon="6.1763">
        <ele>1541.5999756</ele>
        <time>2018-08-17T10:15:20Z</time>
      </trkpt>
      <trkpt lat="44.28485" lon="6.17632">
        <ele>1541.5999756</ele>
        <time>2018-08-17T10:15:21Z</time>
      </trkpt>
      <trkpt lat="44.28484" lon="6.17634">
        <ele>1541.5999756</ele>
        <time>2018-08-17T10:15:22Z</time>
      </trkpt>
      <trkpt lat="44.28483" lon="6.17637">
        <ele>1541.5999756</ele>
        <time>2018-08-17T10:15:23Z</time>
      </trkpt>
      <trkpt lat="44.28477" lon="6.17658">
        <ele>1541.5999756</ele>
        <time>2018-08-17T10:15:31Z</time>
      </trkpt>
      <trkpt lat="44.28476" lon="6.17659">
        <ele>1541.5999756</ele>
        <time>2018-08-17T10:15:32Z</time>
      </trkpt>
      <trkpt lat="44.28475" lon="6.1766">
        <ele>1540.4000244</ele>
        <time>2018-08-17T10:15:47Z</time>
      </trkpt>
      <trkpt lat="44.28474" lon="6.17655">
        <ele>1540.1999512</ele>
        <time>2018-08-17T10:16:04Z</time>
      </trkpt>
      <trkpt lat="44.28476" lon="6.17656">
        <ele>1540.1999512</ele>
        <time>2018-08-17T10:16:12Z</time>
      </trkpt>
      <trkpt lat="44.28477" lon="6.17649">
        <ele>1540.4000244</ele>
        <time>2018-08-17T10:16:18Z</time>
      </trkpt>
      <trkpt lat="44.28469" lon="6.17645">
        <ele>1540.5999756</ele>
        <time>2018-08-17T10:16:22Z</time>
      </trkpt>
      <trkpt lat="44.28466" lon="6.17646">
        <ele>1540.8000488</ele>
        <time>2018-08-17T10:16:23Z</time>
      </trkpt>
      <trkpt lat="44.28455" lon="6.17658">
        <ele>1541.5999756</ele>
        <time>2018-08-17T10:16:29Z</time>
      </trkpt>
      <trkpt lat="44.28453" lon="6.1766">
        <ele>1541.8000488</ele>
        <time>2018-08-17T10:16:30Z</time>
      </trkpt>
      <trkpt lat="44.28429" lon="6.17688">
        <ele>1542.1999512</ele>
        <time>2018-08-17T10:16:42Z</time>
      </trkpt>
      <trkpt lat="44.284" lon="6.17721">
        <ele>1542.1999512</ele>
        <time>2018-08-17T10:16:56Z</time>
      </trkpt>
      <trkpt lat="44.28382" lon="6.17768">
        <ele>1544</ele>
        <time>2018-08-17T10:17:09Z</time>
      </trkpt>
      <trkpt lat="44.2838" lon="6.1778">
        <ele>1544.8000488</ele>
        <time>2018-08-17T10:17:21Z</time>
      </trkpt>
      <trkpt lat="44.28374" lon="6.17787">
        <ele>1544.4000244</ele>
        <time>2018-08-17T10:17:31Z</time>
      </trkpt>
      <trkpt lat="44.28373" lon="6.17788">
        <ele>1544.4000244</ele>
        <time>2018-08-17T10:17:32Z</time>
      </trkpt>
      <trkpt lat="44.2837" lon="6.17791">
        <ele>1544.4000244</ele>
        <time>2018-08-17T10:17:34Z</time>
      </trkpt>
      <trkpt lat="44.28362" lon="6.17796">
        <ele>1543.5999756</ele>
        <time>2018-08-17T10:17:39Z</time>
      </trkpt>
      <trkpt lat="44.2836" lon="6.17797">
        <ele>1543.1999512</ele>
        <time>2018-08-17T10:17:40Z</time>
      </trkpt>
      <trkpt lat="44.28335" lon="6.17816">
        <ele>1540</ele>
        <time>2018-08-17T10:17:52Z</time>
      </trkpt>
      <trkpt lat="44.28325" lon="6.17822">
        <ele>1539.1999512</ele>
        <time>2018-08-17T10:17:58Z</time>
      </trkpt>
      <trkpt lat="44.28323" lon="6.17824">
        <ele>1539.1999512</ele>
        <time>2018-08-17T10:17:59Z</time>
      </trkpt>
      <trkpt lat="44.283" lon="6.17848">
        <ele>1535.8000488</ele>
        <time>2018-08-17T10:18:10Z</time>
      </trkpt>
      <trkpt lat="44.28297" lon="6.17853">
        <ele>1532.8000488</ele>
        <time>2018-08-17T10:18:24Z</time>
      </trkpt>
      <trkpt lat="44.28296" lon="6.1786">
        <ele>1532.4000244</ele>
        <time>2018-08-17T10:18:49Z</time>
      </trkpt>
      <trkpt lat="44.28292" lon="6.17863">
        <ele>1532.1999512</ele>
        <time>2018-08-17T10:18:55Z</time>
      </trkpt>
      <trkpt lat="44.28291" lon="6.17865">
        <ele>1532.1999512</ele>
        <time>2018-08-17T10:18:56Z</time>
      </trkpt>
      <trkpt lat="44.28289" lon="6.17867">
        <ele>1532</ele>
        <time>2018-08-17T10:18:57Z</time>
      </trkpt>
      <trkpt lat="44.28287" lon="6.1787">
        <ele>1531.8000488</ele>
        <time>2018-08-17T10:18:58Z</time>
      </trkpt>
      <trkpt lat="44.28286" lon="6.17873">
        <ele>1531.5999756</ele>
        <time>2018-08-17T10:18:59Z</time>
      </trkpt>
      <trkpt lat="44.28268" lon="6.17901">
        <ele>1529.8000488</ele>
        <time>2018-08-17T10:19:10Z</time>
      </trkpt>
      <trkpt lat="44.28249" lon="6.17913">
        <ele>1526.8000488</ele>
        <time>2018-08-17T10:19:20Z</time>
      </trkpt>
      <trkpt lat="44.28237" lon="6.17924">
        <ele>1523.8000488</ele>
        <time>2018-08-17T10:19:28Z</time>
      </trkpt>
      <trkpt lat="44.28205" lon="6.17921">
        <ele>1520.5999756</ele>
        <time>2018-08-17T10:19:42Z</time>
      </trkpt>
      <trkpt lat="44.28189" lon="6.17908">
        <ele>1519.5999756</ele>
        <time>2018-08-17T10:19:48Z</time>
      </trkpt>
      <trkpt lat="44.28187" lon="6.17908">
        <ele>1519.4000244</ele>
        <time>2018-08-17T10:19:49Z</time>
      </trkpt>
      <trkpt lat="44.28185" lon="6.17908">
        <ele>1519.1999512</ele>
        <time>2018-08-17T10:19:50Z</time>
      </trkpt>
      <trkpt lat="44.28184" lon="6.17907">
        <ele>1519.1999512</ele>
        <time>2018-08-17T10:19:51Z</time>
      </trkpt>
      <trkpt lat="44.28182" lon="6.17907">
        <ele>1519</ele>
        <time>2018-08-17T10:19:52Z</time>
      </trkpt>
      <trkpt lat="44.28173" lon="6.17905">
        <ele>1519</ele>
        <time>2018-08-17T10:19:57Z</time>
      </trkpt>
      <trkpt lat="44.28169" lon="6.17906">
        <ele>1518.1999512</ele>
        <time>2018-08-17T10:20:38Z</time>
      </trkpt>
      <trkpt lat="44.28169" lon="6.17904">
        <ele>1518</ele>
        <time>2018-08-17T10:21:06Z</time>
      </trkpt>
      <trkpt lat="44.28171" lon="6.17902">
        <ele>1517.8000488</ele>
        <time>2018-08-17T10:21:29Z</time>
      </trkpt>
      <trkpt lat="44.28174" lon="6.17906">
        <ele>1517.5999756</ele>
        <time>2018-08-17T10:22:19Z</time>
      </trkpt>
      <trkpt lat="44.28174" lon="6.17906">
        <ele>1517.5999756</ele>
        <time>2018-08-17T10:22:36Z</time>
      </trkpt>
      <trkpt lat="44.28172" lon="6.17904">
        <ele>1517.5999756</ele>
        <time>2018-08-17T10:23:07Z</time>
      </trkpt>
      <trkpt lat="44.28165" lon="6.17897">
        <ele>1517.8000488</ele>
        <time>2018-08-17T10:23:53Z</time>
      </trkpt>
      <trkpt lat="44.28166" lon="6.17895">
        <ele>1517.8000488</ele>
        <time>2018-08-17T10:24:01Z</time>
      </trkpt>
      <trkpt lat="44.28167" lon="6.17898">
        <ele>1517.8000488</ele>
        <time>2018-08-17T10:24:43Z</time>
      </trkpt>
      <trkpt lat="44.28168" lon="6.17895">
        <ele>1517.8000488</ele>
        <time>2018-08-17T10:24:51Z</time>
      </trkpt>
      <trkpt lat="44.2817" lon="6.17909">
        <ele>1517.8000488</ele>
        <time>2018-08-17T10:25:19Z</time>
      </trkpt>
      <trkpt lat="44.28177" lon="6.17912">
        <ele>1517.8000488</ele>
        <time>2018-08-17T10:25:48Z</time>
      </trkpt>
      <trkpt lat="44.28176" lon="6.17906">
        <ele>1517.8000488</ele>
        <time>2018-08-17T10:26:16Z</time>
      </trkpt>
      <trkpt lat="44.2816" lon="6.17901">
        <ele>1517.5999756</ele>
        <time>2018-08-17T10:27:04Z</time>
      </trkpt>
      <trkpt lat="44.28164" lon="6.17908">
        <ele>1517.8000488</ele>
        <time>2018-08-17T10:27:41Z</time>
      </trkpt>
      <trkpt lat="44.28166" lon="6.17905">
        <ele>1517.5999756</ele>
        <time>2018-08-17T10:28:23Z</time>
      </trkpt>
      <trkpt lat="44.28167" lon="6.17909">
        <ele>1518</ele>
        <time>2018-08-17T10:28:56Z</time>
      </trkpt>
      <trkpt lat="44.28165" lon="6.17901">
        <ele>1517.5999756</ele>
        <time>2018-08-17T10:29:42Z</time>
      </trkpt>
      <trkpt lat="44.28169" lon="6.17903">
        <ele>1517.8000488</ele>
        <time>2018-08-17T10:30:39Z</time>
      </trkpt>
      <trkpt lat="44.28171" lon="6.17909">
        <ele>1517.8000488</ele>
        <time>2018-08-17T10:31:12Z</time>
      </trkpt>
      <trkpt lat="44.28168" lon="6.17901">
        <ele>1517.8000488</ele>
        <time>2018-08-17T10:31:50Z</time>
      </trkpt>
      <trkpt lat="44.2817" lon="6.17907">
        <ele>1517.5999756</ele>
        <time>2018-08-17T10:32:36Z</time>
      </trkpt>
      <trkpt lat="44.28174" lon="6.17905">
        <ele>1517.8000488</ele>
        <time>2018-08-17T10:33:07Z</time>
      </trkpt>
      <trkpt lat="44.28175" lon="6.17906">
        <ele>1518.1999512</ele>
        <time>2018-08-17T10:33:38Z</time>
      </trkpt>
      <trkpt lat="44.28174" lon="6.17888">
        <ele>1517.8000488</ele>
        <time>2018-08-17T10:34:27Z</time>
      </trkpt>
      <trkpt lat="44.28174" lon="6.17893">
        <ele>1517.8000488</ele>
        <time>2018-08-17T10:34:32Z</time>
      </trkpt>
      <trkpt lat="44.28176" lon="6.17901">
        <ele>1517.4000244</ele>
        <time>2018-08-17T10:35:35Z</time>
      </trkpt>
      <trkpt lat="44.28169" lon="6.17904">
        <ele>1517.5999756</ele>
        <time>2018-08-17T10:35:54Z</time>
      </trkpt>
      <trkpt lat="44.28171" lon="6.17906">
        <ele>1517.5999756</ele>
        <time>2018-08-17T10:35:55Z</time>
      </trkpt>
      <trkpt lat="44.28167" lon="6.1791">
        <ele>1518.4000244</ele>
        <time>2018-08-17T10:36:10Z</time>
      </trkpt>
      <trkpt lat="44.28166" lon="6.17913">
        <ele>1518.4000244</ele>
        <time>2018-08-17T10:36:15Z</time>
      </trkpt>
      <trkpt lat="44.28165" lon="6.17916">
        <ele>1518.4000244</ele>
        <time>2018-08-17T10:36:16Z</time>
      </trkpt>
      <trkpt lat="44.28164" lon="6.17918">
        <ele>1518.4000244</ele>
        <time>2018-08-17T10:36:17Z</time>
      </trkpt>
      <trkpt lat="44.28162" lon="6.1792">
        <ele>1518.4000244</ele>
        <time>2018-08-17T10:36:18Z</time>
      </trkpt>
      <trkpt lat="44.2816" lon="6.17922">
        <ele>1518.4000244</ele>
        <time>2018-08-17T10:36:19Z</time>
      </trkpt>
      <trkpt lat="44.28159" lon="6.17924">
        <ele>1518.4000244</ele>
        <time>2018-08-17T10:36:20Z</time>
      </trkpt>
      <trkpt lat="44.28155" lon="6.17931">
        <ele>1518.4000244</ele>
        <time>2018-08-17T10:36:23Z</time>
      </trkpt>
      <trkpt lat="44.28153" lon="6.17934">
        <ele>1518.4000244</ele>
        <time>2018-08-17T10:36:24Z</time>
      </trkpt>
      <trkpt lat="44.28152" lon="6.17936">
        <ele>1518.4000244</ele>
        <time>2018-08-17T10:36:25Z</time>
      </trkpt>
      <trkpt lat="44.28148" lon="6.17939">
        <ele>1518.4000244</ele>
        <time>2018-08-17T10:36:26Z</time>
      </trkpt>
      <trkpt lat="44.28147" lon="6.17942">
        <ele>1518.4000244</ele>
        <time>2018-08-17T10:36:27Z</time>
      </trkpt>
      <trkpt lat="44.28145" lon="6.17945">
        <ele>1518.4000244</ele>
        <time>2018-08-17T10:36:28Z</time>
      </trkpt>
      <trkpt lat="44.28144" lon="6.17948">
        <ele>1518.4000244</ele>
        <time>2018-08-17T10:36:29Z</time>
      </trkpt>
      <trkpt lat="44.2813" lon="6.17978">
        <ele>1517.8000488</ele>
        <time>2018-08-17T10:36:42Z</time>
      </trkpt>
      <trkpt lat="44.28115" lon="6.18012">
        <ele>1517.5999756</ele>
        <time>2018-08-17T10:36:55Z</time>
      </trkpt>
      <trkpt lat="44.28115" lon="6.18017">
        <ele>1517.4000244</ele>
        <time>2018-08-17T10:36:58Z</time>
      </trkpt>
      <trkpt lat="44.28116" lon="6.18025">
        <ele>1516</ele>
        <time>2018-08-17T10:37:06Z</time>
      </trkpt>
      <trkpt lat="44.28116" lon="6.18026">
        <ele>1516</ele>
        <time>2018-08-17T10:37:07Z</time>
      </trkpt>
      <trkpt lat="44.28115" lon="6.18027">
        <ele>1516</ele>
        <time>2018-08-17T10:37:08Z</time>
      </trkpt>
      <trkpt lat="44.28107" lon="6.18036">
        <ele>1515.5999756</ele>
        <time>2018-08-17T10:37:41Z</time>
      </trkpt>
      <trkpt lat="44.28102" lon="6.18049">
        <ele>1515.5999756</ele>
        <time>2018-08-17T10:38:04Z</time>
      </trkpt>
      <trkpt lat="44.28105" lon="6.18082">
        <ele>1515.5999756</ele>
        <time>2018-08-17T10:38:14Z</time>
      </trkpt>
      <trkpt lat="44.28104" lon="6.18085">
        <ele>1515.5999756</ele>
        <time>2018-08-17T10:38:15Z</time>
      </trkpt>
      <trkpt lat="44.28103" lon="6.18088">
        <ele>1515.5999756</ele>
        <time>2018-08-17T10:38:16Z</time>
      </trkpt>
      <trkpt lat="44.28103" lon="6.1809">
        <ele>1515.5999756</ele>
        <time>2018-08-17T10:38:17Z</time>
      </trkpt>
      <trkpt lat="44.28103" lon="6.18093">
        <ele>1515.5999756</ele>
        <time>2018-08-17T10:38:18Z</time>
      </trkpt>
      <trkpt lat="44.28101" lon="6.18102">
        <ele>1515.5999756</ele>
        <time>2018-08-17T10:38:22Z</time>
      </trkpt>
      <trkpt lat="44.28102" lon="6.18109">
        <ele>1515.8000488</ele>
        <time>2018-08-17T10:38:35Z</time>
      </trkpt>
      <trkpt lat="44.28101" lon="6.18118">
        <ele>1516</ele>
        <time>2018-08-17T10:38:42Z</time>
      </trkpt>
      <trkpt lat="44.28101" lon="6.18121">
        <ele>1516</ele>
        <time>2018-08-17T10:38:43Z</time>
      </trkpt>
      <trkpt lat="44.281" lon="6.18123">
        <ele>1516</ele>
        <time>2018-08-17T10:38:44Z</time>
      </trkpt>
      <trkpt lat="44.28092" lon="6.18146">
        <ele>1516.1999512</ele>
        <time>2018-08-17T10:38:52Z</time>
      </trkpt>
      <trkpt lat="44.28093" lon="6.18149">
        <ele>1516.1999512</ele>
        <time>2018-08-17T10:38:53Z</time>
      </trkpt>
      <trkpt lat="44.28093" lon="6.18152">
        <ele>1516.1999512</ele>
        <time>2018-08-17T10:38:54Z</time>
      </trkpt>
      <trkpt lat="44.28093" lon="6.18156">
        <ele>1516.4000244</ele>
        <time>2018-08-17T10:38:55Z</time>
      </trkpt>
      <trkpt lat="44.28094" lon="6.18159">
        <ele>1516.5999756</ele>
        <time>2018-08-17T10:38:56Z</time>
      </trkpt>
      <trkpt lat="44.28095" lon="6.18163">
        <ele>1516.5999756</ele>
        <time>2018-08-17T10:38:57Z</time>
      </trkpt>
      <trkpt lat="44.28105" lon="6.18199">
        <ele>1517</ele>
        <time>2018-08-17T10:39:09Z</time>
      </trkpt>
      <trkpt lat="44.28107" lon="6.18203">
        <ele>1517</ele>
        <time>2018-08-17T10:39:10Z</time>
      </trkpt>
      <trkpt lat="44.28108" lon="6.18206">
        <ele>1517</ele>
        <time>2018-08-17T10:39:11Z</time>
      </trkpt>
      <trkpt lat="44.2813" lon="6.18236">
        <ele>1517</ele>
        <time>2018-08-17T10:39:22Z</time>
      </trkpt>
      <trkpt lat="44.28132" lon="6.18233">
        <ele>1516.8000488</ele>
        <time>2018-08-17T10:39:25Z</time>
      </trkpt>
      <trkpt lat="44.28132" lon="6.18232">
        <ele>1516.5999756</ele>
        <time>2018-08-17T10:39:26Z</time>
      </trkpt>
      <trkpt lat="44.28133" lon="6.18232">
        <ele>1516.5999756</ele>
        <time>2018-08-17T10:39:27Z</time>
      </trkpt>
      <trkpt lat="44.28137" lon="6.18232">
        <ele>1516.4000244</ele>
        <time>2018-08-17T10:39:30Z</time>
      </trkpt>
      <trkpt lat="44.28138" lon="6.18234">
        <ele>1516.4000244</ele>
        <time>2018-08-17T10:39:31Z</time>
      </trkpt>
      <trkpt lat="44.28139" lon="6.18235">
        <ele>1516.4000244</ele>
        <time>2018-08-17T10:39:32Z</time>
      </trkpt>
      <trkpt lat="44.28161" lon="6.18272">
        <ele>1517.4000244</ele>
        <time>2018-08-17T10:39:43Z</time>
      </trkpt>
      <trkpt lat="44.28184" lon="6.18294">
        <ele>1519.5999756</ele>
        <time>2018-08-17T10:39:54Z</time>
      </trkpt>
      <trkpt lat="44.28185" lon="6.183">
        <ele>1520.1999512</ele>
        <time>2018-08-17T10:40:08Z</time>
      </trkpt>
      <trkpt lat="44.28186" lon="6.18301">
        <ele>1520.1999512</ele>
        <time>2018-08-17T10:40:09Z</time>
      </trkpt>
      <trkpt lat="44.28179" lon="6.18307">
        <ele>1520.1999512</ele>
        <time>2018-08-17T10:40:15Z</time>
      </trkpt>
      <trkpt lat="44.28177" lon="6.18308">
        <ele>1520.1999512</ele>
        <time>2018-08-17T10:40:16Z</time>
      </trkpt>
      <trkpt lat="44.28174" lon="6.18308">
        <ele>1520.1999512</ele>
        <time>2018-08-17T10:40:17Z</time>
      </trkpt>
      <trkpt lat="44.28137" lon="6.18315">
        <ele>1522.5999756</ele>
        <time>2018-08-17T10:40:30Z</time>
      </trkpt>
      <trkpt lat="44.28107" lon="6.18336">
        <ele>1525.8000488</ele>
        <time>2018-08-17T10:40:41Z</time>
      </trkpt>
      <trkpt lat="44.28085" lon="6.18385">
        <ele>1528</ele>
        <time>2018-08-17T10:40:54Z</time>
      </trkpt>
      <trkpt lat="44.28079" lon="6.18444">
        <ele>1530.4000244</ele>
        <time>2018-08-17T10:41:07Z</time>
      </trkpt>
      <trkpt lat="44.2806" lon="6.18506">
        <ele>1533.1999512</ele>
        <time>2018-08-17T10:41:20Z</time>
      </trkpt>
      <trkpt lat="44.28033" lon="6.18566">
        <ele>1534.5999756</ele>
        <time>2018-08-17T10:41:32Z</time>
      </trkpt>
      <trkpt lat="44.28029" lon="6.18572">
        <ele>1534.5999756</ele>
        <time>2018-08-17T10:41:33Z</time>
      </trkpt>
      <trkpt lat="44.28017" lon="6.18589">
        <ele>1534.8000488</ele>
        <time>2018-08-17T10:41:36Z</time>
      </trkpt>
      <trkpt lat="44.27986" lon="6.18626">
        <ele>1534.8000488</ele>
        <time>2018-08-17T10:41:43Z</time>
      </trkpt>
      <trkpt lat="44.27983" lon="6.18631">
        <ele>1534.8000488</ele>
        <time>2018-08-17T10:41:44Z</time>
      </trkpt>
      <trkpt lat="44.2798" lon="6.18637">
        <ele>1534.5999756</ele>
        <time>2018-08-17T10:41:45Z</time>
      </trkpt>
      <trkpt lat="44.2798" lon="6.18644">
        <ele>1534.5999756</ele>
        <time>2018-08-17T10:41:46Z</time>
      </trkpt>
      <trkpt lat="44.2798" lon="6.1865">
        <ele>1534.5999756</ele>
        <time>2018-08-17T10:41:47Z</time>
      </trkpt>
      <trkpt lat="44.27985" lon="6.18659">
        <ele>1534.4000244</ele>
        <time>2018-08-17T10:41:49Z</time>
      </trkpt>
      <trkpt lat="44.27986" lon="6.18665">
        <ele>1534.1999512</ele>
        <time>2018-08-17T10:41:50Z</time>
      </trkpt>
      <trkpt lat="44.2799" lon="6.18666">
        <ele>1534</ele>
        <time>2018-08-17T10:41:51Z</time>
      </trkpt>
      <trkpt lat="44.27994" lon="6.18666">
        <ele>1533.8000488</ele>
        <time>2018-08-17T10:41:52Z</time>
      </trkpt>
      <trkpt lat="44.28026" lon="6.18659">
        <ele>1533.5999756</ele>
        <time>2018-08-17T10:41:58Z</time>
      </trkpt>
      <trkpt lat="44.28047" lon="6.18655">
        <ele>1534.1999512</ele>
        <time>2018-08-17T10:42:03Z</time>
      </trkpt>
      <trkpt lat="44.28052" lon="6.18656">
        <ele>1534.4000244</ele>
        <time>2018-08-17T10:42:04Z</time>
      </trkpt>
      <trkpt lat="44.28057" lon="6.18657">
        <ele>1534.8000488</ele>
        <time>2018-08-17T10:42:05Z</time>
      </trkpt>
      <trkpt lat="44.28089" lon="6.18669">
        <ele>1535.4000244</ele>
        <time>2018-08-17T10:42:12Z</time>
      </trkpt>
      <trkpt lat="44.28137" lon="6.18686">
        <ele>1537.5999756</ele>
        <time>2018-08-17T10:42:25Z</time>
      </trkpt>
      <trkpt lat="44.28167" lon="6.1869">
        <ele>1540</ele>
        <time>2018-08-17T10:42:35Z</time>
      </trkpt>
      <trkpt lat="44.28168" lon="6.18693">
        <ele>1540.4000244</ele>
        <time>2018-08-17T10:42:36Z</time>
      </trkpt>
      <trkpt lat="44.28167" lon="6.18696">
        <ele>1540.8000488</ele>
        <time>2018-08-17T10:42:37Z</time>
      </trkpt>
      <trkpt lat="44.28166" lon="6.18699">
        <ele>1541.1999512</ele>
        <time>2018-08-17T10:42:38Z</time>
      </trkpt>
      <trkpt lat="44.28164" lon="6.18702">
        <ele>1541.5999756</ele>
        <time>2018-08-17T10:42:39Z</time>
      </trkpt>
      <trkpt lat="44.28162" lon="6.18705">
        <ele>1541.8000488</ele>
        <time>2018-08-17T10:42:40Z</time>
      </trkpt>
      <trkpt lat="44.28157" lon="6.18742">
        <ele>1544.8000488</ele>
        <time>2018-08-17T10:42:51Z</time>
      </trkpt>
      <trkpt lat="44.28151" lon="6.18756">
        <ele>1546.8000488</ele>
        <time>2018-08-17T10:42:56Z</time>
      </trkpt>
      <trkpt lat="44.28148" lon="6.18756">
        <ele>1547.1999512</ele>
        <time>2018-08-17T10:42:57Z</time>
      </trkpt>
      <trkpt lat="44.28146" lon="6.18754">
        <ele>1547.4000244</ele>
        <time>2018-08-17T10:42:58Z</time>
      </trkpt>
      <trkpt lat="44.28145" lon="6.18751">
        <ele>1547.5999756</ele>
        <time>2018-08-17T10:42:59Z</time>
      </trkpt>
      <trkpt lat="44.28144" lon="6.18748">
        <ele>1548</ele>
        <time>2018-08-17T10:43:00Z</time>
      </trkpt>
      <trkpt lat="44.28143" lon="6.18745">
        <ele>1548.1999512</ele>
        <time>2018-08-17T10:43:01Z</time>
      </trkpt>
      <trkpt lat="44.28142" lon="6.18742">
        <ele>1548.4000244</ele>
        <time>2018-08-17T10:43:02Z</time>
      </trkpt>
      <trkpt lat="44.2814" lon="6.1874">
        <ele>1548.4000244</ele>
        <time>2018-08-17T10:43:03Z</time>
      </trkpt>
      <trkpt lat="44.28139" lon="6.18738">
        <ele>1548.5999756</ele>
        <time>2018-08-17T10:43:04Z</time>
      </trkpt>
      <trkpt lat="44.28136" lon="6.18736">
        <ele>1548.8000488</ele>
        <time>2018-08-17T10:43:05Z</time>
      </trkpt>
      <trkpt lat="44.28134" lon="6.18736">
        <ele>1549</ele>
        <time>2018-08-17T10:43:06Z</time>
      </trkpt>
      <trkpt lat="44.28132" lon="6.18737">
        <ele>1549.5999756</ele>
        <time>2018-08-17T10:43:07Z</time>
      </trkpt>
      <trkpt lat="44.2813" lon="6.18738">
        <ele>1550</ele>
        <time>2018-08-17T10:43:08Z</time>
      </trkpt>
      <trkpt lat="44.28128" lon="6.18738">
        <ele>1550.1999512</ele>
        <time>2018-08-17T10:43:09Z</time>
      </trkpt>
      <trkpt lat="44.281" lon="6.18771">
        <ele>1553.4000244</ele>
        <time>2018-08-17T10:43:23Z</time>
      </trkpt>
      <trkpt lat="44.28084" lon="6.18796">
        <ele>1556</ele>
        <time>2018-08-17T10:43:33Z</time>
      </trkpt>
      <trkpt lat="44.28069" lon="6.18833">
        <ele>1558.1999512</ele>
        <time>2018-08-17T10:43:46Z</time>
      </trkpt>
      <trkpt lat="44.28069" lon="6.18841">
        <ele>1558.8000488</ele>
        <time>2018-08-17T10:43:49Z</time>
      </trkpt>
      <trkpt lat="44.28069" lon="6.18845">
        <ele>1559</ele>
        <time>2018-08-17T10:43:50Z</time>
      </trkpt>
      <trkpt lat="44.2807" lon="6.18848">
        <ele>1559</ele>
        <time>2018-08-17T10:43:51Z</time>
      </trkpt>
      <trkpt lat="44.28068" lon="6.18902">
        <ele>1559.1999512</ele>
        <time>2018-08-17T10:44:04Z</time>
      </trkpt>
      <trkpt lat="44.28071" lon="6.18923">
        <ele>1559</ele>
        <time>2018-08-17T10:44:16Z</time>
      </trkpt>
      <trkpt lat="44.28072" lon="6.18926">
        <ele>1559.8000488</ele>
        <time>2018-08-17T10:44:39Z</time>
      </trkpt>
      <trkpt lat="44.28071" lon="6.18948">
        <ele>1560.5999756</ele>
        <time>2018-08-17T10:45:01Z</time>
      </trkpt>
      <trkpt lat="44.28073" lon="6.18977">
        <ele>1563.5999756</ele>
        <time>2018-08-17T10:45:37Z</time>
      </trkpt>
      <trkpt lat="44.28072" lon="6.18977">
        <ele>1563.8000488</ele>
        <time>2018-08-17T10:46:13Z</time>
      </trkpt>
      <trkpt lat="44.28074" lon="6.18986">
        <ele>1563.5999756</ele>
        <time>2018-08-17T10:46:35Z</time>
      </trkpt>
      <trkpt lat="44.28072" lon="6.1899">
        <ele>1563.5999756</ele>
        <time>2018-08-17T10:46:37Z</time>
      </trkpt>
      <trkpt lat="44.28067" lon="6.19026">
        <ele>1563.8000488</ele>
        <time>2018-08-17T10:46:50Z</time>
      </trkpt>
      <trkpt lat="44.28055" lon="6.19069">
        <ele>1564.4000244</ele>
        <time>2018-08-17T10:47:02Z</time>
      </trkpt>
      <trkpt lat="44.28037" lon="6.19116">
        <ele>1563.5999756</ele>
        <time>2018-08-17T10:47:14Z</time>
      </trkpt>
      <trkpt lat="44.28031" lon="6.19164">
        <ele>1562.1999512</ele>
        <time>2018-08-17T10:47:27Z</time>
      </trkpt>
      <trkpt lat="44.28032" lon="6.19209">
        <ele>1563</ele>
        <time>2018-08-17T10:47:39Z</time>
      </trkpt>
      <trkpt lat="44.28033" lon="6.19224">
        <ele>1563.4000244</ele>
        <time>2018-08-17T10:47:42Z</time>
      </trkpt>
      <trkpt lat="44.28032" lon="6.19228">
        <ele>1563.5999756</ele>
        <time>2018-08-17T10:47:43Z</time>
      </trkpt>
      <trkpt lat="44.28031" lon="6.19231">
        <ele>1564</ele>
        <time>2018-08-17T10:47:44Z</time>
      </trkpt>
      <trkpt lat="44.28029" lon="6.19233">
        <ele>1564.1999512</ele>
        <time>2018-08-17T10:47:45Z</time>
      </trkpt>
      <trkpt lat="44.28028" lon="6.19236">
        <ele>1564.5999756</ele>
        <time>2018-08-17T10:47:46Z</time>
      </trkpt>
      <trkpt lat="44.28026" lon="6.19238">
        <ele>1565.1999512</ele>
        <time>2018-08-17T10:47:47Z</time>
      </trkpt>
      <trkpt lat="44.28024" lon="6.1924">
        <ele>1566</ele>
        <time>2018-08-17T10:47:48Z</time>
      </trkpt>
      <trkpt lat="44.28005" lon="6.19255">
        <ele>1569.1999512</ele>
        <time>2018-08-17T10:47:56Z</time>
      </trkpt>
      <trkpt lat="44.2798" lon="6.19275">
        <ele>1571</ele>
        <time>2018-08-17T10:48:07Z</time>
      </trkpt>
      <trkpt lat="44.27942" lon="6.19297">
        <ele>1571</ele>
        <time>2018-08-17T10:48:19Z</time>
      </trkpt>
      <trkpt lat="44.27923" lon="6.19334">
        <ele>1570.5999756</ele>
        <time>2018-08-17T10:48:31Z</time>
      </trkpt>
      <trkpt lat="44.27903" lon="6.19372">
        <ele>1570.4000244</ele>
        <time>2018-08-17T10:48:42Z</time>
      </trkpt>
      <trkpt lat="44.27888" lon="6.19409">
        <ele>1571.4000244</ele>
        <time>2018-08-17T10:48:54Z</time>
      </trkpt>
      <trkpt lat="44.27886" lon="6.19423">
        <ele>1571.8000488</ele>
        <time>2018-08-17T10:48:57Z</time>
      </trkpt>
      <trkpt lat="44.27877" lon="6.19473">
        <ele>1572.5999756</ele>
        <time>2018-08-17T10:49:08Z</time>
      </trkpt>
      <trkpt lat="44.2786" lon="6.19509">
        <ele>1572</ele>
        <time>2018-08-17T10:49:18Z</time>
      </trkpt>
      <trkpt lat="44.27852" lon="6.19546">
        <ele>1570.1999512</ele>
        <time>2018-08-17T10:49:28Z</time>
      </trkpt>
      <trkpt lat="44.27843" lon="6.19568">
        <ele>1568.8000488</ele>
        <time>2018-08-17T10:49:40Z</time>
      </trkpt>
      <trkpt lat="44.27839" lon="6.19577">
        <ele>1568</ele>
        <time>2018-08-17T10:49:49Z</time>
      </trkpt>
      <trkpt lat="44.27838" lon="6.19578">
        <ele>1567.8000488</ele>
        <time>2018-08-17T10:49:50Z</time>
      </trkpt>
      <trkpt lat="44.27837" lon="6.19581">
        <ele>1567.8000488</ele>
        <time>2018-08-17T10:49:51Z</time>
      </trkpt>
      <trkpt lat="44.27836" lon="6.19583">
        <ele>1567.8000488</ele>
        <time>2018-08-17T10:49:52Z</time>
      </trkpt>
      <trkpt lat="44.27835" lon="6.19585">
        <ele>1567.8000488</ele>
        <time>2018-08-17T10:49:53Z</time>
      </trkpt>
      <trkpt lat="44.27826" lon="6.19627">
        <ele>1565.5999756</ele>
        <time>2018-08-17T10:50:19Z</time>
      </trkpt>
      <trkpt lat="44.27827" lon="6.19629">
        <ele>1565.4000244</ele>
        <time>2018-08-17T10:50:20Z</time>
      </trkpt>
      <trkpt lat="44.27827" lon="6.19632">
        <ele>1565.4000244</ele>
        <time>2018-08-17T10:50:21Z</time>
      </trkpt>
      <trkpt lat="44.27837" lon="6.19673">
        <ele>1564.4000244</ele>
        <time>2018-08-17T10:50:33Z</time>
      </trkpt>
      <trkpt lat="44.27854" lon="6.19709">
        <ele>1564</ele>
        <time>2018-08-17T10:50:44Z</time>
      </trkpt>
      <trkpt lat="44.27863" lon="6.19725">
        <ele>1566.4000244</ele>
        <time>2018-08-17T10:50:58Z</time>
      </trkpt>
      <trkpt lat="44.27871" lon="6.1974">
        <ele>1567</ele>
        <time>2018-08-17T10:51:09Z</time>
      </trkpt>
      <trkpt lat="44.27875" lon="6.19752">
        <ele>1567</ele>
        <time>2018-08-17T10:51:12Z</time>
      </trkpt>
      <trkpt lat="44.27875" lon="6.19755">
        <ele>1567</ele>
        <time>2018-08-17T10:51:13Z</time>
      </trkpt>
      <trkpt lat="44.27876" lon="6.1976">
        <ele>1567</ele>
        <time>2018-08-17T10:51:14Z</time>
      </trkpt>
      <trkpt lat="44.27878" lon="6.19766">
        <ele>1567</ele>
        <time>2018-08-17T10:51:16Z</time>
      </trkpt>
      <trkpt lat="44.27878" lon="6.19769">
        <ele>1567</ele>
        <time>2018-08-17T10:51:17Z</time>
      </trkpt>
      <trkpt lat="44.27867" lon="6.19801">
        <ele>1568.1999512</ele>
        <time>2018-08-17T10:51:29Z</time>
      </trkpt>
      <trkpt lat="44.27852" lon="6.19836">
        <ele>1568.1999512</ele>
        <time>2018-08-17T10:51:42Z</time>
      </trkpt>
      <trkpt lat="44.27849" lon="6.1985">
        <ele>1567.1999512</ele>
        <time>2018-08-17T10:51:51Z</time>
      </trkpt>
      <trkpt lat="44.27845" lon="6.19863">
        <ele>1566</ele>
        <time>2018-08-17T10:52:06Z</time>
      </trkpt>
      <trkpt lat="44.27844" lon="6.19866">
        <ele>1566</ele>
        <time>2018-08-17T10:52:07Z</time>
      </trkpt>
      <trkpt lat="44.27821" lon="6.19891">
        <ele>1565.1999512</ele>
        <time>2018-08-17T10:52:18Z</time>
      </trkpt>
      <trkpt lat="44.27816" lon="6.19901">
        <ele>1565</ele>
        <time>2018-08-17T10:52:23Z</time>
      </trkpt>
      <trkpt lat="44.27798" lon="6.19928">
        <ele>1563.4000244</ele>
        <time>2018-08-17T10:52:43Z</time>
      </trkpt>
      <trkpt lat="44.27793" lon="6.19933">
        <ele>1561.5999756</ele>
        <time>2018-08-17T10:53:03Z</time>
      </trkpt>
      <trkpt lat="44.27789" lon="6.1994">
        <ele>1560.8000488</ele>
        <time>2018-08-17T10:53:37Z</time>
      </trkpt>
      <trkpt lat="44.27773" lon="6.19944">
        <ele>1559.4000244</ele>
        <time>2018-08-17T10:54:07Z</time>
      </trkpt>
      <trkpt lat="44.27764" lon="6.19952">
        <ele>1559.1999512</ele>
        <time>2018-08-17T10:54:25Z</time>
      </trkpt>
      <trkpt lat="44.27753" lon="6.1995">
        <ele>1558.1999512</ele>
        <time>2018-08-17T10:54:33Z</time>
      </trkpt>
      <trkpt lat="44.27744" lon="6.19959">
        <ele>1557.4000244</ele>
        <time>2018-08-17T10:54:47Z</time>
      </trkpt>
      <trkpt lat="44.27747" lon="6.19988">
        <ele>1558.4000244</ele>
        <time>2018-08-17T10:55:21Z</time>
      </trkpt>
      <trkpt lat="44.27749" lon="6.19989">
        <ele>1558.5999756</ele>
        <time>2018-08-17T10:55:33Z</time>
      </trkpt>
      <trkpt lat="44.27749" lon="6.2">
        <ele>1558.5999756</ele>
        <time>2018-08-17T10:55:37Z</time>
      </trkpt>
      <trkpt lat="44.27748" lon="6.20004">
        <ele>1558.5999756</ele>
        <time>2018-08-17T10:55:38Z</time>
      </trkpt>
      <trkpt lat="44.27747" lon="6.20008">
        <ele>1558.5999756</ele>
        <time>2018-08-17T10:55:39Z</time>
      </trkpt>
      <trkpt lat="44.27763" lon="6.20051">
        <ele>1558.8000488</ele>
        <time>2018-08-17T10:55:52Z</time>
      </trkpt>
      <trkpt lat="44.27768" lon="6.20056">
        <ele>1559.5999756</ele>
        <time>2018-08-17T10:56:03Z</time>
      </trkpt>
      <trkpt lat="44.27771" lon="6.20062">
        <ele>1560.1999512</ele>
        <time>2018-08-17T10:56:24Z</time>
      </trkpt>
      <trkpt lat="44.27775" lon="6.20087">
        <ele>1561.5999756</ele>
        <time>2018-08-17T10:56:51Z</time>
      </trkpt>
      <trkpt lat="44.27768" lon="6.20114">
        <ele>1562.4000244</ele>
        <time>2018-08-17T10:57:10Z</time>
      </trkpt>
      <trkpt lat="44.2776" lon="6.20135">
        <ele>1562.4000244</ele>
        <time>2018-08-17T10:57:29Z</time>
      </trkpt>
      <trkpt lat="44.27751" lon="6.2015">
        <ele>1562.5999756</ele>
        <time>2018-08-17T10:57:51Z</time>
      </trkpt>
      <trkpt lat="44.27751" lon="6.20149">
        <ele>1562.5999756</ele>
        <time>2018-08-17T10:58:41Z</time>
      </trkpt>
      <trkpt lat="44.27751" lon="6.20153">
        <ele>1562.8000488</ele>
        <time>2018-08-17T10:59:04Z</time>
      </trkpt>
      <trkpt lat="44.27752" lon="6.20152">
        <ele>1563</ele>
        <time>2018-08-17T10:59:13Z</time>
      </trkpt>
      <trkpt lat="44.27754" lon="6.20151">
        <ele>1563</ele>
        <time>2018-08-17T10:59:14Z</time>
      </trkpt>
      <trkpt lat="44.27758" lon="6.20147">
        <ele>1563</ele>
        <time>2018-08-17T10:59:17Z</time>
      </trkpt>
      <trkpt lat="44.27762" lon="6.20143">
        <ele>1560.5999756</ele>
        <time>2018-08-17T10:59:37Z</time>
      </trkpt>
      <trkpt lat="44.27763" lon="6.20143">
        <ele>1560.5999756</ele>
        <time>2018-08-17T10:59:38Z</time>
      </trkpt>
      <trkpt lat="44.27771" lon="6.20136">
        <ele>1560.4000244</ele>
        <time>2018-08-17T10:59:44Z</time>
      </trkpt>
      <trkpt lat="44.27773" lon="6.20133">
        <ele>1558.1999512</ele>
        <time>2018-08-17T11:00:09Z</time>
      </trkpt>
      <trkpt lat="44.27784" lon="6.20128">
        <ele>1558.1999512</ele>
        <time>2018-08-17T11:00:13Z</time>
      </trkpt>
      <trkpt lat="44.27787" lon="6.20126">
        <ele>1558</ele>
        <time>2018-08-17T11:00:14Z</time>
      </trkpt>
      <trkpt lat="44.27824" lon="6.20113">
        <ele>1555.1999512</ele>
        <time>2018-08-17T11:00:27Z</time>
      </trkpt>
      <trkpt lat="44.27838" lon="6.20109">
        <ele>1552.1999512</ele>
        <time>2018-08-17T11:00:34Z</time>
      </trkpt>
      <trkpt lat="44.27855" lon="6.20095">
        <ele>1549</ele>
        <time>2018-08-17T11:00:44Z</time>
      </trkpt>
      <trkpt lat="44.27867" lon="6.20089">
        <ele>1545.4000244</ele>
        <time>2018-08-17T11:00:50Z</time>
      </trkpt>
      <trkpt lat="44.27881" lon="6.20084">
        <ele>1542.4000244</ele>
        <time>2018-08-17T11:00:55Z</time>
      </trkpt>
      <trkpt lat="44.27898" lon="6.20077">
        <ele>1538.5999756</ele>
        <time>2018-08-17T11:01:03Z</time>
      </trkpt>
      <trkpt lat="44.27905" lon="6.20067">
        <ele>1536</ele>
        <time>2018-08-17T11:01:08Z</time>
      </trkpt>
      <trkpt lat="44.27906" lon="6.20065">
        <ele>1535.4000244</ele>
        <time>2018-08-17T11:01:09Z</time>
      </trkpt>
      <trkpt lat="44.27908" lon="6.20062">
        <ele>1535</ele>
        <time>2018-08-17T11:01:10Z</time>
      </trkpt>
      <trkpt lat="44.27909" lon="6.2006">
        <ele>1534.5999756</ele>
        <time>2018-08-17T11:01:11Z</time>
      </trkpt>
      <trkpt lat="44.2791" lon="6.20057">
        <ele>1534.1999512</ele>
        <time>2018-08-17T11:01:12Z</time>
      </trkpt>
      <trkpt lat="44.27911" lon="6.20054">
        <ele>1533.8000488</ele>
        <time>2018-08-17T11:01:13Z</time>
      </trkpt>
      <trkpt lat="44.27922" lon="6.20035">
        <ele>1530.5999756</ele>
        <time>2018-08-17T11:01:20Z</time>
      </trkpt>
      <trkpt lat="44.27935" lon="6.20014">
        <ele>1527.1999512</ele>
        <time>2018-08-17T11:01:29Z</time>
      </trkpt>
      <trkpt lat="44.27941" lon="6.20004">
        <ele>1526.1999512</ele>
        <time>2018-08-17T11:01:33Z</time>
      </trkpt>
      <trkpt lat="44.27943" lon="6.20001">
        <ele>1525.8000488</ele>
        <time>2018-08-17T11:01:34Z</time>
      </trkpt>
      <trkpt lat="44.27944" lon="6.19998">
        <ele>1525.4000244</ele>
        <time>2018-08-17T11:01:35Z</time>
      </trkpt>
      <trkpt lat="44.27944" lon="6.19995">
        <ele>1525</ele>
        <time>2018-08-17T11:01:36Z</time>
      </trkpt>
      <trkpt lat="44.27943" lon="6.19992">
        <ele>1524.8000488</ele>
        <time>2018-08-17T11:01:37Z</time>
      </trkpt>
      <trkpt lat="44.27941" lon="6.19986">
        <ele>1524</ele>
        <time>2018-08-17T11:01:39Z</time>
      </trkpt>
      <trkpt lat="44.27936" lon="6.19984">
        <ele>1523.4000244</ele>
        <time>2018-08-17T11:01:41Z</time>
      </trkpt>
      <trkpt lat="44.27926" lon="6.1997">
        <ele>1520.5999756</ele>
        <time>2018-08-17T11:01:53Z</time>
      </trkpt>
      <trkpt lat="44.27929" lon="6.19958">
        <ele>1520</ele>
        <time>2018-08-17T11:02:33Z</time>
      </trkpt>
      <trkpt lat="44.2793" lon="6.19958">
        <ele>1520</ele>
        <time>2018-08-17T11:02:34Z</time>
      </trkpt>
      <trkpt lat="44.27932" lon="6.19953">
        <ele>1520</ele>
        <time>2018-08-17T11:02:36Z</time>
      </trkpt>
      <trkpt lat="44.27955" lon="6.19927">
        <ele>1519.8000488</ele>
        <time>2018-08-17T11:02:49Z</time>
      </trkpt>
      <trkpt lat="44.27991" lon="6.19912">
        <ele>1516.4000244</ele>
        <time>2018-08-17T11:03:01Z</time>
      </trkpt>
      <trkpt lat="44.28011" lon="6.19914">
        <ele>1513.1999512</ele>
        <time>2018-08-17T11:03:07Z</time>
      </trkpt>
      <trkpt lat="44.28031" lon="6.19906">
        <ele>1510.1999512</ele>
        <time>2018-08-17T11:03:12Z</time>
      </trkpt>
      <trkpt lat="44.28059" lon="6.19901">
        <ele>1506.8000488</ele>
        <time>2018-08-17T11:03:20Z</time>
      </trkpt>
      <trkpt lat="44.2808" lon="6.19894">
        <ele>1503.5999756</ele>
        <time>2018-08-17T11:03:26Z</time>
      </trkpt>
      <trkpt lat="44.28091" lon="6.19882">
        <ele>1500.1999512</ele>
        <time>2018-08-17T11:03:33Z</time>
      </trkpt>
      <trkpt lat="44.28095" lon="6.19882">
        <ele>1497.5999756</ele>
        <time>2018-08-17T11:03:51Z</time>
      </trkpt>
      <trkpt lat="44.28095" lon="6.19881">
        <ele>1497.5999756</ele>
        <time>2018-08-17T11:03:52Z</time>
      </trkpt>
      <trkpt lat="44.28094" lon="6.19879">
        <ele>1497.5999756</ele>
        <time>2018-08-17T11:03:53Z</time>
      </trkpt>
      <trkpt lat="44.28095" lon="6.19875">
        <ele>1496</ele>
        <time>2018-08-17T11:04:10Z</time>
      </trkpt>
      <trkpt lat="44.28094" lon="6.19868">
        <ele>1495.1999512</ele>
        <time>2018-08-17T11:04:24Z</time>
      </trkpt>
      <trkpt lat="44.28092" lon="6.19867">
        <ele>1495.1999512</ele>
        <time>2018-08-17T11:04:25Z</time>
      </trkpt>
      <trkpt lat="44.28091" lon="6.19866">
        <ele>1495.1999512</ele>
        <time>2018-08-17T11:04:26Z</time>
      </trkpt>
      <trkpt lat="44.28081" lon="6.19848">
        <ele>1492.4000244</ele>
        <time>2018-08-17T11:04:37Z</time>
      </trkpt>
      <trkpt lat="44.2808" lon="6.19839">
        <ele>1491.1999512</ele>
        <time>2018-08-17T11:04:40Z</time>
      </trkpt>
      <trkpt lat="44.2808" lon="6.19836">
        <ele>1490.5999756</ele>
        <time>2018-08-17T11:04:41Z</time>
      </trkpt>
      <trkpt lat="44.28083" lon="6.19831">
        <ele>1489.5999756</ele>
        <time>2018-08-17T11:04:44Z</time>
      </trkpt>
      <trkpt lat="44.28097" lon="6.19811">
        <ele>1485.8000488</ele>
        <time>2018-08-17T11:04:54Z</time>
      </trkpt>
      <trkpt lat="44.281" lon="6.19807">
        <ele>1484.5999756</ele>
        <time>2018-08-17T11:04:56Z</time>
      </trkpt>
      <trkpt lat="44.28107" lon="6.19797">
        <ele>1481.1999512</ele>
        <time>2018-08-17T11:05:02Z</time>
      </trkpt>
      <trkpt lat="44.28108" lon="6.19794">
        <ele>1479.4000244</ele>
        <time>2018-08-17T11:05:05Z</time>
      </trkpt>
      <trkpt lat="44.28111" lon="6.19789">
        <ele>1477.8000488</ele>
        <time>2018-08-17T11:05:08Z</time>
      </trkpt>
      <trkpt lat="44.28116" lon="6.19783">
        <ele>1474.8000488</ele>
        <time>2018-08-17T11:05:17Z</time>
      </trkpt>
      <trkpt lat="44.28117" lon="6.19781">
        <ele>1474.5999756</ele>
        <time>2018-08-17T11:05:18Z</time>
      </trkpt>
      <trkpt lat="44.28144" lon="6.19757">
        <ele>1472</ele>
        <time>2018-08-17T11:05:31Z</time>
      </trkpt>
      <trkpt lat="44.2816" lon="6.19746">
        <ele>1468.5999756</ele>
        <time>2018-08-17T11:05:38Z</time>
      </trkpt>
      <trkpt lat="44.28172" lon="6.1974">
        <ele>1465.4000244</ele>
        <time>2018-08-17T11:05:45Z</time>
      </trkpt>
      <trkpt lat="44.2818" lon="6.19729">
        <ele>1462.1999512</ele>
        <time>2018-08-17T11:05:52Z</time>
      </trkpt>
      <trkpt lat="44.28182" lon="6.19724">
        <ele>1461.1999512</ele>
        <time>2018-08-17T11:05:55Z</time>
      </trkpt>
      <trkpt lat="44.28182" lon="6.19722">
        <ele>1461</ele>
        <time>2018-08-17T11:05:56Z</time>
      </trkpt>
      <trkpt lat="44.28183" lon="6.19711">
        <ele>1457.8000488</ele>
        <time>2018-08-17T11:06:07Z</time>
      </trkpt>
      <trkpt lat="44.28189" lon="6.19702">
        <ele>1457.8000488</ele>
        <time>2018-08-17T11:06:22Z</time>
      </trkpt>
      <trkpt lat="44.2819" lon="6.19701">
        <ele>1457.8000488</ele>
        <time>2018-08-17T11:06:23Z</time>
      </trkpt>
      <trkpt lat="44.28192" lon="6.19701">
        <ele>1457.8000488</ele>
        <time>2018-08-17T11:06:24Z</time>
      </trkpt>
      <trkpt lat="44.28194" lon="6.19701">
        <ele>1457.8000488</ele>
        <time>2018-08-17T11:06:25Z</time>
      </trkpt>
      <trkpt lat="44.28195" lon="6.197">
        <ele>1457.5999756</ele>
        <time>2018-08-17T11:06:26Z</time>
      </trkpt>
      <trkpt lat="44.28216" lon="6.19678">
        <ele>1456.4000244</ele>
        <time>2018-08-17T11:06:37Z</time>
      </trkpt>
      <trkpt lat="44.28233" lon="6.19655">
        <ele>1453.1999512</ele>
        <time>2018-08-17T11:06:48Z</time>
      </trkpt>
      <trkpt lat="44.28243" lon="6.19641">
        <ele>1452.1999512</ele>
        <time>2018-08-17T11:06:51Z</time>
      </trkpt>
      <trkpt lat="44.28286" lon="6.19618">
        <ele>1449.4000244</ele>
        <time>2018-08-17T11:07:02Z</time>
      </trkpt>
      <trkpt lat="44.28298" lon="6.19612">
        <ele>1446</ele>
        <time>2018-08-17T11:07:11Z</time>
      </trkpt>
      <trkpt lat="44.28301" lon="6.1961">
        <ele>1445.1999512</ele>
        <time>2018-08-17T11:07:13Z</time>
      </trkpt>
      <trkpt lat="44.28303" lon="6.1961">
        <ele>1444.8000488</ele>
        <time>2018-08-17T11:07:14Z</time>
      </trkpt>
      <trkpt lat="44.28305" lon="6.1961">
        <ele>1444.4000244</ele>
        <time>2018-08-17T11:07:15Z</time>
      </trkpt>
      <trkpt lat="44.28307" lon="6.19609">
        <ele>1444</ele>
        <time>2018-08-17T11:07:16Z</time>
      </trkpt>
      <trkpt lat="44.28309" lon="6.19608">
        <ele>1443.5999756</ele>
        <time>2018-08-17T11:07:17Z</time>
      </trkpt>
      <trkpt lat="44.28311" lon="6.19608">
        <ele>1443.4000244</ele>
        <time>2018-08-17T11:07:18Z</time>
      </trkpt>
      <trkpt lat="44.28313" lon="6.19607">
        <ele>1443.4000244</ele>
        <time>2018-08-17T11:07:19Z</time>
      </trkpt>
      <trkpt lat="44.28315" lon="6.19605">
        <ele>1443.1999512</ele>
        <time>2018-08-17T11:07:20Z</time>
      </trkpt>
      <trkpt lat="44.28317" lon="6.19604">
        <ele>1443</ele>
        <time>2018-08-17T11:07:21Z</time>
      </trkpt>
      <trkpt lat="44.2832" lon="6.19602">
        <ele>1442.5999756</ele>
        <time>2018-08-17T11:07:22Z</time>
      </trkpt>
      <trkpt lat="44.28338" lon="6.19589">
        <ele>1439.4000244</ele>
        <time>2018-08-17T11:07:31Z</time>
      </trkpt>
      <trkpt lat="44.28341" lon="6.19587">
        <ele>1436.1999512</ele>
        <time>2018-08-17T11:07:39Z</time>
      </trkpt>
      <trkpt lat="44.28349" lon="6.19579">
        <ele>1434.8000488</ele>
        <time>2018-08-17T11:08:27Z</time>
      </trkpt>
      <trkpt lat="44.28351" lon="6.1958">
        <ele>1434.1999512</ele>
        <time>2018-08-17T11:08:53Z</time>
      </trkpt>
      <trkpt lat="44.2835" lon="6.19576">
        <ele>1434.4000244</ele>
        <time>2018-08-17T11:09:02Z</time>
      </trkpt>
      <trkpt lat="44.28351" lon="6.19573">
        <ele>1434.4000244</ele>
        <time>2018-08-17T11:09:03Z</time>
      </trkpt>
      <trkpt lat="44.28351" lon="6.1957">
        <ele>1434.4000244</ele>
        <time>2018-08-17T11:09:04Z</time>
      </trkpt>
      <trkpt lat="44.28351" lon="6.19567">
        <ele>1434.4000244</ele>
        <time>2018-08-17T11:09:05Z</time>
      </trkpt>
      <trkpt lat="44.28352" lon="6.19563">
        <ele>1434.4000244</ele>
        <time>2018-08-17T11:09:06Z</time>
      </trkpt>
      <trkpt lat="44.28351" lon="6.1956">
        <ele>1434.4000244</ele>
        <time>2018-08-17T11:09:07Z</time>
      </trkpt>
      <trkpt lat="44.2835" lon="6.19556">
        <ele>1434.4000244</ele>
        <time>2018-08-17T11:09:08Z</time>
      </trkpt>
      <trkpt lat="44.28349" lon="6.1955">
        <ele>1434.4000244</ele>
        <time>2018-08-17T11:09:09Z</time>
      </trkpt>
      <trkpt lat="44.28347" lon="6.19526">
        <ele>1434.4000244</ele>
        <time>2018-08-17T11:09:13Z</time>
      </trkpt>
      <trkpt lat="44.28349" lon="6.19519">
        <ele>1434.4000244</ele>
        <time>2018-08-17T11:09:14Z</time>
      </trkpt>
      <trkpt lat="44.2835" lon="6.19513">
        <ele>1434.4000244</ele>
        <time>2018-08-17T11:09:15Z</time>
      </trkpt>
      <trkpt lat="44.28353" lon="6.19508">
        <ele>1434.4000244</ele>
        <time>2018-08-17T11:09:16Z</time>
      </trkpt>
      <trkpt lat="44.28357" lon="6.19504">
        <ele>1434.1999512</ele>
        <time>2018-08-17T11:09:17Z</time>
      </trkpt>
      <trkpt lat="44.28361" lon="6.19501">
        <ele>1434</ele>
        <time>2018-08-17T11:09:18Z</time>
      </trkpt>
      <trkpt lat="44.28365" lon="6.19499">
        <ele>1434</ele>
        <time>2018-08-17T11:09:19Z</time>
      </trkpt>
      <trkpt lat="44.28369" lon="6.19498">
        <ele>1433.8000488</ele>
        <time>2018-08-17T11:09:20Z</time>
      </trkpt>
      <trkpt lat="44.28373" lon="6.19497">
        <ele>1433.5999756</ele>
        <time>2018-08-17T11:09:21Z</time>
      </trkpt>
      <trkpt lat="44.28377" lon="6.19495">
        <ele>1433.4000244</ele>
        <time>2018-08-17T11:09:22Z</time>
      </trkpt>
      <trkpt lat="44.28382" lon="6.19493">
        <ele>1433.1999512</ele>
        <time>2018-08-17T11:09:23Z</time>
      </trkpt>
      <trkpt lat="44.28385" lon="6.19491">
        <ele>1433.1999512</ele>
        <time>2018-08-17T11:09:24Z</time>
      </trkpt>
      <trkpt lat="44.28393" lon="6.19487">
        <ele>1433</ele>
        <time>2018-08-17T11:09:26Z</time>
      </trkpt>
      <trkpt lat="44.284" lon="6.19482">
        <ele>1433</ele>
        <time>2018-08-17T11:09:28Z</time>
      </trkpt>
      <trkpt lat="44.28404" lon="6.19479">
        <ele>1433</ele>
        <time>2018-08-17T11:09:29Z</time>
      </trkpt>
      <trkpt lat="44.28451" lon="6.19467">
        <ele>1433</ele>
        <time>2018-08-17T11:09:40Z</time>
      </trkpt>
      <trkpt lat="44.28475" lon="6.19458">
        <ele>1433</ele>
        <time>2018-08-17T11:09:46Z</time>
      </trkpt>
      <trkpt lat="44.28502" lon="6.19447">
        <ele>1433</ele>
        <time>2018-08-17T11:09:53Z</time>
      </trkpt>
      <trkpt lat="44.28505" lon="6.19445">
        <ele>1433</ele>
        <time>2018-08-17T11:09:54Z</time>
      </trkpt>
      <trkpt lat="44.28519" lon="6.19436">
        <ele>1433</ele>
        <time>2018-08-17T11:09:58Z</time>
      </trkpt>
      <trkpt lat="44.28528" lon="6.19424">
        <ele>1433</ele>
        <time>2018-08-17T11:10:01Z</time>
      </trkpt>
      <trkpt lat="44.28531" lon="6.1942">
        <ele>1433</ele>
        <time>2018-08-17T11:10:02Z</time>
      </trkpt>
      <trkpt lat="44.28532" lon="6.19415">
        <ele>1433</ele>
        <time>2018-08-17T11:10:03Z</time>
      </trkpt>
      <trkpt lat="44.28533" lon="6.1941">
        <ele>1432.8000488</ele>
        <time>2018-08-17T11:10:04Z</time>
      </trkpt>
      <trkpt lat="44.28532" lon="6.19405">
        <ele>1432.5999756</ele>
        <time>2018-08-17T11:10:05Z</time>
      </trkpt>
      <trkpt lat="44.28532" lon="6.194">
        <ele>1432.5999756</ele>
        <time>2018-08-17T11:10:06Z</time>
      </trkpt>
      <trkpt lat="44.28529" lon="6.194">
        <ele>1432.5999756</ele>
        <time>2018-08-17T11:10:07Z</time>
      </trkpt>
      <trkpt lat="44.28528" lon="6.19396">
        <ele>1432.4000244</ele>
        <time>2018-08-17T11:10:08Z</time>
      </trkpt>
      <trkpt lat="44.28529" lon="6.19391">
        <ele>1432.4000244</ele>
        <time>2018-08-17T11:10:09Z</time>
      </trkpt>
      <trkpt lat="44.28533" lon="6.19386">
        <ele>1432.4000244</ele>
        <time>2018-08-17T11:10:10Z</time>
      </trkpt>
      <trkpt lat="44.28536" lon="6.19383">
        <ele>1432.4000244</ele>
        <time>2018-08-17T11:10:11Z</time>
      </trkpt>
      <trkpt lat="44.2854" lon="6.1938">
        <ele>1432.4000244</ele>
        <time>2018-08-17T11:10:12Z</time>
      </trkpt>
      <trkpt lat="44.28543" lon="6.19378">
        <ele>1432.1999512</ele>
        <time>2018-08-17T11:10:13Z</time>
      </trkpt>
      <trkpt lat="44.28547" lon="6.19376">
        <ele>1432.1999512</ele>
        <time>2018-08-17T11:10:14Z</time>
      </trkpt>
      <trkpt lat="44.28557" lon="6.19368">
        <ele>1431.8000488</ele>
        <time>2018-08-17T11:10:17Z</time>
      </trkpt>
      <trkpt lat="44.2856" lon="6.19365">
        <ele>1431.8000488</ele>
        <time>2018-08-17T11:10:18Z</time>
      </trkpt>
      <trkpt lat="44.28563" lon="6.1936">
        <ele>1431.8000488</ele>
        <time>2018-08-17T11:10:19Z</time>
      </trkpt>
      <trkpt lat="44.28568" lon="6.19349">
        <ele>1431.8000488</ele>
        <time>2018-08-17T11:10:21Z</time>
      </trkpt>
      <trkpt lat="44.2857" lon="6.19343">
        <ele>1431.8000488</ele>
        <time>2018-08-17T11:10:22Z</time>
      </trkpt>
      <trkpt lat="44.28571" lon="6.19337">
        <ele>1431.8000488</ele>
        <time>2018-08-17T11:10:23Z</time>
      </trkpt>
      <trkpt lat="44.28572" lon="6.19331">
        <ele>1431.8000488</ele>
        <time>2018-08-17T11:10:24Z</time>
      </trkpt>
      <trkpt lat="44.28572" lon="6.19325">
        <ele>1431.8000488</ele>
        <time>2018-08-17T11:10:25Z</time>
      </trkpt>
      <trkpt lat="44.28573" lon="6.19319">
        <ele>1431.8000488</ele>
        <time>2018-08-17T11:10:26Z</time>
      </trkpt>
      <trkpt lat="44.28574" lon="6.19313">
        <ele>1431.5999756</ele>
        <time>2018-08-17T11:10:27Z</time>
      </trkpt>
      <trkpt lat="44.28575" lon="6.19308">
        <ele>1431.5999756</ele>
        <time>2018-08-17T11:10:28Z</time>
      </trkpt>
      <trkpt lat="44.28578" lon="6.19303">
        <ele>1431.5999756</ele>
        <time>2018-08-17T11:10:29Z</time>
      </trkpt>
      <trkpt lat="44.28581" lon="6.19299">
        <ele>1431.5999756</ele>
        <time>2018-08-17T11:10:30Z</time>
      </trkpt>
      <trkpt lat="44.28586" lon="6.19295">
        <ele>1431.5999756</ele>
        <time>2018-08-17T11:10:31Z</time>
      </trkpt>
      <trkpt lat="44.28591" lon="6.19293">
        <ele>1431.5999756</ele>
        <time>2018-08-17T11:10:32Z</time>
      </trkpt>
      <trkpt lat="44.28596" lon="6.19292">
        <ele>1431.5999756</ele>
        <time>2018-08-17T11:10:33Z</time>
      </trkpt>
      <trkpt lat="44.28601" lon="6.1929">
        <ele>1431.5999756</ele>
        <time>2018-08-17T11:10:34Z</time>
      </trkpt>
      <trkpt lat="44.28607" lon="6.19289">
        <ele>1431.5999756</ele>
        <time>2018-08-17T11:10:35Z</time>
      </trkpt>
      <trkpt lat="44.28613" lon="6.19288">
        <ele>1431.5999756</ele>
        <time>2018-08-17T11:10:36Z</time>
      </trkpt>
      <trkpt lat="44.28619" lon="6.19286">
        <ele>1431.4000244</ele>
        <time>2018-08-17T11:10:37Z</time>
      </trkpt>
      <trkpt lat="44.28647" lon="6.19281">
        <ele>1431</ele>
        <time>2018-08-17T11:10:42Z</time>
      </trkpt>
      <trkpt lat="44.28687" lon="6.19259">
        <ele>1430.5999756</ele>
        <time>2018-08-17T11:10:50Z</time>
      </trkpt>
      <trkpt lat="44.28714" lon="6.19235">
        <ele>1429.8000488</ele>
        <time>2018-08-17T11:10:57Z</time>
      </trkpt>
      <trkpt lat="44.28719" lon="6.19227">
        <ele>1429.4000244</ele>
        <time>2018-08-17T11:10:59Z</time>
      </trkpt>
      <trkpt lat="44.28722" lon="6.19222">
        <ele>1429.4000244</ele>
        <time>2018-08-17T11:11:00Z</time>
      </trkpt>
      <trkpt lat="44.28726" lon="6.19218">
        <ele>1429.1999512</ele>
        <time>2018-08-17T11:11:01Z</time>
      </trkpt>
      <trkpt lat="44.28728" lon="6.19213">
        <ele>1429.1999512</ele>
        <time>2018-08-17T11:11:02Z</time>
      </trkpt>
      <trkpt lat="44.28732" lon="6.19209">
        <ele>1429.1999512</ele>
        <time>2018-08-17T11:11:03Z</time>
      </trkpt>
      <trkpt lat="44.28735" lon="6.19204">
        <ele>1429.1999512</ele>
        <time>2018-08-17T11:11:04Z</time>
      </trkpt>
      <trkpt lat="44.28739" lon="6.19199">
        <ele>1429</ele>
        <time>2018-08-17T11:11:05Z</time>
      </trkpt>
      <trkpt lat="44.28742" lon="6.19194">
        <ele>1429</ele>
        <time>2018-08-17T11:11:06Z</time>
      </trkpt>
      <trkpt lat="44.28744" lon="6.19187">
        <ele>1429</ele>
        <time>2018-08-17T11:11:07Z</time>
      </trkpt>
      <trkpt lat="44.28747" lon="6.19181">
        <ele>1429</ele>
        <time>2018-08-17T11:11:08Z</time>
      </trkpt>
      <trkpt lat="44.28764" lon="6.19143">
        <ele>1428.4000244</ele>
        <time>2018-08-17T11:11:14Z</time>
      </trkpt>
      <trkpt lat="44.28767" lon="6.19138">
        <ele>1428.4000244</ele>
        <time>2018-08-17T11:11:15Z</time>
      </trkpt>
      <trkpt lat="44.2877" lon="6.19132">
        <ele>1428.4000244</ele>
        <time>2018-08-17T11:11:16Z</time>
      </trkpt>
      <trkpt lat="44.28773" lon="6.19127">
        <ele>1428.1999512</ele>
        <time>2018-08-17T11:11:17Z</time>
      </trkpt>
      <trkpt lat="44.28775" lon="6.19121">
        <ele>1428.1999512</ele>
        <time>2018-08-17T11:11:18Z</time>
      </trkpt>
      <trkpt lat="44.28776" lon="6.19115">
        <ele>1428</ele>
        <time>2018-08-17T11:11:19Z</time>
      </trkpt>
      <trkpt lat="44.28775" lon="6.19107">
        <ele>1428</ele>
        <time>2018-08-17T11:11:20Z</time>
      </trkpt>
      <trkpt lat="44.28775" lon="6.19101">
        <ele>1428</ele>
        <time>2018-08-17T11:11:21Z</time>
      </trkpt>
      <trkpt lat="44.28773" lon="6.19096">
        <ele>1428</ele>
        <time>2018-08-17T11:11:22Z</time>
      </trkpt>
      <trkpt lat="44.28773" lon="6.19089">
        <ele>1428</ele>
        <time>2018-08-17T11:11:23Z</time>
      </trkpt>
      <trkpt lat="44.28771" lon="6.19082">
        <ele>1428</ele>
        <time>2018-08-17T11:11:24Z</time>
      </trkpt>
      <trkpt lat="44.2877" lon="6.19074">
        <ele>1428</ele>
        <time>2018-08-17T11:11:25Z</time>
      </trkpt>
      <trkpt lat="44.2877" lon="6.19067">
        <ele>1428</ele>
        <time>2018-08-17T11:11:26Z</time>
      </trkpt>
      <trkpt lat="44.2877" lon="6.19062">
        <ele>1428</ele>
        <time>2018-08-17T11:11:27Z</time>
      </trkpt>
      <trkpt lat="44.28771" lon="6.19058">
        <ele>1428</ele>
        <time>2018-08-17T11:11:28Z</time>
      </trkpt>
      <trkpt lat="44.28773" lon="6.19051">
        <ele>1428</ele>
        <time>2018-08-17T11:11:29Z</time>
      </trkpt>
      <trkpt lat="44.28774" lon="6.19045">
        <ele>1427.8000488</ele>
        <time>2018-08-17T11:11:30Z</time>
      </trkpt>
      <trkpt lat="44.28775" lon="6.19038">
        <ele>1427.8000488</ele>
        <time>2018-08-17T11:11:31Z</time>
      </trkpt>
      <trkpt lat="44.28775" lon="6.19031">
        <ele>1427.8000488</ele>
        <time>2018-08-17T11:11:32Z</time>
      </trkpt>
      <trkpt lat="44.28775" lon="6.19024">
        <ele>1427.8000488</ele>
        <time>2018-08-17T11:11:33Z</time>
      </trkpt>
      <trkpt lat="44.28774" lon="6.19018">
        <ele>1427.8000488</ele>
        <time>2018-08-17T11:11:34Z</time>
      </trkpt>
      <trkpt lat="44.28772" lon="6.19012">
        <ele>1427.8000488</ele>
        <time>2018-08-17T11:11:35Z</time>
      </trkpt>
      <trkpt lat="44.28769" lon="6.19007">
        <ele>1427.5999756</ele>
        <time>2018-08-17T11:11:36Z</time>
      </trkpt>
      <trkpt lat="44.28765" lon="6.19003">
        <ele>1427.5999756</ele>
        <time>2018-08-17T11:11:37Z</time>
      </trkpt>
      <trkpt lat="44.28761" lon="6.18999">
        <ele>1427.5999756</ele>
        <time>2018-08-17T11:11:38Z</time>
      </trkpt>
      <trkpt lat="44.28757" lon="6.18996">
        <ele>1427.5999756</ele>
        <time>2018-08-17T11:11:39Z</time>
      </trkpt>
      <trkpt lat="44.28752" lon="6.18996">
        <ele>1427.5999756</ele>
        <time>2018-08-17T11:11:40Z</time>
      </trkpt>
      <trkpt lat="44.28747" lon="6.18997">
        <ele>1427.4000244</ele>
        <time>2018-08-17T11:11:41Z</time>
      </trkpt>
      <trkpt lat="44.28742" lon="6.18999">
        <ele>1427.4000244</ele>
        <time>2018-08-17T11:11:42Z</time>
      </trkpt>
      <trkpt lat="44.28736" lon="6.19003">
        <ele>1427.4000244</ele>
        <time>2018-08-17T11:11:43Z</time>
      </trkpt>
      <trkpt lat="44.28732" lon="6.19006">
        <ele>1427.4000244</ele>
        <time>2018-08-17T11:11:44Z</time>
      </trkpt>
      <trkpt lat="44.28723" lon="6.1901">
        <ele>1427.1999512</ele>
        <time>2018-08-17T11:11:46Z</time>
      </trkpt>
      <trkpt lat="44.2872" lon="6.19012">
        <ele>1427.1999512</ele>
        <time>2018-08-17T11:11:47Z</time>
      </trkpt>
      <trkpt lat="44.28715" lon="6.19012">
        <ele>1427.1999512</ele>
        <time>2018-08-17T11:11:48Z</time>
      </trkpt>
      <trkpt lat="44.2871" lon="6.19012">
        <ele>1427.1999512</ele>
        <time>2018-08-17T11:11:49Z</time>
      </trkpt>
      <trkpt lat="44.28706" lon="6.19009">
        <ele>1427</ele>
        <time>2018-08-17T11:11:50Z</time>
      </trkpt>
      <trkpt lat="44.28702" lon="6.19007">
        <ele>1427</ele>
        <time>2018-08-17T11:11:51Z</time>
      </trkpt>
      <trkpt lat="44.28693" lon="6.18999">
        <ele>1427</ele>
        <time>2018-08-17T11:11:53Z</time>
      </trkpt>
      <trkpt lat="44.28685" lon="6.1899">
        <ele>1426.8000488</ele>
        <time>2018-08-17T11:11:55Z</time>
      </trkpt>
      <trkpt lat="44.28683" lon="6.18984">
        <ele>1426.8000488</ele>
        <time>2018-08-17T11:11:56Z</time>
      </trkpt>
      <trkpt lat="44.28683" lon="6.18977">
        <ele>1426.8000488</ele>
        <time>2018-08-17T11:11:57Z</time>
      </trkpt>
      <trkpt lat="44.28684" lon="6.18971">
        <ele>1426.8000488</ele>
        <time>2018-08-17T11:11:58Z</time>
      </trkpt>
      <trkpt lat="44.28686" lon="6.18966">
        <ele>1426.8000488</ele>
        <time>2018-08-17T11:11:59Z</time>
      </trkpt>
      <trkpt lat="44.28688" lon="6.18961">
        <ele>1426.8000488</ele>
        <time>2018-08-17T11:12:00Z</time>
      </trkpt>
      <trkpt lat="44.28707" lon="6.18896">
        <ele>1427.1999512</ele>
        <time>2018-08-17T11:12:12Z</time>
      </trkpt>
      <trkpt lat="44.28729" lon="6.18816">
        <ele>1428.8000488</ele>
        <time>2018-08-17T11:12:27Z</time>
      </trkpt>
      <trkpt lat="44.28738" lon="6.18801">
        <ele>1429.1999512</ele>
        <time>2018-08-17T11:12:37Z</time>
      </trkpt>
      <trkpt lat="44.28735" lon="6.18793">
        <ele>1429.4000244</ele>
        <time>2018-08-17T11:12:56Z</time>
      </trkpt>
      <trkpt lat="44.28736" lon="6.1879">
        <ele>1429.4000244</ele>
        <time>2018-08-17T11:12:57Z</time>
      </trkpt>
      <trkpt lat="44.28736" lon="6.18787">
        <ele>1429.4000244</ele>
        <time>2018-08-17T11:12:58Z</time>
      </trkpt>
      <trkpt lat="44.28736" lon="6.18782">
        <ele>1429.4000244</ele>
        <time>2018-08-17T11:12:59Z</time>
      </trkpt>
      <trkpt lat="44.28735" lon="6.18778">
        <ele>1429.5999756</ele>
        <time>2018-08-17T11:13:00Z</time>
      </trkpt>
      <trkpt lat="44.28734" lon="6.18773">
        <ele>1429.5999756</ele>
        <time>2018-08-17T11:13:01Z</time>
      </trkpt>
      <trkpt lat="44.28733" lon="6.18767">
        <ele>1429.5999756</ele>
        <time>2018-08-17T11:13:02Z</time>
      </trkpt>
      <trkpt lat="44.28731" lon="6.18761">
        <ele>1429.5999756</ele>
        <time>2018-08-17T11:13:03Z</time>
      </trkpt>
      <trkpt lat="44.28728" lon="6.18755">
        <ele>1429.5999756</ele>
        <time>2018-08-17T11:13:04Z</time>
      </trkpt>
      <trkpt lat="44.28725" lon="6.1875">
        <ele>1429.5999756</ele>
        <time>2018-08-17T11:13:05Z</time>
      </trkpt>
      <trkpt lat="44.28722" lon="6.18745">
        <ele>1429.5999756</ele>
        <time>2018-08-17T11:13:06Z</time>
      </trkpt>
      <trkpt lat="44.28706" lon="6.18719">
        <ele>1429.5999756</ele>
        <time>2018-08-17T11:13:11Z</time>
      </trkpt>
      <trkpt lat="44.28694" lon="6.18704">
        <ele>1429.4000244</ele>
        <time>2018-08-17T11:13:14Z</time>
      </trkpt>
      <trkpt lat="44.28681" lon="6.18691">
        <ele>1429.1999512</ele>
        <time>2018-08-17T11:13:17Z</time>
      </trkpt>
      <trkpt lat="44.28677" lon="6.18687">
        <ele>1429.1999512</ele>
        <time>2018-08-17T11:13:18Z</time>
      </trkpt>
      <trkpt lat="44.28669" lon="6.18677">
        <ele>1429.1999512</ele>
        <time>2018-08-17T11:13:20Z</time>
      </trkpt>
      <trkpt lat="44.28666" lon="6.18672">
        <ele>1429.1999512</ele>
        <time>2018-08-17T11:13:21Z</time>
      </trkpt>
      <trkpt lat="44.28663" lon="6.18666">
        <ele>1429.1999512</ele>
        <time>2018-08-17T11:13:22Z</time>
      </trkpt>
      <trkpt lat="44.28658" lon="6.18645">
        <ele>1429</ele>
        <time>2018-08-17T11:13:26Z</time>
      </trkpt>
      <trkpt lat="44.28658" lon="6.18639">
        <ele>1428.8000488</ele>
        <time>2018-08-17T11:13:27Z</time>
      </trkpt>
      <trkpt lat="44.28661" lon="6.18633">
        <ele>1428.8000488</ele>
        <time>2018-08-17T11:13:28Z</time>
      </trkpt>
      <trkpt lat="44.28665" lon="6.18629">
        <ele>1428.5999756</ele>
        <time>2018-08-17T11:13:29Z</time>
      </trkpt>
      <trkpt lat="44.28669" lon="6.18626">
        <ele>1428.5999756</ele>
        <time>2018-08-17T11:13:30Z</time>
      </trkpt>
      <trkpt lat="44.28673" lon="6.18624">
        <ele>1428.5999756</ele>
        <time>2018-08-17T11:13:31Z</time>
      </trkpt>
      <trkpt lat="44.28678" lon="6.18624">
        <ele>1428.4000244</ele>
        <time>2018-08-17T11:13:32Z</time>
      </trkpt>
      <trkpt lat="44.28682" lon="6.18623">
        <ele>1428.4000244</ele>
        <time>2018-08-17T11:13:33Z</time>
      </trkpt>
      <trkpt lat="44.28687" lon="6.18623">
        <ele>1428.1999512</ele>
        <time>2018-08-17T11:13:34Z</time>
      </trkpt>
      <trkpt lat="44.28717" lon="6.18626">
        <ele>1428.1999512</ele>
        <time>2018-08-17T11:13:41Z</time>
      </trkpt>
      <trkpt lat="44.28722" lon="6.18625">
        <ele>1428.1999512</ele>
        <time>2018-08-17T11:13:42Z</time>
      </trkpt>
      <trkpt lat="44.28726" lon="6.18623">
        <ele>1428.1999512</ele>
        <time>2018-08-17T11:13:43Z</time>
      </trkpt>
      <trkpt lat="44.28735" lon="6.18618">
        <ele>1428.1999512</ele>
        <time>2018-08-17T11:13:45Z</time>
      </trkpt>
      <trkpt lat="44.28745" lon="6.18607">
        <ele>1428.1999512</ele>
        <time>2018-08-17T11:13:48Z</time>
      </trkpt>
      <trkpt lat="44.28792" lon="6.18576">
        <ele>1428.8000488</ele>
        <time>2018-08-17T11:13:59Z</time>
      </trkpt>
      <trkpt lat="44.28795" lon="6.18571">
        <ele>1428.8000488</ele>
        <time>2018-08-17T11:14:00Z</time>
      </trkpt>
      <trkpt lat="44.28798" lon="6.18566">
        <ele>1429</ele>
        <time>2018-08-17T11:14:01Z</time>
      </trkpt>
      <trkpt lat="44.28802" lon="6.18561">
        <ele>1429</ele>
        <time>2018-08-17T11:14:02Z</time>
      </trkpt>
      <trkpt lat="44.28805" lon="6.18557">
        <ele>1429</ele>
        <time>2018-08-17T11:14:03Z</time>
      </trkpt>
      <trkpt lat="44.28809" lon="6.18554">
        <ele>1429</ele>
        <time>2018-08-17T11:14:04Z</time>
      </trkpt>
      <trkpt lat="44.28816" lon="6.18547">
        <ele>1429.1999512</ele>
        <time>2018-08-17T11:14:06Z</time>
      </trkpt>
      <trkpt lat="44.2882" lon="6.18544">
        <ele>1429.4000244</ele>
        <time>2018-08-17T11:14:07Z</time>
      </trkpt>
      <trkpt lat="44.28828" lon="6.18538">
        <ele>1429.5999756</ele>
        <time>2018-08-17T11:14:09Z</time>
      </trkpt>
      <trkpt lat="44.2884" lon="6.18529">
        <ele>1429.8000488</ele>
        <time>2018-08-17T11:14:12Z</time>
      </trkpt>
      <trkpt lat="44.28844" lon="6.18525">
        <ele>1430</ele>
        <time>2018-08-17T11:14:13Z</time>
      </trkpt>
      <trkpt lat="44.28847" lon="6.1852">
        <ele>1430</ele>
        <time>2018-08-17T11:14:14Z</time>
      </trkpt>
      <trkpt lat="44.28853" lon="6.18508">
        <ele>1430.4000244</ele>
        <time>2018-08-17T11:14:16Z</time>
      </trkpt>
      <trkpt lat="44.28855" lon="6.18502">
        <ele>1430.5999756</ele>
        <time>2018-08-17T11:14:17Z</time>
      </trkpt>
      <trkpt lat="44.28856" lon="6.18497">
        <ele>1430.5999756</ele>
        <time>2018-08-17T11:14:18Z</time>
      </trkpt>
      <trkpt lat="44.28857" lon="6.18491">
        <ele>1430.8000488</ele>
        <time>2018-08-17T11:14:19Z</time>
      </trkpt>
      <trkpt lat="44.28858" lon="6.18485">
        <ele>1430.8000488</ele>
        <time>2018-08-17T11:14:20Z</time>
      </trkpt>
      <trkpt lat="44.28863" lon="6.18466">
        <ele>1431</ele>
        <time>2018-08-17T11:14:24Z</time>
      </trkpt>
      <trkpt lat="44.28865" lon="6.18463">
        <ele>1431.1999512</ele>
        <time>2018-08-17T11:14:25Z</time>
      </trkpt>
      <trkpt lat="44.28869" lon="6.18462">
        <ele>1431.1999512</ele>
        <time>2018-08-17T11:14:26Z</time>
      </trkpt>
      <trkpt lat="44.28872" lon="6.18462">
        <ele>1431.4000244</ele>
        <time>2018-08-17T11:14:27Z</time>
      </trkpt>
      <trkpt lat="44.28875" lon="6.18464">
        <ele>1431.4000244</ele>
        <time>2018-08-17T11:14:28Z</time>
      </trkpt>
      <trkpt lat="44.28877" lon="6.18467">
        <ele>1431.5999756</ele>
        <time>2018-08-17T11:14:29Z</time>
      </trkpt>
      <trkpt lat="44.28879" lon="6.18469">
        <ele>1431.5999756</ele>
        <time>2018-08-17T11:14:30Z</time>
      </trkpt>
      <trkpt lat="44.28914" lon="6.1849">
        <ele>1432.4000244</ele>
        <time>2018-08-17T11:14:41Z</time>
      </trkpt>
      <trkpt lat="44.28943" lon="6.18488">
        <ele>1433</ele>
        <time>2018-08-17T11:14:48Z</time>
      </trkpt>
      <trkpt lat="44.28948" lon="6.1849">
        <ele>1433.1999512</ele>
        <time>2018-08-17T11:14:49Z</time>
      </trkpt>
      <trkpt lat="44.28962" lon="6.18491">
        <ele>1433.4000244</ele>
        <time>2018-08-17T11:14:52Z</time>
      </trkpt>
      <trkpt lat="44.28991" lon="6.18484">
        <ele>1433.4000244</ele>
        <time>2018-08-17T11:14:58Z</time>
      </trkpt>
      <trkpt lat="44.29009" lon="6.18478">
        <ele>1433.1999512</ele>
        <time>2018-08-17T11:15:02Z</time>
      </trkpt>
      <trkpt lat="44.29014" lon="6.18477">
        <ele>1433</ele>
        <time>2018-08-17T11:15:03Z</time>
      </trkpt>
      <trkpt lat="44.29027" lon="6.1847">
        <ele>1432.4000244</ele>
        <time>2018-08-17T11:15:06Z</time>
      </trkpt>
      <trkpt lat="44.29032" lon="6.18468">
        <ele>1432.1999512</ele>
        <time>2018-08-17T11:15:07Z</time>
      </trkpt>
      <trkpt lat="44.2904" lon="6.18461">
        <ele>1431.5999756</ele>
        <time>2018-08-17T11:15:09Z</time>
      </trkpt>
      <trkpt lat="44.29053" lon="6.18444">
        <ele>1430.1999512</ele>
        <time>2018-08-17T11:15:13Z</time>
      </trkpt>
      <trkpt lat="44.29057" lon="6.18442">
        <ele>1430.1999512</ele>
        <time>2018-08-17T11:15:14Z</time>
      </trkpt>
      <trkpt lat="44.29072" lon="6.18432">
        <ele>1429.1999512</ele>
        <time>2018-08-17T11:15:17Z</time>
      </trkpt>
      <trkpt lat="44.29093" lon="6.18415">
        <ele>1428</ele>
        <time>2018-08-17T11:15:21Z</time>
      </trkpt>
      <trkpt lat="44.29097" lon="6.18411">
        <ele>1427.5999756</ele>
        <time>2018-08-17T11:15:22Z</time>
      </trkpt>
      <trkpt lat="44.29103" lon="6.1841">
        <ele>1427.4000244</ele>
        <time>2018-08-17T11:15:23Z</time>
      </trkpt>
      <trkpt lat="44.29107" lon="6.18411">
        <ele>1427.1999512</ele>
        <time>2018-08-17T11:15:24Z</time>
      </trkpt>
      <trkpt lat="44.29112" lon="6.18412">
        <ele>1427</ele>
        <time>2018-08-17T11:15:25Z</time>
      </trkpt>
      <trkpt lat="44.29116" lon="6.18413">
        <ele>1426.8000488</ele>
        <time>2018-08-17T11:15:26Z</time>
      </trkpt>
      <trkpt lat="44.2912" lon="6.18416">
        <ele>1426.5999756</ele>
        <time>2018-08-17T11:15:27Z</time>
      </trkpt>
      <trkpt lat="44.29124" lon="6.18417">
        <ele>1426.1999512</ele>
        <time>2018-08-17T11:15:28Z</time>
      </trkpt>
      <trkpt lat="44.29129" lon="6.18417">
        <ele>1426</ele>
        <time>2018-08-17T11:15:29Z</time>
      </trkpt>
      <trkpt lat="44.29133" lon="6.18416">
        <ele>1425.5999756</ele>
        <time>2018-08-17T11:15:30Z</time>
      </trkpt>
      <trkpt lat="44.29138" lon="6.18414">
        <ele>1425.4000244</ele>
        <time>2018-08-17T11:15:31Z</time>
      </trkpt>
      <trkpt lat="44.29144" lon="6.18413">
        <ele>1425</ele>
        <time>2018-08-17T11:15:32Z</time>
      </trkpt>
      <trkpt lat="44.29148" lon="6.18413">
        <ele>1424.8000488</ele>
        <time>2018-08-17T11:15:33Z</time>
      </trkpt>
      <trkpt lat="44.29152" lon="6.18412">
        <ele>1424.4000244</ele>
        <time>2018-08-17T11:15:34Z</time>
      </trkpt>
      <trkpt lat="44.29156" lon="6.18409">
        <ele>1424</ele>
        <time>2018-08-17T11:15:35Z</time>
      </trkpt>
      <trkpt lat="44.29158" lon="6.18406">
        <ele>1423.5999756</ele>
        <time>2018-08-17T11:15:36Z</time>
      </trkpt>
      <trkpt lat="44.29159" lon="6.18403">
        <ele>1423.4000244</ele>
        <time>2018-08-17T11:15:37Z</time>
      </trkpt>
      <trkpt lat="44.2916" lon="6.18398">
        <ele>1423.1999512</ele>
        <time>2018-08-17T11:15:38Z</time>
      </trkpt>
      <trkpt lat="44.2916" lon="6.18394">
        <ele>1422.8000488</ele>
        <time>2018-08-17T11:15:39Z</time>
      </trkpt>
      <trkpt lat="44.29159" lon="6.18389">
        <ele>1422.5999756</ele>
        <time>2018-08-17T11:15:40Z</time>
      </trkpt>
      <trkpt lat="44.29157" lon="6.18386">
        <ele>1421.8000488</ele>
        <time>2018-08-17T11:15:41Z</time>
      </trkpt>
      <trkpt lat="44.29154" lon="6.18382">
        <ele>1421.4000244</ele>
        <time>2018-08-17T11:15:42Z</time>
      </trkpt>
      <trkpt lat="44.29152" lon="6.18379">
        <ele>1421</ele>
        <time>2018-08-17T11:15:43Z</time>
      </trkpt>
      <trkpt lat="44.2915" lon="6.18374">
        <ele>1420.5999756</ele>
        <time>2018-08-17T11:15:44Z</time>
      </trkpt>
      <trkpt lat="44.29149" lon="6.18368">
        <ele>1420.4000244</ele>
        <time>2018-08-17T11:15:45Z</time>
      </trkpt>
      <trkpt lat="44.29149" lon="6.18363">
        <ele>1420.1999512</ele>
        <time>2018-08-17T11:15:46Z</time>
      </trkpt>
      <trkpt lat="44.2915" lon="6.18357">
        <ele>1419.8000488</ele>
        <time>2018-08-17T11:15:47Z</time>
      </trkpt>
      <trkpt lat="44.29151" lon="6.18351">
        <ele>1419.5999756</ele>
        <time>2018-08-17T11:15:48Z</time>
      </trkpt>
      <trkpt lat="44.29152" lon="6.18345">
        <ele>1419</ele>
        <time>2018-08-17T11:15:49Z</time>
      </trkpt>
      <trkpt lat="44.29154" lon="6.18339">
        <ele>1418.5999756</ele>
        <time>2018-08-17T11:15:50Z</time>
      </trkpt>
      <trkpt lat="44.29157" lon="6.18326">
        <ele>1417.5999756</ele>
        <time>2018-08-17T11:15:52Z</time>
      </trkpt>
      <trkpt lat="44.29158" lon="6.18319">
        <ele>1417.1999512</ele>
        <time>2018-08-17T11:15:53Z</time>
      </trkpt>
      <trkpt lat="44.29158" lon="6.18312">
        <ele>1416.8000488</ele>
        <time>2018-08-17T11:15:54Z</time>
      </trkpt>
      <trkpt lat="44.29164" lon="6.18275">
        <ele>1413.4000244</ele>
        <time>2018-08-17T11:16:02Z</time>
      </trkpt>
      <trkpt lat="44.29179" lon="6.18261">
        <ele>1411.5999756</ele>
        <time>2018-08-17T11:16:06Z</time>
      </trkpt>
      <trkpt lat="44.2921" lon="6.18255">
        <ele>1408.8000488</ele>
        <time>2018-08-17T11:16:14Z</time>
      </trkpt>
      <trkpt lat="44.29227" lon="6.18253">
        <ele>1408.1999512</ele>
        <time>2018-08-17T11:16:18Z</time>
      </trkpt>
      <trkpt lat="44.29232" lon="6.18252">
        <ele>1407.8000488</ele>
        <time>2018-08-17T11:16:19Z</time>
      </trkpt>
      <trkpt lat="44.29238" lon="6.1825">
        <ele>1407.4000244</ele>
        <time>2018-08-17T11:16:20Z</time>
      </trkpt>
      <trkpt lat="44.29267" lon="6.18238">
        <ele>1404.4000244</ele>
        <time>2018-08-17T11:16:28Z</time>
      </trkpt>
      <trkpt lat="44.2929" lon="6.18213">
        <ele>1401.8000488</ele>
        <time>2018-08-17T11:16:35Z</time>
      </trkpt>
      <trkpt lat="44.29293" lon="6.18214">
        <ele>1401.5999756</ele>
        <time>2018-08-17T11:16:36Z</time>
      </trkpt>
      <trkpt lat="44.29294" lon="6.18217">
        <ele>1401.4000244</ele>
        <time>2018-08-17T11:16:37Z</time>
      </trkpt>
      <trkpt lat="44.29295" lon="6.18222">
        <ele>1401.1999512</ele>
        <time>2018-08-17T11:16:38Z</time>
      </trkpt>
      <trkpt lat="44.29296" lon="6.18226">
        <ele>1401</ele>
        <time>2018-08-17T11:16:39Z</time>
      </trkpt>
      <trkpt lat="44.29295" lon="6.18233">
        <ele>1400.8000488</ele>
        <time>2018-08-17T11:16:40Z</time>
      </trkpt>
      <trkpt lat="44.29295" lon="6.18239">
        <ele>1400.5999756</ele>
        <time>2018-08-17T11:16:41Z</time>
      </trkpt>
      <trkpt lat="44.29293" lon="6.18245">
        <ele>1400.4000244</ele>
        <time>2018-08-17T11:16:42Z</time>
      </trkpt>
      <trkpt lat="44.2929" lon="6.18306">
        <ele>1397.1999512</ele>
        <time>2018-08-17T11:16:52Z</time>
      </trkpt>
      <trkpt lat="44.2929" lon="6.18313">
        <ele>1396.8000488</ele>
        <time>2018-08-17T11:16:53Z</time>
      </trkpt>
      <trkpt lat="44.2928" lon="6.18351">
        <ele>1394</ele>
        <time>2018-08-17T11:17:00Z</time>
      </trkpt>
      <trkpt lat="44.29276" lon="6.18353">
        <ele>1393.5999756</ele>
        <time>2018-08-17T11:17:01Z</time>
      </trkpt>
      <trkpt lat="44.29272" lon="6.18354">
        <ele>1393.1999512</ele>
        <time>2018-08-17T11:17:02Z</time>
      </trkpt>
      <trkpt lat="44.29268" lon="6.18354">
        <ele>1392.8000488</ele>
        <time>2018-08-17T11:17:03Z</time>
      </trkpt>
      <trkpt lat="44.29265" lon="6.18356">
        <ele>1392.4000244</ele>
        <time>2018-08-17T11:17:04Z</time>
      </trkpt>
      <trkpt lat="44.29261" lon="6.18359">
        <ele>1392</ele>
        <time>2018-08-17T11:17:05Z</time>
      </trkpt>
      <trkpt lat="44.29258" lon="6.18363">
        <ele>1391.5999756</ele>
        <time>2018-08-17T11:17:06Z</time>
      </trkpt>
      <trkpt lat="44.29256" lon="6.18368">
        <ele>1391.1999512</ele>
        <time>2018-08-17T11:17:07Z</time>
      </trkpt>
      <trkpt lat="44.29256" lon="6.18372">
        <ele>1391</ele>
        <time>2018-08-17T11:17:08Z</time>
      </trkpt>
      <trkpt lat="44.29257" lon="6.18375">
        <ele>1390.5999756</ele>
        <time>2018-08-17T11:17:09Z</time>
      </trkpt>
      <trkpt lat="44.29258" lon="6.18378">
        <ele>1390.4000244</ele>
        <time>2018-08-17T11:17:10Z</time>
      </trkpt>
      <trkpt lat="44.2926" lon="6.18381">
        <ele>1390</ele>
        <time>2018-08-17T11:17:11Z</time>
      </trkpt>
      <trkpt lat="44.29263" lon="6.18383">
        <ele>1389.8000488</ele>
        <time>2018-08-17T11:17:12Z</time>
      </trkpt>
      <trkpt lat="44.29285" lon="6.18404">
        <ele>1386.5999756</ele>
        <time>2018-08-17T11:17:21Z</time>
      </trkpt>
      <trkpt lat="44.29304" lon="6.18419">
        <ele>1384.8000488</ele>
        <time>2018-08-17T11:17:27Z</time>
      </trkpt>
      <trkpt lat="44.2931" lon="6.18436">
        <ele>1383.8000488</ele>
        <time>2018-08-17T11:17:30Z</time>
      </trkpt>
      <trkpt lat="44.29311" lon="6.18443">
        <ele>1383.4000244</ele>
        <time>2018-08-17T11:17:31Z</time>
      </trkpt>
      <trkpt lat="44.29311" lon="6.1845">
        <ele>1383.1999512</ele>
        <time>2018-08-17T11:17:32Z</time>
      </trkpt>
      <trkpt lat="44.2931" lon="6.18457">
        <ele>1383</ele>
        <time>2018-08-17T11:17:33Z</time>
      </trkpt>
      <trkpt lat="44.2931" lon="6.18465">
        <ele>1382.8000488</ele>
        <time>2018-08-17T11:17:34Z</time>
      </trkpt>
      <trkpt lat="44.2931" lon="6.18473">
        <ele>1382.5999756</ele>
        <time>2018-08-17T11:17:35Z</time>
      </trkpt>
      <trkpt lat="44.2931" lon="6.18484">
        <ele>1382.1999512</ele>
        <time>2018-08-17T11:17:36Z</time>
      </trkpt>
      <trkpt lat="44.29306" lon="6.18492">
        <ele>1382</ele>
        <time>2018-08-17T11:17:37Z</time>
      </trkpt>
      <trkpt lat="44.29283" lon="6.18545">
        <ele>1378.8000488</ele>
        <time>2018-08-17T11:17:46Z</time>
      </trkpt>
      <trkpt lat="44.29272" lon="6.18569">
        <ele>1376.1999512</ele>
        <time>2018-08-17T11:17:52Z</time>
      </trkpt>
      <trkpt lat="44.29274" lon="6.18573">
        <ele>1375.8000488</ele>
        <time>2018-08-17T11:17:53Z</time>
      </trkpt>
      <trkpt lat="44.29277" lon="6.18576">
        <ele>1375.4000244</ele>
        <time>2018-08-17T11:17:54Z</time>
      </trkpt>
      <trkpt lat="44.2928" lon="6.18577">
        <ele>1375.1999512</ele>
        <time>2018-08-17T11:17:55Z</time>
      </trkpt>
      <trkpt lat="44.29283" lon="6.18577">
        <ele>1374.8000488</ele>
        <time>2018-08-17T11:17:56Z</time>
      </trkpt>
      <trkpt lat="44.29285" lon="6.18575">
        <ele>1374.5999756</ele>
        <time>2018-08-17T11:17:57Z</time>
      </trkpt>
      <trkpt lat="44.29287" lon="6.18573">
        <ele>1374.4000244</ele>
        <time>2018-08-17T11:17:58Z</time>
      </trkpt>
      <trkpt lat="44.29289" lon="6.1857">
        <ele>1374.1999512</ele>
        <time>2018-08-17T11:17:59Z</time>
      </trkpt>
      <trkpt lat="44.29291" lon="6.18565">
        <ele>1374</ele>
        <time>2018-08-17T11:18:00Z</time>
      </trkpt>
      <trkpt lat="44.29293" lon="6.1856">
        <ele>1373.8000488</ele>
        <time>2018-08-17T11:18:01Z</time>
      </trkpt>
      <trkpt lat="44.29302" lon="6.18546">
        <ele>1372.8000488</ele>
        <time>2018-08-17T11:18:04Z</time>
      </trkpt>
      <trkpt lat="44.29306" lon="6.18542">
        <ele>1372.5999756</ele>
        <time>2018-08-17T11:18:05Z</time>
      </trkpt>
      <trkpt lat="44.29311" lon="6.18539">
        <ele>1372.5999756</ele>
        <time>2018-08-17T11:18:06Z</time>
      </trkpt>
      <trkpt lat="44.29351" lon="6.18499">
        <ele>1369.5999756</ele>
        <time>2018-08-17T11:18:16Z</time>
      </trkpt>
      <trkpt lat="44.29354" lon="6.18495">
        <ele>1369.4000244</ele>
        <time>2018-08-17T11:18:17Z</time>
      </trkpt>
      <trkpt lat="44.29355" lon="6.18489">
        <ele>1369</ele>
        <time>2018-08-17T11:18:18Z</time>
      </trkpt>
      <trkpt lat="44.29356" lon="6.18483">
        <ele>1368.8000488</ele>
        <time>2018-08-17T11:18:19Z</time>
      </trkpt>
      <trkpt lat="44.29357" lon="6.18478">
        <ele>1368.5999756</ele>
        <time>2018-08-17T11:18:20Z</time>
      </trkpt>
      <trkpt lat="44.29362" lon="6.18465">
        <ele>1367.8000488</ele>
        <time>2018-08-17T11:18:23Z</time>
      </trkpt>
      <trkpt lat="44.29366" lon="6.18463">
        <ele>1367.4000244</ele>
        <time>2018-08-17T11:18:24Z</time>
      </trkpt>
      <trkpt lat="44.2938" lon="6.18452">
        <ele>1366.1999512</ele>
        <time>2018-08-17T11:18:28Z</time>
      </trkpt>
      <trkpt lat="44.29383" lon="6.18448">
        <ele>1365.8000488</ele>
        <time>2018-08-17T11:18:29Z</time>
      </trkpt>
      <trkpt lat="44.29386" lon="6.18443">
        <ele>1365.1999512</ele>
        <time>2018-08-17T11:18:30Z</time>
      </trkpt>
      <trkpt lat="44.29388" lon="6.18438">
        <ele>1364.5999756</ele>
        <time>2018-08-17T11:18:31Z</time>
      </trkpt>
      <trkpt lat="44.29391" lon="6.18431">
        <ele>1364.5999756</ele>
        <time>2018-08-17T11:18:32Z</time>
      </trkpt>
      <trkpt lat="44.29393" lon="6.18424">
        <ele>1364.1999512</ele>
        <time>2018-08-17T11:18:33Z</time>
      </trkpt>
      <trkpt lat="44.29395" lon="6.18418">
        <ele>1363.8000488</ele>
        <time>2018-08-17T11:18:34Z</time>
      </trkpt>
      <trkpt lat="44.29398" lon="6.18412">
        <ele>1363.8000488</ele>
        <time>2018-08-17T11:18:35Z</time>
      </trkpt>
      <trkpt lat="44.29402" lon="6.18406">
        <ele>1363.5999756</ele>
        <time>2018-08-17T11:18:36Z</time>
      </trkpt>
      <trkpt lat="44.29406" lon="6.18401">
        <ele>1363.5999756</ele>
        <time>2018-08-17T11:18:37Z</time>
      </trkpt>
      <trkpt lat="44.29411" lon="6.18395">
        <ele>1363.4000244</ele>
        <time>2018-08-17T11:18:38Z</time>
      </trkpt>
      <trkpt lat="44.29416" lon="6.18392">
        <ele>1363.4000244</ele>
        <time>2018-08-17T11:18:39Z</time>
      </trkpt>
      <trkpt lat="44.29422" lon="6.18387">
        <ele>1363.1999512</ele>
        <time>2018-08-17T11:18:40Z</time>
      </trkpt>
      <trkpt lat="44.29437" lon="6.18376">
        <ele>1362.5999756</ele>
        <time>2018-08-17T11:18:43Z</time>
      </trkpt>
      <trkpt lat="44.29442" lon="6.18372">
        <ele>1362.1999512</ele>
        <time>2018-08-17T11:18:44Z</time>
      </trkpt>
      <trkpt lat="44.29446" lon="6.18366">
        <ele>1361.8000488</ele>
        <time>2018-08-17T11:18:45Z</time>
      </trkpt>
      <trkpt lat="44.29449" lon="6.1836">
        <ele>1361.4000244</ele>
        <time>2018-08-17T11:18:46Z</time>
      </trkpt>
      <trkpt lat="44.29452" lon="6.18353">
        <ele>1361.1999512</ele>
        <time>2018-08-17T11:18:47Z</time>
      </trkpt>
      <trkpt lat="44.29454" lon="6.18346">
        <ele>1360.8000488</ele>
        <time>2018-08-17T11:18:48Z</time>
      </trkpt>
      <trkpt lat="44.29455" lon="6.1834">
        <ele>1360.4000244</ele>
        <time>2018-08-17T11:18:49Z</time>
      </trkpt>
      <trkpt lat="44.29456" lon="6.18333">
        <ele>1360</ele>
        <time>2018-08-17T11:18:50Z</time>
      </trkpt>
      <trkpt lat="44.29457" lon="6.18327">
        <ele>1359.5999756</ele>
        <time>2018-08-17T11:18:51Z</time>
      </trkpt>
      <trkpt lat="44.29458" lon="6.18321">
        <ele>1359.4000244</ele>
        <time>2018-08-17T11:18:52Z</time>
      </trkpt>
      <trkpt lat="44.29459" lon="6.18316">
        <ele>1359</ele>
        <time>2018-08-17T11:18:53Z</time>
      </trkpt>
      <trkpt lat="44.29461" lon="6.1831">
        <ele>1358.8000488</ele>
        <time>2018-08-17T11:18:54Z</time>
      </trkpt>
      <trkpt lat="44.29464" lon="6.18304">
        <ele>1358</ele>
        <time>2018-08-17T11:18:55Z</time>
      </trkpt>
      <trkpt lat="44.2947" lon="6.18293">
        <ele>1357.1999512</ele>
        <time>2018-08-17T11:18:57Z</time>
      </trkpt>
      <trkpt lat="44.29473" lon="6.18288">
        <ele>1356.5999756</ele>
        <time>2018-08-17T11:18:58Z</time>
      </trkpt>
      <trkpt lat="44.29477" lon="6.18283">
        <ele>1356</ele>
        <time>2018-08-17T11:18:59Z</time>
      </trkpt>
      <trkpt lat="44.29492" lon="6.18265">
        <ele>1354.4000244</ele>
        <time>2018-08-17T11:19:03Z</time>
      </trkpt>
      <trkpt lat="44.29512" lon="6.18239">
        <ele>1351.1999512</ele>
        <time>2018-08-17T11:19:09Z</time>
      </trkpt>
      <trkpt lat="44.29518" lon="6.18236">
        <ele>1350.4000244</ele>
        <time>2018-08-17T11:19:11Z</time>
      </trkpt>
      <trkpt lat="44.29528" lon="6.1823">
        <ele>1347.4000244</ele>
        <time>2018-08-17T11:19:21Z</time>
      </trkpt>
      <trkpt lat="44.29532" lon="6.18233">
        <ele>1347.1999512</ele>
        <time>2018-08-17T11:20:38Z</time>
      </trkpt>
      <trkpt lat="44.29531" lon="6.18235">
        <ele>1346.8000488</ele>
        <time>2018-08-17T11:21:11Z</time>
      </trkpt>
      <trkpt lat="44.29531" lon="6.18229">
        <ele>1346.8000488</ele>
        <time>2018-08-17T11:21:24Z</time>
      </trkpt>
      <trkpt lat="44.29531" lon="6.18225">
        <ele>1347</ele>
        <time>2018-08-17T11:21:25Z</time>
      </trkpt>
      <trkpt lat="44.29532" lon="6.18221">
        <ele>1347</ele>
        <time>2018-08-17T11:21:26Z</time>
      </trkpt>
      <trkpt lat="44.29534" lon="6.18216">
        <ele>1347</ele>
        <time>2018-08-17T11:21:27Z</time>
      </trkpt>
      <trkpt lat="44.29537" lon="6.18211">
        <ele>1347</ele>
        <time>2018-08-17T11:21:28Z</time>
      </trkpt>
      <trkpt lat="44.29539" lon="6.18206">
        <ele>1347</ele>
        <time>2018-08-17T11:21:29Z</time>
      </trkpt>
      <trkpt lat="44.29547" lon="6.18191">
        <ele>1347</ele>
        <time>2018-08-17T11:21:32Z</time>
      </trkpt>
      <trkpt lat="44.2955" lon="6.18187">
        <ele>1347</ele>
        <time>2018-08-17T11:21:33Z</time>
      </trkpt>
      <trkpt lat="44.29554" lon="6.18183">
        <ele>1347</ele>
        <time>2018-08-17T11:21:34Z</time>
      </trkpt>
      <trkpt lat="44.29558" lon="6.18179">
        <ele>1347</ele>
        <time>2018-08-17T11:21:35Z</time>
      </trkpt>
      <trkpt lat="44.29562" lon="6.18175">
        <ele>1347</ele>
        <time>2018-08-17T11:21:36Z</time>
      </trkpt>
      <trkpt lat="44.29577" lon="6.18167">
        <ele>1347</ele>
        <time>2018-08-17T11:21:39Z</time>
      </trkpt>
      <trkpt lat="44.29606" lon="6.18154">
        <ele>1346.8000488</ele>
        <time>2018-08-17T11:21:44Z</time>
      </trkpt>
      <trkpt lat="44.29654" lon="6.18146">
        <ele>1345.8000488</ele>
        <time>2018-08-17T11:21:51Z</time>
      </trkpt>
      <trkpt lat="44.2966" lon="6.18147">
        <ele>1345.5999756</ele>
        <time>2018-08-17T11:21:52Z</time>
      </trkpt>
      <trkpt lat="44.29669" lon="6.18142">
        <ele>1345.1999512</ele>
        <time>2018-08-17T11:21:54Z</time>
      </trkpt>
      <trkpt lat="44.29695" lon="6.18144">
        <ele>1343.8000488</ele>
        <time>2018-08-17T11:21:59Z</time>
      </trkpt>
      <trkpt lat="44.29701" lon="6.18144">
        <ele>1343.8000488</ele>
        <time>2018-08-17T11:22:00Z</time>
      </trkpt>
      <trkpt lat="44.29717" lon="6.1814">
        <ele>1343.5999756</ele>
        <time>2018-08-17T11:22:03Z</time>
      </trkpt>
      <trkpt lat="44.29722" lon="6.18137">
        <ele>1343.4000244</ele>
        <time>2018-08-17T11:22:04Z</time>
      </trkpt>
      <trkpt lat="44.2973" lon="6.18131">
        <ele>1343.4000244</ele>
        <time>2018-08-17T11:22:06Z</time>
      </trkpt>
      <trkpt lat="44.29761" lon="6.18112">
        <ele>1343.1999512</ele>
        <time>2018-08-17T11:22:13Z</time>
      </trkpt>
      <trkpt lat="44.29763" lon="6.18107">
        <ele>1343.1999512</ele>
        <time>2018-08-17T11:22:14Z</time>
      </trkpt>
      <trkpt lat="44.29765" lon="6.18101">
        <ele>1343.1999512</ele>
        <time>2018-08-17T11:22:15Z</time>
      </trkpt>
      <trkpt lat="44.29767" lon="6.18096">
        <ele>1343.1999512</ele>
        <time>2018-08-17T11:22:16Z</time>
      </trkpt>
      <trkpt lat="44.29768" lon="6.18091">
        <ele>1343.4000244</ele>
        <time>2018-08-17T11:22:17Z</time>
      </trkpt>
      <trkpt lat="44.29768" lon="6.18085">
        <ele>1343.5999756</ele>
        <time>2018-08-17T11:22:18Z</time>
      </trkpt>
      <trkpt lat="44.29768" lon="6.18079">
        <ele>1344</ele>
        <time>2018-08-17T11:22:19Z</time>
      </trkpt>
      <trkpt lat="44.2977" lon="6.18069">
        <ele>1344.4000244</ele>
        <time>2018-08-17T11:22:21Z</time>
      </trkpt>
      <trkpt lat="44.29772" lon="6.18064">
        <ele>1344.5999756</ele>
        <time>2018-08-17T11:22:22Z</time>
      </trkpt>
      <trkpt lat="44.29775" lon="6.1806">
        <ele>1344.8000488</ele>
        <time>2018-08-17T11:22:23Z</time>
      </trkpt>
      <trkpt lat="44.29778" lon="6.18056">
        <ele>1345</ele>
        <time>2018-08-17T11:22:24Z</time>
      </trkpt>
      <trkpt lat="44.2978" lon="6.18053">
        <ele>1345.1999512</ele>
        <time>2018-08-17T11:22:25Z</time>
      </trkpt>
      <trkpt lat="44.29783" lon="6.18049">
        <ele>1345.4000244</ele>
        <time>2018-08-17T11:22:26Z</time>
      </trkpt>
      <trkpt lat="44.29802" lon="6.18003">
        <ele>1348.5999756</ele>
        <time>2018-08-17T11:22:37Z</time>
      </trkpt>
      <trkpt lat="44.29824" lon="6.17958">
        <ele>1348.4000244</ele>
        <time>2018-08-17T11:22:48Z</time>
      </trkpt>
      <trkpt lat="44.29847" lon="6.17942">
        <ele>1345.5999756</ele>
        <time>2018-08-17T11:22:57Z</time>
      </trkpt>
      <trkpt lat="44.29861" lon="6.17949">
        <ele>1342.5999756</ele>
        <time>2018-08-17T11:23:04Z</time>
      </trkpt>
      <trkpt lat="44.2986" lon="6.17942">
        <ele>1339.8000488</ele>
        <time>2018-08-17T11:23:20Z</time>
      </trkpt>
      <trkpt lat="44.2986" lon="6.17939">
        <ele>1339.5999756</ele>
        <time>2018-08-17T11:23:44Z</time>
      </trkpt>
      <trkpt lat="44.2986" lon="6.17937">
        <ele>1339.5999756</ele>
        <time>2018-08-17T11:23:45Z</time>
      </trkpt>
      <trkpt lat="44.29861" lon="6.17935">
        <ele>1339.5999756</ele>
        <time>2018-08-17T11:23:46Z</time>
      </trkpt>
      <trkpt lat="44.29862" lon="6.17933">
        <ele>1339.5999756</ele>
        <time>2018-08-17T11:23:47Z</time>
      </trkpt>
      <trkpt lat="44.29864" lon="6.17935">
        <ele>1339.5999756</ele>
        <time>2018-08-17T11:24:04Z</time>
      </trkpt>
      <trkpt lat="44.29866" lon="6.17937">
        <ele>1339.5999756</ele>
        <time>2018-08-17T11:24:05Z</time>
      </trkpt>
      <trkpt lat="44.29869" lon="6.17939">
        <ele>1339.5999756</ele>
        <time>2018-08-17T11:24:06Z</time>
      </trkpt>
      <trkpt lat="44.29872" lon="6.17943">
        <ele>1339.5999756</ele>
        <time>2018-08-17T11:24:07Z</time>
      </trkpt>
      <trkpt lat="44.29874" lon="6.17946">
        <ele>1339.5999756</ele>
        <time>2018-08-17T11:24:08Z</time>
      </trkpt>
      <trkpt lat="44.29876" lon="6.1795">
        <ele>1339.5999756</ele>
        <time>2018-08-17T11:24:09Z</time>
      </trkpt>
      <trkpt lat="44.29905" lon="6.17998">
        <ele>1342.5999756</ele>
        <time>2018-08-17T11:24:23Z</time>
      </trkpt>
      <trkpt lat="44.29937" lon="6.18017">
        <ele>1345.1999512</ele>
        <time>2018-08-17T11:24:35Z</time>
      </trkpt>
      <trkpt lat="44.29976" lon="6.18023">
        <ele>1348</ele>
        <time>2018-08-17T11:24:48Z</time>
      </trkpt>
      <trkpt lat="44.30016" lon="6.18042">
        <ele>1350.4000244</ele>
        <time>2018-08-17T11:25:03Z</time>
      </trkpt>
      <trkpt lat="44.30039" lon="6.18074">
        <ele>1353.4000244</ele>
        <time>2018-08-17T11:25:14Z</time>
      </trkpt>
      <trkpt lat="44.30065" lon="6.181">
        <ele>1356.5999756</ele>
        <time>2018-08-17T11:25:25Z</time>
      </trkpt>
      <trkpt lat="44.30099" lon="6.18108">
        <ele>1359.5999756</ele>
        <time>2018-08-17T11:25:38Z</time>
      </trkpt>
      <trkpt lat="44.30129" lon="6.18107">
        <ele>1362.8000488</ele>
        <time>2018-08-17T11:25:50Z</time>
      </trkpt>
      <trkpt lat="44.30161" lon="6.1814">
        <ele>1365.4000244</ele>
        <time>2018-08-17T11:26:05Z</time>
      </trkpt>
      <trkpt lat="44.30182" lon="6.18179">
        <ele>1369</ele>
        <time>2018-08-17T11:26:19Z</time>
      </trkpt>
      <trkpt lat="44.30205" lon="6.18212">
        <ele>1371.1999512</ele>
        <time>2018-08-17T11:26:31Z</time>
      </trkpt>
      <trkpt lat="44.30233" lon="6.18232">
        <ele>1374</ele>
        <time>2018-08-17T11:26:43Z</time>
      </trkpt>
      <trkpt lat="44.3026" lon="6.18258">
        <ele>1376.1999512</ele>
        <time>2018-08-17T11:26:55Z</time>
      </trkpt>
      <trkpt lat="44.30286" lon="6.1829">
        <ele>1379.4000244</ele>
        <time>2018-08-17T11:27:08Z</time>
      </trkpt>
      <trkpt lat="44.30309" lon="6.1833">
        <ele>1382.5999756</ele>
        <time>2018-08-17T11:27:22Z</time>
      </trkpt>
      <trkpt lat="44.30317" lon="6.18368">
        <ele>1385.1999512</ele>
        <time>2018-08-17T11:27:33Z</time>
      </trkpt>
      <trkpt lat="44.30335" lon="6.18417">
        <ele>1388.4000244</ele>
        <time>2018-08-17T11:27:48Z</time>
      </trkpt>
      <trkpt lat="44.30355" lon="6.18459">
        <ele>1391.4000244</ele>
        <time>2018-08-17T11:28:01Z</time>
      </trkpt>
      <trkpt lat="44.30351" lon="6.18496">
        <ele>1393.8000488</ele>
        <time>2018-08-17T11:28:12Z</time>
      </trkpt>
      <trkpt lat="44.3035" lon="6.18537">
        <ele>1397</ele>
        <time>2018-08-17T11:28:23Z</time>
      </trkpt>
      <trkpt lat="44.30351" lon="6.1858">
        <ele>1400</ele>
        <time>2018-08-17T11:28:35Z</time>
      </trkpt>
      <trkpt lat="44.30364" lon="6.18614">
        <ele>1403</ele>
        <time>2018-08-17T11:28:46Z</time>
      </trkpt>
      <trkpt lat="44.30374" lon="6.1865">
        <ele>1405.4000244</ele>
        <time>2018-08-17T11:28:57Z</time>
      </trkpt>
      <trkpt lat="44.30383" lon="6.18658">
        <ele>1406.4000244</ele>
        <time>2018-08-17T11:29:02Z</time>
      </trkpt>
      <trkpt lat="44.30385" lon="6.18657">
        <ele>1406.4000244</ele>
        <time>2018-08-17T11:29:03Z</time>
      </trkpt>
      <trkpt lat="44.30388" lon="6.18654">
        <ele>1406.8000488</ele>
        <time>2018-08-17T11:29:04Z</time>
      </trkpt>
      <trkpt lat="44.30389" lon="6.18649">
        <ele>1407</ele>
        <time>2018-08-17T11:29:05Z</time>
      </trkpt>
      <trkpt lat="44.30389" lon="6.18645">
        <ele>1407.4000244</ele>
        <time>2018-08-17T11:29:06Z</time>
      </trkpt>
      <trkpt lat="44.30389" lon="6.18641">
        <ele>1407.5999756</ele>
        <time>2018-08-17T11:29:07Z</time>
      </trkpt>
      <trkpt lat="44.30388" lon="6.18637">
        <ele>1407.8000488</ele>
        <time>2018-08-17T11:29:08Z</time>
      </trkpt>
      <trkpt lat="44.3038" lon="6.18586">
        <ele>1410</ele>
        <time>2018-08-17T11:29:22Z</time>
      </trkpt>
      <trkpt lat="44.30385" lon="6.18543">
        <ele>1412.4000244</ele>
        <time>2018-08-17T11:29:35Z</time>
      </trkpt>
      <trkpt lat="44.30388" lon="6.18542">
        <ele>1412.5999756</ele>
        <time>2018-08-17T11:29:36Z</time>
      </trkpt>
      <trkpt lat="44.3039" lon="6.18541">
        <ele>1412.8000488</ele>
        <time>2018-08-17T11:29:37Z</time>
      </trkpt>
      <trkpt lat="44.30393" lon="6.18543">
        <ele>1413</ele>
        <time>2018-08-17T11:29:38Z</time>
      </trkpt>
      <trkpt lat="44.30395" lon="6.18545">
        <ele>1413.1999512</ele>
        <time>2018-08-17T11:29:39Z</time>
      </trkpt>
      <trkpt lat="44.30396" lon="6.18549">
        <ele>1413.4000244</ele>
        <time>2018-08-17T11:29:40Z</time>
      </trkpt>
      <trkpt lat="44.30396" lon="6.18553">
        <ele>1413.5999756</ele>
        <time>2018-08-17T11:29:41Z</time>
      </trkpt>
      <trkpt lat="44.30396" lon="6.18556">
        <ele>1413.8000488</ele>
        <time>2018-08-17T11:29:42Z</time>
      </trkpt>
      <trkpt lat="44.30395" lon="6.1856">
        <ele>1414</ele>
        <time>2018-08-17T11:29:43Z</time>
      </trkpt>
      <trkpt lat="44.30401" lon="6.18599">
        <ele>1416.4000244</ele>
        <time>2018-08-17T11:29:55Z</time>
      </trkpt>
      <trkpt lat="44.30409" lon="6.18617">
        <ele>1418.5999756</ele>
        <time>2018-08-17T11:30:01Z</time>
      </trkpt>
      <trkpt lat="44.30422" lon="6.18653">
        <ele>1421.1999512</ele>
        <time>2018-08-17T11:30:13Z</time>
      </trkpt>
      <trkpt lat="44.30435" lon="6.18687">
        <ele>1424.5999756</ele>
        <time>2018-08-17T11:30:24Z</time>
      </trkpt>
      <trkpt lat="44.30445" lon="6.18727">
        <ele>1427.4000244</ele>
        <time>2018-08-17T11:30:36Z</time>
      </trkpt>
      <trkpt lat="44.30447" lon="6.18773">
        <ele>1430.4000244</ele>
        <time>2018-08-17T11:30:49Z</time>
      </trkpt>
      <trkpt lat="44.30457" lon="6.18819">
        <ele>1433.5999756</ele>
        <time>2018-08-17T11:31:02Z</time>
      </trkpt>
      <trkpt lat="44.30469" lon="6.18858">
        <ele>1436.5999756</ele>
        <time>2018-08-17T11:31:15Z</time>
      </trkpt>
      <trkpt lat="44.30472" lon="6.18907">
        <ele>1439.1999512</ele>
        <time>2018-08-17T11:31:30Z</time>
      </trkpt>
      <trkpt lat="44.3048" lon="6.18963">
        <ele>1442.1999512</ele>
        <time>2018-08-17T11:31:46Z</time>
      </trkpt>
      <trkpt lat="44.30481" lon="6.19016">
        <ele>1444</ele>
        <time>2018-08-17T11:32:00Z</time>
      </trkpt>
      <trkpt lat="44.30482" lon="6.19076">
        <ele>1447.1999512</ele>
        <time>2018-08-17T11:32:16Z</time>
      </trkpt>
      <trkpt lat="44.30482" lon="6.1912">
        <ele>1450.1999512</ele>
        <time>2018-08-17T11:32:29Z</time>
      </trkpt>
      <trkpt lat="44.30475" lon="6.1918">
        <ele>1453.1999512</ele>
        <time>2018-08-17T11:32:46Z</time>
      </trkpt>
      <trkpt lat="44.30474" lon="6.19229">
        <ele>1455.4000244</ele>
        <time>2018-08-17T11:33:00Z</time>
      </trkpt>
      <trkpt lat="44.30474" lon="6.19232">
        <ele>1455.5999756</ele>
        <time>2018-08-17T11:33:01Z</time>
      </trkpt>
      <trkpt lat="44.30475" lon="6.19235">
        <ele>1456</ele>
        <time>2018-08-17T11:33:02Z</time>
      </trkpt>
      <trkpt lat="44.30477" lon="6.19272">
        <ele>1458.8000488</ele>
        <time>2018-08-17T11:33:13Z</time>
      </trkpt>
      <trkpt lat="44.3048" lon="6.19277">
        <ele>1459.4000244</ele>
        <time>2018-08-17T11:33:15Z</time>
      </trkpt>
      <trkpt lat="44.30482" lon="6.19279">
        <ele>1459.5999756</ele>
        <time>2018-08-17T11:33:16Z</time>
      </trkpt>
      <trkpt lat="44.30484" lon="6.19279">
        <ele>1459.8000488</ele>
        <time>2018-08-17T11:33:17Z</time>
      </trkpt>
      <trkpt lat="44.30486" lon="6.19277">
        <ele>1460</ele>
        <time>2018-08-17T11:33:18Z</time>
      </trkpt>
      <trkpt lat="44.30487" lon="6.19275">
        <ele>1460.1999512</ele>
        <time>2018-08-17T11:33:19Z</time>
      </trkpt>
      <trkpt lat="44.30487" lon="6.19272">
        <ele>1460.4000244</ele>
        <time>2018-08-17T11:33:20Z</time>
      </trkpt>
      <trkpt lat="44.30487" lon="6.19268">
        <ele>1460.5999756</ele>
        <time>2018-08-17T11:33:21Z</time>
      </trkpt>
      <trkpt lat="44.30487" lon="6.19265">
        <ele>1460.8000488</ele>
        <time>2018-08-17T11:33:22Z</time>
      </trkpt>
      <trkpt lat="44.30487" lon="6.19261">
        <ele>1461</ele>
        <time>2018-08-17T11:33:23Z</time>
      </trkpt>
      <trkpt lat="44.30487" lon="6.19257">
        <ele>1461.1999512</ele>
        <time>2018-08-17T11:33:24Z</time>
      </trkpt>
      <trkpt lat="44.30495" lon="6.19208">
        <ele>1463.4000244</ele>
        <time>2018-08-17T11:33:39Z</time>
      </trkpt>
      <trkpt lat="44.30507" lon="6.19174">
        <ele>1465</ele>
        <time>2018-08-17T11:33:51Z</time>
      </trkpt>
      <trkpt lat="44.30524" lon="6.1914">
        <ele>1467.1999512</ele>
        <time>2018-08-17T11:34:06Z</time>
      </trkpt>
      <trkpt lat="44.30538" lon="6.19126">
        <ele>1468.8000488</ele>
        <time>2018-08-17T11:34:15Z</time>
      </trkpt>
      <trkpt lat="44.30538" lon="6.19123">
        <ele>1469</ele>
        <time>2018-08-17T11:34:16Z</time>
      </trkpt>
      <trkpt lat="44.30538" lon="6.1912">
        <ele>1469.4000244</ele>
        <time>2018-08-17T11:34:17Z</time>
      </trkpt>
      <trkpt lat="44.30537" lon="6.19118">
        <ele>1469.5999756</ele>
        <time>2018-08-17T11:34:18Z</time>
      </trkpt>
      <trkpt lat="44.30536" lon="6.19116">
        <ele>1469.8000488</ele>
        <time>2018-08-17T11:34:19Z</time>
      </trkpt>
      <trkpt lat="44.30536" lon="6.19114">
        <ele>1470</ele>
        <time>2018-08-17T11:34:20Z</time>
      </trkpt>
      <trkpt lat="44.30534" lon="6.19082">
        <ele>1473</ele>
        <time>2018-08-17T11:34:31Z</time>
      </trkpt>
      <trkpt lat="44.3054" lon="6.19067">
        <ele>1473.8000488</ele>
        <time>2018-08-17T11:34:37Z</time>
      </trkpt>
      <trkpt lat="44.30558" lon="6.19033">
        <ele>1475.5999756</ele>
        <time>2018-08-17T11:34:49Z</time>
      </trkpt>
      <trkpt lat="44.30566" lon="6.19022">
        <ele>1476.5999756</ele>
        <time>2018-08-17T11:34:54Z</time>
      </trkpt>
      <trkpt lat="44.30567" lon="6.19019">
        <ele>1476.8000488</ele>
        <time>2018-08-17T11:34:55Z</time>
      </trkpt>
      <trkpt lat="44.30567" lon="6.19015">
        <ele>1476.8000488</ele>
        <time>2018-08-17T11:34:56Z</time>
      </trkpt>
      <trkpt lat="44.30568" lon="6.19006">
        <ele>1477.1999512</ele>
        <time>2018-08-17T11:34:59Z</time>
      </trkpt>
      <trkpt lat="44.30567" lon="6.19003">
        <ele>1477.1999512</ele>
        <time>2018-08-17T11:35:00Z</time>
      </trkpt>
      <trkpt lat="44.30565" lon="6.19001">
        <ele>1477.4000244</ele>
        <time>2018-08-17T11:35:01Z</time>
      </trkpt>
      <trkpt lat="44.30564" lon="6.18999">
        <ele>1477.4000244</ele>
        <time>2018-08-17T11:35:02Z</time>
      </trkpt>
      <trkpt lat="44.30562" lon="6.18996">
        <ele>1477.4000244</ele>
        <time>2018-08-17T11:35:03Z</time>
      </trkpt>
      <trkpt lat="44.30561" lon="6.18994">
        <ele>1477.5999756</ele>
        <time>2018-08-17T11:35:04Z</time>
      </trkpt>
      <trkpt lat="44.3056" lon="6.18991">
        <ele>1477.8000488</ele>
        <time>2018-08-17T11:35:05Z</time>
      </trkpt>
      <trkpt lat="44.30559" lon="6.18988">
        <ele>1477.8000488</ele>
        <time>2018-08-17T11:35:06Z</time>
      </trkpt>
      <trkpt lat="44.30559" lon="6.18985">
        <ele>1478</ele>
        <time>2018-08-17T11:35:07Z</time>
      </trkpt>
      <trkpt lat="44.30563" lon="6.1895">
        <ele>1480.1999512</ele>
        <time>2018-08-17T11:35:19Z</time>
      </trkpt>
      <trkpt lat="44.30582" lon="6.18918">
        <ele>1482.1999512</ele>
        <time>2018-08-17T11:35:32Z</time>
      </trkpt>
      <trkpt lat="44.3061" lon="6.18903">
        <ele>1483.5999756</ele>
        <time>2018-08-17T11:35:44Z</time>
      </trkpt>
      <trkpt lat="44.30613" lon="6.18901">
        <ele>1483.8000488</ele>
        <time>2018-08-17T11:35:46Z</time>
      </trkpt>
      <trkpt lat="44.30614" lon="6.18899">
        <ele>1484</ele>
        <time>2018-08-17T11:35:47Z</time>
      </trkpt>
      <trkpt lat="44.30615" lon="6.18897">
        <ele>1484.1999512</ele>
        <time>2018-08-17T11:35:48Z</time>
      </trkpt>
      <trkpt lat="44.30616" lon="6.18895">
        <ele>1484.4000244</ele>
        <time>2018-08-17T11:35:49Z</time>
      </trkpt>
      <trkpt lat="44.30617" lon="6.18892">
        <ele>1484.8000488</ele>
        <time>2018-08-17T11:35:50Z</time>
      </trkpt>
      <trkpt lat="44.30617" lon="6.1889">
        <ele>1484.8000488</ele>
        <time>2018-08-17T11:35:51Z</time>
      </trkpt>
      <trkpt lat="44.30618" lon="6.18887">
        <ele>1485</ele>
        <time>2018-08-17T11:35:52Z</time>
      </trkpt>
      <trkpt lat="44.30618" lon="6.18884">
        <ele>1485.1999512</ele>
        <time>2018-08-17T11:35:53Z</time>
      </trkpt>
      <trkpt lat="44.30621" lon="6.18852">
        <ele>1488</ele>
        <time>2018-08-17T11:36:04Z</time>
      </trkpt>
      <trkpt lat="44.3063" lon="6.18813">
        <ele>1490.4000244</ele>
        <time>2018-08-17T11:36:17Z</time>
      </trkpt>
      <trkpt lat="44.30619" lon="6.18778">
        <ele>1492.1999512</ele>
        <time>2018-08-17T11:36:29Z</time>
      </trkpt>
      <trkpt lat="44.30607" lon="6.18776">
        <ele>1493.5999756</ele>
        <time>2018-08-17T11:36:36Z</time>
      </trkpt>
      <trkpt lat="44.30585" lon="6.18792">
        <ele>1495.5999756</ele>
        <time>2018-08-17T11:36:49Z</time>
      </trkpt>
      <trkpt lat="44.30563" lon="6.18775">
        <ele>1497.4000244</ele>
        <time>2018-08-17T11:37:00Z</time>
      </trkpt>
      <trkpt lat="44.30552" lon="6.18739">
        <ele>1500</ele>
        <time>2018-08-17T11:37:12Z</time>
      </trkpt>
      <trkpt lat="44.30553" lon="6.18705">
        <ele>1503</ele>
        <time>2018-08-17T11:37:23Z</time>
      </trkpt>
      <trkpt lat="44.30557" lon="6.18671">
        <ele>1505.8000488</ele>
        <time>2018-08-17T11:37:35Z</time>
      </trkpt>
      <trkpt lat="44.30554" lon="6.18636">
        <ele>1508.4000244</ele>
        <time>2018-08-17T11:37:48Z</time>
      </trkpt>
      <trkpt lat="44.30559" lon="6.18605">
        <ele>1511</ele>
        <time>2018-08-17T11:38:00Z</time>
      </trkpt>
      <trkpt lat="44.30567" lon="6.18576">
        <ele>1513.4000244</ele>
        <time>2018-08-17T11:38:12Z</time>
      </trkpt>
      <trkpt lat="44.30581" lon="6.18547">
        <ele>1515.8000488</ele>
        <time>2018-08-17T11:38:23Z</time>
      </trkpt>
      <trkpt lat="44.30605" lon="6.18538">
        <ele>1518.1999512</ele>
        <time>2018-08-17T11:38:34Z</time>
      </trkpt>
      <trkpt lat="44.30612" lon="6.18534">
        <ele>1518.8000488</ele>
        <time>2018-08-17T11:38:38Z</time>
      </trkpt>
      <trkpt lat="44.30613" lon="6.18533">
        <ele>1519</ele>
        <time>2018-08-17T11:38:39Z</time>
      </trkpt>
      <trkpt lat="44.30634" lon="6.18505">
        <ele>1522</ele>
        <time>2018-08-17T11:38:54Z</time>
      </trkpt>
      <trkpt lat="44.30657" lon="6.1849">
        <ele>1524.4000244</ele>
        <time>2018-08-17T11:39:07Z</time>
      </trkpt>
      <trkpt lat="44.30678" lon="6.18473">
        <ele>1526.8000488</ele>
        <time>2018-08-17T11:39:19Z</time>
      </trkpt>
      <trkpt lat="44.30696" lon="6.18453">
        <ele>1529.5999756</ele>
        <time>2018-08-17T11:39:32Z</time>
      </trkpt>
      <trkpt lat="44.30722" lon="6.18426">
        <ele>1532.8000488</ele>
        <time>2018-08-17T11:39:49Z</time>
      </trkpt>
      <trkpt lat="44.30747" lon="6.18411">
        <ele>1535.8000488</ele>
        <time>2018-08-17T11:40:03Z</time>
      </trkpt>
      <trkpt lat="44.30764" lon="6.18386">
        <ele>1538.5999756</ele>
        <time>2018-08-17T11:40:18Z</time>
      </trkpt>
      <trkpt lat="44.3078" lon="6.18359">
        <ele>1540.8000488</ele>
        <time>2018-08-17T11:40:32Z</time>
      </trkpt>
      <trkpt lat="44.30797" lon="6.18344">
        <ele>1543.8000488</ele>
        <time>2018-08-17T11:40:43Z</time>
      </trkpt>
      <trkpt lat="44.30818" lon="6.18327">
        <ele>1547.4000244</ele>
        <time>2018-08-17T11:40:57Z</time>
      </trkpt>
      <trkpt lat="44.30841" lon="6.18301">
        <ele>1550.4000244</ele>
        <time>2018-08-17T11:41:13Z</time>
      </trkpt>
      <trkpt lat="44.30861" lon="6.18285">
        <ele>1553.1999512</ele>
        <time>2018-08-17T11:41:26Z</time>
      </trkpt>
      <trkpt lat="44.30884" lon="6.18274">
        <ele>1554.5999756</ele>
        <time>2018-08-17T11:41:39Z</time>
      </trkpt>
      <trkpt lat="44.30906" lon="6.18267">
        <ele>1557</ele>
        <time>2018-08-17T11:41:51Z</time>
      </trkpt>
      <trkpt lat="44.30931" lon="6.18264">
        <ele>1560</ele>
        <time>2018-08-17T11:42:06Z</time>
      </trkpt>
      <trkpt lat="44.30957" lon="6.18263">
        <ele>1563.1999512</ele>
        <time>2018-08-17T11:42:21Z</time>
      </trkpt>
      <trkpt lat="44.30981" lon="6.18266">
        <ele>1565.1999512</ele>
        <time>2018-08-17T11:42:34Z</time>
      </trkpt>
      <trkpt lat="44.31004" lon="6.18267">
        <ele>1567.5999756</ele>
        <time>2018-08-17T11:42:47Z</time>
      </trkpt>
      <trkpt lat="44.31023" lon="6.18256">
        <ele>1569.5999756</ele>
        <time>2018-08-17T11:43:00Z</time>
      </trkpt>
      <trkpt lat="44.31031" lon="6.1825">
        <ele>1571.4000244</ele>
        <time>2018-08-17T11:43:13Z</time>
      </trkpt>
      <trkpt lat="44.3104" lon="6.18243">
        <ele>1571.8000488</ele>
        <time>2018-08-17T11:43:38Z</time>
      </trkpt>
      <trkpt lat="44.31041" lon="6.18242">
        <ele>1571.8000488</ele>
        <time>2018-08-17T11:43:39Z</time>
      </trkpt>
      <trkpt lat="44.31047" lon="6.18238">
        <ele>1572.8000488</ele>
        <time>2018-08-17T11:43:52Z</time>
      </trkpt>
      <trkpt lat="44.31048" lon="6.18236">
        <ele>1572.8000488</ele>
        <time>2018-08-17T11:44:16Z</time>
      </trkpt>
      <trkpt lat="44.31048" lon="6.18236">
        <ele>1573.5999756</ele>
        <time>2018-08-17T11:45:04Z</time>
      </trkpt>
      <trkpt lat="44.31047" lon="6.18235">
        <ele>1572.8000488</ele>
        <time>2018-08-17T11:45:45Z</time>
      </trkpt>
      <trkpt lat="44.31046" lon="6.18239">
        <ele>1574.4000244</ele>
        <time>2018-08-17T11:46:28Z</time>
      </trkpt>
      <trkpt lat="44.31046" lon="6.18239">
        <ele>1574</ele>
        <time>2018-08-17T11:48:19Z</time>
      </trkpt>
      <trkpt lat="44.31047" lon="6.18238">
        <ele>1574</ele>
        <time>2018-08-17T11:48:30Z</time>
      </trkpt>
      <trkpt lat="44.31057" lon="6.18236">
        <ele>1574.5999756</ele>
        <time>2018-08-17T11:48:46Z</time>
      </trkpt>
      <trkpt lat="44.31057" lon="6.18236">
        <ele>1574.8000488</ele>
        <time>2018-08-17T11:49:09Z</time>
      </trkpt>
      <trkpt lat="44.31059" lon="6.18235">
        <ele>1574.8000488</ele>
        <time>2018-08-17T11:49:11Z</time>
      </trkpt>
      <trkpt lat="44.31067" lon="6.18232">
        <ele>1575.8000488</ele>
        <time>2018-08-17T11:49:26Z</time>
      </trkpt>
      <trkpt lat="44.31068" lon="6.1823">
        <ele>1576.1999512</ele>
        <time>2018-08-17T11:49:39Z</time>
      </trkpt>
      <trkpt lat="44.31069" lon="6.18227">
        <ele>1576.1999512</ele>
        <time>2018-08-17T11:49:40Z</time>
      </trkpt>
      <trkpt lat="44.31069" lon="6.18224">
        <ele>1576.1999512</ele>
        <time>2018-08-17T11:49:41Z</time>
      </trkpt>
      <trkpt lat="44.31069" lon="6.18221">
        <ele>1576.1999512</ele>
        <time>2018-08-17T11:49:42Z</time>
      </trkpt>
      <trkpt lat="44.31069" lon="6.18218">
        <ele>1576.1999512</ele>
        <time>2018-08-17T11:49:43Z</time>
      </trkpt>
      <trkpt lat="44.31069" lon="6.18216">
        <ele>1576.1999512</ele>
        <time>2018-08-17T11:49:44Z</time>
      </trkpt>
      <trkpt lat="44.31058" lon="6.18188">
        <ele>1577.5999756</ele>
        <time>2018-08-17T11:49:57Z</time>
      </trkpt>
      <trkpt lat="44.31045" lon="6.18159">
        <ele>1580.8000488</ele>
        <time>2018-08-17T11:50:11Z</time>
      </trkpt>
      <trkpt lat="44.31034" lon="6.18131">
        <ele>1583.5999756</ele>
        <time>2018-08-17T11:50:24Z</time>
      </trkpt>
      <trkpt lat="44.31028" lon="6.18101">
        <ele>1586.1999512</ele>
        <time>2018-08-17T11:50:37Z</time>
      </trkpt>
      <trkpt lat="44.31028" lon="6.18098">
        <ele>1586.4000244</ele>
        <time>2018-08-17T11:50:38Z</time>
      </trkpt>
      <trkpt lat="44.31027" lon="6.18095">
        <ele>1586.4000244</ele>
        <time>2018-08-17T11:50:39Z</time>
      </trkpt>
      <trkpt lat="44.31026" lon="6.18093">
        <ele>1586.5999756</ele>
        <time>2018-08-17T11:50:40Z</time>
      </trkpt>
      <trkpt lat="44.31025" lon="6.1809">
        <ele>1586.5999756</ele>
        <time>2018-08-17T11:50:41Z</time>
      </trkpt>
      <trkpt lat="44.31018" lon="6.18064">
        <ele>1589.1999512</ele>
        <time>2018-08-17T11:50:53Z</time>
      </trkpt>
      <trkpt lat="44.31003" lon="6.18029">
        <ele>1592.1999512</ele>
        <time>2018-08-17T11:51:09Z</time>
      </trkpt>
      <trkpt lat="44.30989" lon="6.17999">
        <ele>1595.1999512</ele>
        <time>2018-08-17T11:51:23Z</time>
      </trkpt>
      <trkpt lat="44.3097" lon="6.17964">
        <ele>1598.1999512</ele>
        <time>2018-08-17T11:51:39Z</time>
      </trkpt>
      <trkpt lat="44.30951" lon="6.17925">
        <ele>1601.1999512</ele>
        <time>2018-08-17T11:51:56Z</time>
      </trkpt>
      <trkpt lat="44.3094" lon="6.17891">
        <ele>1604</ele>
        <time>2018-08-17T11:52:11Z</time>
      </trkpt>
      <trkpt lat="44.30963" lon="6.17869">
        <ele>1606.8000488</ele>
        <time>2018-08-17T11:52:26Z</time>
      </trkpt>
      <trkpt lat="44.31008" lon="6.17842">
        <ele>1608.1999512</ele>
        <time>2018-08-17T11:52:47Z</time>
      </trkpt>
      <trkpt lat="44.31037" lon="6.17825">
        <ele>1608.5999756</ele>
        <time>2018-08-17T11:53:00Z</time>
      </trkpt>
      <trkpt lat="44.31039" lon="6.17824">
        <ele>1608.5999756</ele>
        <time>2018-08-17T11:53:01Z</time>
      </trkpt>
      <trkpt lat="44.31041" lon="6.17824">
        <ele>1608.5999756</ele>
        <time>2018-08-17T11:53:02Z</time>
      </trkpt>
      <trkpt lat="44.31043" lon="6.17823">
        <ele>1608.5999756</ele>
        <time>2018-08-17T11:53:03Z</time>
      </trkpt>
      <trkpt lat="44.31046" lon="6.17821">
        <ele>1608.5999756</ele>
        <time>2018-08-17T11:53:04Z</time>
      </trkpt>
      <trkpt lat="44.31083" lon="6.17791">
        <ele>1608.4000244</ele>
        <time>2018-08-17T11:53:20Z</time>
      </trkpt>
      <trkpt lat="44.31105" lon="6.17752">
        <ele>1607.8000488</ele>
        <time>2018-08-17T11:53:29Z</time>
      </trkpt>
      <trkpt lat="44.3112" lon="6.17711">
        <ele>1607.4000244</ele>
        <time>2018-08-17T11:53:36Z</time>
      </trkpt>
      <trkpt lat="44.31126" lon="6.17702">
        <ele>1607.1999512</ele>
        <time>2018-08-17T11:53:38Z</time>
      </trkpt>
      <trkpt lat="44.31136" lon="6.17691">
        <ele>1606.5999756</ele>
        <time>2018-08-17T11:53:41Z</time>
      </trkpt>
      <trkpt lat="44.3114" lon="6.17688">
        <ele>1606.4000244</ele>
        <time>2018-08-17T11:53:42Z</time>
      </trkpt>
      <trkpt lat="44.31181" lon="6.17649">
        <ele>1604.1999512</ele>
        <time>2018-08-17T11:53:54Z</time>
      </trkpt>
      <trkpt lat="44.31209" lon="6.17645">
        <ele>1600.8000488</ele>
        <time>2018-08-17T11:54:03Z</time>
      </trkpt>
      <trkpt lat="44.31232" lon="6.17665">
        <ele>1599.4000244</ele>
        <time>2018-08-17T11:54:10Z</time>
      </trkpt>
      <trkpt lat="44.31234" lon="6.1767">
        <ele>1599.1999512</ele>
        <time>2018-08-17T11:54:11Z</time>
      </trkpt>
      <trkpt lat="44.31244" lon="6.17692">
        <ele>1598.1999512</ele>
        <time>2018-08-17T11:54:15Z</time>
      </trkpt>
      <trkpt lat="44.31259" lon="6.17735">
        <ele>1596.5999756</ele>
        <time>2018-08-17T11:54:26Z</time>
      </trkpt>
      <trkpt lat="44.3128" lon="6.1777">
        <ele>1596.1999512</ele>
        <time>2018-08-17T11:54:36Z</time>
      </trkpt>
      <trkpt lat="44.31288" lon="6.17768">
        <ele>1596</ele>
        <time>2018-08-17T11:54:39Z</time>
      </trkpt>
      <trkpt lat="44.3129" lon="6.17767">
        <ele>1596</ele>
        <time>2018-08-17T11:54:40Z</time>
      </trkpt>
      <trkpt lat="44.31293" lon="6.17765">
        <ele>1596</ele>
        <time>2018-08-17T11:54:41Z</time>
      </trkpt>
      <trkpt lat="44.31295" lon="6.17762">
        <ele>1596</ele>
        <time>2018-08-17T11:54:42Z</time>
      </trkpt>
      <trkpt lat="44.31298" lon="6.1776">
        <ele>1596</ele>
        <time>2018-08-17T11:54:43Z</time>
      </trkpt>
      <trkpt lat="44.31301" lon="6.17759">
        <ele>1596</ele>
        <time>2018-08-17T11:54:44Z</time>
      </trkpt>
      <trkpt lat="44.31344" lon="6.17736">
        <ele>1595.8000488</ele>
        <time>2018-08-17T11:54:59Z</time>
      </trkpt>
      <trkpt lat="44.31386" lon="6.17721">
        <ele>1596.4000244</ele>
        <time>2018-08-17T11:55:16Z</time>
      </trkpt>
      <trkpt lat="44.3139" lon="6.17721">
        <ele>1596.4000244</ele>
        <time>2018-08-17T11:55:18Z</time>
      </trkpt>
      <trkpt lat="44.31389" lon="6.17726">
        <ele>1597</ele>
        <time>2018-08-17T11:55:34Z</time>
      </trkpt>
      <trkpt lat="44.31385" lon="6.17726">
        <ele>1597</ele>
        <time>2018-08-17T11:55:37Z</time>
      </trkpt>
      <trkpt lat="44.31384" lon="6.17724">
        <ele>1597</ele>
        <time>2018-08-17T11:55:38Z</time>
      </trkpt>
      <trkpt lat="44.31382" lon="6.17724">
        <ele>1597</ele>
        <time>2018-08-17T11:55:39Z</time>
      </trkpt>
      <trkpt lat="44.3138" lon="6.17723">
        <ele>1597</ele>
        <time>2018-08-17T11:55:40Z</time>
      </trkpt>
      <trkpt lat="44.31379" lon="6.17722">
        <ele>1597</ele>
        <time>2018-08-17T11:55:41Z</time>
      </trkpt>
      <trkpt lat="44.31373" lon="6.17714">
        <ele>1595.1999512</ele>
        <time>2018-08-17T11:55:54Z</time>
      </trkpt>
      <trkpt lat="44.31375" lon="6.17715">
        <ele>1594.5999756</ele>
        <time>2018-08-17T11:56:30Z</time>
      </trkpt>
      <trkpt lat="44.31373" lon="6.17717">
        <ele>1594.4000244</ele>
        <time>2018-08-17T11:56:54Z</time>
      </trkpt>
      <trkpt lat="44.31372" lon="6.17717">
        <ele>1594.1999512</ele>
        <time>2018-08-17T11:57:15Z</time>
      </trkpt>
      <trkpt lat="44.3137" lon="6.17719">
        <ele>1594.5999756</ele>
        <time>2018-08-17T11:57:37Z</time>
      </trkpt>
      <trkpt lat="44.31368" lon="6.1772">
        <ele>1594.4000244</ele>
        <time>2018-08-17T11:57:45Z</time>
      </trkpt>
      <trkpt lat="44.31366" lon="6.17721">
        <ele>1594.4000244</ele>
        <time>2018-08-17T11:57:46Z</time>
      </trkpt>
      <trkpt lat="44.31363" lon="6.17721">
        <ele>1594.4000244</ele>
        <time>2018-08-17T11:57:47Z</time>
      </trkpt>
      <trkpt lat="44.3136" lon="6.17722">
        <ele>1594.1999512</ele>
        <time>2018-08-17T11:57:48Z</time>
      </trkpt>
      <trkpt lat="44.31357" lon="6.17723">
        <ele>1594.1999512</ele>
        <time>2018-08-17T11:57:49Z</time>
      </trkpt>
      <trkpt lat="44.31314" lon="6.17734">
        <ele>1594</ele>
        <time>2018-08-17T11:57:59Z</time>
      </trkpt>
      <trkpt lat="44.31286" lon="6.17737">
        <ele>1590.5999756</ele>
        <time>2018-08-17T11:58:09Z</time>
      </trkpt>
      <trkpt lat="44.31282" lon="6.17719">
        <ele>1588.8000488</ele>
        <time>2018-08-17T11:58:13Z</time>
      </trkpt>
      <trkpt lat="44.31282" lon="6.17713">
        <ele>1588.4000244</ele>
        <time>2018-08-17T11:58:14Z</time>
      </trkpt>
      <trkpt lat="44.31282" lon="6.177">
        <ele>1587.8000488</ele>
        <time>2018-08-17T11:58:16Z</time>
      </trkpt>
      <trkpt lat="44.31281" lon="6.17694">
        <ele>1587.5999756</ele>
        <time>2018-08-17T11:58:17Z</time>
      </trkpt>
      <trkpt lat="44.3128" lon="6.17688">
        <ele>1587.1999512</ele>
        <time>2018-08-17T11:58:18Z</time>
      </trkpt>
      <trkpt lat="44.31278" lon="6.17682">
        <ele>1587</ele>
        <time>2018-08-17T11:58:19Z</time>
      </trkpt>
      <trkpt lat="44.31276" lon="6.17677">
        <ele>1586.5999756</ele>
        <time>2018-08-17T11:58:20Z</time>
      </trkpt>
      <trkpt lat="44.31274" lon="6.17672">
        <ele>1586.4000244</ele>
        <time>2018-08-17T11:58:21Z</time>
      </trkpt>
      <trkpt lat="44.31265" lon="6.17638">
        <ele>1583</ele>
        <time>2018-08-17T11:58:28Z</time>
      </trkpt>
      <trkpt lat="44.31263" lon="6.17634">
        <ele>1581.8000488</ele>
        <time>2018-08-17T11:58:30Z</time>
      </trkpt>
      <trkpt lat="44.31263" lon="6.17631">
        <ele>1581.5999756</ele>
        <time>2018-08-17T11:58:31Z</time>
      </trkpt>
      <trkpt lat="44.31263" lon="6.17628">
        <ele>1581.1999512</ele>
        <time>2018-08-17T11:58:32Z</time>
      </trkpt>
      <trkpt lat="44.31262" lon="6.17624">
        <ele>1580.5999756</ele>
        <time>2018-08-17T11:58:33Z</time>
      </trkpt>
      <trkpt lat="44.31262" lon="6.17619">
        <ele>1580.1999512</ele>
        <time>2018-08-17T11:58:34Z</time>
      </trkpt>
      <trkpt lat="44.31261" lon="6.17615">
        <ele>1579.5999756</ele>
        <time>2018-08-17T11:58:35Z</time>
      </trkpt>
      <trkpt lat="44.31261" lon="6.17611">
        <ele>1579.1999512</ele>
        <time>2018-08-17T11:58:36Z</time>
      </trkpt>
      <trkpt lat="44.31256" lon="6.17556">
        <ele>1576.1999512</ele>
        <time>2018-08-17T11:58:46Z</time>
      </trkpt>
      <trkpt lat="44.31247" lon="6.17508">
        <ele>1573</ele>
        <time>2018-08-17T11:58:55Z</time>
      </trkpt>
      <trkpt lat="44.31246" lon="6.17502">
        <ele>1572.5999756</ele>
        <time>2018-08-17T11:58:56Z</time>
      </trkpt>
      <trkpt lat="44.31241" lon="6.17468">
        <ele>1569.4000244</ele>
        <time>2018-08-17T11:59:03Z</time>
      </trkpt>
      <trkpt lat="44.31224" lon="6.17455">
        <ele>1566.4000244</ele>
        <time>2018-08-17T11:59:10Z</time>
      </trkpt>
      <trkpt lat="44.31195" lon="6.17449">
        <ele>1563.1999512</ele>
        <time>2018-08-17T11:59:19Z</time>
      </trkpt>
      <trkpt lat="44.31169" lon="6.1744">
        <ele>1559.8000488</ele>
        <time>2018-08-17T11:59:28Z</time>
      </trkpt>
      <trkpt lat="44.31168" lon="6.17437">
        <ele>1559.4000244</ele>
        <time>2018-08-17T11:59:29Z</time>
      </trkpt>
      <trkpt lat="44.31167" lon="6.17434">
        <ele>1559.1999512</ele>
        <time>2018-08-17T11:59:30Z</time>
      </trkpt>
      <trkpt lat="44.31167" lon="6.17431">
        <ele>1558.8000488</ele>
        <time>2018-08-17T11:59:31Z</time>
      </trkpt>
      <trkpt lat="44.31167" lon="6.17427">
        <ele>1558.4000244</ele>
        <time>2018-08-17T11:59:32Z</time>
      </trkpt>
      <trkpt lat="44.31167" lon="6.17424">
        <ele>1558</ele>
        <time>2018-08-17T11:59:33Z</time>
      </trkpt>
      <trkpt lat="44.31168" lon="6.1742">
        <ele>1557.8000488</ele>
        <time>2018-08-17T11:59:34Z</time>
      </trkpt>
      <trkpt lat="44.31169" lon="6.17417">
        <ele>1557.5999756</ele>
        <time>2018-08-17T11:59:35Z</time>
      </trkpt>
      <trkpt lat="44.31194" lon="6.1737">
        <ele>1554.1999512</ele>
        <time>2018-08-17T11:59:47Z</time>
      </trkpt>
      <trkpt lat="44.31204" lon="6.1735">
        <ele>1551.1999512</ele>
        <time>2018-08-17T11:59:52Z</time>
      </trkpt>
      <trkpt lat="44.31222" lon="6.17318">
        <ele>1548.1999512</ele>
        <time>2018-08-17T12:00:00Z</time>
      </trkpt>
      <trkpt lat="44.31237" lon="6.17271">
        <ele>1545</ele>
        <time>2018-08-17T12:00:10Z</time>
      </trkpt>
      <trkpt lat="44.31239" lon="6.17233">
        <ele>1541.8000488</ele>
        <time>2018-08-17T12:00:17Z</time>
      </trkpt>
      <trkpt lat="44.31238" lon="6.17193">
        <ele>1538.8000488</ele>
        <time>2018-08-17T12:00:25Z</time>
      </trkpt>
      <trkpt lat="44.31238" lon="6.17187">
        <ele>1538.5999756</ele>
        <time>2018-08-17T12:00:26Z</time>
      </trkpt>
      <trkpt lat="44.31237" lon="6.17182">
        <ele>1538.1999512</ele>
        <time>2018-08-17T12:00:27Z</time>
      </trkpt>
      <trkpt lat="44.31235" lon="6.17177">
        <ele>1537.8000488</ele>
        <time>2018-08-17T12:00:28Z</time>
      </trkpt>
      <trkpt lat="44.31234" lon="6.17172">
        <ele>1537.5999756</ele>
        <time>2018-08-17T12:00:29Z</time>
      </trkpt>
      <trkpt lat="44.31219" lon="6.17138">
        <ele>1534.1999512</ele>
        <time>2018-08-17T12:00:38Z</time>
      </trkpt>
      <trkpt lat="44.31218" lon="6.1713">
        <ele>1533.1999512</ele>
        <time>2018-08-17T12:00:40Z</time>
      </trkpt>
      <trkpt lat="44.31217" lon="6.17121">
        <ele>1531.1999512</ele>
        <time>2018-08-17T12:00:52Z</time>
      </trkpt>
      <trkpt lat="44.3122" lon="6.17123">
        <ele>1531</ele>
        <time>2018-08-17T12:01:15Z</time>
      </trkpt>
      <trkpt lat="44.31224" lon="6.17126">
        <ele>1531</ele>
        <time>2018-08-17T12:01:18Z</time>
      </trkpt>
      <trkpt lat="44.31226" lon="6.17128">
        <ele>1531</ele>
        <time>2018-08-17T12:01:19Z</time>
      </trkpt>
      <trkpt lat="44.31229" lon="6.1713">
        <ele>1531</ele>
        <time>2018-08-17T12:01:20Z</time>
      </trkpt>
      <trkpt lat="44.31237" lon="6.1714">
        <ele>1530.8000488</ele>
        <time>2018-08-17T12:01:23Z</time>
      </trkpt>
      <trkpt lat="44.31239" lon="6.17146">
        <ele>1530.8000488</ele>
        <time>2018-08-17T12:01:24Z</time>
      </trkpt>
      <trkpt lat="44.31252" lon="6.17182">
        <ele>1530.5999756</ele>
        <time>2018-08-17T12:01:30Z</time>
      </trkpt>
      <trkpt lat="44.31268" lon="6.17226">
        <ele>1529.4000244</ele>
        <time>2018-08-17T12:01:37Z</time>
      </trkpt>
      <trkpt lat="44.3127" lon="6.17232">
        <ele>1529.1999512</ele>
        <time>2018-08-17T12:01:38Z</time>
      </trkpt>
      <trkpt lat="44.31281" lon="6.17278">
        <ele>1527.5999756</ele>
        <time>2018-08-17T12:01:47Z</time>
      </trkpt>
      <trkpt lat="44.31284" lon="6.17281">
        <ele>1527.4000244</ele>
        <time>2018-08-17T12:01:48Z</time>
      </trkpt>
      <trkpt lat="44.31287" lon="6.17283">
        <ele>1527.1999512</ele>
        <time>2018-08-17T12:01:49Z</time>
      </trkpt>
      <trkpt lat="44.3129" lon="6.17284">
        <ele>1526.8000488</ele>
        <time>2018-08-17T12:01:50Z</time>
      </trkpt>
      <trkpt lat="44.31294" lon="6.17285">
        <ele>1526.4000244</ele>
        <time>2018-08-17T12:01:51Z</time>
      </trkpt>
      <trkpt lat="44.31297" lon="6.17285">
        <ele>1526.1999512</ele>
        <time>2018-08-17T12:01:52Z</time>
      </trkpt>
      <trkpt lat="44.313" lon="6.17284">
        <ele>1525.4000244</ele>
        <time>2018-08-17T12:01:53Z</time>
      </trkpt>
      <trkpt lat="44.31303" lon="6.17283">
        <ele>1525.1999512</ele>
        <time>2018-08-17T12:01:54Z</time>
      </trkpt>
      <trkpt lat="44.31306" lon="6.1728">
        <ele>1524.8000488</ele>
        <time>2018-08-17T12:01:55Z</time>
      </trkpt>
      <trkpt lat="44.31307" lon="6.17277">
        <ele>1524.8000488</ele>
        <time>2018-08-17T12:01:56Z</time>
      </trkpt>
      <trkpt lat="44.31309" lon="6.17273">
        <ele>1524.5999756</ele>
        <time>2018-08-17T12:01:57Z</time>
      </trkpt>
      <trkpt lat="44.31311" lon="6.17269">
        <ele>1524.4000244</ele>
        <time>2018-08-17T12:01:58Z</time>
      </trkpt>
      <trkpt lat="44.31313" lon="6.17265">
        <ele>1524.1999512</ele>
        <time>2018-08-17T12:01:59Z</time>
      </trkpt>
      <trkpt lat="44.31336" lon="6.17213">
        <ele>1523.1999512</ele>
        <time>2018-08-17T12:02:09Z</time>
      </trkpt>
      <trkpt lat="44.31372" lon="6.1714">
        <ele>1522.4000244</ele>
        <time>2018-08-17T12:02:25Z</time>
      </trkpt>
      <trkpt lat="44.31373" lon="6.17136">
        <ele>1521.5999756</ele>
        <time>2018-08-17T12:02:37Z</time>
      </trkpt>
      <trkpt lat="44.31373" lon="6.17136">
        <ele>1521.5999756</ele>
        <time>2018-08-17T12:03:04Z</time>
      </trkpt>
      <trkpt lat="44.31375" lon="6.17134">
        <ele>1521.8000488</ele>
        <time>2018-08-17T12:03:26Z</time>
      </trkpt>
      <trkpt lat="44.31376" lon="6.17134">
        <ele>1521.4000244</ele>
        <time>2018-08-17T12:03:48Z</time>
      </trkpt>
      <trkpt lat="44.31377" lon="6.1713">
        <ele>1521.4000244</ele>
        <time>2018-08-17T12:04:07Z</time>
      </trkpt>
      <trkpt lat="44.31377" lon="6.17126">
        <ele>1521.4000244</ele>
        <time>2018-08-17T12:04:13Z</time>
      </trkpt>
      <trkpt lat="44.31378" lon="6.17124">
        <ele>1521.4000244</ele>
        <time>2018-08-17T12:04:14Z</time>
      </trkpt>
      <trkpt lat="44.31379" lon="6.17117">
        <ele>1521.4000244</ele>
        <time>2018-08-17T12:04:16Z</time>
      </trkpt>
      <trkpt lat="44.3138" lon="6.17112">
        <ele>1521.4000244</ele>
        <time>2018-08-17T12:04:17Z</time>
      </trkpt>
      <trkpt lat="44.3138" lon="6.17108">
        <ele>1521.4000244</ele>
        <time>2018-08-17T12:04:18Z</time>
      </trkpt>
      <trkpt lat="44.31382" lon="6.1709">
        <ele>1521.1999512</ele>
        <time>2018-08-17T12:04:24Z</time>
      </trkpt>
      <trkpt lat="44.31381" lon="6.17084">
        <ele>1520.4000244</ele>
        <time>2018-08-17T12:04:36Z</time>
      </trkpt>
      <trkpt lat="44.31382" lon="6.17073">
        <ele>1520.1999512</ele>
        <time>2018-08-17T12:04:39Z</time>
      </trkpt>
      <trkpt lat="44.31383" lon="6.17044">
        <ele>1519.8000488</ele>
        <time>2018-08-17T12:04:51Z</time>
      </trkpt>
      <trkpt lat="44.31385" lon="6.1704">
        <ele>1519.5999756</ele>
        <time>2018-08-17T12:05:34Z</time>
      </trkpt>
      <trkpt lat="44.31386" lon="6.1704">
        <ele>1519.8000488</ele>
        <time>2018-08-17T12:05:56Z</time>
      </trkpt>
      <trkpt lat="44.3139" lon="6.17041">
        <ele>1519.8000488</ele>
        <time>2018-08-17T12:07:11Z</time>
      </trkpt>
      <trkpt lat="44.31389" lon="6.17038">
        <ele>1520.1999512</ele>
        <time>2018-08-17T12:07:18Z</time>
      </trkpt>
      <trkpt lat="44.3139" lon="6.17037">
        <ele>1520.1999512</ele>
        <time>2018-08-17T12:07:19Z</time>
      </trkpt>
      <trkpt lat="44.31392" lon="6.17035">
        <ele>1520.1999512</ele>
        <time>2018-08-17T12:07:20Z</time>
      </trkpt>
      <trkpt lat="44.31393" lon="6.17033">
        <ele>1520.1999512</ele>
        <time>2018-08-17T12:07:21Z</time>
      </trkpt>
      <trkpt lat="44.31396" lon="6.17029">
        <ele>1520.1999512</ele>
        <time>2018-08-17T12:07:22Z</time>
      </trkpt>
      <trkpt lat="44.31421" lon="6.16966">
        <ele>1520.1999512</ele>
        <time>2018-08-17T12:07:36Z</time>
      </trkpt>
      <trkpt lat="44.31423" lon="6.16961">
        <ele>1520.1999512</ele>
        <time>2018-08-17T12:07:37Z</time>
      </trkpt>
      <trkpt lat="44.31424" lon="6.16956">
        <ele>1520.1999512</ele>
        <time>2018-08-17T12:07:38Z</time>
      </trkpt>
      <trkpt lat="44.31425" lon="6.16951">
        <ele>1520.1999512</ele>
        <time>2018-08-17T12:07:39Z</time>
      </trkpt>
      <trkpt lat="44.31427" lon="6.16946">
        <ele>1520.1999512</ele>
        <time>2018-08-17T12:07:40Z</time>
      </trkpt>
      <trkpt lat="44.31429" lon="6.1694">
        <ele>1520</ele>
        <time>2018-08-17T12:07:41Z</time>
      </trkpt>
      <trkpt lat="44.31433" lon="6.1693">
        <ele>1519.8000488</ele>
        <time>2018-08-17T12:07:43Z</time>
      </trkpt>
      <trkpt lat="44.31436" lon="6.16925">
        <ele>1519.8000488</ele>
        <time>2018-08-17T12:07:44Z</time>
      </trkpt>
      <trkpt lat="44.31466" lon="6.16881">
        <ele>1518.8000488</ele>
        <time>2018-08-17T12:07:55Z</time>
      </trkpt>
      <trkpt lat="44.31482" lon="6.16863">
        <ele>1518.5999756</ele>
        <time>2018-08-17T12:08:00Z</time>
      </trkpt>
      <trkpt lat="44.31488" lon="6.16853">
        <ele>1518.4000244</ele>
        <time>2018-08-17T12:08:02Z</time>
      </trkpt>
      <trkpt lat="44.31491" lon="6.16848">
        <ele>1518.4000244</ele>
        <time>2018-08-17T12:08:03Z</time>
      </trkpt>
      <trkpt lat="44.31493" lon="6.16843">
        <ele>1518.1999512</ele>
        <time>2018-08-17T12:08:04Z</time>
      </trkpt>
      <trkpt lat="44.315" lon="6.16819">
        <ele>1517.4000244</ele>
        <time>2018-08-17T12:08:09Z</time>
      </trkpt>
      <trkpt lat="44.315" lon="6.16813">
        <ele>1517</ele>
        <time>2018-08-17T12:08:10Z</time>
      </trkpt>
      <trkpt lat="44.315" lon="6.16808">
        <ele>1517</ele>
        <time>2018-08-17T12:08:11Z</time>
      </trkpt>
      <trkpt lat="44.315" lon="6.16803">
        <ele>1516.8000488</ele>
        <time>2018-08-17T12:08:12Z</time>
      </trkpt>
      <trkpt lat="44.31499" lon="6.16797">
        <ele>1516.4000244</ele>
        <time>2018-08-17T12:08:13Z</time>
      </trkpt>
      <trkpt lat="44.3148" lon="6.16749">
        <ele>1514.8000488</ele>
        <time>2018-08-17T12:08:24Z</time>
      </trkpt>
      <trkpt lat="44.31472" lon="6.16728">
        <ele>1514.1999512</ele>
        <time>2018-08-17T12:08:28Z</time>
      </trkpt>
      <trkpt lat="44.31467" lon="6.16693">
        <ele>1513.5999756</ele>
        <time>2018-08-17T12:08:34Z</time>
      </trkpt>
      <trkpt lat="44.31468" lon="6.16686">
        <ele>1513.4000244</ele>
        <time>2018-08-17T12:08:35Z</time>
      </trkpt>
      <trkpt lat="44.31469" lon="6.16678">
        <ele>1513.4000244</ele>
        <time>2018-08-17T12:08:36Z</time>
      </trkpt>
      <trkpt lat="44.31473" lon="6.16656">
        <ele>1513.1999512</ele>
        <time>2018-08-17T12:08:39Z</time>
      </trkpt>
      <trkpt lat="44.31474" lon="6.16648">
        <ele>1513.1999512</ele>
        <time>2018-08-17T12:08:40Z</time>
      </trkpt>
      <trkpt lat="44.31478" lon="6.16625">
        <ele>1512.5999756</ele>
        <time>2018-08-17T12:08:43Z</time>
      </trkpt>
      <trkpt lat="44.31483" lon="6.16609">
        <ele>1512</ele>
        <time>2018-08-17T12:08:45Z</time>
      </trkpt>
      <trkpt lat="44.31486" lon="6.16603">
        <ele>1511.8000488</ele>
        <time>2018-08-17T12:08:46Z</time>
      </trkpt>
      <trkpt lat="44.31497" lon="6.16568">
        <ele>1508.8000488</ele>
        <time>2018-08-17T12:08:55Z</time>
      </trkpt>
      <trkpt lat="44.31503" lon="6.16552">
        <ele>1508.1999512</ele>
        <time>2018-08-17T12:08:58Z</time>
      </trkpt>
      <trkpt lat="44.31505" lon="6.16547">
        <ele>1508</ele>
        <time>2018-08-17T12:08:59Z</time>
      </trkpt>
      <trkpt lat="44.31516" lon="6.1651">
        <ele>1506</ele>
        <time>2018-08-17T12:09:08Z</time>
      </trkpt>
      <trkpt lat="44.31513" lon="6.16493">
        <ele>1503</ele>
        <time>2018-08-17T12:09:14Z</time>
      </trkpt>
      <trkpt lat="44.31512" lon="6.16487">
        <ele>1500.1999512</ele>
        <time>2018-08-17T12:09:26Z</time>
      </trkpt>
      <trkpt lat="44.31515" lon="6.16478">
        <ele>1499.1999512</ele>
        <time>2018-08-17T12:09:58Z</time>
      </trkpt>
      <trkpt lat="44.31516" lon="6.16476">
        <ele>1499</ele>
        <time>2018-08-17T12:10:11Z</time>
      </trkpt>
      <trkpt lat="44.3152" lon="6.16458">
        <ele>1499</ele>
        <time>2018-08-17T12:10:18Z</time>
      </trkpt>
      <trkpt lat="44.31539" lon="6.16407">
        <ele>1497.4000244</ele>
        <time>2018-08-17T12:10:29Z</time>
      </trkpt>
      <trkpt lat="44.31555" lon="6.16385">
        <ele>1494</ele>
        <time>2018-08-17T12:10:36Z</time>
      </trkpt>
      <trkpt lat="44.31564" lon="6.16355">
        <ele>1490.8000488</ele>
        <time>2018-08-17T12:10:44Z</time>
      </trkpt>
      <trkpt lat="44.31567" lon="6.16316">
        <ele>1488.1999512</ele>
        <time>2018-08-17T12:10:54Z</time>
      </trkpt>
      <trkpt lat="44.3157" lon="6.16277">
        <ele>1485</ele>
        <time>2018-08-17T12:11:02Z</time>
      </trkpt>
      <trkpt lat="44.31575" lon="6.16261">
        <ele>1483.8000488</ele>
        <time>2018-08-17T12:11:05Z</time>
      </trkpt>
      <trkpt lat="44.31586" lon="6.1624">
        <ele>1481.5999756</ele>
        <time>2018-08-17T12:11:09Z</time>
      </trkpt>
      <trkpt lat="44.31606" lon="6.16196">
        <ele>1477.1999512</ele>
        <time>2018-08-17T12:11:17Z</time>
      </trkpt>
      <trkpt lat="44.3162" lon="6.16163">
        <ele>1474.4000244</ele>
        <time>2018-08-17T12:11:23Z</time>
      </trkpt>
      <trkpt lat="44.31634" lon="6.16144">
        <ele>1472</ele>
        <time>2018-08-17T12:11:27Z</time>
      </trkpt>
      <trkpt lat="44.31639" lon="6.16135">
        <ele>1470.8000488</ele>
        <time>2018-08-17T12:11:29Z</time>
      </trkpt>
      <trkpt lat="44.31654" lon="6.16112">
        <ele>1468.1999512</ele>
        <time>2018-08-17T12:11:34Z</time>
      </trkpt>
      <trkpt lat="44.31675" lon="6.1609">
        <ele>1464.8000488</ele>
        <time>2018-08-17T12:11:40Z</time>
      </trkpt>
      <trkpt lat="44.31702" lon="6.16062">
        <ele>1461.1999512</ele>
        <time>2018-08-17T12:11:47Z</time>
      </trkpt>
      <trkpt lat="44.31719" lon="6.16041">
        <ele>1457.5999756</ele>
        <time>2018-08-17T12:11:53Z</time>
      </trkpt>
      <trkpt lat="44.31736" lon="6.1603">
        <ele>1454.4000244</ele>
        <time>2018-08-17T12:11:59Z</time>
      </trkpt>
      <trkpt lat="44.31733" lon="6.1602">
        <ele>1451.1999512</ele>
        <time>2018-08-17T12:12:09Z</time>
      </trkpt>
      <trkpt lat="44.3173" lon="6.16039">
        <ele>1451.1999512</ele>
        <time>2018-08-17T12:12:15Z</time>
      </trkpt>
      <trkpt lat="44.31699" lon="6.16096">
        <ele>1449.8000488</ele>
        <time>2018-08-17T12:12:28Z</time>
      </trkpt>
      <trkpt lat="44.31692" lon="6.16111">
        <ele>1448.4000244</ele>
        <time>2018-08-17T12:12:31Z</time>
      </trkpt>
      <trkpt lat="44.31688" lon="6.16133">
        <ele>1446.8000488</ele>
        <time>2018-08-17T12:12:35Z</time>
      </trkpt>
      <trkpt lat="44.31698" lon="6.1617">
        <ele>1442.8000488</ele>
        <time>2018-08-17T12:12:43Z</time>
      </trkpt>
      <trkpt lat="44.317" lon="6.16179">
        <ele>1442.1999512</ele>
        <time>2018-08-17T12:12:45Z</time>
      </trkpt>
      <trkpt lat="44.31697" lon="6.16219">
        <ele>1438.5999756</ele>
        <time>2018-08-17T12:12:52Z</time>
      </trkpt>
      <trkpt lat="44.31684" lon="6.16251">
        <ele>1435.8000488</ele>
        <time>2018-08-17T12:12:57Z</time>
      </trkpt>
      <trkpt lat="44.31676" lon="6.1627">
        <ele>1435.1999512</ele>
        <time>2018-08-17T12:13:00Z</time>
      </trkpt>
      <trkpt lat="44.31669" lon="6.16287">
        <ele>1434.4000244</ele>
        <time>2018-08-17T12:13:03Z</time>
      </trkpt>
      <trkpt lat="44.31662" lon="6.16331">
        <ele>1431.5999756</ele>
        <time>2018-08-17T12:13:11Z</time>
      </trkpt>
      <trkpt lat="44.31666" lon="6.16387">
        <ele>1428.4000244</ele>
        <time>2018-08-17T12:13:22Z</time>
      </trkpt>
      <trkpt lat="44.31669" lon="6.16417">
        <ele>1425.1999512</ele>
        <time>2018-08-17T12:13:28Z</time>
      </trkpt>
      <trkpt lat="44.31674" lon="6.16439">
        <ele>1422.1999512</ele>
        <time>2018-08-17T12:13:33Z</time>
      </trkpt>
      <trkpt lat="44.31689" lon="6.16442">
        <ele>1419</ele>
        <time>2018-08-17T12:13:40Z</time>
      </trkpt>
      <trkpt lat="44.31687" lon="6.16444">
        <ele>1416.4000244</ele>
        <time>2018-08-17T12:14:23Z</time>
      </trkpt>
      <trkpt lat="44.31695" lon="6.16401">
        <ele>1416</ele>
        <time>2018-08-17T12:14:35Z</time>
      </trkpt>
      <trkpt lat="44.31713" lon="6.16359">
        <ele>1413</ele>
        <time>2018-08-17T12:14:44Z</time>
      </trkpt>
      <trkpt lat="44.31715" lon="6.16355">
        <ele>1412.5999756</ele>
        <time>2018-08-17T12:14:45Z</time>
      </trkpt>
      <trkpt lat="44.31726" lon="6.16338">
        <ele>1409.8000488</ele>
        <time>2018-08-17T12:14:50Z</time>
      </trkpt>
      <trkpt lat="44.31745" lon="6.16324">
        <ele>1405.8000488</ele>
        <time>2018-08-17T12:14:57Z</time>
      </trkpt>
      <trkpt lat="44.31752" lon="6.1632">
        <ele>1402.8000488</ele>
        <time>2018-08-17T12:15:03Z</time>
      </trkpt>
      <trkpt lat="44.3175" lon="6.16313">
        <ele>1400.8000488</ele>
        <time>2018-08-17T12:15:38Z</time>
      </trkpt>
      <trkpt lat="44.31752" lon="6.163">
        <ele>1400.8000488</ele>
        <time>2018-08-17T12:15:41Z</time>
      </trkpt>
      <trkpt lat="44.31761" lon="6.1624">
        <ele>1398.4000244</ele>
        <time>2018-08-17T12:15:53Z</time>
      </trkpt>
      <trkpt lat="44.31769" lon="6.1622">
        <ele>1396.8000488</ele>
        <time>2018-08-17T12:15:57Z</time>
      </trkpt>
      <trkpt lat="44.31791" lon="6.16181">
        <ele>1393</ele>
        <time>2018-08-17T12:16:05Z</time>
      </trkpt>
      <trkpt lat="44.31795" lon="6.16176">
        <ele>1392.5999756</ele>
        <time>2018-08-17T12:16:06Z</time>
      </trkpt>
      <trkpt lat="44.31814" lon="6.16134">
        <ele>1389.1999512</ele>
        <time>2018-08-17T12:16:13Z</time>
      </trkpt>
      <trkpt lat="44.31825" lon="6.16101">
        <ele>1385.8000488</ele>
        <time>2018-08-17T12:16:19Z</time>
      </trkpt>
      <trkpt lat="44.31829" lon="6.16089">
        <ele>1384.8000488</ele>
        <time>2018-08-17T12:16:21Z</time>
      </trkpt>
      <trkpt lat="44.31841" lon="6.16065">
        <ele>1382.5999756</ele>
        <time>2018-08-17T12:16:26Z</time>
      </trkpt>
      <trkpt lat="44.31853" lon="6.16043">
        <ele>1379.5999756</ele>
        <time>2018-08-17T12:16:31Z</time>
      </trkpt>
      <trkpt lat="44.31868" lon="6.16023">
        <ele>1376</ele>
        <time>2018-08-17T12:16:36Z</time>
      </trkpt>
      <trkpt lat="44.31883" lon="6.16">
        <ele>1372.1999512</ele>
        <time>2018-08-17T12:16:43Z</time>
      </trkpt>
      <trkpt lat="44.31912" lon="6.15993">
        <ele>1368.4000244</ele>
        <time>2018-08-17T12:16:51Z</time>
      </trkpt>
      <trkpt lat="44.31932" lon="6.15992">
        <ele>1365.1999512</ele>
        <time>2018-08-17T12:16:57Z</time>
      </trkpt>
      <trkpt lat="44.31947" lon="6.15976">
        <ele>1362</ele>
        <time>2018-08-17T12:17:04Z</time>
      </trkpt>
      <trkpt lat="44.31952" lon="6.15973">
        <ele>1361.1999512</ele>
        <time>2018-08-17T12:17:06Z</time>
      </trkpt>
      <trkpt lat="44.31962" lon="6.15988">
        <ele>1359</ele>
        <time>2018-08-17T12:17:12Z</time>
      </trkpt>
      <trkpt lat="44.31948" lon="6.16047">
        <ele>1355.8000488</ele>
        <time>2018-08-17T12:17:24Z</time>
      </trkpt>
      <trkpt lat="44.31941" lon="6.16067">
        <ele>1354.5999756</ele>
        <time>2018-08-17T12:17:28Z</time>
      </trkpt>
      <trkpt lat="44.31943" lon="6.16106">
        <ele>1352.5999756</ele>
        <time>2018-08-17T12:17:35Z</time>
      </trkpt>
      <trkpt lat="44.31938" lon="6.16127">
        <ele>1351.1999512</ele>
        <time>2018-08-17T12:17:38Z</time>
      </trkpt>
      <trkpt lat="44.31936" lon="6.16153">
        <ele>1349.8000488</ele>
        <time>2018-08-17T12:17:42Z</time>
      </trkpt>
      <trkpt lat="44.31928" lon="6.16194">
        <ele>1346</ele>
        <time>2018-08-17T12:17:48Z</time>
      </trkpt>
      <trkpt lat="44.31924" lon="6.16224">
        <ele>1343.1999512</ele>
        <time>2018-08-17T12:17:52Z</time>
      </trkpt>
      <trkpt lat="44.31924" lon="6.16245">
        <ele>1341.5999756</ele>
        <time>2018-08-17T12:17:55Z</time>
      </trkpt>
      <trkpt lat="44.3192" lon="6.16277">
        <ele>1338.4000244</ele>
        <time>2018-08-17T12:18:00Z</time>
      </trkpt>
      <trkpt lat="44.31917" lon="6.16296">
        <ele>1336</ele>
        <time>2018-08-17T12:18:03Z</time>
      </trkpt>
      <trkpt lat="44.31917" lon="6.16317">
        <ele>1333.8000488</ele>
        <time>2018-08-17T12:18:06Z</time>
      </trkpt>
      <trkpt lat="44.31912" lon="6.1635">
        <ele>1329.8000488</ele>
        <time>2018-08-17T12:18:12Z</time>
      </trkpt>
      <trkpt lat="44.31909" lon="6.16359">
        <ele>1328.1999512</ele>
        <time>2018-08-17T12:18:14Z</time>
      </trkpt>
      <trkpt lat="44.31899" lon="6.1638">
        <ele>1325.8000488</ele>
        <time>2018-08-17T12:18:19Z</time>
      </trkpt>
      <trkpt lat="44.3191" lon="6.16384">
        <ele>1323.5999756</ele>
        <time>2018-08-17T12:18:27Z</time>
      </trkpt>
      <trkpt lat="44.31925" lon="6.16344">
        <ele>1322.8000488</ele>
        <time>2018-08-17T12:18:37Z</time>
      </trkpt>
      <trkpt lat="44.31929" lon="6.16335">
        <ele>1322.1999512</ele>
        <time>2018-08-17T12:18:39Z</time>
      </trkpt>
      <trkpt lat="44.31939" lon="6.16317">
        <ele>1321.1999512</ele>
        <time>2018-08-17T12:18:43Z</time>
      </trkpt>
      <trkpt lat="44.31952" lon="6.16292">
        <ele>1318.5999756</ele>
        <time>2018-08-17T12:18:48Z</time>
      </trkpt>
      <trkpt lat="44.3197" lon="6.16269">
        <ele>1314.8000488</ele>
        <time>2018-08-17T12:18:54Z</time>
      </trkpt>
      <trkpt lat="44.31978" lon="6.16261">
        <ele>1313.4000244</ele>
        <time>2018-08-17T12:18:56Z</time>
      </trkpt>
      <trkpt lat="44.32001" lon="6.16252">
        <ele>1311</ele>
        <time>2018-08-17T12:19:01Z</time>
      </trkpt>
      <trkpt lat="44.32021" lon="6.16251">
        <ele>1307.4000244</ele>
        <time>2018-08-17T12:19:06Z</time>
      </trkpt>
      <trkpt lat="44.32025" lon="6.16251">
        <ele>1306.5999756</ele>
        <time>2018-08-17T12:19:07Z</time>
      </trkpt>
      <trkpt lat="44.32041" lon="6.16251">
        <ele>1304</ele>
        <time>2018-08-17T12:19:11Z</time>
      </trkpt>
      <trkpt lat="44.32066" lon="6.16242">
        <ele>1299.8000488</ele>
        <time>2018-08-17T12:19:19Z</time>
      </trkpt>
      <trkpt lat="44.32082" lon="6.16227">
        <ele>1297.1999512</ele>
        <time>2018-08-17T12:19:24Z</time>
      </trkpt>
      <trkpt lat="44.3209" lon="6.16219">
        <ele>1296.1999512</ele>
        <time>2018-08-17T12:19:26Z</time>
      </trkpt>
      <trkpt lat="44.3211" lon="6.16201">
        <ele>1294</ele>
        <time>2018-08-17T12:19:31Z</time>
      </trkpt>
      <trkpt lat="44.32123" lon="6.16181">
        <ele>1291.4000244</ele>
        <time>2018-08-17T12:19:35Z</time>
      </trkpt>
      <trkpt lat="44.32143" lon="6.16134">
        <ele>1287.5999756</ele>
        <time>2018-08-17T12:19:43Z</time>
      </trkpt>
      <trkpt lat="44.32158" lon="6.16116">
        <ele>1284.8000488</ele>
        <time>2018-08-17T12:19:47Z</time>
      </trkpt>
      <trkpt lat="44.3217" lon="6.16107">
        <ele>1282.4000244</ele>
        <time>2018-08-17T12:19:50Z</time>
      </trkpt>
      <trkpt lat="44.32186" lon="6.16094">
        <ele>1279</ele>
        <time>2018-08-17T12:19:54Z</time>
      </trkpt>
      <trkpt lat="44.3221" lon="6.16082">
        <ele>1274.8000488</ele>
        <time>2018-08-17T12:20:01Z</time>
      </trkpt>
      <trkpt lat="44.32221" lon="6.16073">
        <ele>1273.1999512</ele>
        <time>2018-08-17T12:20:04Z</time>
      </trkpt>
      <trkpt lat="44.32249" lon="6.16046">
        <ele>1269.5999756</ele>
        <time>2018-08-17T12:20:11Z</time>
      </trkpt>
      <trkpt lat="44.32269" lon="6.16035">
        <ele>1265.1999512</ele>
        <time>2018-08-17T12:20:17Z</time>
      </trkpt>
      <trkpt lat="44.32284" lon="6.16029">
        <ele>1262.1999512</ele>
        <time>2018-08-17T12:20:22Z</time>
      </trkpt>
      <trkpt lat="44.32291" lon="6.16025">
        <ele>1258.8000488</ele>
        <time>2018-08-17T12:20:31Z</time>
      </trkpt>
      <trkpt lat="44.32293" lon="6.16023">
        <ele>1257.5999756</ele>
        <time>2018-08-17T12:21:04Z</time>
      </trkpt>
      <trkpt lat="44.32293" lon="6.16021">
        <ele>1257.5999756</ele>
        <time>2018-08-17T12:21:05Z</time>
      </trkpt>
      <trkpt lat="44.32293" lon="6.16017">
        <ele>1257.5999756</ele>
        <time>2018-08-17T12:21:06Z</time>
      </trkpt>
      <trkpt lat="44.32292" lon="6.16013">
        <ele>1257.5999756</ele>
        <time>2018-08-17T12:21:07Z</time>
      </trkpt>
      <trkpt lat="44.32292" lon="6.16007">
        <ele>1257.4000244</ele>
        <time>2018-08-17T12:21:08Z</time>
      </trkpt>
      <trkpt lat="44.32292" lon="6.16002">
        <ele>1257.4000244</ele>
        <time>2018-08-17T12:21:09Z</time>
      </trkpt>
      <trkpt lat="44.32291" lon="6.15996">
        <ele>1257.4000244</ele>
        <time>2018-08-17T12:21:10Z</time>
      </trkpt>
      <trkpt lat="44.3229" lon="6.1599">
        <ele>1257.4000244</ele>
        <time>2018-08-17T12:21:11Z</time>
      </trkpt>
      <trkpt lat="44.32289" lon="6.15984">
        <ele>1257.4000244</ele>
        <time>2018-08-17T12:21:12Z</time>
      </trkpt>
      <trkpt lat="44.32288" lon="6.15978">
        <ele>1257.4000244</ele>
        <time>2018-08-17T12:21:13Z</time>
      </trkpt>
      <trkpt lat="44.32288" lon="6.15972">
        <ele>1257.1999512</ele>
        <time>2018-08-17T12:21:14Z</time>
      </trkpt>
      <trkpt lat="44.32287" lon="6.15958">
        <ele>1256.8000488</ele>
        <time>2018-08-17T12:21:16Z</time>
      </trkpt>
      <trkpt lat="44.32286" lon="6.15944">
        <ele>1255.5999756</ele>
        <time>2018-08-17T12:21:18Z</time>
      </trkpt>
      <trkpt lat="44.32286" lon="6.15929">
        <ele>1254.4000244</ele>
        <time>2018-08-17T12:21:20Z</time>
      </trkpt>
      <trkpt lat="44.32285" lon="6.15923">
        <ele>1253.8000488</ele>
        <time>2018-08-17T12:21:21Z</time>
      </trkpt>
      <trkpt lat="44.32285" lon="6.15918">
        <ele>1253.1999512</ele>
        <time>2018-08-17T12:21:22Z</time>
      </trkpt>
      <trkpt lat="44.32285" lon="6.15911">
        <ele>1252.8000488</ele>
        <time>2018-08-17T12:21:23Z</time>
      </trkpt>
      <trkpt lat="44.32285" lon="6.15905">
        <ele>1252.1999512</ele>
        <time>2018-08-17T12:21:24Z</time>
      </trkpt>
      <trkpt lat="44.32282" lon="6.15885">
        <ele>1249.1999512</ele>
        <time>2018-08-17T12:21:29Z</time>
      </trkpt>
      <trkpt lat="44.3228" lon="6.15873">
        <ele>1246.8000488</ele>
        <time>2018-08-17T12:21:32Z</time>
      </trkpt>
      <trkpt lat="44.32279" lon="6.15867">
        <ele>1246.1999512</ele>
        <time>2018-08-17T12:21:33Z</time>
      </trkpt>
      <trkpt lat="44.32276" lon="6.15839">
        <ele>1244.4000244</ele>
        <time>2018-08-17T12:21:37Z</time>
      </trkpt>
      <trkpt lat="44.3227" lon="6.15797">
        <ele>1242.4000244</ele>
        <time>2018-08-17T12:21:43Z</time>
      </trkpt>
      <trkpt lat="44.32269" lon="6.15791">
        <ele>1242</ele>
        <time>2018-08-17T12:21:44Z</time>
      </trkpt>
      <trkpt lat="44.3227" lon="6.15782">
        <ele>1241.5999756</ele>
        <time>2018-08-17T12:21:45Z</time>
      </trkpt>
      <trkpt lat="44.32272" lon="6.15728">
        <ele>1238.8000488</ele>
        <time>2018-08-17T12:21:51Z</time>
      </trkpt>
      <trkpt lat="44.32272" lon="6.15722">
        <ele>1238.1999512</ele>
        <time>2018-08-17T12:21:52Z</time>
      </trkpt>
      <trkpt lat="44.3227" lon="6.15716">
        <ele>1237.8000488</ele>
        <time>2018-08-17T12:21:53Z</time>
      </trkpt>
      <trkpt lat="44.32266" lon="6.15688">
        <ele>1234.5999756</ele>
        <time>2018-08-17T12:21:58Z</time>
      </trkpt>
      <trkpt lat="44.32267" lon="6.1568">
        <ele>1234</ele>
        <time>2018-08-17T12:21:59Z</time>
      </trkpt>
      <trkpt lat="44.32269" lon="6.15673">
        <ele>1233.5999756</ele>
        <time>2018-08-17T12:22:00Z</time>
      </trkpt>
      <trkpt lat="44.32288" lon="6.15608">
        <ele>1230.1999512</ele>
        <time>2018-08-17T12:22:08Z</time>
      </trkpt>
      <trkpt lat="44.32294" lon="6.15561">
        <ele>1226.8000488</ele>
        <time>2018-08-17T12:22:13Z</time>
      </trkpt>
      <trkpt lat="44.32295" lon="6.15536">
        <ele>1224.8000488</ele>
        <time>2018-08-17T12:22:16Z</time>
      </trkpt>
      <trkpt lat="44.32294" lon="6.15508">
        <ele>1221.5999756</ele>
        <time>2018-08-17T12:22:21Z</time>
      </trkpt>
      <trkpt lat="44.32284" lon="6.15484">
        <ele>1218.1999512</ele>
        <time>2018-08-17T12:22:26Z</time>
      </trkpt>
      <trkpt lat="44.32283" lon="6.1548">
        <ele>1217.5999756</ele>
        <time>2018-08-17T12:22:27Z</time>
      </trkpt>
      <trkpt lat="44.32284" lon="6.15474">
        <ele>1217</ele>
        <time>2018-08-17T12:22:28Z</time>
      </trkpt>
      <trkpt lat="44.32285" lon="6.15468">
        <ele>1216.5999756</ele>
        <time>2018-08-17T12:22:29Z</time>
      </trkpt>
      <trkpt lat="44.32289" lon="6.15462">
        <ele>1216.1999512</ele>
        <time>2018-08-17T12:22:30Z</time>
      </trkpt>
      <trkpt lat="44.32292" lon="6.15455">
        <ele>1215.8000488</ele>
        <time>2018-08-17T12:22:31Z</time>
      </trkpt>
      <trkpt lat="44.32294" lon="6.15449">
        <ele>1215.4000244</ele>
        <time>2018-08-17T12:22:32Z</time>
      </trkpt>
      <trkpt lat="44.32295" lon="6.15442">
        <ele>1215</ele>
        <time>2018-08-17T12:22:33Z</time>
      </trkpt>
      <trkpt lat="44.32296" lon="6.15436">
        <ele>1214.5999756</ele>
        <time>2018-08-17T12:22:34Z</time>
      </trkpt>
      <trkpt lat="44.32295" lon="6.15429">
        <ele>1214.1999512</ele>
        <time>2018-08-17T12:22:35Z</time>
      </trkpt>
      <trkpt lat="44.32295" lon="6.15384">
        <ele>1210.8000488</ele>
        <time>2018-08-17T12:22:42Z</time>
      </trkpt>
      <trkpt lat="44.32292" lon="6.15378">
        <ele>1210.4000244</ele>
        <time>2018-08-17T12:22:43Z</time>
      </trkpt>
      <trkpt lat="44.32287" lon="6.15346">
        <ele>1206.8000488</ele>
        <time>2018-08-17T12:22:48Z</time>
      </trkpt>
      <trkpt lat="44.32292" lon="6.15331">
        <ele>1206</ele>
        <time>2018-08-17T12:22:50Z</time>
      </trkpt>
      <trkpt lat="44.32295" lon="6.15323">
        <ele>1205.4000244</ele>
        <time>2018-08-17T12:22:51Z</time>
      </trkpt>
      <trkpt lat="44.32299" lon="6.15316">
        <ele>1204.8000488</ele>
        <time>2018-08-17T12:22:52Z</time>
      </trkpt>
      <trkpt lat="44.32304" lon="6.15294">
        <ele>1203.4000244</ele>
        <time>2018-08-17T12:22:55Z</time>
      </trkpt>
      <trkpt lat="44.32305" lon="6.15288">
        <ele>1203</ele>
        <time>2018-08-17T12:22:56Z</time>
      </trkpt>
      <trkpt lat="44.32312" lon="6.15253">
        <ele>1201</ele>
        <time>2018-08-17T12:23:01Z</time>
      </trkpt>
      <trkpt lat="44.32315" lon="6.15246">
        <ele>1200.5999756</ele>
        <time>2018-08-17T12:23:02Z</time>
      </trkpt>
      <trkpt lat="44.32327" lon="6.1521">
        <ele>1197.5999756</ele>
        <time>2018-08-17T12:23:08Z</time>
      </trkpt>
      <trkpt lat="44.32336" lon="6.15174">
        <ele>1194.1999512</ele>
        <time>2018-08-17T12:23:13Z</time>
      </trkpt>
      <trkpt lat="44.32341" lon="6.15138">
        <ele>1191</ele>
        <time>2018-08-17T12:23:19Z</time>
      </trkpt>
      <trkpt lat="44.32342" lon="6.15132">
        <ele>1190.5999756</ele>
        <time>2018-08-17T12:23:20Z</time>
      </trkpt>
      <trkpt lat="44.32344" lon="6.15096">
        <ele>1188</ele>
        <time>2018-08-17T12:23:25Z</time>
      </trkpt>
      <trkpt lat="44.32344" lon="6.15089">
        <ele>1187.5999756</ele>
        <time>2018-08-17T12:23:26Z</time>
      </trkpt>
      <trkpt lat="44.32344" lon="6.15082">
        <ele>1187.1999512</ele>
        <time>2018-08-17T12:23:27Z</time>
      </trkpt>
      <trkpt lat="44.32344" lon="6.15076">
        <ele>1186.8000488</ele>
        <time>2018-08-17T12:23:28Z</time>
      </trkpt>
      <trkpt lat="44.32344" lon="6.15069">
        <ele>1186.4000244</ele>
        <time>2018-08-17T12:23:29Z</time>
      </trkpt>
      <trkpt lat="44.32344" lon="6.15062">
        <ele>1185.8000488</ele>
        <time>2018-08-17T12:23:30Z</time>
      </trkpt>
      <trkpt lat="44.32344" lon="6.15032">
        <ele>1182.8000488</ele>
        <time>2018-08-17T12:23:36Z</time>
      </trkpt>
      <trkpt lat="44.32344" lon="6.15024">
        <ele>1182.1999512</ele>
        <time>2018-08-17T12:23:38Z</time>
      </trkpt>
      <trkpt lat="44.32345" lon="6.1502">
        <ele>1182</ele>
        <time>2018-08-17T12:23:39Z</time>
      </trkpt>
      <trkpt lat="44.32346" lon="6.15017">
        <ele>1181.8000488</ele>
        <time>2018-08-17T12:23:40Z</time>
      </trkpt>
      <trkpt lat="44.32347" lon="6.15014">
        <ele>1181.8000488</ele>
        <time>2018-08-17T12:23:41Z</time>
      </trkpt>
      <trkpt lat="44.3235" lon="6.15012">
        <ele>1181.8000488</ele>
        <time>2018-08-17T12:23:42Z</time>
      </trkpt>
      <trkpt lat="44.32351" lon="6.15012">
        <ele>1181.8000488</ele>
        <time>2018-08-17T12:23:43Z</time>
      </trkpt>
      <trkpt lat="44.32353" lon="6.15012">
        <ele>1181.5999756</ele>
        <time>2018-08-17T12:23:44Z</time>
      </trkpt>
      <trkpt lat="44.32355" lon="6.15013">
        <ele>1181.5999756</ele>
        <time>2018-08-17T12:23:45Z</time>
      </trkpt>
      <trkpt lat="44.32356" lon="6.15015">
        <ele>1181.5999756</ele>
        <time>2018-08-17T12:23:46Z</time>
      </trkpt>
      <trkpt lat="44.32358" lon="6.15017">
        <ele>1181.5999756</ele>
        <time>2018-08-17T12:23:47Z</time>
      </trkpt>
      <trkpt lat="44.32359" lon="6.1502">
        <ele>1181.5999756</ele>
        <time>2018-08-17T12:23:48Z</time>
      </trkpt>
      <trkpt lat="44.3236" lon="6.15024">
        <ele>1181.4000244</ele>
        <time>2018-08-17T12:23:49Z</time>
      </trkpt>
      <trkpt lat="44.3236" lon="6.15029">
        <ele>1181.4000244</ele>
        <time>2018-08-17T12:23:50Z</time>
      </trkpt>
      <trkpt lat="44.32361" lon="6.1504">
        <ele>1181.4000244</ele>
        <time>2018-08-17T12:23:52Z</time>
      </trkpt>
      <trkpt lat="44.32362" lon="6.15047">
        <ele>1181.1999512</ele>
        <time>2018-08-17T12:23:53Z</time>
      </trkpt>
      <trkpt lat="44.32365" lon="6.15065">
        <ele>1180.5999756</ele>
        <time>2018-08-17T12:23:56Z</time>
      </trkpt>
      <trkpt lat="44.32366" lon="6.1507">
        <ele>1180.1999512</ele>
        <time>2018-08-17T12:23:57Z</time>
      </trkpt>
      <trkpt lat="44.32367" lon="6.15077">
        <ele>1180</ele>
        <time>2018-08-17T12:23:58Z</time>
      </trkpt>
      <trkpt lat="44.3237" lon="6.15094">
        <ele>1179.4000244</ele>
        <time>2018-08-17T12:24:01Z</time>
      </trkpt>
      <trkpt lat="44.32371" lon="6.15101">
        <ele>1179</ele>
        <time>2018-08-17T12:24:02Z</time>
      </trkpt>
      <trkpt lat="44.32374" lon="6.15119">
        <ele>1177.5999756</ele>
        <time>2018-08-17T12:24:05Z</time>
      </trkpt>
      <trkpt lat="44.32374" lon="6.15125">
        <ele>1177.4000244</ele>
        <time>2018-08-17T12:24:06Z</time>
      </trkpt>
      <trkpt lat="44.32375" lon="6.15132">
        <ele>1176.8000488</ele>
        <time>2018-08-17T12:24:07Z</time>
      </trkpt>
      <trkpt lat="44.32376" lon="6.15154">
        <ele>1175.5999756</ele>
        <time>2018-08-17T12:24:10Z</time>
      </trkpt>
      <trkpt lat="44.32376" lon="6.15161">
        <ele>1175</ele>
        <time>2018-08-17T12:24:11Z</time>
      </trkpt>
      <trkpt lat="44.32378" lon="6.15182">
        <ele>1173.4000244</ele>
        <time>2018-08-17T12:24:14Z</time>
      </trkpt>
      <trkpt lat="44.32378" lon="6.15188">
        <ele>1172.8000488</ele>
        <time>2018-08-17T12:24:15Z</time>
      </trkpt>
      <trkpt lat="44.32378" lon="6.15194">
        <ele>1172.4000244</ele>
        <time>2018-08-17T12:24:16Z</time>
      </trkpt>
      <trkpt lat="44.3238" lon="6.1522">
        <ele>1170.4000244</ele>
        <time>2018-08-17T12:24:20Z</time>
      </trkpt>
      <trkpt lat="44.3238" lon="6.15227">
        <ele>1170.1999512</ele>
        <time>2018-08-17T12:24:21Z</time>
      </trkpt>
      <trkpt lat="44.32378" lon="6.1527">
        <ele>1167.1999512</ele>
        <time>2018-08-17T12:24:27Z</time>
      </trkpt>
      <trkpt lat="44.32382" lon="6.15291">
        <ele>1166</ele>
        <time>2018-08-17T12:24:30Z</time>
      </trkpt>
      <trkpt lat="44.32384" lon="6.15297">
        <ele>1165.5999756</ele>
        <time>2018-08-17T12:24:31Z</time>
      </trkpt>
      <trkpt lat="44.32388" lon="6.15323">
        <ele>1163.4000244</ele>
        <time>2018-08-17T12:24:35Z</time>
      </trkpt>
      <trkpt lat="44.32389" lon="6.15337">
        <ele>1162.1999512</ele>
        <time>2018-08-17T12:24:37Z</time>
      </trkpt>
      <trkpt lat="44.32396" lon="6.15371">
        <ele>1159.5999756</ele>
        <time>2018-08-17T12:24:42Z</time>
      </trkpt>
      <trkpt lat="44.32397" lon="6.15378">
        <ele>1158.8000488</ele>
        <time>2018-08-17T12:24:43Z</time>
      </trkpt>
      <trkpt lat="44.32399" lon="6.15386">
        <ele>1158.1999512</ele>
        <time>2018-08-17T12:24:44Z</time>
      </trkpt>
      <trkpt lat="44.32401" lon="6.15394">
        <ele>1157.1999512</ele>
        <time>2018-08-17T12:24:45Z</time>
      </trkpt>
      <trkpt lat="44.32402" lon="6.15401">
        <ele>1156.5999756</ele>
        <time>2018-08-17T12:24:46Z</time>
      </trkpt>
      <trkpt lat="44.32404" lon="6.15407">
        <ele>1155.5999756</ele>
        <time>2018-08-17T12:24:47Z</time>
      </trkpt>
      <trkpt lat="44.32407" lon="6.15421">
        <ele>1155</ele>
        <time>2018-08-17T12:24:49Z</time>
      </trkpt>
      <trkpt lat="44.3241" lon="6.15428">
        <ele>1154.8000488</ele>
        <time>2018-08-17T12:24:50Z</time>
      </trkpt>
      <trkpt lat="44.32412" lon="6.15434">
        <ele>1154.4000244</ele>
        <time>2018-08-17T12:24:51Z</time>
      </trkpt>
      <trkpt lat="44.32415" lon="6.1544">
        <ele>1154</ele>
        <time>2018-08-17T12:24:52Z</time>
      </trkpt>
      <trkpt lat="44.32419" lon="6.15446">
        <ele>1153.5999756</ele>
        <time>2018-08-17T12:24:53Z</time>
      </trkpt>
      <trkpt lat="44.32421" lon="6.15452">
        <ele>1153.1999512</ele>
        <time>2018-08-17T12:24:54Z</time>
      </trkpt>
      <trkpt lat="44.32425" lon="6.15457">
        <ele>1152.5999756</ele>
        <time>2018-08-17T12:24:55Z</time>
      </trkpt>
      <trkpt lat="44.32437" lon="6.15477">
        <ele>1150</ele>
        <time>2018-08-17T12:24:59Z</time>
      </trkpt>
      <trkpt lat="44.3245" lon="6.15491">
        <ele>1147.5999756</ele>
        <time>2018-08-17T12:25:02Z</time>
      </trkpt>
      <trkpt lat="44.32462" lon="6.15504">
        <ele>1145.5999756</ele>
        <time>2018-08-17T12:25:05Z</time>
      </trkpt>
      <trkpt lat="44.32465" lon="6.15507">
        <ele>1145</ele>
        <time>2018-08-17T12:25:06Z</time>
      </trkpt>
      <trkpt lat="44.32468" lon="6.15509">
        <ele>1144.4000244</ele>
        <time>2018-08-17T12:25:07Z</time>
      </trkpt>
      <trkpt lat="44.32471" lon="6.15511">
        <ele>1144</ele>
        <time>2018-08-17T12:25:08Z</time>
      </trkpt>
      <trkpt lat="44.32475" lon="6.15511">
        <ele>1143.4000244</ele>
        <time>2018-08-17T12:25:09Z</time>
      </trkpt>
      <trkpt lat="44.32479" lon="6.15511">
        <ele>1143</ele>
        <time>2018-08-17T12:25:10Z</time>
      </trkpt>
      <trkpt lat="44.32484" lon="6.15511">
        <ele>1142</ele>
        <time>2018-08-17T12:25:11Z</time>
      </trkpt>
      <trkpt lat="44.32488" lon="6.15512">
        <ele>1141.5999756</ele>
        <time>2018-08-17T12:25:12Z</time>
      </trkpt>
      <trkpt lat="44.32491" lon="6.15514">
        <ele>1141.4000244</ele>
        <time>2018-08-17T12:25:13Z</time>
      </trkpt>
      <trkpt lat="44.32495" lon="6.15518">
        <ele>1141</ele>
        <time>2018-08-17T12:25:14Z</time>
      </trkpt>
      <trkpt lat="44.32497" lon="6.15523">
        <ele>1140.4000244</ele>
        <time>2018-08-17T12:25:15Z</time>
      </trkpt>
      <trkpt lat="44.325" lon="6.15529">
        <ele>1140</ele>
        <time>2018-08-17T12:25:16Z</time>
      </trkpt>
      <trkpt lat="44.32502" lon="6.15535">
        <ele>1139.5999756</ele>
        <time>2018-08-17T12:25:17Z</time>
      </trkpt>
      <trkpt lat="44.32505" lon="6.15547">
        <ele>1138.8000488</ele>
        <time>2018-08-17T12:25:19Z</time>
      </trkpt>
      <trkpt lat="44.32514" lon="6.15566">
        <ele>1138</ele>
        <time>2018-08-17T12:25:21Z</time>
      </trkpt>
      <trkpt lat="44.32515" lon="6.15575">
        <ele>1137.5999756</ele>
        <time>2018-08-17T12:25:22Z</time>
      </trkpt>
      <trkpt lat="44.32516" lon="6.15583">
        <ele>1137.1999512</ele>
        <time>2018-08-17T12:25:23Z</time>
      </trkpt>
      <trkpt lat="44.3252" lon="6.15629">
        <ele>1134.1999512</ele>
        <time>2018-08-17T12:25:29Z</time>
      </trkpt>
      <trkpt lat="44.32521" lon="6.15645">
        <ele>1133.4000244</ele>
        <time>2018-08-17T12:25:31Z</time>
      </trkpt>
      <trkpt lat="44.32519" lon="6.15669">
        <ele>1132</ele>
        <time>2018-08-17T12:25:34Z</time>
      </trkpt>
      <trkpt lat="44.32517" lon="6.15676">
        <ele>1131.4000244</ele>
        <time>2018-08-17T12:25:35Z</time>
      </trkpt>
      <trkpt lat="44.32515" lon="6.15684">
        <ele>1130.5999756</ele>
        <time>2018-08-17T12:25:36Z</time>
      </trkpt>
      <trkpt lat="44.32513" lon="6.15692">
        <ele>1130.1999512</ele>
        <time>2018-08-17T12:25:37Z</time>
      </trkpt>
      <trkpt lat="44.32512" lon="6.157">
        <ele>1129.8000488</ele>
        <time>2018-08-17T12:25:38Z</time>
      </trkpt>
      <trkpt lat="44.3251" lon="6.15708">
        <ele>1129.1999512</ele>
        <time>2018-08-17T12:25:39Z</time>
      </trkpt>
      <trkpt lat="44.32508" lon="6.15724">
        <ele>1128</ele>
        <time>2018-08-17T12:25:41Z</time>
      </trkpt>
      <trkpt lat="44.32506" lon="6.15747">
        <ele>1126.4000244</ele>
        <time>2018-08-17T12:25:44Z</time>
      </trkpt>
      <trkpt lat="44.32506" lon="6.15755">
        <ele>1125.8000488</ele>
        <time>2018-08-17T12:25:45Z</time>
      </trkpt>
      <trkpt lat="44.32507" lon="6.15778">
        <ele>1124.1999512</ele>
        <time>2018-08-17T12:25:48Z</time>
      </trkpt>
      <trkpt lat="44.32509" lon="6.15792">
        <ele>1123.1999512</ele>
        <time>2018-08-17T12:25:50Z</time>
      </trkpt>
      <trkpt lat="44.3251" lon="6.15799">
        <ele>1122.5999756</ele>
        <time>2018-08-17T12:25:51Z</time>
      </trkpt>
      <trkpt lat="44.32511" lon="6.15806">
        <ele>1121.8000488</ele>
        <time>2018-08-17T12:25:52Z</time>
      </trkpt>
      <trkpt lat="44.32511" lon="6.15812">
        <ele>1121.1999512</ele>
        <time>2018-08-17T12:25:53Z</time>
      </trkpt>
      <trkpt lat="44.32514" lon="6.15818">
        <ele>1120.8000488</ele>
        <time>2018-08-17T12:25:54Z</time>
      </trkpt>
      <trkpt lat="44.32516" lon="6.15824">
        <ele>1120.1999512</ele>
        <time>2018-08-17T12:25:55Z</time>
      </trkpt>
      <trkpt lat="44.32517" lon="6.1583">
        <ele>1119.8000488</ele>
        <time>2018-08-17T12:25:56Z</time>
      </trkpt>
      <trkpt lat="44.32519" lon="6.15836">
        <ele>1119.1999512</ele>
        <time>2018-08-17T12:25:57Z</time>
      </trkpt>
      <trkpt lat="44.3252" lon="6.15842">
        <ele>1118.8000488</ele>
        <time>2018-08-17T12:25:58Z</time>
      </trkpt>
      <trkpt lat="44.32521" lon="6.15848">
        <ele>1118.4000244</ele>
        <time>2018-08-17T12:25:59Z</time>
      </trkpt>
      <trkpt lat="44.32522" lon="6.15856">
        <ele>1117.5999756</ele>
        <time>2018-08-17T12:26:00Z</time>
      </trkpt>
      <trkpt lat="44.32522" lon="6.15863">
        <ele>1116.1999512</ele>
        <time>2018-08-17T12:26:01Z</time>
      </trkpt>
      <trkpt lat="44.32522" lon="6.15871">
        <ele>1115.4000244</ele>
        <time>2018-08-17T12:26:02Z</time>
      </trkpt>
      <trkpt lat="44.32524" lon="6.15878">
        <ele>1114.8000488</ele>
        <time>2018-08-17T12:26:03Z</time>
      </trkpt>
      <trkpt lat="44.32527" lon="6.15884">
        <ele>1114.4000244</ele>
        <time>2018-08-17T12:26:04Z</time>
      </trkpt>
      <trkpt lat="44.3253" lon="6.15891">
        <ele>1113.8000488</ele>
        <time>2018-08-17T12:26:05Z</time>
      </trkpt>
      <trkpt lat="44.32534" lon="6.15897">
        <ele>1113.1999512</ele>
        <time>2018-08-17T12:26:06Z</time>
      </trkpt>
      <trkpt lat="44.32538" lon="6.15902">
        <ele>1112.8000488</ele>
        <time>2018-08-17T12:26:07Z</time>
      </trkpt>
      <trkpt lat="44.32541" lon="6.15907">
        <ele>1112.1999512</ele>
        <time>2018-08-17T12:26:08Z</time>
      </trkpt>
      <trkpt lat="44.32544" lon="6.15911">
        <ele>1111.8000488</ele>
        <time>2018-08-17T12:26:09Z</time>
      </trkpt>
      <trkpt lat="44.32559" lon="6.15925">
        <ele>1108.4000244</ele>
        <time>2018-08-17T12:26:14Z</time>
      </trkpt>
      <trkpt lat="44.32565" lon="6.15932">
        <ele>1107.1999512</ele>
        <time>2018-08-17T12:26:16Z</time>
      </trkpt>
      <trkpt lat="44.3258" lon="6.15956">
        <ele>1105.4000244</ele>
        <time>2018-08-17T12:26:20Z</time>
      </trkpt>
      <trkpt lat="44.32582" lon="6.15962">
        <ele>1104.5999756</ele>
        <time>2018-08-17T12:26:21Z</time>
      </trkpt>
      <trkpt lat="44.32584" lon="6.1597">
        <ele>1104</ele>
        <time>2018-08-17T12:26:22Z</time>
      </trkpt>
      <trkpt lat="44.3259" lon="6.15988">
        <ele>1102.4000244</ele>
        <time>2018-08-17T12:26:25Z</time>
      </trkpt>
      <trkpt lat="44.32593" lon="6.15993">
        <ele>1102</ele>
        <time>2018-08-17T12:26:26Z</time>
      </trkpt>
      <trkpt lat="44.326" lon="6.16037">
        <ele>1098.8000488</ele>
        <time>2018-08-17T12:26:32Z</time>
      </trkpt>
      <trkpt lat="44.32601" lon="6.16044">
        <ele>1098.4000244</ele>
        <time>2018-08-17T12:26:33Z</time>
      </trkpt>
      <trkpt lat="44.32604" lon="6.16051">
        <ele>1098</ele>
        <time>2018-08-17T12:26:34Z</time>
      </trkpt>
      <trkpt lat="44.32607" lon="6.16058">
        <ele>1097.4000244</ele>
        <time>2018-08-17T12:26:35Z</time>
      </trkpt>
      <trkpt lat="44.3261" lon="6.16063">
        <ele>1097</ele>
        <time>2018-08-17T12:26:36Z</time>
      </trkpt>
      <trkpt lat="44.32612" lon="6.16068">
        <ele>1096.5999756</ele>
        <time>2018-08-17T12:26:37Z</time>
      </trkpt>
      <trkpt lat="44.32614" lon="6.16073">
        <ele>1096</ele>
        <time>2018-08-17T12:26:38Z</time>
      </trkpt>
      <trkpt lat="44.32626" lon="6.16108">
        <ele>1092.8000488</ele>
        <time>2018-08-17T12:26:44Z</time>
      </trkpt>
      <trkpt lat="44.32631" lon="6.16129">
        <ele>1091.5999756</ele>
        <time>2018-08-17T12:26:47Z</time>
      </trkpt>
      <trkpt lat="44.32634" lon="6.16135">
        <ele>1091</ele>
        <time>2018-08-17T12:26:48Z</time>
      </trkpt>
      <trkpt lat="44.32637" lon="6.16141">
        <ele>1090.5999756</ele>
        <time>2018-08-17T12:26:49Z</time>
      </trkpt>
      <trkpt lat="44.32643" lon="6.16156">
        <ele>1089.1999512</ele>
        <time>2018-08-17T12:26:51Z</time>
      </trkpt>
      <trkpt lat="44.32644" lon="6.16163">
        <ele>1088.5999756</ele>
        <time>2018-08-17T12:26:52Z</time>
      </trkpt>
      <trkpt lat="44.32656" lon="6.162">
        <ele>1085.5999756</ele>
        <time>2018-08-17T12:26:57Z</time>
      </trkpt>
      <trkpt lat="44.32662" lon="6.16218">
        <ele>1083.5999756</ele>
        <time>2018-08-17T12:27:03Z</time>
      </trkpt>
      <trkpt lat="44.32662" lon="6.1622">
        <ele>1083.4000244</ele>
        <time>2018-08-17T12:27:04Z</time>
      </trkpt>
      <trkpt lat="44.32663" lon="6.16222">
        <ele>1083.4000244</ele>
        <time>2018-08-17T12:27:05Z</time>
      </trkpt>
      <trkpt lat="44.32663" lon="6.16223">
        <ele>1083.1999512</ele>
        <time>2018-08-17T12:27:06Z</time>
      </trkpt>
      <trkpt lat="44.32662" lon="6.16231">
        <ele>1081.8000488</ele>
        <time>2018-08-17T12:27:12Z</time>
      </trkpt>
      <trkpt lat="44.32663" lon="6.16229">
        <ele>1081.8000488</ele>
        <time>2018-08-17T12:27:13Z</time>
      </trkpt>
      <trkpt lat="44.32662" lon="6.16227">
        <ele>1081.8000488</ele>
        <time>2018-08-17T12:27:14Z</time>
      </trkpt>
      <trkpt lat="44.32662" lon="6.16224">
        <ele>1081.5999756</ele>
        <time>2018-08-17T12:27:15Z</time>
      </trkpt>
      <trkpt lat="44.32661" lon="6.1622">
        <ele>1081.5999756</ele>
        <time>2018-08-17T12:27:16Z</time>
      </trkpt>
      <trkpt lat="44.32661" lon="6.16216">
        <ele>1081.4000244</ele>
        <time>2018-08-17T12:27:17Z</time>
      </trkpt>
      <trkpt lat="44.3266" lon="6.16212">
        <ele>1081.4000244</ele>
        <time>2018-08-17T12:27:18Z</time>
      </trkpt>
      <trkpt lat="44.32659" lon="6.16197">
        <ele>1080.8000488</ele>
        <time>2018-08-17T12:27:21Z</time>
      </trkpt>
      <trkpt lat="44.32658" lon="6.16192">
        <ele>1080.5999756</ele>
        <time>2018-08-17T12:27:22Z</time>
      </trkpt>
      <trkpt lat="44.32657" lon="6.16186">
        <ele>1080.5999756</ele>
        <time>2018-08-17T12:27:23Z</time>
      </trkpt>
      <trkpt lat="44.32657" lon="6.16181">
        <ele>1080.5999756</ele>
        <time>2018-08-17T12:27:24Z</time>
      </trkpt>
      <trkpt lat="44.32656" lon="6.16175">
        <ele>1080.4000244</ele>
        <time>2018-08-17T12:27:25Z</time>
      </trkpt>
      <trkpt lat="44.32656" lon="6.16169">
        <ele>1080.1999512</ele>
        <time>2018-08-17T12:27:26Z</time>
      </trkpt>
      <trkpt lat="44.32656" lon="6.16163">
        <ele>1080</ele>
        <time>2018-08-17T12:27:27Z</time>
      </trkpt>
      <trkpt lat="44.32659" lon="6.16124">
        <ele>1079.1999512</ele>
        <time>2018-08-17T12:27:33Z</time>
      </trkpt>
      <trkpt lat="44.32659" lon="6.16118">
        <ele>1078.8000488</ele>
        <time>2018-08-17T12:27:34Z</time>
      </trkpt>
      <trkpt lat="44.32662" lon="6.16078">
        <ele>1075.1999512</ele>
        <time>2018-08-17T12:27:41Z</time>
      </trkpt>
      <trkpt lat="44.32664" lon="6.16072">
        <ele>1074.8000488</ele>
        <time>2018-08-17T12:27:42Z</time>
      </trkpt>
      <trkpt lat="44.32672" lon="6.1604">
        <ele>1072.8000488</ele>
        <time>2018-08-17T12:27:47Z</time>
      </trkpt>
      <trkpt lat="44.32692" lon="6.15993">
        <ele>1069.5999756</ele>
        <time>2018-08-17T12:27:54Z</time>
      </trkpt>
      <trkpt lat="44.32701" lon="6.15976">
        <ele>1067.8000488</ele>
        <time>2018-08-17T12:27:57Z</time>
      </trkpt>
      <trkpt lat="44.32708" lon="6.15961">
        <ele>1066.4000244</ele>
        <time>2018-08-17T12:28:00Z</time>
      </trkpt>
      <trkpt lat="44.3271" lon="6.15956">
        <ele>1066</ele>
        <time>2018-08-17T12:28:01Z</time>
      </trkpt>
      <trkpt lat="44.32716" lon="6.15944">
        <ele>1064.1999512</ele>
        <time>2018-08-17T12:28:03Z</time>
      </trkpt>
      <trkpt lat="44.32718" lon="6.15939">
        <ele>1063.4000244</ele>
        <time>2018-08-17T12:28:04Z</time>
      </trkpt>
      <trkpt lat="44.32719" lon="6.15932">
        <ele>1062.8000488</ele>
        <time>2018-08-17T12:28:05Z</time>
      </trkpt>
      <trkpt lat="44.32722" lon="6.15919">
        <ele>1062</ele>
        <time>2018-08-17T12:28:07Z</time>
      </trkpt>
      <trkpt lat="44.32726" lon="6.15908">
        <ele>1061.1999512</ele>
        <time>2018-08-17T12:28:09Z</time>
      </trkpt>
      <trkpt lat="44.32728" lon="6.15903">
        <ele>1060.8000488</ele>
        <time>2018-08-17T12:28:10Z</time>
      </trkpt>
      <trkpt lat="44.32751" lon="6.15856">
        <ele>1057.8000488</ele>
        <time>2018-08-17T12:28:17Z</time>
      </trkpt>
      <trkpt lat="44.32758" lon="6.15844">
        <ele>1056.5999756</ele>
        <time>2018-08-17T12:28:19Z</time>
      </trkpt>
      <trkpt lat="44.32761" lon="6.1584">
        <ele>1056.1999512</ele>
        <time>2018-08-17T12:28:20Z</time>
      </trkpt>
      <trkpt lat="44.32772" lon="6.15823">
        <ele>1054.1999512</ele>
        <time>2018-08-17T12:28:24Z</time>
      </trkpt>
      <trkpt lat="44.32775" lon="6.15818">
        <ele>1054</ele>
        <time>2018-08-17T12:28:25Z</time>
      </trkpt>
      <trkpt lat="44.3278" lon="6.15812">
        <ele>1053.4000244</ele>
        <time>2018-08-17T12:28:26Z</time>
      </trkpt>
      <trkpt lat="44.32784" lon="6.15806">
        <ele>1052.1999512</ele>
        <time>2018-08-17T12:28:27Z</time>
      </trkpt>
      <trkpt lat="44.32789" lon="6.158">
        <ele>1051.5999756</ele>
        <time>2018-08-17T12:28:28Z</time>
      </trkpt>
      <trkpt lat="44.328" lon="6.15783">
        <ele>1049.8000488</ele>
        <time>2018-08-17T12:28:31Z</time>
      </trkpt>
      <trkpt lat="44.32802" lon="6.15777">
        <ele>1049.5999756</ele>
        <time>2018-08-17T12:28:32Z</time>
      </trkpt>
      <trkpt lat="44.32805" lon="6.15771">
        <ele>1049.4000244</ele>
        <time>2018-08-17T12:28:33Z</time>
      </trkpt>
      <trkpt lat="44.32813" lon="6.15743">
        <ele>1047.4000244</ele>
        <time>2018-08-17T12:28:38Z</time>
      </trkpt>
      <trkpt lat="44.32814" lon="6.15737">
        <ele>1046.8000488</ele>
        <time>2018-08-17T12:28:39Z</time>
      </trkpt>
      <trkpt lat="44.32816" lon="6.15725">
        <ele>1045.5999756</ele>
        <time>2018-08-17T12:28:41Z</time>
      </trkpt>
      <trkpt lat="44.32821" lon="6.15697">
        <ele>1044.1999512</ele>
        <time>2018-08-17T12:28:45Z</time>
      </trkpt>
      <trkpt lat="44.32823" lon="6.15689">
        <ele>1043.8000488</ele>
        <time>2018-08-17T12:28:46Z</time>
      </trkpt>
      <trkpt lat="44.32823" lon="6.15683">
        <ele>1043.4000244</ele>
        <time>2018-08-17T12:28:47Z</time>
      </trkpt>
      <trkpt lat="44.32822" lon="6.15678">
        <ele>1043</ele>
        <time>2018-08-17T12:28:48Z</time>
      </trkpt>
      <trkpt lat="44.32822" lon="6.15672">
        <ele>1042.8000488</ele>
        <time>2018-08-17T12:28:49Z</time>
      </trkpt>
      <trkpt lat="44.32816" lon="6.15647">
        <ele>1039.8000488</ele>
        <time>2018-08-17T12:28:54Z</time>
      </trkpt>
      <trkpt lat="44.32816" lon="6.1564">
        <ele>1038.8000488</ele>
        <time>2018-08-17T12:28:56Z</time>
      </trkpt>
      <trkpt lat="44.32818" lon="6.15636">
        <ele>1038.4000244</ele>
        <time>2018-08-17T12:28:57Z</time>
      </trkpt>
      <trkpt lat="44.32819" lon="6.15633">
        <ele>1038.4000244</ele>
        <time>2018-08-17T12:28:58Z</time>
      </trkpt>
      <trkpt lat="44.32821" lon="6.15631">
        <ele>1038</ele>
        <time>2018-08-17T12:28:59Z</time>
      </trkpt>
      <trkpt lat="44.32823" lon="6.15629">
        <ele>1037.8000488</ele>
        <time>2018-08-17T12:29:00Z</time>
      </trkpt>
      <trkpt lat="44.32826" lon="6.15626">
        <ele>1035.1999512</ele>
        <time>2018-08-17T12:29:16Z</time>
      </trkpt>
      <trkpt lat="44.32827" lon="6.15626">
        <ele>1035</ele>
        <time>2018-08-17T12:29:24Z</time>
      </trkpt>
      <trkpt lat="44.32828" lon="6.15627">
        <ele>1035</ele>
        <time>2018-08-17T12:29:25Z</time>
      </trkpt>
      <trkpt lat="44.32832" lon="6.15631">
        <ele>1035</ele>
        <time>2018-08-17T12:29:27Z</time>
      </trkpt>
      <trkpt lat="44.32833" lon="6.15634">
        <ele>1035</ele>
        <time>2018-08-17T12:29:28Z</time>
      </trkpt>
      <trkpt lat="44.32834" lon="6.15638">
        <ele>1035</ele>
        <time>2018-08-17T12:29:29Z</time>
      </trkpt>
      <trkpt lat="44.32839" lon="6.15668">
        <ele>1035</ele>
        <time>2018-08-17T12:29:35Z</time>
      </trkpt>
      <trkpt lat="44.32839" lon="6.15674">
        <ele>1034.8000488</ele>
        <time>2018-08-17T12:29:36Z</time>
      </trkpt>
      <trkpt lat="44.32839" lon="6.157">
        <ele>1034.5999756</ele>
        <time>2018-08-17T12:29:40Z</time>
      </trkpt>
      <trkpt lat="44.3284" lon="6.15714">
        <ele>1034.4000244</ele>
        <time>2018-08-17T12:29:42Z</time>
      </trkpt>
      <trkpt lat="44.32841" lon="6.15744">
        <ele>1033.8000488</ele>
        <time>2018-08-17T12:29:46Z</time>
      </trkpt>
      <trkpt lat="44.32843" lon="6.15751">
        <ele>1033.4000244</ele>
        <time>2018-08-17T12:29:47Z</time>
      </trkpt>
      <trkpt lat="44.32843" lon="6.15759">
        <ele>1033</ele>
        <time>2018-08-17T12:29:48Z</time>
      </trkpt>
      <trkpt lat="44.32844" lon="6.15814">
        <ele>1029.8000488</ele>
        <time>2018-08-17T12:29:55Z</time>
      </trkpt>
      <trkpt lat="44.32843" lon="6.15821">
        <ele>1029.4000244</ele>
        <time>2018-08-17T12:29:56Z</time>
      </trkpt>
      <trkpt lat="44.32841" lon="6.15876">
        <ele>1025.8000488</ele>
        <time>2018-08-17T12:30:03Z</time>
      </trkpt>
      <trkpt lat="44.32841" lon="6.15883">
        <ele>1025.1999512</ele>
        <time>2018-08-17T12:30:04Z</time>
      </trkpt>
      <trkpt lat="44.32842" lon="6.15889">
        <ele>1024.5999756</ele>
        <time>2018-08-17T12:30:05Z</time>
      </trkpt>
      <trkpt lat="44.32842" lon="6.15895">
        <ele>1023.2000122</ele>
        <time>2018-08-17T12:30:06Z</time>
      </trkpt>
      <trkpt lat="44.32843" lon="6.15901">
        <ele>1022.7999878</ele>
        <time>2018-08-17T12:30:07Z</time>
      </trkpt>
      <trkpt lat="44.32842" lon="6.15908">
        <ele>1022.4000244</ele>
        <time>2018-08-17T12:30:08Z</time>
      </trkpt>
      <trkpt lat="44.32841" lon="6.15915">
        <ele>1021.7999878</ele>
        <time>2018-08-17T12:30:09Z</time>
      </trkpt>
      <trkpt lat="44.3284" lon="6.15921">
        <ele>1021.5999756</ele>
        <time>2018-08-17T12:30:10Z</time>
      </trkpt>
      <trkpt lat="44.3284" lon="6.15934">
        <ele>1019.7999878</ele>
        <time>2018-08-17T12:30:12Z</time>
      </trkpt>
      <trkpt lat="44.3284" lon="6.1594">
        <ele>1019.2000122</ele>
        <time>2018-08-17T12:30:13Z</time>
      </trkpt>
      <trkpt lat="44.32841" lon="6.15944">
        <ele>1018.4000244</ele>
        <time>2018-08-17T12:30:14Z</time>
      </trkpt>
      <trkpt lat="44.32839" lon="6.15948">
        <ele>1018.2000122</ele>
        <time>2018-08-17T12:30:15Z</time>
      </trkpt>
      <trkpt lat="44.32837" lon="6.15953">
        <ele>1017.7999878</ele>
        <time>2018-08-17T12:30:16Z</time>
      </trkpt>
      <trkpt lat="44.32835" lon="6.15958">
        <ele>1017.4000244</ele>
        <time>2018-08-17T12:30:17Z</time>
      </trkpt>
      <trkpt lat="44.32832" lon="6.15963">
        <ele>1017</ele>
        <time>2018-08-17T12:30:18Z</time>
      </trkpt>
      <trkpt lat="44.32829" lon="6.15968">
        <ele>1016.5999756</ele>
        <time>2018-08-17T12:30:19Z</time>
      </trkpt>
      <trkpt lat="44.32828" lon="6.15974">
        <ele>1016.2000122</ele>
        <time>2018-08-17T12:30:20Z</time>
      </trkpt>
      <trkpt lat="44.32827" lon="6.15979">
        <ele>1015.7999878</ele>
        <time>2018-08-17T12:30:21Z</time>
      </trkpt>
      <trkpt lat="44.32828" lon="6.15983">
        <ele>1015.4000244</ele>
        <time>2018-08-17T12:30:22Z</time>
      </trkpt>
      <trkpt lat="44.32831" lon="6.15988">
        <ele>1015</ele>
        <time>2018-08-17T12:30:23Z</time>
      </trkpt>
      <trkpt lat="44.32834" lon="6.15993">
        <ele>1014.4000244</ele>
        <time>2018-08-17T12:30:24Z</time>
      </trkpt>
      <trkpt lat="44.32837" lon="6.15997">
        <ele>1014</ele>
        <time>2018-08-17T12:30:25Z</time>
      </trkpt>
      <trkpt lat="44.32851" lon="6.16012">
        <ele>1012</ele>
        <time>2018-08-17T12:30:29Z</time>
      </trkpt>
      <trkpt lat="44.32871" lon="6.16043">
        <ele>1009</ele>
        <time>2018-08-17T12:30:37Z</time>
      </trkpt>
      <trkpt lat="44.32872" lon="6.16048">
        <ele>1008.4000244</ele>
        <time>2018-08-17T12:30:38Z</time>
      </trkpt>
      <trkpt lat="44.32873" lon="6.16053">
        <ele>1008</ele>
        <time>2018-08-17T12:30:39Z</time>
      </trkpt>
      <trkpt lat="44.32876" lon="6.16059">
        <ele>1007.4000244</ele>
        <time>2018-08-17T12:30:40Z</time>
      </trkpt>
      <trkpt lat="44.32878" lon="6.16066">
        <ele>1007</ele>
        <time>2018-08-17T12:30:41Z</time>
      </trkpt>
      <trkpt lat="44.3288" lon="6.16073">
        <ele>1006.5999756</ele>
        <time>2018-08-17T12:30:42Z</time>
      </trkpt>
      <trkpt lat="44.32887" lon="6.161">
        <ele>1004.2000122</ele>
        <time>2018-08-17T12:30:46Z</time>
      </trkpt>
      <trkpt lat="44.32891" lon="6.16118">
        <ele>1002.7999878</ele>
        <time>2018-08-17T12:30:49Z</time>
      </trkpt>
      <trkpt lat="44.32891" lon="6.16124">
        <ele>1002.4000244</ele>
        <time>2018-08-17T12:30:50Z</time>
      </trkpt>
      <trkpt lat="44.32892" lon="6.16129">
        <ele>1002</ele>
        <time>2018-08-17T12:30:51Z</time>
      </trkpt>
      <trkpt lat="44.32893" lon="6.16133">
        <ele>1001.4000244</ele>
        <time>2018-08-17T12:30:52Z</time>
      </trkpt>
      <trkpt lat="44.32895" lon="6.16134">
        <ele>1001</ele>
        <time>2018-08-17T12:30:53Z</time>
      </trkpt>
      <trkpt lat="44.32897" lon="6.16134">
        <ele>1000.4000244</ele>
        <time>2018-08-17T12:30:54Z</time>
      </trkpt>
      <trkpt lat="44.329" lon="6.16133">
        <ele>999.4000244</ele>
        <time>2018-08-17T12:30:55Z</time>
      </trkpt>
      <trkpt lat="44.32902" lon="6.16131">
        <ele>999</ele>
        <time>2018-08-17T12:30:56Z</time>
      </trkpt>
      <trkpt lat="44.32904" lon="6.16128">
        <ele>998.5999756</ele>
        <time>2018-08-17T12:30:57Z</time>
      </trkpt>
      <trkpt lat="44.32905" lon="6.16123">
        <ele>998.2000122</ele>
        <time>2018-08-17T12:30:58Z</time>
      </trkpt>
      <trkpt lat="44.32905" lon="6.16118">
        <ele>998</ele>
        <time>2018-08-17T12:30:59Z</time>
      </trkpt>
      <trkpt lat="44.32904" lon="6.16112">
        <ele>997.5999756</ele>
        <time>2018-08-17T12:31:00Z</time>
      </trkpt>
      <trkpt lat="44.32905" lon="6.16089">
        <ele>997</ele>
        <time>2018-08-17T12:31:04Z</time>
      </trkpt>
      <trkpt lat="44.32907" lon="6.16084">
        <ele>997</ele>
        <time>2018-08-17T12:31:05Z</time>
      </trkpt>
      <trkpt lat="44.32908" lon="6.16077">
        <ele>996.7999878</ele>
        <time>2018-08-17T12:31:06Z</time>
      </trkpt>
      <trkpt lat="44.32913" lon="6.1605">
        <ele>996.4000244</ele>
        <time>2018-08-17T12:31:10Z</time>
      </trkpt>
      <trkpt lat="44.32913" lon="6.16045">
        <ele>996.2000122</ele>
        <time>2018-08-17T12:31:11Z</time>
      </trkpt>
      <trkpt lat="44.32914" lon="6.16039">
        <ele>995.7999878</ele>
        <time>2018-08-17T12:31:12Z</time>
      </trkpt>
      <trkpt lat="44.32914" lon="6.16033">
        <ele>995.4000244</ele>
        <time>2018-08-17T12:31:13Z</time>
      </trkpt>
      <trkpt lat="44.32914" lon="6.16028">
        <ele>995</ele>
        <time>2018-08-17T12:31:14Z</time>
      </trkpt>
      <trkpt lat="44.32914" lon="6.16022">
        <ele>994.5999756</ele>
        <time>2018-08-17T12:31:15Z</time>
      </trkpt>
      <trkpt lat="44.32913" lon="6.16017">
        <ele>994.2000122</ele>
        <time>2018-08-17T12:31:16Z</time>
      </trkpt>
      <trkpt lat="44.32911" lon="6.16013">
        <ele>993.7999878</ele>
        <time>2018-08-17T12:31:17Z</time>
      </trkpt>
      <trkpt lat="44.32909" lon="6.16009">
        <ele>993</ele>
        <time>2018-08-17T12:31:18Z</time>
      </trkpt>
      <trkpt lat="44.32907" lon="6.16005">
        <ele>991.7999878</ele>
        <time>2018-08-17T12:31:19Z</time>
      </trkpt>
      <trkpt lat="44.32904" lon="6.16002">
        <ele>991.2000122</ele>
        <time>2018-08-17T12:31:20Z</time>
      </trkpt>
      <trkpt lat="44.32902" lon="6.15998">
        <ele>990.7999878</ele>
        <time>2018-08-17T12:31:21Z</time>
      </trkpt>
      <trkpt lat="44.32892" lon="6.15971">
        <ele>987.2000122</ele>
        <time>2018-08-17T12:31:29Z</time>
      </trkpt>
      <trkpt lat="44.32893" lon="6.15968">
        <ele>986.5999756</ele>
        <time>2018-08-17T12:31:30Z</time>
      </trkpt>
      <trkpt lat="44.32895" lon="6.15963">
        <ele>986</ele>
        <time>2018-08-17T12:31:31Z</time>
      </trkpt>
      <trkpt lat="44.32898" lon="6.15958">
        <ele>985.5999756</ele>
        <time>2018-08-17T12:31:32Z</time>
      </trkpt>
      <trkpt lat="44.32901" lon="6.15954">
        <ele>985</ele>
        <time>2018-08-17T12:31:33Z</time>
      </trkpt>
      <trkpt lat="44.32904" lon="6.15948">
        <ele>984.5999756</ele>
        <time>2018-08-17T12:31:34Z</time>
      </trkpt>
      <trkpt lat="44.32908" lon="6.15943">
        <ele>984.4000244</ele>
        <time>2018-08-17T12:31:35Z</time>
      </trkpt>
      <trkpt lat="44.32911" lon="6.15938">
        <ele>984.2000122</ele>
        <time>2018-08-17T12:31:36Z</time>
      </trkpt>
      <trkpt lat="44.32928" lon="6.15912">
        <ele>983</ele>
        <time>2018-08-17T12:31:42Z</time>
      </trkpt>
      <trkpt lat="44.3293" lon="6.15906">
        <ele>982.7999878</ele>
        <time>2018-08-17T12:31:43Z</time>
      </trkpt>
      <trkpt lat="44.32931" lon="6.15899">
        <ele>982.2000122</ele>
        <time>2018-08-17T12:31:44Z</time>
      </trkpt>
      <trkpt lat="44.32938" lon="6.15872">
        <ele>981</ele>
        <time>2018-08-17T12:31:48Z</time>
      </trkpt>
      <trkpt lat="44.32939" lon="6.15866">
        <ele>980.7999878</ele>
        <time>2018-08-17T12:31:49Z</time>
      </trkpt>
      <trkpt lat="44.32941" lon="6.15848">
        <ele>980</ele>
        <time>2018-08-17T12:31:52Z</time>
      </trkpt>
      <trkpt lat="44.3295" lon="6.15815">
        <ele>976.7999878</ele>
        <time>2018-08-17T12:31:59Z</time>
      </trkpt>
      <trkpt lat="44.32953" lon="6.1581">
        <ele>976.2000122</ele>
        <time>2018-08-17T12:32:00Z</time>
      </trkpt>
      <trkpt lat="44.32957" lon="6.15806">
        <ele>975.7999878</ele>
        <time>2018-08-17T12:32:01Z</time>
      </trkpt>
      <trkpt lat="44.3296" lon="6.15802">
        <ele>975.4000244</ele>
        <time>2018-08-17T12:32:02Z</time>
      </trkpt>
      <trkpt lat="44.32964" lon="6.15799">
        <ele>975</ele>
        <time>2018-08-17T12:32:03Z</time>
      </trkpt>
      <trkpt lat="44.32966" lon="6.15796">
        <ele>974.5999756</ele>
        <time>2018-08-17T12:32:04Z</time>
      </trkpt>
      <trkpt lat="44.32969" lon="6.15793">
        <ele>974.2000122</ele>
        <time>2018-08-17T12:32:05Z</time>
      </trkpt>
      <trkpt lat="44.32977" lon="6.15777">
        <ele>972.4000244</ele>
        <time>2018-08-17T12:32:09Z</time>
      </trkpt>
      <trkpt lat="44.32979" lon="6.15772">
        <ele>972</ele>
        <time>2018-08-17T12:32:10Z</time>
      </trkpt>
      <trkpt lat="44.3298" lon="6.15768">
        <ele>971.4000244</ele>
        <time>2018-08-17T12:32:11Z</time>
      </trkpt>
      <trkpt lat="44.3298" lon="6.15764">
        <ele>971</ele>
        <time>2018-08-17T12:32:12Z</time>
      </trkpt>
      <trkpt lat="44.32981" lon="6.1576">
        <ele>970.5999756</ele>
        <time>2018-08-17T12:32:13Z</time>
      </trkpt>
      <trkpt lat="44.32969" lon="6.15728">
        <ele>967.2000122</ele>
        <time>2018-08-17T12:32:21Z</time>
      </trkpt>
      <trkpt lat="44.32968" lon="6.15713">
        <ele>965.7999878</ele>
        <time>2018-08-17T12:32:24Z</time>
      </trkpt>
      <trkpt lat="44.32969" lon="6.15707">
        <ele>965.5999756</ele>
        <time>2018-08-17T12:32:25Z</time>
      </trkpt>
      <trkpt lat="44.32971" lon="6.15702">
        <ele>965.2000122</ele>
        <time>2018-08-17T12:32:26Z</time>
      </trkpt>
      <trkpt lat="44.32974" lon="6.15697">
        <ele>964.7999878</ele>
        <time>2018-08-17T12:32:27Z</time>
      </trkpt>
      <trkpt lat="44.32977" lon="6.15691">
        <ele>964.5999756</ele>
        <time>2018-08-17T12:32:28Z</time>
      </trkpt>
      <trkpt lat="44.32981" lon="6.15681">
        <ele>964.4000244</ele>
        <time>2018-08-17T12:32:30Z</time>
      </trkpt>
      <trkpt lat="44.32983" lon="6.15675">
        <ele>964.2000122</ele>
        <time>2018-08-17T12:32:31Z</time>
      </trkpt>
      <trkpt lat="44.32984" lon="6.1567">
        <ele>964</ele>
        <time>2018-08-17T12:32:32Z</time>
      </trkpt>
      <trkpt lat="44.3299" lon="6.15616">
        <ele>961</ele>
        <time>2018-08-17T12:32:40Z</time>
      </trkpt>
      <trkpt lat="44.32991" lon="6.15595">
        <ele>959</ele>
        <time>2018-08-17T12:32:44Z</time>
      </trkpt>
      <trkpt lat="44.32991" lon="6.15588">
        <ele>958.2000122</ele>
        <time>2018-08-17T12:32:45Z</time>
      </trkpt>
      <trkpt lat="44.3299" lon="6.1558">
        <ele>957.7999878</ele>
        <time>2018-08-17T12:32:46Z</time>
      </trkpt>
      <trkpt lat="44.32989" lon="6.15573">
        <ele>957.5999756</ele>
        <time>2018-08-17T12:32:47Z</time>
      </trkpt>
      <trkpt lat="44.3298" lon="6.15536">
        <ele>954.4000244</ele>
        <time>2018-08-17T12:32:53Z</time>
      </trkpt>
      <trkpt lat="44.32974" lon="6.15507">
        <ele>951.4000244</ele>
        <time>2018-08-17T12:32:58Z</time>
      </trkpt>
      <trkpt lat="44.32972" lon="6.15489">
        <ele>949</ele>
        <time>2018-08-17T12:33:01Z</time>
      </trkpt>
      <trkpt lat="44.32973" lon="6.15482">
        <ele>948.5999756</ele>
        <time>2018-08-17T12:33:02Z</time>
      </trkpt>
      <trkpt lat="44.32973" lon="6.15476">
        <ele>948</ele>
        <time>2018-08-17T12:33:03Z</time>
      </trkpt>
      <trkpt lat="44.32972" lon="6.1547">
        <ele>947.4000244</ele>
        <time>2018-08-17T12:33:04Z</time>
      </trkpt>
      <trkpt lat="44.32971" lon="6.15463">
        <ele>947.2000122</ele>
        <time>2018-08-17T12:33:05Z</time>
      </trkpt>
      <trkpt lat="44.32971" lon="6.15457">
        <ele>947</ele>
        <time>2018-08-17T12:33:06Z</time>
      </trkpt>
      <trkpt lat="44.32967" lon="6.15439">
        <ele>946</ele>
        <time>2018-08-17T12:33:09Z</time>
      </trkpt>
      <trkpt lat="44.32965" lon="6.15402">
        <ele>942.7999878</ele>
        <time>2018-08-17T12:33:15Z</time>
      </trkpt>
      <trkpt lat="44.32972" lon="6.1537">
        <ele>938.7999878</ele>
        <time>2018-08-17T12:33:22Z</time>
      </trkpt>
      <trkpt lat="44.32988" lon="6.15355">
        <ele>936.4000244</ele>
        <time>2018-08-17T12:33:26Z</time>
      </trkpt>
      <trkpt lat="44.32992" lon="6.15351">
        <ele>936</ele>
        <time>2018-08-17T12:33:27Z</time>
      </trkpt>
      <trkpt lat="44.32999" lon="6.15341">
        <ele>935</ele>
        <time>2018-08-17T12:33:29Z</time>
      </trkpt>
      <trkpt lat="44.33003" lon="6.15336">
        <ele>934.5999756</ele>
        <time>2018-08-17T12:33:30Z</time>
      </trkpt>
      <trkpt lat="44.33005" lon="6.15331">
        <ele>934.4000244</ele>
        <time>2018-08-17T12:33:31Z</time>
      </trkpt>
      <trkpt lat="44.33008" lon="6.15325">
        <ele>934</ele>
        <time>2018-08-17T12:33:32Z</time>
      </trkpt>
      <trkpt lat="44.33009" lon="6.1532">
        <ele>933.7999878</ele>
        <time>2018-08-17T12:33:33Z</time>
      </trkpt>
      <trkpt lat="44.33009" lon="6.15313">
        <ele>933.5999756</ele>
        <time>2018-08-17T12:33:34Z</time>
      </trkpt>
      <trkpt lat="44.33009" lon="6.15306">
        <ele>933</ele>
        <time>2018-08-17T12:33:35Z</time>
      </trkpt>
      <trkpt lat="44.33007" lon="6.15267">
        <ele>929.5999756</ele>
        <time>2018-08-17T12:33:40Z</time>
      </trkpt>
      <trkpt lat="44.33004" lon="6.15247">
        <ele>928.2000122</ele>
        <time>2018-08-17T12:33:43Z</time>
      </trkpt>
      <trkpt lat="44.32999" lon="6.15227">
        <ele>926.5999756</ele>
        <time>2018-08-17T12:33:46Z</time>
      </trkpt>
      <trkpt lat="44.32996" lon="6.15222">
        <ele>925.4000244</ele>
        <time>2018-08-17T12:33:47Z</time>
      </trkpt>
      <trkpt lat="44.32993" lon="6.15217">
        <ele>924.7999878</ele>
        <time>2018-08-17T12:33:48Z</time>
      </trkpt>
      <trkpt lat="44.32986" lon="6.15207">
        <ele>923.4000244</ele>
        <time>2018-08-17T12:33:50Z</time>
      </trkpt>
      <trkpt lat="44.32983" lon="6.15201">
        <ele>922.7999878</ele>
        <time>2018-08-17T12:33:51Z</time>
      </trkpt>
      <trkpt lat="44.32981" lon="6.15195">
        <ele>922.2000122</ele>
        <time>2018-08-17T12:33:52Z</time>
      </trkpt>
      <trkpt lat="44.32979" lon="6.15189">
        <ele>921.7999878</ele>
        <time>2018-08-17T12:33:53Z</time>
      </trkpt>
      <trkpt lat="44.32978" lon="6.15182">
        <ele>921.4000244</ele>
        <time>2018-08-17T12:33:54Z</time>
      </trkpt>
      <trkpt lat="44.32978" lon="6.15175">
        <ele>920.7999878</ele>
        <time>2018-08-17T12:33:55Z</time>
      </trkpt>
      <trkpt lat="44.32978" lon="6.15168">
        <ele>920.2000122</ele>
        <time>2018-08-17T12:33:56Z</time>
      </trkpt>
      <trkpt lat="44.32981" lon="6.15145">
        <ele>919.2000122</ele>
        <time>2018-08-17T12:33:59Z</time>
      </trkpt>
      <trkpt lat="44.32983" lon="6.15085">
        <ele>916.5999756</ele>
        <time>2018-08-17T12:34:09Z</time>
      </trkpt>
      <trkpt lat="44.32974" lon="6.15076">
        <ele>915</ele>
        <time>2018-08-17T12:34:12Z</time>
      </trkpt>
      <trkpt lat="44.32971" lon="6.15074">
        <ele>914.4000244</ele>
        <time>2018-08-17T12:34:13Z</time>
      </trkpt>
      <trkpt lat="44.32968" lon="6.15072">
        <ele>913.7999878</ele>
        <time>2018-08-17T12:34:14Z</time>
      </trkpt>
      <trkpt lat="44.32958" lon="6.15066">
        <ele>912.5999756</ele>
        <time>2018-08-17T12:34:17Z</time>
      </trkpt>
      <trkpt lat="44.32959" lon="6.15037">
        <ele>910.7999878</ele>
        <time>2018-08-17T12:34:27Z</time>
      </trkpt>
      <trkpt lat="44.32968" lon="6.15029">
        <ele>909.4000244</ele>
        <time>2018-08-17T12:34:44Z</time>
      </trkpt>
      <trkpt lat="44.32971" lon="6.1503">
        <ele>909.4000244</ele>
        <time>2018-08-17T12:34:49Z</time>
      </trkpt>
      <trkpt lat="44.32976" lon="6.15033">
        <ele>909.4000244</ele>
        <time>2018-08-17T12:34:51Z</time>
      </trkpt>
      <trkpt lat="44.33002" lon="6.15071">
        <ele>909.2000122</ele>
        <time>2018-08-17T12:35:01Z</time>
      </trkpt>
      <trkpt lat="44.33005" lon="6.15083">
        <ele>908.7999878</ele>
        <time>2018-08-17T12:35:03Z</time>
      </trkpt>
      <trkpt lat="44.33008" lon="6.15146">
        <ele>907.2000122</ele>
        <time>2018-08-17T12:35:11Z</time>
      </trkpt>
      <trkpt lat="44.3301" lon="6.15153">
        <ele>906.5999756</ele>
        <time>2018-08-17T12:35:12Z</time>
      </trkpt>
      <trkpt lat="44.33015" lon="6.15166">
        <ele>905.7999878</ele>
        <time>2018-08-17T12:35:14Z</time>
      </trkpt>
      <trkpt lat="44.33019" lon="6.15171">
        <ele>905.2000122</ele>
        <time>2018-08-17T12:35:15Z</time>
      </trkpt>
      <trkpt lat="44.33028" lon="6.1518">
        <ele>903.7999878</ele>
        <time>2018-08-17T12:35:17Z</time>
      </trkpt>
      <trkpt lat="44.33032" lon="6.15183">
        <ele>902.7999878</ele>
        <time>2018-08-17T12:35:18Z</time>
      </trkpt>
      <trkpt lat="44.33035" lon="6.15185">
        <ele>902.2000122</ele>
        <time>2018-08-17T12:35:19Z</time>
      </trkpt>
      <trkpt lat="44.3304" lon="6.15186">
        <ele>901.4000244</ele>
        <time>2018-08-17T12:35:20Z</time>
      </trkpt>
      <trkpt lat="44.33045" lon="6.15187">
        <ele>901</ele>
        <time>2018-08-17T12:35:21Z</time>
      </trkpt>
      <trkpt lat="44.33077" lon="6.15191">
        <ele>897.4000244</ele>
        <time>2018-08-17T12:35:28Z</time>
      </trkpt>
      <trkpt lat="44.3309" lon="6.15191">
        <ele>896.2000122</ele>
        <time>2018-08-17T12:35:31Z</time>
      </trkpt>
      <trkpt lat="44.33094" lon="6.15192">
        <ele>895.5999756</ele>
        <time>2018-08-17T12:35:32Z</time>
      </trkpt>
      <trkpt lat="44.33098" lon="6.15195">
        <ele>894.7999878</ele>
        <time>2018-08-17T12:35:33Z</time>
      </trkpt>
      <trkpt lat="44.33102" lon="6.15198">
        <ele>894.4000244</ele>
        <time>2018-08-17T12:35:34Z</time>
      </trkpt>
      <trkpt lat="44.33105" lon="6.15201">
        <ele>893.7999878</ele>
        <time>2018-08-17T12:35:35Z</time>
      </trkpt>
      <trkpt lat="44.33108" lon="6.15204">
        <ele>893</ele>
        <time>2018-08-17T12:35:36Z</time>
      </trkpt>
      <trkpt lat="44.3311" lon="6.15209">
        <ele>892.5999756</ele>
        <time>2018-08-17T12:35:37Z</time>
      </trkpt>
      <trkpt lat="44.33112" lon="6.15214">
        <ele>892</ele>
        <time>2018-08-17T12:35:38Z</time>
      </trkpt>
      <trkpt lat="44.33114" lon="6.15219">
        <ele>891.5999756</ele>
        <time>2018-08-17T12:35:39Z</time>
      </trkpt>
      <trkpt lat="44.33116" lon="6.15225">
        <ele>891.2000122</ele>
        <time>2018-08-17T12:35:40Z</time>
      </trkpt>
      <trkpt lat="44.33118" lon="6.15231">
        <ele>890.7999878</ele>
        <time>2018-08-17T12:35:41Z</time>
      </trkpt>
      <trkpt lat="44.3312" lon="6.15237">
        <ele>890.4000244</ele>
        <time>2018-08-17T12:35:42Z</time>
      </trkpt>
      <trkpt lat="44.33122" lon="6.15244">
        <ele>890</ele>
        <time>2018-08-17T12:35:43Z</time>
      </trkpt>
      <trkpt lat="44.33122" lon="6.1525">
        <ele>889.5999756</ele>
        <time>2018-08-17T12:35:44Z</time>
      </trkpt>
      <trkpt lat="44.33123" lon="6.15256">
        <ele>889.2000122</ele>
        <time>2018-08-17T12:35:45Z</time>
      </trkpt>
      <trkpt lat="44.33124" lon="6.15262">
        <ele>888.5999756</ele>
        <time>2018-08-17T12:35:46Z</time>
      </trkpt>
      <trkpt lat="44.33125" lon="6.15267">
        <ele>888.2000122</ele>
        <time>2018-08-17T12:35:47Z</time>
      </trkpt>
      <trkpt lat="44.33128" lon="6.15271">
        <ele>887.7999878</ele>
        <time>2018-08-17T12:35:48Z</time>
      </trkpt>
      <trkpt lat="44.3313" lon="6.15275">
        <ele>886.7999878</ele>
        <time>2018-08-17T12:35:49Z</time>
      </trkpt>
      <trkpt lat="44.33133" lon="6.15277">
        <ele>886.4000244</ele>
        <time>2018-08-17T12:35:50Z</time>
      </trkpt>
      <trkpt lat="44.33137" lon="6.15278">
        <ele>885.7999878</ele>
        <time>2018-08-17T12:35:51Z</time>
      </trkpt>
      <trkpt lat="44.3314" lon="6.15279">
        <ele>885.4000244</ele>
        <time>2018-08-17T12:35:52Z</time>
      </trkpt>
      <trkpt lat="44.33143" lon="6.15279">
        <ele>885.2000122</ele>
        <time>2018-08-17T12:35:53Z</time>
      </trkpt>
      <trkpt lat="44.33169" lon="6.15269">
        <ele>882.7999878</ele>
        <time>2018-08-17T12:36:00Z</time>
      </trkpt>
      <trkpt lat="44.33171" lon="6.15268">
        <ele>882.5999756</ele>
        <time>2018-08-17T12:36:01Z</time>
      </trkpt>
      <trkpt lat="44.33173" lon="6.15268">
        <ele>882.4000244</ele>
        <time>2018-08-17T12:36:02Z</time>
      </trkpt>
      <trkpt lat="44.33175" lon="6.15268">
        <ele>882</ele>
        <time>2018-08-17T12:36:03Z</time>
      </trkpt>
      <trkpt lat="44.33177" lon="6.15268">
        <ele>881.5999756</ele>
        <time>2018-08-17T12:36:04Z</time>
      </trkpt>
      <trkpt lat="44.33179" lon="6.15268">
        <ele>881</ele>
        <time>2018-08-17T12:36:05Z</time>
      </trkpt>
      <trkpt lat="44.332" lon="6.15286">
        <ele>878</ele>
        <time>2018-08-17T12:36:12Z</time>
      </trkpt>
      <trkpt lat="44.33235" lon="6.15303">
        <ele>875.2000122</ele>
        <time>2018-08-17T12:36:23Z</time>
      </trkpt>
      <trkpt lat="44.33255" lon="6.15307">
        <ele>873.5999756</ele>
        <time>2018-08-17T12:36:31Z</time>
      </trkpt>
      <trkpt lat="44.33284" lon="6.15298">
        <ele>873.2000122</ele>
        <time>2018-08-17T12:36:41Z</time>
      </trkpt>
      <trkpt lat="44.33313" lon="6.15271">
        <ele>872</ele>
        <time>2018-08-17T12:36:52Z</time>
      </trkpt>
      <trkpt lat="44.3333" lon="6.15279">
        <ele>870.2000122</ele>
        <time>2018-08-17T12:36:58Z</time>
      </trkpt>
      <trkpt lat="44.33331" lon="6.15283">
        <ele>869.7999878</ele>
        <time>2018-08-17T12:36:59Z</time>
      </trkpt>
      <trkpt lat="44.33332" lon="6.15288">
        <ele>869.4000244</ele>
        <time>2018-08-17T12:37:00Z</time>
      </trkpt>
      <trkpt lat="44.33332" lon="6.15292">
        <ele>869.2000122</ele>
        <time>2018-08-17T12:37:01Z</time>
      </trkpt>
      <trkpt lat="44.33332" lon="6.15297">
        <ele>868.7999878</ele>
        <time>2018-08-17T12:37:02Z</time>
      </trkpt>
      <trkpt lat="44.33332" lon="6.15303">
        <ele>868.5999756</ele>
        <time>2018-08-17T12:37:03Z</time>
      </trkpt>
      <trkpt lat="44.33332" lon="6.15308">
        <ele>868.2000122</ele>
        <time>2018-08-17T12:37:04Z</time>
      </trkpt>
      <trkpt lat="44.33337" lon="6.15357">
        <ele>865</ele>
        <time>2018-08-17T12:37:14Z</time>
      </trkpt>
      <trkpt lat="44.33341" lon="6.15364">
        <ele>864.4000244</ele>
        <time>2018-08-17T12:37:16Z</time>
      </trkpt>
      <trkpt lat="44.33343" lon="6.15367">
        <ele>864</ele>
        <time>2018-08-17T12:37:17Z</time>
      </trkpt>
      <trkpt lat="44.33348" lon="6.15368">
        <ele>863.5999756</ele>
        <time>2018-08-17T12:37:18Z</time>
      </trkpt>
      <trkpt lat="44.33351" lon="6.1537">
        <ele>863.4000244</ele>
        <time>2018-08-17T12:37:19Z</time>
      </trkpt>
      <trkpt lat="44.33355" lon="6.15371">
        <ele>863.2000122</ele>
        <time>2018-08-17T12:37:20Z</time>
      </trkpt>
      <trkpt lat="44.33359" lon="6.15372">
        <ele>862.7999878</ele>
        <time>2018-08-17T12:37:21Z</time>
      </trkpt>
      <trkpt lat="44.33363" lon="6.15373">
        <ele>862.5999756</ele>
        <time>2018-08-17T12:37:22Z</time>
      </trkpt>
      <trkpt lat="44.33369" lon="6.15375">
        <ele>862.2000122</ele>
        <time>2018-08-17T12:37:24Z</time>
      </trkpt>
      <trkpt lat="44.33371" lon="6.15375">
        <ele>861.7999878</ele>
        <time>2018-08-17T12:37:25Z</time>
      </trkpt>
      <trkpt lat="44.33372" lon="6.15376">
        <ele>861.5999756</ele>
        <time>2018-08-17T12:37:26Z</time>
      </trkpt>
      <trkpt lat="44.33405" lon="6.15391">
        <ele>859.2000122</ele>
        <time>2018-08-17T12:37:36Z</time>
      </trkpt>
      <trkpt lat="44.33429" lon="6.15417">
        <ele>857.2000122</ele>
        <time>2018-08-17T12:37:43Z</time>
      </trkpt>
      <trkpt lat="44.33449" lon="6.15441">
        <ele>855.2000122</ele>
        <time>2018-08-17T12:37:51Z</time>
      </trkpt>
      <trkpt lat="44.3345" lon="6.15446">
        <ele>854.7999878</ele>
        <time>2018-08-17T12:37:52Z</time>
      </trkpt>
      <trkpt lat="44.33449" lon="6.15452">
        <ele>854.5999756</ele>
        <time>2018-08-17T12:37:53Z</time>
      </trkpt>
      <trkpt lat="44.3345" lon="6.15457">
        <ele>854.4000244</ele>
        <time>2018-08-17T12:37:54Z</time>
      </trkpt>
      <trkpt lat="44.33451" lon="6.15463">
        <ele>853.7999878</ele>
        <time>2018-08-17T12:37:55Z</time>
      </trkpt>
      <trkpt lat="44.33452" lon="6.15468">
        <ele>853.5999756</ele>
        <time>2018-08-17T12:37:56Z</time>
      </trkpt>
      <trkpt lat="44.33456" lon="6.15479">
        <ele>853.2000122</ele>
        <time>2018-08-17T12:37:58Z</time>
      </trkpt>
      <trkpt lat="44.33457" lon="6.15484">
        <ele>853.2000122</ele>
        <time>2018-08-17T12:37:59Z</time>
      </trkpt>
      <trkpt lat="44.33459" lon="6.1549">
        <ele>853.2000122</ele>
        <time>2018-08-17T12:38:00Z</time>
      </trkpt>
      <trkpt lat="44.33459" lon="6.15496">
        <ele>853</ele>
        <time>2018-08-17T12:38:01Z</time>
      </trkpt>
      <trkpt lat="44.33459" lon="6.15502">
        <ele>852.5999756</ele>
        <time>2018-08-17T12:38:02Z</time>
      </trkpt>
      <trkpt lat="44.33473" lon="6.15555">
        <ele>850.2000122</ele>
        <time>2018-08-17T12:38:14Z</time>
      </trkpt>
      <trkpt lat="44.33479" lon="6.15566">
        <ele>849.7999878</ele>
        <time>2018-08-17T12:38:25Z</time>
      </trkpt>
      <trkpt lat="44.33476" lon="6.15572">
        <ele>849.7999878</ele>
        <time>2018-08-17T12:39:03Z</time>
      </trkpt>
      <trkpt lat="44.33476" lon="6.15573">
        <ele>849.7999878</ele>
        <time>2018-08-17T12:39:04Z</time>
      </trkpt>
      <trkpt lat="44.33478" lon="6.15575">
        <ele>849.7999878</ele>
        <time>2018-08-17T12:39:05Z</time>
      </trkpt>
      <trkpt lat="44.3348" lon="6.15576">
        <ele>850</ele>
        <time>2018-08-17T12:39:06Z</time>
      </trkpt>
      <trkpt lat="44.33482" lon="6.15576">
        <ele>850</ele>
        <time>2018-08-17T12:39:07Z</time>
      </trkpt>
      <trkpt lat="44.33483" lon="6.15576">
        <ele>850</ele>
        <time>2018-08-17T12:39:08Z</time>
      </trkpt>
      <trkpt lat="44.33486" lon="6.15578">
        <ele>850</ele>
        <time>2018-08-17T12:39:25Z</time>
      </trkpt>
      <trkpt lat="44.33495" lon="6.15586">
        <ele>850.4000244</ele>
        <time>2018-08-17T12:39:41Z</time>
      </trkpt>
      <trkpt lat="44.33505" lon="6.15597">
        <ele>851.4000244</ele>
        <time>2018-08-17T12:40:05Z</time>
      </trkpt>
      <trkpt lat="44.33506" lon="6.156">
        <ele>851.5999756</ele>
        <time>2018-08-17T12:40:06Z</time>
      </trkpt>
      <trkpt lat="44.33511" lon="6.15607">
        <ele>851.5999756</ele>
        <time>2018-08-17T12:40:08Z</time>
      </trkpt>
      <trkpt lat="44.33543" lon="6.15647">
        <ele>851.7999878</ele>
        <time>2018-08-17T12:40:19Z</time>
      </trkpt>
      <trkpt lat="44.33544" lon="6.15653">
        <ele>851.7999878</ele>
        <time>2018-08-17T12:40:20Z</time>
      </trkpt>
      <trkpt lat="44.33546" lon="6.15658">
        <ele>852</ele>
        <time>2018-08-17T12:40:21Z</time>
      </trkpt>
      <trkpt lat="44.33577" lon="6.15715">
        <ele>854.2000122</ele>
        <time>2018-08-17T12:40:34Z</time>
      </trkpt>
      <trkpt lat="44.33586" lon="6.15731">
        <ele>854.7999878</ele>
        <time>2018-08-17T12:40:38Z</time>
      </trkpt>
      <trkpt lat="44.33589" lon="6.15735">
        <ele>855</ele>
        <time>2018-08-17T12:40:39Z</time>
      </trkpt>
      <trkpt lat="44.33589" lon="6.15738">
        <ele>855.4000244</ele>
        <time>2018-08-17T12:40:40Z</time>
      </trkpt>
      <trkpt lat="44.3359" lon="6.15742">
        <ele>855.5999756</ele>
        <time>2018-08-17T12:40:41Z</time>
      </trkpt>
      <trkpt lat="44.33592" lon="6.15745">
        <ele>856</ele>
        <time>2018-08-17T12:40:42Z</time>
      </trkpt>
      <trkpt lat="44.33604" lon="6.1576">
        <ele>857.2000122</ele>
        <time>2018-08-17T12:40:46Z</time>
      </trkpt>
      <trkpt lat="44.33607" lon="6.15763">
        <ele>858</ele>
        <time>2018-08-17T12:40:47Z</time>
      </trkpt>
      <trkpt lat="44.33636" lon="6.15803">
        <ele>860.7999878</ele>
        <time>2018-08-17T12:40:58Z</time>
      </trkpt>
      <trkpt lat="44.3364" lon="6.15816">
        <ele>861.2000122</ele>
        <time>2018-08-17T12:41:00Z</time>
      </trkpt>
      <trkpt lat="44.33652" lon="6.15923">
        <ele>862.4000244</ele>
        <time>2018-08-17T12:41:17Z</time>
      </trkpt>
      <trkpt lat="44.33651" lon="6.15929">
        <ele>862.5999756</ele>
        <time>2018-08-17T12:41:18Z</time>
      </trkpt>
      <trkpt lat="44.33653" lon="6.15948">
        <ele>862.7999878</ele>
        <time>2018-08-17T12:41:21Z</time>
      </trkpt>
      <trkpt lat="44.33659" lon="6.16039">
        <ele>866</ele>
        <time>2018-08-17T12:41:38Z</time>
      </trkpt>
      <trkpt lat="44.33674" lon="6.16093">
        <ele>869.4000244</ele>
        <time>2018-08-17T12:41:50Z</time>
      </trkpt>
      <trkpt lat="44.3369" lon="6.16129">
        <ele>872.7999878</ele>
        <time>2018-08-17T12:42:00Z</time>
      </trkpt>
      <trkpt lat="44.33702" lon="6.16157">
        <ele>876</ele>
        <time>2018-08-17T12:42:08Z</time>
      </trkpt>
      <trkpt lat="44.33722" lon="6.16176">
        <ele>879.4000244</ele>
        <time>2018-08-17T12:42:17Z</time>
      </trkpt>
      <trkpt lat="44.33736" lon="6.16206">
        <ele>882.5999756</ele>
        <time>2018-08-17T12:42:25Z</time>
      </trkpt>
      <trkpt lat="44.33752" lon="6.16242">
        <ele>883</ele>
        <time>2018-08-17T12:42:32Z</time>
      </trkpt>
      <trkpt lat="44.33792" lon="6.16332">
        <ele>882.5999756</ele>
        <time>2018-08-17T12:42:44Z</time>
      </trkpt>
      <trkpt lat="44.33833" lon="6.16448">
        <ele>879.4000244</ele>
        <time>2018-08-17T12:42:54Z</time>
      </trkpt>
      <trkpt lat="44.3385" lon="6.16506">
        <ele>877.7999878</ele>
        <time>2018-08-17T12:42:59Z</time>
      </trkpt>
      <trkpt lat="44.33851" lon="6.16518">
        <ele>877.4000244</ele>
        <time>2018-08-17T12:43:00Z</time>
      </trkpt>
      <trkpt lat="44.33852" lon="6.1653">
        <ele>877.2000122</ele>
        <time>2018-08-17T12:43:01Z</time>
      </trkpt>
      <trkpt lat="44.33852" lon="6.16542">
        <ele>876.7999878</ele>
        <time>2018-08-17T12:43:02Z</time>
      </trkpt>
      <trkpt lat="44.33851" lon="6.16553">
        <ele>876.4000244</ele>
        <time>2018-08-17T12:43:03Z</time>
      </trkpt>
      <trkpt lat="44.3385" lon="6.16564">
        <ele>876.2000122</ele>
        <time>2018-08-17T12:43:04Z</time>
      </trkpt>
      <trkpt lat="44.33826" lon="6.16687">
        <ele>874</ele>
        <time>2018-08-17T12:43:18Z</time>
      </trkpt>
      <trkpt lat="44.33805" lon="6.16796">
        <ele>874.5999756</ele>
        <time>2018-08-17T12:43:34Z</time>
      </trkpt>
      <trkpt lat="44.33801" lon="6.16824">
        <ele>874.5999756</ele>
        <time>2018-08-17T12:43:38Z</time>
      </trkpt>
      <trkpt lat="44.33801" lon="6.1683">
        <ele>874.7999878</ele>
        <time>2018-08-17T12:43:39Z</time>
      </trkpt>
      <trkpt lat="44.33802" lon="6.16837">
        <ele>875</ele>
        <time>2018-08-17T12:43:40Z</time>
      </trkpt>
      <trkpt lat="44.33803" lon="6.16843">
        <ele>875.2000122</ele>
        <time>2018-08-17T12:43:41Z</time>
      </trkpt>
      <trkpt lat="44.33804" lon="6.16849">
        <ele>875.4000244</ele>
        <time>2018-08-17T12:43:42Z</time>
      </trkpt>
      <trkpt lat="44.33805" lon="6.16854">
        <ele>875.4000244</ele>
        <time>2018-08-17T12:43:43Z</time>
      </trkpt>
      <trkpt lat="44.33806" lon="6.1686">
        <ele>875.5999756</ele>
        <time>2018-08-17T12:43:44Z</time>
      </trkpt>
      <trkpt lat="44.33833" lon="6.1691">
        <ele>877.5999756</ele>
        <time>2018-08-17T12:43:57Z</time>
      </trkpt>
      <trkpt lat="44.33835" lon="6.16917">
        <ele>877.7999878</ele>
        <time>2018-08-17T12:43:59Z</time>
      </trkpt>
      <trkpt lat="44.33835" lon="6.16921">
        <ele>878</ele>
        <time>2018-08-17T12:44:00Z</time>
      </trkpt>
      <trkpt lat="44.33822" lon="6.16961">
        <ele>879.2000122</ele>
        <time>2018-08-17T12:44:14Z</time>
      </trkpt>
      <trkpt lat="44.33821" lon="6.16961">
        <ele>879.2000122</ele>
        <time>2018-08-17T12:44:45Z</time>
      </trkpt>
      <trkpt lat="44.3382" lon="6.16962">
        <ele>879.5999756</ele>
        <time>2018-08-17T12:45:30Z</time>
      </trkpt>
    </trkseg>
  </trk>
</gpx>